<?xml version="1.0" encoding="UTF-8" standalone="no" ?>
<gpx xmlns="http://www.topografix.com/GPX/1/1" xmlns:xsi="http://www.w3.org/2001/XMLSchema-instance" xsi:schemaLocation="http://www.topografix.com/GPX/1/1 http://www.topografix.com/GPX/1/1/gpx.xsd" version="1.1" creator="VisuGPX - https://www.visugpx.com">
  <metadata>
    <name>Rando vtt Béruges 2021</name>
    <desc><![CDATA[Balisage pas terrible ! ]]></desc>
  </metadata>
  <trk>
    <name><![CDATA[Rando vtt Béruges 2021_1]]></name>
    <trkseg>
      <trkpt lat="46.56896" lon="0.19715">
        <ele>137</ele>
        <time>2021-11-07T07:29:16Z</time>
      </trkpt>
      <trkpt lat="46.56904" lon="0.19714">
        <ele>136.8</ele>
        <time>2021-11-07T07:29:37Z</time>
      </trkpt>
      <trkpt lat="46.56905" lon="0.19714">
        <ele>137</ele>
        <time>2021-11-07T07:29:39Z</time>
      </trkpt>
      <trkpt lat="46.56909" lon="0.19707">
        <ele>136.8</ele>
        <time>2021-11-07T07:29:43Z</time>
      </trkpt>
      <trkpt lat="46.56909" lon="0.19704">
        <ele>136.8</ele>
        <time>2021-11-07T07:29:44Z</time>
      </trkpt>
      <trkpt lat="46.56907" lon="0.19669">
        <ele>136.8</ele>
        <time>2021-11-07T07:29:52Z</time>
      </trkpt>
      <trkpt lat="46.56905" lon="0.19648">
        <ele>136.6</ele>
        <time>2021-11-07T07:29:56Z</time>
      </trkpt>
      <trkpt lat="46.56904" lon="0.19627">
        <ele>136.2</ele>
        <time>2021-11-07T07:30:00Z</time>
      </trkpt>
      <trkpt lat="46.56904" lon="0.19623">
        <ele>136</ele>
        <time>2021-11-07T07:30:02Z</time>
      </trkpt>
      <trkpt lat="46.56904" lon="0.19622">
        <ele>136</ele>
        <time>2021-11-07T07:30:04Z</time>
      </trkpt>
      <trkpt lat="46.56904" lon="0.19621">
        <ele>135.8</ele>
        <time>2021-11-07T07:30:07Z</time>
      </trkpt>
      <trkpt lat="46.56903" lon="0.1961">
        <ele>136</ele>
        <time>2021-11-07T07:30:11Z</time>
      </trkpt>
      <trkpt lat="46.56908" lon="0.19595">
        <ele>136</ele>
        <time>2021-11-07T07:30:16Z</time>
      </trkpt>
      <trkpt lat="46.56911" lon="0.19592">
        <ele>135.6</ele>
        <time>2021-11-07T07:30:18Z</time>
      </trkpt>
      <trkpt lat="46.56912" lon="0.19586">
        <ele>135.2</ele>
        <time>2021-11-07T07:30:20Z</time>
      </trkpt>
      <trkpt lat="46.56912" lon="0.19581">
        <ele>135.2</ele>
        <time>2021-11-07T07:30:21Z</time>
      </trkpt>
      <trkpt lat="46.56911" lon="0.19562">
        <ele>135</ele>
        <time>2021-11-07T07:30:24Z</time>
      </trkpt>
      <trkpt lat="46.56912" lon="0.19555">
        <ele>135</ele>
        <time>2021-11-07T07:30:25Z</time>
      </trkpt>
      <trkpt lat="46.56915" lon="0.19533">
        <ele>135</ele>
        <time>2021-11-07T07:30:28Z</time>
      </trkpt>
      <trkpt lat="46.56916" lon="0.19526">
        <ele>135</ele>
        <time>2021-11-07T07:30:29Z</time>
      </trkpt>
      <trkpt lat="46.56926" lon="0.19498">
        <ele>135</ele>
        <time>2021-11-07T07:30:33Z</time>
      </trkpt>
      <trkpt lat="46.5693" lon="0.19484">
        <ele>135</ele>
        <time>2021-11-07T07:30:35Z</time>
      </trkpt>
      <trkpt lat="46.56939" lon="0.19439">
        <ele>135.2</ele>
        <time>2021-11-07T07:30:42Z</time>
      </trkpt>
      <trkpt lat="46.56941" lon="0.19436">
        <ele>135.2</ele>
        <time>2021-11-07T07:30:43Z</time>
      </trkpt>
      <trkpt lat="46.56942" lon="0.19435">
        <ele>135.2</ele>
        <time>2021-11-07T07:30:44Z</time>
      </trkpt>
      <trkpt lat="46.56945" lon="0.19435">
        <ele>135.2</ele>
        <time>2021-11-07T07:30:45Z</time>
      </trkpt>
      <trkpt lat="46.5696" lon="0.19438">
        <ele>135</ele>
        <time>2021-11-07T07:30:49Z</time>
      </trkpt>
      <trkpt lat="46.56964" lon="0.19439">
        <ele>135</ele>
        <time>2021-11-07T07:30:50Z</time>
      </trkpt>
      <trkpt lat="46.56972" lon="0.19442">
        <ele>134.8</ele>
        <time>2021-11-07T07:30:52Z</time>
      </trkpt>
      <trkpt lat="46.56975" lon="0.19443">
        <ele>134.8</ele>
        <time>2021-11-07T07:30:53Z</time>
      </trkpt>
      <trkpt lat="46.56978" lon="0.19444">
        <ele>134.4</ele>
        <time>2021-11-07T07:30:55Z</time>
      </trkpt>
      <trkpt lat="46.56978" lon="0.19444">
        <ele>134.2</ele>
        <time>2021-11-07T07:30:56Z</time>
      </trkpt>
      <trkpt lat="46.56981" lon="0.19449">
        <ele>133.8</ele>
        <time>2021-11-07T07:30:59Z</time>
      </trkpt>
      <trkpt lat="46.56983" lon="0.19456">
        <ele>133.8</ele>
        <time>2021-11-07T07:31:01Z</time>
      </trkpt>
      <trkpt lat="46.56991" lon="0.1948">
        <ele>133.6</ele>
        <time>2021-11-07T07:31:05Z</time>
      </trkpt>
      <trkpt lat="46.56998" lon="0.19495">
        <ele>132.8</ele>
        <time>2021-11-07T07:31:07Z</time>
      </trkpt>
      <trkpt lat="46.57007" lon="0.19508">
        <ele>132.2</ele>
        <time>2021-11-07T07:31:09Z</time>
      </trkpt>
      <trkpt lat="46.57012" lon="0.19514">
        <ele>131.8</ele>
        <time>2021-11-07T07:31:10Z</time>
      </trkpt>
      <trkpt lat="46.57018" lon="0.19519">
        <ele>131</ele>
        <time>2021-11-07T07:31:11Z</time>
      </trkpt>
      <trkpt lat="46.57032" lon="0.19524">
        <ele>129.6</ele>
        <time>2021-11-07T07:31:13Z</time>
      </trkpt>
      <trkpt lat="46.57053" lon="0.19526">
        <ele>126.8</ele>
        <time>2021-11-07T07:31:16Z</time>
      </trkpt>
      <trkpt lat="46.5706" lon="0.19527">
        <ele>125.8</ele>
        <time>2021-11-07T07:31:17Z</time>
      </trkpt>
      <trkpt lat="46.57075" lon="0.19526">
        <ele>124.4</ele>
        <time>2021-11-07T07:31:19Z</time>
      </trkpt>
      <trkpt lat="46.57082" lon="0.19525">
        <ele>123.2</ele>
        <time>2021-11-07T07:31:20Z</time>
      </trkpt>
      <trkpt lat="46.57089" lon="0.19524">
        <ele>122.2</ele>
        <time>2021-11-07T07:31:21Z</time>
      </trkpt>
      <trkpt lat="46.57101" lon="0.19522">
        <ele>121</ele>
        <time>2021-11-07T07:31:23Z</time>
      </trkpt>
      <trkpt lat="46.57107" lon="0.19521">
        <ele>120.2</ele>
        <time>2021-11-07T07:31:24Z</time>
      </trkpt>
      <trkpt lat="46.57113" lon="0.19521">
        <ele>119.6</ele>
        <time>2021-11-07T07:31:25Z</time>
      </trkpt>
      <trkpt lat="46.57118" lon="0.19521">
        <ele>118.6</ele>
        <time>2021-11-07T07:31:26Z</time>
      </trkpt>
      <trkpt lat="46.57123" lon="0.19521">
        <ele>117.4</ele>
        <time>2021-11-07T07:31:27Z</time>
      </trkpt>
      <trkpt lat="46.57128" lon="0.1952">
        <ele>116.6</ele>
        <time>2021-11-07T07:31:28Z</time>
      </trkpt>
      <trkpt lat="46.57133" lon="0.1952">
        <ele>115.8</ele>
        <time>2021-11-07T07:31:29Z</time>
      </trkpt>
      <trkpt lat="46.57137" lon="0.19518">
        <ele>114.8</ele>
        <time>2021-11-07T07:31:30Z</time>
      </trkpt>
      <trkpt lat="46.57146" lon="0.19516">
        <ele>113</ele>
        <time>2021-11-07T07:31:32Z</time>
      </trkpt>
      <trkpt lat="46.57151" lon="0.19517">
        <ele>112.2</ele>
        <time>2021-11-07T07:31:33Z</time>
      </trkpt>
      <trkpt lat="46.57156" lon="0.19518">
        <ele>111.2</ele>
        <time>2021-11-07T07:31:34Z</time>
      </trkpt>
      <trkpt lat="46.57162" lon="0.1952">
        <ele>110.4</ele>
        <time>2021-11-07T07:31:35Z</time>
      </trkpt>
      <trkpt lat="46.57172" lon="0.19527">
        <ele>109.6</ele>
        <time>2021-11-07T07:31:36Z</time>
      </trkpt>
      <trkpt lat="46.57182" lon="0.19532">
        <ele>109</ele>
        <time>2021-11-07T07:31:39Z</time>
      </trkpt>
      <trkpt lat="46.57188" lon="0.19535">
        <ele>108.6</ele>
        <time>2021-11-07T07:31:40Z</time>
      </trkpt>
      <trkpt lat="46.57193" lon="0.19538">
        <ele>108.2</ele>
        <time>2021-11-07T07:31:41Z</time>
      </trkpt>
      <trkpt lat="46.57202" lon="0.19544">
        <ele>107.4</ele>
        <time>2021-11-07T07:31:43Z</time>
      </trkpt>
      <trkpt lat="46.57214" lon="0.19558">
        <ele>106.4</ele>
        <time>2021-11-07T07:31:46Z</time>
      </trkpt>
      <trkpt lat="46.57228" lon="0.19573">
        <ele>106.2</ele>
        <time>2021-11-07T07:31:49Z</time>
      </trkpt>
      <trkpt lat="46.57234" lon="0.19583">
        <ele>106.6</ele>
        <time>2021-11-07T07:31:51Z</time>
      </trkpt>
      <trkpt lat="46.57249" lon="0.19603">
        <ele>107.2</ele>
        <time>2021-11-07T07:31:55Z</time>
      </trkpt>
      <trkpt lat="46.57257" lon="0.19613">
        <ele>107</ele>
        <time>2021-11-07T07:31:57Z</time>
      </trkpt>
      <trkpt lat="46.57265" lon="0.19624">
        <ele>107</ele>
        <time>2021-11-07T07:31:59Z</time>
      </trkpt>
      <trkpt lat="46.5728" lon="0.19648">
        <ele>106.8</ele>
        <time>2021-11-07T07:32:03Z</time>
      </trkpt>
      <trkpt lat="46.57284" lon="0.19654">
        <ele>106.8</ele>
        <time>2021-11-07T07:32:04Z</time>
      </trkpt>
      <trkpt lat="46.57296" lon="0.19672">
        <ele>106.8</ele>
        <time>2021-11-07T07:32:07Z</time>
      </trkpt>
      <trkpt lat="46.57299" lon="0.19678">
        <ele>106.6</ele>
        <time>2021-11-07T07:32:08Z</time>
      </trkpt>
      <trkpt lat="46.57316" lon="0.19721">
        <ele>106.4</ele>
        <time>2021-11-07T07:32:14Z</time>
      </trkpt>
      <trkpt lat="46.57319" lon="0.19729">
        <ele>106.6</ele>
        <time>2021-11-07T07:32:15Z</time>
      </trkpt>
      <trkpt lat="46.57325" lon="0.19751">
        <ele>106.6</ele>
        <time>2021-11-07T07:32:18Z</time>
      </trkpt>
      <trkpt lat="46.57328" lon="0.19766">
        <ele>106.4</ele>
        <time>2021-11-07T07:32:20Z</time>
      </trkpt>
      <trkpt lat="46.57334" lon="0.19805">
        <ele>105.4</ele>
        <time>2021-11-07T07:32:26Z</time>
      </trkpt>
      <trkpt lat="46.57334" lon="0.19812">
        <ele>105.2</ele>
        <time>2021-11-07T07:32:27Z</time>
      </trkpt>
      <trkpt lat="46.57335" lon="0.19824">
        <ele>105.4</ele>
        <time>2021-11-07T07:32:29Z</time>
      </trkpt>
      <trkpt lat="46.57335" lon="0.19843">
        <ele>105.4</ele>
        <time>2021-11-07T07:32:31Z</time>
      </trkpt>
      <trkpt lat="46.57336" lon="0.19851">
        <ele>105.6</ele>
        <time>2021-11-07T07:32:32Z</time>
      </trkpt>
      <trkpt lat="46.57337" lon="0.19864">
        <ele>105.6</ele>
        <time>2021-11-07T07:32:34Z</time>
      </trkpt>
      <trkpt lat="46.57342" lon="0.19893">
        <ele>105.8</ele>
        <time>2021-11-07T07:32:37Z</time>
      </trkpt>
      <trkpt lat="46.57344" lon="0.199">
        <ele>106</ele>
        <time>2021-11-07T07:32:38Z</time>
      </trkpt>
      <trkpt lat="46.57354" lon="0.19927">
        <ele>106.6</ele>
        <time>2021-11-07T07:32:42Z</time>
      </trkpt>
      <trkpt lat="46.5736" lon="0.19937">
        <ele>106.6</ele>
        <time>2021-11-07T07:32:44Z</time>
      </trkpt>
      <trkpt lat="46.57364" lon="0.19944">
        <ele>106.8</ele>
        <time>2021-11-07T07:32:46Z</time>
      </trkpt>
      <trkpt lat="46.57366" lon="0.19947">
        <ele>106.8</ele>
        <time>2021-11-07T07:32:47Z</time>
      </trkpt>
      <trkpt lat="46.57376" lon="0.1996">
        <ele>107.4</ele>
        <time>2021-11-07T07:32:51Z</time>
      </trkpt>
      <trkpt lat="46.5738" lon="0.19962">
        <ele>107.4</ele>
        <time>2021-11-07T07:32:52Z</time>
      </trkpt>
      <trkpt lat="46.57394" lon="0.19976">
        <ele>108.4</ele>
        <time>2021-11-07T07:32:57Z</time>
      </trkpt>
      <trkpt lat="46.57397" lon="0.19979">
        <ele>108.6</ele>
        <time>2021-11-07T07:32:58Z</time>
      </trkpt>
      <trkpt lat="46.57406" lon="0.19985">
        <ele>109.6</ele>
        <time>2021-11-07T07:33:01Z</time>
      </trkpt>
      <trkpt lat="46.57413" lon="0.19993">
        <ele>110.2</ele>
        <time>2021-11-07T07:33:04Z</time>
      </trkpt>
      <trkpt lat="46.57421" lon="0.20004">
        <ele>110.8</ele>
        <time>2021-11-07T07:33:08Z</time>
      </trkpt>
      <trkpt lat="46.57423" lon="0.20008">
        <ele>110.8</ele>
        <time>2021-11-07T07:33:09Z</time>
      </trkpt>
      <trkpt lat="46.57435" lon="0.20029">
        <ele>112</ele>
        <time>2021-11-07T07:33:15Z</time>
      </trkpt>
      <trkpt lat="46.57444" lon="0.20045">
        <ele>113</ele>
        <time>2021-11-07T07:33:20Z</time>
      </trkpt>
      <trkpt lat="46.57445" lon="0.20048">
        <ele>113.2</ele>
        <time>2021-11-07T07:33:21Z</time>
      </trkpt>
      <trkpt lat="46.57448" lon="0.20055">
        <ele>113.6</ele>
        <time>2021-11-07T07:33:23Z</time>
      </trkpt>
      <trkpt lat="46.57452" lon="0.20062">
        <ele>114.2</ele>
        <time>2021-11-07T07:33:25Z</time>
      </trkpt>
      <trkpt lat="46.57461" lon="0.20077">
        <ele>115.2</ele>
        <time>2021-11-07T07:33:30Z</time>
      </trkpt>
      <trkpt lat="46.57462" lon="0.20078">
        <ele>115.6</ele>
        <time>2021-11-07T07:33:31Z</time>
      </trkpt>
      <trkpt lat="46.57472" lon="0.20089">
        <ele>116.4</ele>
        <time>2021-11-07T07:33:37Z</time>
      </trkpt>
      <trkpt lat="46.57476" lon="0.20093">
        <ele>116.6</ele>
        <time>2021-11-07T07:33:39Z</time>
      </trkpt>
      <trkpt lat="46.57488" lon="0.20101">
        <ele>117.2</ele>
        <time>2021-11-07T07:33:44Z</time>
      </trkpt>
      <trkpt lat="46.57497" lon="0.20104">
        <ele>117.8</ele>
        <time>2021-11-07T07:33:48Z</time>
      </trkpt>
      <trkpt lat="46.57501" lon="0.20104">
        <ele>118</ele>
        <time>2021-11-07T07:33:50Z</time>
      </trkpt>
      <trkpt lat="46.57518" lon="0.20107">
        <ele>118.6</ele>
        <time>2021-11-07T07:33:57Z</time>
      </trkpt>
      <trkpt lat="46.5752" lon="0.20107">
        <ele>118.8</ele>
        <time>2021-11-07T07:33:58Z</time>
      </trkpt>
      <trkpt lat="46.57522" lon="0.20106">
        <ele>119</ele>
        <time>2021-11-07T07:33:59Z</time>
      </trkpt>
      <trkpt lat="46.57532" lon="0.20103">
        <ele>119.8</ele>
        <time>2021-11-07T07:34:04Z</time>
      </trkpt>
      <trkpt lat="46.57544" lon="0.20099">
        <ele>120.4</ele>
        <time>2021-11-07T07:34:10Z</time>
      </trkpt>
      <trkpt lat="46.57553" lon="0.20099">
        <ele>120.8</ele>
        <time>2021-11-07T07:34:13Z</time>
      </trkpt>
      <trkpt lat="46.57567" lon="0.20098">
        <ele>121.2</ele>
        <time>2021-11-07T07:34:17Z</time>
      </trkpt>
      <trkpt lat="46.57593" lon="0.20102">
        <ele>121.8</ele>
        <time>2021-11-07T07:34:24Z</time>
      </trkpt>
      <trkpt lat="46.57603" lon="0.20103">
        <ele>122</ele>
        <time>2021-11-07T07:34:27Z</time>
      </trkpt>
      <trkpt lat="46.57617" lon="0.20104">
        <ele>122.4</ele>
        <time>2021-11-07T07:34:31Z</time>
      </trkpt>
      <trkpt lat="46.57641" lon="0.20104">
        <ele>123</ele>
        <time>2021-11-07T07:34:37Z</time>
      </trkpt>
      <trkpt lat="46.57645" lon="0.20103">
        <ele>123.4</ele>
        <time>2021-11-07T07:34:38Z</time>
      </trkpt>
      <trkpt lat="46.57664" lon="0.20096">
        <ele>123.8</ele>
        <time>2021-11-07T07:34:43Z</time>
      </trkpt>
      <trkpt lat="46.57668" lon="0.20092">
        <ele>124.4</ele>
        <time>2021-11-07T07:34:45Z</time>
      </trkpt>
      <trkpt lat="46.57675" lon="0.20087">
        <ele>124.8</ele>
        <time>2021-11-07T07:34:47Z</time>
      </trkpt>
      <trkpt lat="46.57682" lon="0.20079">
        <ele>125.6</ele>
        <time>2021-11-07T07:34:50Z</time>
      </trkpt>
      <trkpt lat="46.57687" lon="0.20071">
        <ele>125.8</ele>
        <time>2021-11-07T07:34:53Z</time>
      </trkpt>
      <trkpt lat="46.57699" lon="0.20056">
        <ele>126.6</ele>
        <time>2021-11-07T07:34:59Z</time>
      </trkpt>
      <trkpt lat="46.57703" lon="0.2005">
        <ele>127</ele>
        <time>2021-11-07T07:35:01Z</time>
      </trkpt>
      <trkpt lat="46.5771" lon="0.20043">
        <ele>127.6</ele>
        <time>2021-11-07T07:35:04Z</time>
      </trkpt>
      <trkpt lat="46.57715" lon="0.20037">
        <ele>128.4</ele>
        <time>2021-11-07T07:35:07Z</time>
      </trkpt>
      <trkpt lat="46.57717" lon="0.20035">
        <ele>128.6</ele>
        <time>2021-11-07T07:35:08Z</time>
      </trkpt>
      <trkpt lat="46.57725" lon="0.20029">
        <ele>129.2</ele>
        <time>2021-11-07T07:35:11Z</time>
      </trkpt>
      <trkpt lat="46.5773" lon="0.20027">
        <ele>129.4</ele>
        <time>2021-11-07T07:35:13Z</time>
      </trkpt>
      <trkpt lat="46.57733" lon="0.20024">
        <ele>129.6</ele>
        <time>2021-11-07T07:35:14Z</time>
      </trkpt>
      <trkpt lat="46.57738" lon="0.20018">
        <ele>129.8</ele>
        <time>2021-11-07T07:35:16Z</time>
      </trkpt>
      <trkpt lat="46.57742" lon="0.20014">
        <ele>130.2</ele>
        <time>2021-11-07T07:35:18Z</time>
      </trkpt>
      <trkpt lat="46.57757" lon="0.20002">
        <ele>131.2</ele>
        <time>2021-11-07T07:35:24Z</time>
      </trkpt>
      <trkpt lat="46.57774" lon="0.1999">
        <ele>132.2</ele>
        <time>2021-11-07T07:35:31Z</time>
      </trkpt>
      <trkpt lat="46.57776" lon="0.19988">
        <ele>132.2</ele>
        <time>2021-11-07T07:35:32Z</time>
      </trkpt>
      <trkpt lat="46.57783" lon="0.19983">
        <ele>132.8</ele>
        <time>2021-11-07T07:35:35Z</time>
      </trkpt>
      <trkpt lat="46.57788" lon="0.19981">
        <ele>133.2</ele>
        <time>2021-11-07T07:35:37Z</time>
      </trkpt>
      <trkpt lat="46.57791" lon="0.19979">
        <ele>133.6</ele>
        <time>2021-11-07T07:35:38Z</time>
      </trkpt>
      <trkpt lat="46.578" lon="0.19974">
        <ele>134.4</ele>
        <time>2021-11-07T07:35:42Z</time>
      </trkpt>
      <trkpt lat="46.57807" lon="0.1997">
        <ele>134.8</ele>
        <time>2021-11-07T07:35:45Z</time>
      </trkpt>
      <trkpt lat="46.57822" lon="0.19965">
        <ele>135</ele>
        <time>2021-11-07T07:35:50Z</time>
      </trkpt>
      <trkpt lat="46.57837" lon="0.19959">
        <ele>135.6</ele>
        <time>2021-11-07T07:35:55Z</time>
      </trkpt>
      <trkpt lat="46.57858" lon="0.19953">
        <ele>136</ele>
        <time>2021-11-07T07:36:01Z</time>
      </trkpt>
      <trkpt lat="46.57879" lon="0.19948">
        <ele>136.4</ele>
        <time>2021-11-07T07:36:07Z</time>
      </trkpt>
      <trkpt lat="46.57883" lon="0.19947">
        <ele>136.6</ele>
        <time>2021-11-07T07:36:08Z</time>
      </trkpt>
      <trkpt lat="46.57903" lon="0.19938">
        <ele>137.2</ele>
        <time>2021-11-07T07:36:14Z</time>
      </trkpt>
      <trkpt lat="46.5793" lon="0.1993">
        <ele>137.6</ele>
        <time>2021-11-07T07:36:21Z</time>
      </trkpt>
      <trkpt lat="46.57937" lon="0.19927">
        <ele>137.6</ele>
        <time>2021-11-07T07:36:23Z</time>
      </trkpt>
      <trkpt lat="46.57958" lon="0.19917">
        <ele>138.2</ele>
        <time>2021-11-07T07:36:29Z</time>
      </trkpt>
      <trkpt lat="46.57966" lon="0.19904">
        <ele>138.6</ele>
        <time>2021-11-07T07:36:32Z</time>
      </trkpt>
      <trkpt lat="46.57968" lon="0.19899">
        <ele>139</ele>
        <time>2021-11-07T07:36:33Z</time>
      </trkpt>
      <trkpt lat="46.5797" lon="0.19894">
        <ele>139.2</ele>
        <time>2021-11-07T07:36:34Z</time>
      </trkpt>
      <trkpt lat="46.57977" lon="0.19873">
        <ele>139.6</ele>
        <time>2021-11-07T07:36:38Z</time>
      </trkpt>
      <trkpt lat="46.57985" lon="0.19868">
        <ele>139.2</ele>
        <time>2021-11-07T07:36:40Z</time>
      </trkpt>
      <trkpt lat="46.57989" lon="0.19867">
        <ele>139</ele>
        <time>2021-11-07T07:36:41Z</time>
      </trkpt>
      <trkpt lat="46.57993" lon="0.19865">
        <ele>139</ele>
        <time>2021-11-07T07:36:42Z</time>
      </trkpt>
      <trkpt lat="46.58005" lon="0.1986">
        <ele>139.2</ele>
        <time>2021-11-07T07:36:45Z</time>
      </trkpt>
      <trkpt lat="46.58009" lon="0.19858">
        <ele>139.2</ele>
        <time>2021-11-07T07:36:46Z</time>
      </trkpt>
      <trkpt lat="46.58038" lon="0.19835">
        <ele>139.4</ele>
        <time>2021-11-07T07:36:54Z</time>
      </trkpt>
      <trkpt lat="46.58046" lon="0.19827">
        <ele>139.4</ele>
        <time>2021-11-07T07:36:56Z</time>
      </trkpt>
      <trkpt lat="46.58057" lon="0.19818">
        <ele>139.6</ele>
        <time>2021-11-07T07:36:59Z</time>
      </trkpt>
      <trkpt lat="46.58073" lon="0.198">
        <ele>139.8</ele>
        <time>2021-11-07T07:37:04Z</time>
      </trkpt>
      <trkpt lat="46.58076" lon="0.19796">
        <ele>140</ele>
        <time>2021-11-07T07:37:05Z</time>
      </trkpt>
      <trkpt lat="46.58087" lon="0.19776">
        <ele>140</ele>
        <time>2021-11-07T07:37:09Z</time>
      </trkpt>
      <trkpt lat="46.58091" lon="0.19771">
        <ele>140</ele>
        <time>2021-11-07T07:37:10Z</time>
      </trkpt>
      <trkpt lat="46.58094" lon="0.19766">
        <ele>140</ele>
        <time>2021-11-07T07:37:11Z</time>
      </trkpt>
      <trkpt lat="46.58105" lon="0.19749">
        <ele>140</ele>
        <time>2021-11-07T07:37:14Z</time>
      </trkpt>
      <trkpt lat="46.58111" lon="0.19736">
        <ele>140.2</ele>
        <time>2021-11-07T07:37:16Z</time>
      </trkpt>
      <trkpt lat="46.58122" lon="0.19709">
        <ele>140.4</ele>
        <time>2021-11-07T07:37:20Z</time>
      </trkpt>
      <trkpt lat="46.58134" lon="0.1968">
        <ele>140.2</ele>
        <time>2021-11-07T07:37:25Z</time>
      </trkpt>
      <trkpt lat="46.58136" lon="0.19674">
        <ele>140.2</ele>
        <time>2021-11-07T07:37:26Z</time>
      </trkpt>
      <trkpt lat="46.58145" lon="0.19655">
        <ele>140.2</ele>
        <time>2021-11-07T07:37:29Z</time>
      </trkpt>
      <trkpt lat="46.58152" lon="0.19645">
        <ele>140.2</ele>
        <time>2021-11-07T07:37:31Z</time>
      </trkpt>
      <trkpt lat="46.58172" lon="0.19619">
        <ele>140</ele>
        <time>2021-11-07T07:37:36Z</time>
      </trkpt>
      <trkpt lat="46.58177" lon="0.19615">
        <ele>140</ele>
        <time>2021-11-07T07:37:37Z</time>
      </trkpt>
      <trkpt lat="46.58207" lon="0.19587">
        <ele>139.8</ele>
        <time>2021-11-07T07:37:44Z</time>
      </trkpt>
      <trkpt lat="46.58214" lon="0.19579">
        <ele>139.6</ele>
        <time>2021-11-07T07:37:46Z</time>
      </trkpt>
      <trkpt lat="46.58225" lon="0.19566">
        <ele>139.4</ele>
        <time>2021-11-07T07:37:49Z</time>
      </trkpt>
      <trkpt lat="46.58229" lon="0.19561">
        <ele>139.4</ele>
        <time>2021-11-07T07:37:50Z</time>
      </trkpt>
      <trkpt lat="46.5824" lon="0.19549">
        <ele>139.4</ele>
        <time>2021-11-07T07:37:53Z</time>
      </trkpt>
      <trkpt lat="46.58243" lon="0.19545">
        <ele>139.2</ele>
        <time>2021-11-07T07:37:54Z</time>
      </trkpt>
      <trkpt lat="46.58261" lon="0.19529">
        <ele>139.2</ele>
        <time>2021-11-07T07:37:59Z</time>
      </trkpt>
      <trkpt lat="46.58264" lon="0.19526">
        <ele>139.4</ele>
        <time>2021-11-07T07:38:00Z</time>
      </trkpt>
      <trkpt lat="46.58267" lon="0.19523">
        <ele>139.4</ele>
        <time>2021-11-07T07:38:01Z</time>
      </trkpt>
      <trkpt lat="46.58282" lon="0.19504">
        <ele>139.4</ele>
        <time>2021-11-07T07:38:05Z</time>
      </trkpt>
      <trkpt lat="46.58291" lon="0.19489">
        <ele>139.2</ele>
        <time>2021-11-07T07:38:08Z</time>
      </trkpt>
      <trkpt lat="46.58301" lon="0.19475">
        <ele>139.2</ele>
        <time>2021-11-07T07:38:11Z</time>
      </trkpt>
      <trkpt lat="46.58308" lon="0.19464">
        <ele>139</ele>
        <time>2021-11-07T07:38:13Z</time>
      </trkpt>
      <trkpt lat="46.58314" lon="0.19453">
        <ele>139.4</ele>
        <time>2021-11-07T07:38:15Z</time>
      </trkpt>
      <trkpt lat="46.58317" lon="0.19447">
        <ele>139.4</ele>
        <time>2021-11-07T07:38:16Z</time>
      </trkpt>
      <trkpt lat="46.58341" lon="0.19408">
        <ele>139.2</ele>
        <time>2021-11-07T07:38:23Z</time>
      </trkpt>
      <trkpt lat="46.58362" lon="0.19372">
        <ele>138.6</ele>
        <time>2021-11-07T07:38:29Z</time>
      </trkpt>
      <trkpt lat="46.58372" lon="0.19353">
        <ele>138.4</ele>
        <time>2021-11-07T07:38:32Z</time>
      </trkpt>
      <trkpt lat="46.5838" lon="0.19333">
        <ele>138.2</ele>
        <time>2021-11-07T07:38:35Z</time>
      </trkpt>
      <trkpt lat="46.5839" lon="0.19309">
        <ele>137.6</ele>
        <time>2021-11-07T07:38:39Z</time>
      </trkpt>
      <trkpt lat="46.58395" lon="0.19299">
        <ele>137.4</ele>
        <time>2021-11-07T07:38:41Z</time>
      </trkpt>
      <trkpt lat="46.584" lon="0.19288">
        <ele>137</ele>
        <time>2021-11-07T07:38:43Z</time>
      </trkpt>
      <trkpt lat="46.58406" lon="0.19274">
        <ele>137</ele>
        <time>2021-11-07T07:38:45Z</time>
      </trkpt>
      <trkpt lat="46.58408" lon="0.19267">
        <ele>136.8</ele>
        <time>2021-11-07T07:38:46Z</time>
      </trkpt>
      <trkpt lat="46.58425" lon="0.19233">
        <ele>136.6</ele>
        <time>2021-11-07T07:38:51Z</time>
      </trkpt>
      <trkpt lat="46.58432" lon="0.1922">
        <ele>136.4</ele>
        <time>2021-11-07T07:38:53Z</time>
      </trkpt>
      <trkpt lat="46.58434" lon="0.19214">
        <ele>136.4</ele>
        <time>2021-11-07T07:38:54Z</time>
      </trkpt>
      <trkpt lat="46.58443" lon="0.19193">
        <ele>136.2</ele>
        <time>2021-11-07T07:38:58Z</time>
      </trkpt>
      <trkpt lat="46.58452" lon="0.19176">
        <ele>135.4</ele>
        <time>2021-11-07T07:39:03Z</time>
      </trkpt>
      <trkpt lat="46.58452" lon="0.19163">
        <ele>135.4</ele>
        <time>2021-11-07T07:39:10Z</time>
      </trkpt>
      <trkpt lat="46.58454" lon="0.19159">
        <ele>135</ele>
        <time>2021-11-07T07:39:25Z</time>
      </trkpt>
      <trkpt lat="46.58457" lon="0.19141">
        <ele>135</ele>
        <time>2021-11-07T07:39:30Z</time>
      </trkpt>
      <trkpt lat="46.58457" lon="0.19135">
        <ele>135</ele>
        <time>2021-11-07T07:39:31Z</time>
      </trkpt>
      <trkpt lat="46.58457" lon="0.19123">
        <ele>135</ele>
        <time>2021-11-07T07:39:33Z</time>
      </trkpt>
      <trkpt lat="46.58459" lon="0.19112">
        <ele>135.6</ele>
        <time>2021-11-07T07:39:35Z</time>
      </trkpt>
      <trkpt lat="46.58462" lon="0.19103">
        <ele>135.8</ele>
        <time>2021-11-07T07:39:37Z</time>
      </trkpt>
      <trkpt lat="46.58465" lon="0.19098">
        <ele>135.6</ele>
        <time>2021-11-07T07:39:39Z</time>
      </trkpt>
      <trkpt lat="46.58468" lon="0.1909">
        <ele>135.4</ele>
        <time>2021-11-07T07:39:43Z</time>
      </trkpt>
      <trkpt lat="46.58467" lon="0.19087">
        <ele>135.4</ele>
        <time>2021-11-07T07:39:44Z</time>
      </trkpt>
      <trkpt lat="46.58459" lon="0.19072">
        <ele>135.6</ele>
        <time>2021-11-07T07:39:48Z</time>
      </trkpt>
      <trkpt lat="46.58438" lon="0.19045">
        <ele>136.2</ele>
        <time>2021-11-07T07:39:55Z</time>
      </trkpt>
      <trkpt lat="46.58428" lon="0.19033">
        <ele>136.4</ele>
        <time>2021-11-07T07:39:58Z</time>
      </trkpt>
      <trkpt lat="46.58417" lon="0.19016">
        <ele>137</ele>
        <time>2021-11-07T07:40:02Z</time>
      </trkpt>
      <trkpt lat="46.58396" lon="0.18989">
        <ele>137.4</ele>
        <time>2021-11-07T07:40:08Z</time>
      </trkpt>
      <trkpt lat="46.58389" lon="0.18979">
        <ele>137.6</ele>
        <time>2021-11-07T07:40:10Z</time>
      </trkpt>
      <trkpt lat="46.58369" lon="0.18954">
        <ele>137.6</ele>
        <time>2021-11-07T07:40:15Z</time>
      </trkpt>
      <trkpt lat="46.58341" lon="0.18918">
        <ele>137.8</ele>
        <time>2021-11-07T07:40:22Z</time>
      </trkpt>
      <trkpt lat="46.58316" lon="0.1888">
        <ele>137.4</ele>
        <time>2021-11-07T07:40:28Z</time>
      </trkpt>
      <trkpt lat="46.58299" lon="0.18831">
        <ele>137</ele>
        <time>2021-11-07T07:40:34Z</time>
      </trkpt>
      <trkpt lat="46.58295" lon="0.18814">
        <ele>136.6</ele>
        <time>2021-11-07T07:40:36Z</time>
      </trkpt>
      <trkpt lat="46.58293" lon="0.18805">
        <ele>136.4</ele>
        <time>2021-11-07T07:40:37Z</time>
      </trkpt>
      <trkpt lat="46.58291" lon="0.18787">
        <ele>136.2</ele>
        <time>2021-11-07T07:40:39Z</time>
      </trkpt>
      <trkpt lat="46.58291" lon="0.18761">
        <ele>135.6</ele>
        <time>2021-11-07T07:40:42Z</time>
      </trkpt>
      <trkpt lat="46.58289" lon="0.18754">
        <ele>135.4</ele>
        <time>2021-11-07T07:40:43Z</time>
      </trkpt>
      <trkpt lat="46.58286" lon="0.18751">
        <ele>135</ele>
        <time>2021-11-07T07:40:44Z</time>
      </trkpt>
      <trkpt lat="46.58278" lon="0.18752">
        <ele>134.6</ele>
        <time>2021-11-07T07:40:46Z</time>
      </trkpt>
      <trkpt lat="46.5827" lon="0.18759">
        <ele>134.6</ele>
        <time>2021-11-07T07:40:48Z</time>
      </trkpt>
      <trkpt lat="46.58265" lon="0.18769">
        <ele>134.6</ele>
        <time>2021-11-07T07:40:50Z</time>
      </trkpt>
      <trkpt lat="46.58248" lon="0.188">
        <ele>135.2</ele>
        <time>2021-11-07T07:40:56Z</time>
      </trkpt>
      <trkpt lat="46.58244" lon="0.18805">
        <ele>135.2</ele>
        <time>2021-11-07T07:40:57Z</time>
      </trkpt>
      <trkpt lat="46.58236" lon="0.18813">
        <ele>135.2</ele>
        <time>2021-11-07T07:40:59Z</time>
      </trkpt>
      <trkpt lat="46.58219" lon="0.1883">
        <ele>135.6</ele>
        <time>2021-11-07T07:41:03Z</time>
      </trkpt>
      <trkpt lat="46.58207" lon="0.18846">
        <ele>135.8</ele>
        <time>2021-11-07T07:41:06Z</time>
      </trkpt>
      <trkpt lat="46.58197" lon="0.18863">
        <ele>136</ele>
        <time>2021-11-07T07:41:09Z</time>
      </trkpt>
      <trkpt lat="46.58178" lon="0.18888">
        <ele>136</ele>
        <time>2021-11-07T07:41:14Z</time>
      </trkpt>
      <trkpt lat="46.58174" lon="0.18892">
        <ele>136</ele>
        <time>2021-11-07T07:41:15Z</time>
      </trkpt>
      <trkpt lat="46.58141" lon="0.18916">
        <ele>136.2</ele>
        <time>2021-11-07T07:41:22Z</time>
      </trkpt>
      <trkpt lat="46.5811" lon="0.18931">
        <ele>136</ele>
        <time>2021-11-07T07:41:28Z</time>
      </trkpt>
      <trkpt lat="46.58095" lon="0.1894">
        <ele>135.6</ele>
        <time>2021-11-07T07:41:31Z</time>
      </trkpt>
      <trkpt lat="46.58085" lon="0.18949">
        <ele>135.6</ele>
        <time>2021-11-07T07:41:33Z</time>
      </trkpt>
      <trkpt lat="46.58072" lon="0.18965">
        <ele>135.6</ele>
        <time>2021-11-07T07:41:36Z</time>
      </trkpt>
      <trkpt lat="46.58058" lon="0.18982">
        <ele>135.4</ele>
        <time>2021-11-07T07:41:39Z</time>
      </trkpt>
      <trkpt lat="46.58049" lon="0.18985">
        <ele>135</ele>
        <time>2021-11-07T07:41:41Z</time>
      </trkpt>
      <trkpt lat="46.58044" lon="0.18982">
        <ele>134.8</ele>
        <time>2021-11-07T07:41:42Z</time>
      </trkpt>
      <trkpt lat="46.58016" lon="0.18953">
        <ele>134.6</ele>
        <time>2021-11-07T07:41:48Z</time>
      </trkpt>
      <trkpt lat="46.58" lon="0.18939">
        <ele>134.2</ele>
        <time>2021-11-07T07:41:51Z</time>
      </trkpt>
      <trkpt lat="46.57969" lon="0.18905">
        <ele>133</ele>
        <time>2021-11-07T07:41:57Z</time>
      </trkpt>
      <trkpt lat="46.57957" lon="0.18886">
        <ele>132.6</ele>
        <time>2021-11-07T07:42:00Z</time>
      </trkpt>
      <trkpt lat="46.57954" lon="0.18881">
        <ele>132.4</ele>
        <time>2021-11-07T07:42:01Z</time>
      </trkpt>
      <trkpt lat="46.57952" lon="0.18877">
        <ele>131.8</ele>
        <time>2021-11-07T07:42:02Z</time>
      </trkpt>
      <trkpt lat="46.5795" lon="0.18874">
        <ele>131.6</ele>
        <time>2021-11-07T07:42:03Z</time>
      </trkpt>
      <trkpt lat="46.57947" lon="0.18874">
        <ele>131.4</ele>
        <time>2021-11-07T07:42:04Z</time>
      </trkpt>
      <trkpt lat="46.57942" lon="0.18883">
        <ele>130.6</ele>
        <time>2021-11-07T07:42:07Z</time>
      </trkpt>
      <trkpt lat="46.5794" lon="0.18886">
        <ele>130.4</ele>
        <time>2021-11-07T07:42:08Z</time>
      </trkpt>
      <trkpt lat="46.57932" lon="0.18902">
        <ele>130</ele>
        <time>2021-11-07T07:42:13Z</time>
      </trkpt>
      <trkpt lat="46.57926" lon="0.18908">
        <ele>129.6</ele>
        <time>2021-11-07T07:42:16Z</time>
      </trkpt>
      <trkpt lat="46.57924" lon="0.18909">
        <ele>129.4</ele>
        <time>2021-11-07T07:42:17Z</time>
      </trkpt>
      <trkpt lat="46.57908" lon="0.18909">
        <ele>128.4</ele>
        <time>2021-11-07T07:42:21Z</time>
      </trkpt>
      <trkpt lat="46.57901" lon="0.1891">
        <ele>127.4</ele>
        <time>2021-11-07T07:42:23Z</time>
      </trkpt>
      <trkpt lat="46.57894" lon="0.18917">
        <ele>126.2</ele>
        <time>2021-11-07T07:42:26Z</time>
      </trkpt>
      <trkpt lat="46.57888" lon="0.1891">
        <ele>125.4</ele>
        <time>2021-11-07T07:42:29Z</time>
      </trkpt>
      <trkpt lat="46.57886" lon="0.18906">
        <ele>125.2</ele>
        <time>2021-11-07T07:42:30Z</time>
      </trkpt>
      <trkpt lat="46.57885" lon="0.18902">
        <ele>124.8</ele>
        <time>2021-11-07T07:42:31Z</time>
      </trkpt>
      <trkpt lat="46.57879" lon="0.18895">
        <ele>124.6</ele>
        <time>2021-11-07T07:42:33Z</time>
      </trkpt>
      <trkpt lat="46.57877" lon="0.18892">
        <ele>124.4</ele>
        <time>2021-11-07T07:42:34Z</time>
      </trkpt>
      <trkpt lat="46.57876" lon="0.18887">
        <ele>124.4</ele>
        <time>2021-11-07T07:42:36Z</time>
      </trkpt>
      <trkpt lat="46.57876" lon="0.18882">
        <ele>124.2</ele>
        <time>2021-11-07T07:42:38Z</time>
      </trkpt>
      <trkpt lat="46.57872" lon="0.18879">
        <ele>123.8</ele>
        <time>2021-11-07T07:42:39Z</time>
      </trkpt>
      <trkpt lat="46.57872" lon="0.18879">
        <ele>123.8</ele>
        <time>2021-11-07T07:42:40Z</time>
      </trkpt>
      <trkpt lat="46.57867" lon="0.18874">
        <ele>123</ele>
        <time>2021-11-07T07:42:43Z</time>
      </trkpt>
      <trkpt lat="46.57863" lon="0.18873">
        <ele>123</ele>
        <time>2021-11-07T07:42:45Z</time>
      </trkpt>
      <trkpt lat="46.57862" lon="0.1887">
        <ele>123</ele>
        <time>2021-11-07T07:42:46Z</time>
      </trkpt>
      <trkpt lat="46.5786" lon="0.18864">
        <ele>123.2</ele>
        <time>2021-11-07T07:42:48Z</time>
      </trkpt>
      <trkpt lat="46.57853" lon="0.18861">
        <ele>123.4</ele>
        <time>2021-11-07T07:42:50Z</time>
      </trkpt>
      <trkpt lat="46.57842" lon="0.18861">
        <ele>122.2</ele>
        <time>2021-11-07T07:42:52Z</time>
      </trkpt>
      <trkpt lat="46.57837" lon="0.18859">
        <ele>121.4</ele>
        <time>2021-11-07T07:42:53Z</time>
      </trkpt>
      <trkpt lat="46.57833" lon="0.18858">
        <ele>120.8</ele>
        <time>2021-11-07T07:42:54Z</time>
      </trkpt>
      <trkpt lat="46.57831" lon="0.18851">
        <ele>119.6</ele>
        <time>2021-11-07T07:42:56Z</time>
      </trkpt>
      <trkpt lat="46.57833" lon="0.18837">
        <ele>119.4</ele>
        <time>2021-11-07T07:43:00Z</time>
      </trkpt>
      <trkpt lat="46.57835" lon="0.18835">
        <ele>119.4</ele>
        <time>2021-11-07T07:43:01Z</time>
      </trkpt>
      <trkpt lat="46.57837" lon="0.18832">
        <ele>120.6</ele>
        <time>2021-11-07T07:43:03Z</time>
      </trkpt>
      <trkpt lat="46.57838" lon="0.18832">
        <ele>121</ele>
        <time>2021-11-07T07:43:04Z</time>
      </trkpt>
      <trkpt lat="46.5784" lon="0.18834">
        <ele>121.4</ele>
        <time>2021-11-07T07:43:06Z</time>
      </trkpt>
      <trkpt lat="46.57844" lon="0.18835">
        <ele>121.6</ele>
        <time>2021-11-07T07:43:08Z</time>
      </trkpt>
      <trkpt lat="46.57847" lon="0.1883">
        <ele>120.6</ele>
        <time>2021-11-07T07:43:10Z</time>
      </trkpt>
      <trkpt lat="46.57849" lon="0.18807">
        <ele>120.2</ele>
        <time>2021-11-07T07:43:17Z</time>
      </trkpt>
      <trkpt lat="46.57848" lon="0.18805">
        <ele>120.2</ele>
        <time>2021-11-07T07:43:18Z</time>
      </trkpt>
      <trkpt lat="46.57842" lon="0.18804">
        <ele>120.6</ele>
        <time>2021-11-07T07:43:21Z</time>
      </trkpt>
      <trkpt lat="46.57833" lon="0.18795">
        <ele>120.2</ele>
        <time>2021-11-07T07:43:25Z</time>
      </trkpt>
      <trkpt lat="46.57831" lon="0.18792">
        <ele>119.2</ele>
        <time>2021-11-07T07:43:26Z</time>
      </trkpt>
      <trkpt lat="46.57831" lon="0.18789">
        <ele>117.6</ele>
        <time>2021-11-07T07:43:28Z</time>
      </trkpt>
      <trkpt lat="46.57833" lon="0.18787">
        <ele>117</ele>
        <time>2021-11-07T07:43:30Z</time>
      </trkpt>
      <trkpt lat="46.57837" lon="0.18784">
        <ele>117</ele>
        <time>2021-11-07T07:43:33Z</time>
      </trkpt>
      <trkpt lat="46.57839" lon="0.18779">
        <ele>116.8</ele>
        <time>2021-11-07T07:43:37Z</time>
      </trkpt>
      <trkpt lat="46.57838" lon="0.18775">
        <ele>116.8</ele>
        <time>2021-11-07T07:43:38Z</time>
      </trkpt>
      <trkpt lat="46.57833" lon="0.18769">
        <ele>116.6</ele>
        <time>2021-11-07T07:43:41Z</time>
      </trkpt>
      <trkpt lat="46.57832" lon="0.18769">
        <ele>116.8</ele>
        <time>2021-11-07T07:43:42Z</time>
      </trkpt>
      <trkpt lat="46.57831" lon="0.1877">
        <ele>116.6</ele>
        <time>2021-11-07T07:43:43Z</time>
      </trkpt>
      <trkpt lat="46.57828" lon="0.18774">
        <ele>116.6</ele>
        <time>2021-11-07T07:43:47Z</time>
      </trkpt>
      <trkpt lat="46.57827" lon="0.18775">
        <ele>116.6</ele>
        <time>2021-11-07T07:43:48Z</time>
      </trkpt>
      <trkpt lat="46.57823" lon="0.18776">
        <ele>116.4</ele>
        <time>2021-11-07T07:43:50Z</time>
      </trkpt>
      <trkpt lat="46.57816" lon="0.18785">
        <ele>116.2</ele>
        <time>2021-11-07T07:43:56Z</time>
      </trkpt>
      <trkpt lat="46.57814" lon="0.18786">
        <ele>116</ele>
        <time>2021-11-07T07:43:57Z</time>
      </trkpt>
      <trkpt lat="46.57811" lon="0.18791">
        <ele>115.8</ele>
        <time>2021-11-07T07:44:00Z</time>
      </trkpt>
      <trkpt lat="46.57816" lon="0.188">
        <ele>116.2</ele>
        <time>2021-11-07T07:44:04Z</time>
      </trkpt>
      <trkpt lat="46.57817" lon="0.18802">
        <ele>116.2</ele>
        <time>2021-11-07T07:44:05Z</time>
      </trkpt>
      <trkpt lat="46.57817" lon="0.18812">
        <ele>116.6</ele>
        <time>2021-11-07T07:44:07Z</time>
      </trkpt>
      <trkpt lat="46.57814" lon="0.18822">
        <ele>117.4</ele>
        <time>2021-11-07T07:44:10Z</time>
      </trkpt>
      <trkpt lat="46.57812" lon="0.18824">
        <ele>117.6</ele>
        <time>2021-11-07T07:44:11Z</time>
      </trkpt>
      <trkpt lat="46.57811" lon="0.18827">
        <ele>117.8</ele>
        <time>2021-11-07T07:44:12Z</time>
      </trkpt>
      <trkpt lat="46.5781" lon="0.1883">
        <ele>117.8</ele>
        <time>2021-11-07T07:44:13Z</time>
      </trkpt>
      <trkpt lat="46.57812" lon="0.18838">
        <ele>117</ele>
        <time>2021-11-07T07:44:15Z</time>
      </trkpt>
      <trkpt lat="46.57818" lon="0.18854">
        <ele>116.8</ele>
        <time>2021-11-07T07:44:20Z</time>
      </trkpt>
      <trkpt lat="46.57818" lon="0.18856">
        <ele>116.8</ele>
        <time>2021-11-07T07:44:21Z</time>
      </trkpt>
      <trkpt lat="46.57819" lon="0.18861">
        <ele>117.4</ele>
        <time>2021-11-07T07:44:24Z</time>
      </trkpt>
      <trkpt lat="46.57824" lon="0.1888">
        <ele>117</ele>
        <time>2021-11-07T07:44:30Z</time>
      </trkpt>
      <trkpt lat="46.57828" lon="0.18889">
        <ele>117</ele>
        <time>2021-11-07T07:44:34Z</time>
      </trkpt>
      <trkpt lat="46.57831" lon="0.18889">
        <ele>117.4</ele>
        <time>2021-11-07T07:44:36Z</time>
      </trkpt>
      <trkpt lat="46.57836" lon="0.18885">
        <ele>118.6</ele>
        <time>2021-11-07T07:44:40Z</time>
      </trkpt>
      <trkpt lat="46.57838" lon="0.18886">
        <ele>119</ele>
        <time>2021-11-07T07:44:41Z</time>
      </trkpt>
      <trkpt lat="46.57839" lon="0.18887">
        <ele>119.4</ele>
        <time>2021-11-07T07:44:42Z</time>
      </trkpt>
      <trkpt lat="46.57844" lon="0.18896">
        <ele>119.8</ele>
        <time>2021-11-07T07:44:45Z</time>
      </trkpt>
      <trkpt lat="46.57846" lon="0.18919">
        <ele>119.6</ele>
        <time>2021-11-07T07:44:51Z</time>
      </trkpt>
      <trkpt lat="46.57846" lon="0.18919">
        <ele>120</ele>
        <time>2021-11-07T07:44:53Z</time>
      </trkpt>
      <trkpt lat="46.57855" lon="0.18943">
        <ele>121</ele>
        <time>2021-11-07T07:44:57Z</time>
      </trkpt>
      <trkpt lat="46.57865" lon="0.18971">
        <ele>122</ele>
        <time>2021-11-07T07:45:05Z</time>
      </trkpt>
      <trkpt lat="46.57873" lon="0.18985">
        <ele>122.2</ele>
        <time>2021-11-07T07:45:09Z</time>
      </trkpt>
      <trkpt lat="46.57879" lon="0.18995">
        <ele>122.4</ele>
        <time>2021-11-07T07:45:12Z</time>
      </trkpt>
      <trkpt lat="46.57889" lon="0.19007">
        <ele>122.8</ele>
        <time>2021-11-07T07:45:17Z</time>
      </trkpt>
      <trkpt lat="46.57898" lon="0.19022">
        <ele>123.4</ele>
        <time>2021-11-07T07:45:22Z</time>
      </trkpt>
      <trkpt lat="46.57903" lon="0.1903">
        <ele>123.8</ele>
        <time>2021-11-07T07:45:24Z</time>
      </trkpt>
      <trkpt lat="46.57913" lon="0.19047">
        <ele>124.4</ele>
        <time>2021-11-07T07:45:29Z</time>
      </trkpt>
      <trkpt lat="46.57928" lon="0.19067">
        <ele>125</ele>
        <time>2021-11-07T07:45:35Z</time>
      </trkpt>
      <trkpt lat="46.57945" lon="0.19088">
        <ele>125</ele>
        <time>2021-11-07T07:45:41Z</time>
      </trkpt>
      <trkpt lat="46.57956" lon="0.19105">
        <ele>125.4</ele>
        <time>2021-11-07T07:45:46Z</time>
      </trkpt>
      <trkpt lat="46.57959" lon="0.19109">
        <ele>125.4</ele>
        <time>2021-11-07T07:45:47Z</time>
      </trkpt>
      <trkpt lat="46.57963" lon="0.19118">
        <ele>125.6</ele>
        <time>2021-11-07T07:45:49Z</time>
      </trkpt>
      <trkpt lat="46.57973" lon="0.19136">
        <ele>125.8</ele>
        <time>2021-11-07T07:45:53Z</time>
      </trkpt>
      <trkpt lat="46.57991" lon="0.19164">
        <ele>126.6</ele>
        <time>2021-11-07T07:46:01Z</time>
      </trkpt>
      <trkpt lat="46.58003" lon="0.19186">
        <ele>127.6</ele>
        <time>2021-11-07T07:46:07Z</time>
      </trkpt>
      <trkpt lat="46.58016" lon="0.19203">
        <ele>128.6</ele>
        <time>2021-11-07T07:46:12Z</time>
      </trkpt>
      <trkpt lat="46.58022" lon="0.19211">
        <ele>128.8</ele>
        <time>2021-11-07T07:46:14Z</time>
      </trkpt>
      <trkpt lat="46.58035" lon="0.19225">
        <ele>129.6</ele>
        <time>2021-11-07T07:46:18Z</time>
      </trkpt>
      <trkpt lat="46.58039" lon="0.19228">
        <ele>130</ele>
        <time>2021-11-07T07:46:19Z</time>
      </trkpt>
      <trkpt lat="46.58063" lon="0.19242">
        <ele>131</ele>
        <time>2021-11-07T07:46:26Z</time>
      </trkpt>
      <trkpt lat="46.58066" lon="0.19244">
        <ele>131.2</ele>
        <time>2021-11-07T07:46:27Z</time>
      </trkpt>
      <trkpt lat="46.58088" lon="0.19256">
        <ele>132.2</ele>
        <time>2021-11-07T07:46:34Z</time>
      </trkpt>
      <trkpt lat="46.58092" lon="0.19257">
        <ele>132.4</ele>
        <time>2021-11-07T07:46:35Z</time>
      </trkpt>
      <trkpt lat="46.58109" lon="0.1927">
        <ele>133.4</ele>
        <time>2021-11-07T07:46:41Z</time>
      </trkpt>
      <trkpt lat="46.58115" lon="0.19276">
        <ele>133.8</ele>
        <time>2021-11-07T07:46:43Z</time>
      </trkpt>
      <trkpt lat="46.58122" lon="0.19286">
        <ele>134.4</ele>
        <time>2021-11-07T07:46:46Z</time>
      </trkpt>
      <trkpt lat="46.58135" lon="0.19305">
        <ele>135.2</ele>
        <time>2021-11-07T07:46:51Z</time>
      </trkpt>
      <trkpt lat="46.58138" lon="0.19309">
        <ele>135.6</ele>
        <time>2021-11-07T07:46:52Z</time>
      </trkpt>
      <trkpt lat="46.58157" lon="0.1933">
        <ele>136.2</ele>
        <time>2021-11-07T07:46:58Z</time>
      </trkpt>
      <trkpt lat="46.58171" lon="0.19344">
        <ele>136.4</ele>
        <time>2021-11-07T07:47:02Z</time>
      </trkpt>
      <trkpt lat="46.58177" lon="0.19353">
        <ele>136.6</ele>
        <time>2021-11-07T07:47:04Z</time>
      </trkpt>
      <trkpt lat="46.5818" lon="0.19357">
        <ele>136.6</ele>
        <time>2021-11-07T07:47:05Z</time>
      </trkpt>
      <trkpt lat="46.58202" lon="0.19399">
        <ele>137.4</ele>
        <time>2021-11-07T07:47:13Z</time>
      </trkpt>
      <trkpt lat="46.58207" lon="0.19409">
        <ele>137.6</ele>
        <time>2021-11-07T07:47:15Z</time>
      </trkpt>
      <trkpt lat="46.58224" lon="0.19433">
        <ele>137.8</ele>
        <time>2021-11-07T07:47:20Z</time>
      </trkpt>
      <trkpt lat="46.58256" lon="0.19474">
        <ele>138.4</ele>
        <time>2021-11-07T07:47:30Z</time>
      </trkpt>
      <trkpt lat="46.58279" lon="0.19499">
        <ele>138.4</ele>
        <time>2021-11-07T07:47:37Z</time>
      </trkpt>
      <trkpt lat="46.58283" lon="0.19499">
        <ele>138.4</ele>
        <time>2021-11-07T07:47:38Z</time>
      </trkpt>
      <trkpt lat="46.58287" lon="0.19498">
        <ele>138.6</ele>
        <time>2021-11-07T07:47:39Z</time>
      </trkpt>
      <trkpt lat="46.5829" lon="0.19494">
        <ele>138.6</ele>
        <time>2021-11-07T07:47:40Z</time>
      </trkpt>
      <trkpt lat="46.58294" lon="0.19489">
        <ele>138.6</ele>
        <time>2021-11-07T07:47:41Z</time>
      </trkpt>
      <trkpt lat="46.58308" lon="0.19467">
        <ele>138.8</ele>
        <time>2021-11-07T07:47:46Z</time>
      </trkpt>
      <trkpt lat="46.58328" lon="0.19428">
        <ele>138.6</ele>
        <time>2021-11-07T07:47:53Z</time>
      </trkpt>
      <trkpt lat="46.5835" lon="0.19389">
        <ele>138.2</ele>
        <time>2021-11-07T07:48:00Z</time>
      </trkpt>
      <trkpt lat="46.58369" lon="0.1935">
        <ele>137.6</ele>
        <time>2021-11-07T07:48:06Z</time>
      </trkpt>
      <trkpt lat="46.58389" lon="0.19307">
        <ele>137.2</ele>
        <time>2021-11-07T07:48:12Z</time>
      </trkpt>
      <trkpt lat="46.58394" lon="0.19294">
        <ele>137</ele>
        <time>2021-11-07T07:48:14Z</time>
      </trkpt>
      <trkpt lat="46.58406" lon="0.19263">
        <ele>136.8</ele>
        <time>2021-11-07T07:48:18Z</time>
      </trkpt>
      <trkpt lat="46.58412" lon="0.19247">
        <ele>136.4</ele>
        <time>2021-11-07T07:48:20Z</time>
      </trkpt>
      <trkpt lat="46.58415" lon="0.1924">
        <ele>136.2</ele>
        <time>2021-11-07T07:48:21Z</time>
      </trkpt>
      <trkpt lat="46.58425" lon="0.19218">
        <ele>136</ele>
        <time>2021-11-07T07:48:24Z</time>
      </trkpt>
      <trkpt lat="46.58442" lon="0.19182">
        <ele>135.6</ele>
        <time>2021-11-07T07:48:30Z</time>
      </trkpt>
      <trkpt lat="46.58444" lon="0.19179">
        <ele>135.6</ele>
        <time>2021-11-07T07:48:31Z</time>
      </trkpt>
      <trkpt lat="46.58446" lon="0.19179">
        <ele>135.4</ele>
        <time>2021-11-07T07:48:33Z</time>
      </trkpt>
      <trkpt lat="46.58457" lon="0.19195">
        <ele>136</ele>
        <time>2021-11-07T07:48:38Z</time>
      </trkpt>
      <trkpt lat="46.5846" lon="0.192">
        <ele>136</ele>
        <time>2021-11-07T07:48:39Z</time>
      </trkpt>
      <trkpt lat="46.58467" lon="0.19224">
        <ele>136.2</ele>
        <time>2021-11-07T07:48:43Z</time>
      </trkpt>
      <trkpt lat="46.58469" lon="0.19231">
        <ele>136.2</ele>
        <time>2021-11-07T07:48:44Z</time>
      </trkpt>
      <trkpt lat="46.58475" lon="0.19243">
        <ele>136.2</ele>
        <time>2021-11-07T07:48:46Z</time>
      </trkpt>
      <trkpt lat="46.5848" lon="0.19254">
        <ele>136.2</ele>
        <time>2021-11-07T07:48:48Z</time>
      </trkpt>
      <trkpt lat="46.58487" lon="0.19265">
        <ele>136.2</ele>
        <time>2021-11-07T07:48:49Z</time>
      </trkpt>
      <trkpt lat="46.58494" lon="0.19272">
        <ele>136</ele>
        <time>2021-11-07T07:48:52Z</time>
      </trkpt>
      <trkpt lat="46.58502" lon="0.19281">
        <ele>136.2</ele>
        <time>2021-11-07T07:48:54Z</time>
      </trkpt>
      <trkpt lat="46.58513" lon="0.19295">
        <ele>136.2</ele>
        <time>2021-11-07T07:48:57Z</time>
      </trkpt>
      <trkpt lat="46.58524" lon="0.19307">
        <ele>136.2</ele>
        <time>2021-11-07T07:49:00Z</time>
      </trkpt>
      <trkpt lat="46.58535" lon="0.19315">
        <ele>135.8</ele>
        <time>2021-11-07T07:49:03Z</time>
      </trkpt>
      <trkpt lat="46.58556" lon="0.19338">
        <ele>136.2</ele>
        <time>2021-11-07T07:49:09Z</time>
      </trkpt>
      <trkpt lat="46.58573" lon="0.19369">
        <ele>135.8</ele>
        <time>2021-11-07T07:49:15Z</time>
      </trkpt>
      <trkpt lat="46.58593" lon="0.19414">
        <ele>136.6</ele>
        <time>2021-11-07T07:49:22Z</time>
      </trkpt>
      <trkpt lat="46.58608" lon="0.19447">
        <ele>137.2</ele>
        <time>2021-11-07T07:49:28Z</time>
      </trkpt>
      <trkpt lat="46.58614" lon="0.19461">
        <ele>137.2</ele>
        <time>2021-11-07T07:49:30Z</time>
      </trkpt>
      <trkpt lat="46.58619" lon="0.19475">
        <ele>137</ele>
        <time>2021-11-07T07:49:32Z</time>
      </trkpt>
      <trkpt lat="46.58621" lon="0.1949">
        <ele>136.8</ele>
        <time>2021-11-07T07:49:34Z</time>
      </trkpt>
      <trkpt lat="46.58622" lon="0.19529">
        <ele>137.6</ele>
        <time>2021-11-07T07:49:40Z</time>
      </trkpt>
      <trkpt lat="46.5862" lon="0.19573">
        <ele>137.8</ele>
        <time>2021-11-07T07:49:47Z</time>
      </trkpt>
      <trkpt lat="46.58611" lon="0.1962">
        <ele>138.2</ele>
        <time>2021-11-07T07:49:54Z</time>
      </trkpt>
      <trkpt lat="46.58606" lon="0.19641">
        <ele>138.2</ele>
        <time>2021-11-07T07:49:57Z</time>
      </trkpt>
      <trkpt lat="46.58605" lon="0.19656">
        <ele>138.2</ele>
        <time>2021-11-07T07:49:59Z</time>
      </trkpt>
      <trkpt lat="46.58604" lon="0.19664">
        <ele>138.2</ele>
        <time>2021-11-07T07:50:00Z</time>
      </trkpt>
      <trkpt lat="46.58604" lon="0.19671">
        <ele>138.2</ele>
        <time>2021-11-07T07:50:01Z</time>
      </trkpt>
      <trkpt lat="46.58599" lon="0.19707">
        <ele>137.8</ele>
        <time>2021-11-07T07:50:06Z</time>
      </trkpt>
      <trkpt lat="46.58596" lon="0.19719">
        <ele>137.6</ele>
        <time>2021-11-07T07:50:08Z</time>
      </trkpt>
      <trkpt lat="46.58592" lon="0.1973">
        <ele>137.4</ele>
        <time>2021-11-07T07:50:10Z</time>
      </trkpt>
      <trkpt lat="46.5859" lon="0.19735">
        <ele>137.2</ele>
        <time>2021-11-07T07:50:11Z</time>
      </trkpt>
      <trkpt lat="46.58583" lon="0.19754">
        <ele>137</ele>
        <time>2021-11-07T07:50:14Z</time>
      </trkpt>
      <trkpt lat="46.5858" lon="0.19768">
        <ele>137</ele>
        <time>2021-11-07T07:50:16Z</time>
      </trkpt>
      <trkpt lat="46.58577" lon="0.19775">
        <ele>136.8</ele>
        <time>2021-11-07T07:50:17Z</time>
      </trkpt>
      <trkpt lat="46.58574" lon="0.19787">
        <ele>136.6</ele>
        <time>2021-11-07T07:50:19Z</time>
      </trkpt>
      <trkpt lat="46.58573" lon="0.19793">
        <ele>136.4</ele>
        <time>2021-11-07T07:50:20Z</time>
      </trkpt>
      <trkpt lat="46.58574" lon="0.19799">
        <ele>136.4</ele>
        <time>2021-11-07T07:50:21Z</time>
      </trkpt>
      <trkpt lat="46.58583" lon="0.19822">
        <ele>136</ele>
        <time>2021-11-07T07:50:25Z</time>
      </trkpt>
      <trkpt lat="46.58586" lon="0.19834">
        <ele>135.8</ele>
        <time>2021-11-07T07:50:27Z</time>
      </trkpt>
      <trkpt lat="46.58586" lon="0.1984">
        <ele>135.8</ele>
        <time>2021-11-07T07:50:28Z</time>
      </trkpt>
      <trkpt lat="46.58584" lon="0.19854">
        <ele>135.4</ele>
        <time>2021-11-07T07:50:30Z</time>
      </trkpt>
      <trkpt lat="46.58585" lon="0.19861">
        <ele>135.4</ele>
        <time>2021-11-07T07:50:31Z</time>
      </trkpt>
      <trkpt lat="46.58586" lon="0.19875">
        <ele>135.4</ele>
        <time>2021-11-07T07:50:33Z</time>
      </trkpt>
      <trkpt lat="46.58589" lon="0.19915">
        <ele>135.2</ele>
        <time>2021-11-07T07:50:38Z</time>
      </trkpt>
      <trkpt lat="46.58591" lon="0.19923">
        <ele>135.2</ele>
        <time>2021-11-07T07:50:39Z</time>
      </trkpt>
      <trkpt lat="46.586" lon="0.19976">
        <ele>134.4</ele>
        <time>2021-11-07T07:50:46Z</time>
      </trkpt>
      <trkpt lat="46.58599" lon="0.1999">
        <ele>134.2</ele>
        <time>2021-11-07T07:50:48Z</time>
      </trkpt>
      <trkpt lat="46.58597" lon="0.20005">
        <ele>134.4</ele>
        <time>2021-11-07T07:50:50Z</time>
      </trkpt>
      <trkpt lat="46.58597" lon="0.20012">
        <ele>134.6</ele>
        <time>2021-11-07T07:50:51Z</time>
      </trkpt>
      <trkpt lat="46.58596" lon="0.20024">
        <ele>134.8</ele>
        <time>2021-11-07T07:50:53Z</time>
      </trkpt>
      <trkpt lat="46.58596" lon="0.20043">
        <ele>135</ele>
        <time>2021-11-07T07:50:56Z</time>
      </trkpt>
      <trkpt lat="46.58596" lon="0.2005">
        <ele>135</ele>
        <time>2021-11-07T07:50:57Z</time>
      </trkpt>
      <trkpt lat="46.58595" lon="0.20077">
        <ele>135.2</ele>
        <time>2021-11-07T07:51:02Z</time>
      </trkpt>
      <trkpt lat="46.58595" lon="0.20083">
        <ele>135.4</ele>
        <time>2021-11-07T07:51:03Z</time>
      </trkpt>
      <trkpt lat="46.58595" lon="0.20096">
        <ele>135.4</ele>
        <time>2021-11-07T07:51:05Z</time>
      </trkpt>
      <trkpt lat="46.58595" lon="0.20115">
        <ele>135.6</ele>
        <time>2021-11-07T07:51:08Z</time>
      </trkpt>
      <trkpt lat="46.58596" lon="0.20127">
        <ele>135.6</ele>
        <time>2021-11-07T07:51:10Z</time>
      </trkpt>
      <trkpt lat="46.586" lon="0.20166">
        <ele>135.8</ele>
        <time>2021-11-07T07:51:16Z</time>
      </trkpt>
      <trkpt lat="46.58605" lon="0.20197">
        <ele>136.4</ele>
        <time>2021-11-07T07:51:21Z</time>
      </trkpt>
      <trkpt lat="46.58606" lon="0.20203">
        <ele>136.4</ele>
        <time>2021-11-07T07:51:22Z</time>
      </trkpt>
      <trkpt lat="46.58607" lon="0.20209">
        <ele>136.6</ele>
        <time>2021-11-07T07:51:23Z</time>
      </trkpt>
      <trkpt lat="46.58616" lon="0.20258">
        <ele>136.6</ele>
        <time>2021-11-07T07:51:30Z</time>
      </trkpt>
      <trkpt lat="46.58623" lon="0.20305">
        <ele>136.8</ele>
        <time>2021-11-07T07:51:36Z</time>
      </trkpt>
      <trkpt lat="46.58626" lon="0.20327">
        <ele>136.8</ele>
        <time>2021-11-07T07:51:39Z</time>
      </trkpt>
      <trkpt lat="46.58627" lon="0.20349">
        <ele>136.6</ele>
        <time>2021-11-07T07:51:42Z</time>
      </trkpt>
      <trkpt lat="46.5863" lon="0.20378">
        <ele>136</ele>
        <time>2021-11-07T07:51:47Z</time>
      </trkpt>
      <trkpt lat="46.58635" lon="0.20413">
        <ele>135.6</ele>
        <time>2021-11-07T07:51:53Z</time>
      </trkpt>
      <trkpt lat="46.58642" lon="0.20462">
        <ele>135.8</ele>
        <time>2021-11-07T07:52:00Z</time>
      </trkpt>
      <trkpt lat="46.58644" lon="0.20478">
        <ele>135.4</ele>
        <time>2021-11-07T07:52:01Z</time>
      </trkpt>
      <trkpt lat="46.58647" lon="0.20501">
        <ele>135.4</ele>
        <time>2021-11-07T07:52:05Z</time>
      </trkpt>
      <trkpt lat="46.58648" lon="0.20509">
        <ele>135.2</ele>
        <time>2021-11-07T07:52:06Z</time>
      </trkpt>
      <trkpt lat="46.5865" lon="0.20523">
        <ele>135.2</ele>
        <time>2021-11-07T07:52:08Z</time>
      </trkpt>
      <trkpt lat="46.58652" lon="0.20545">
        <ele>135</ele>
        <time>2021-11-07T07:52:11Z</time>
      </trkpt>
      <trkpt lat="46.58661" lon="0.20584">
        <ele>135</ele>
        <time>2021-11-07T07:52:17Z</time>
      </trkpt>
      <trkpt lat="46.58673" lon="0.20628">
        <ele>135</ele>
        <time>2021-11-07T07:52:24Z</time>
      </trkpt>
      <trkpt lat="46.58683" lon="0.20665">
        <ele>135.2</ele>
        <time>2021-11-07T07:52:30Z</time>
      </trkpt>
      <trkpt lat="46.58685" lon="0.20671">
        <ele>135.2</ele>
        <time>2021-11-07T07:52:31Z</time>
      </trkpt>
      <trkpt lat="46.58697" lon="0.20707">
        <ele>134.6</ele>
        <time>2021-11-07T07:52:36Z</time>
      </trkpt>
      <trkpt lat="46.58709" lon="0.2075">
        <ele>134.6</ele>
        <time>2021-11-07T07:52:42Z</time>
      </trkpt>
      <trkpt lat="46.58713" lon="0.20767">
        <ele>134.6</ele>
        <time>2021-11-07T07:52:45Z</time>
      </trkpt>
      <trkpt lat="46.58715" lon="0.20779">
        <ele>135</ele>
        <time>2021-11-07T07:52:47Z</time>
      </trkpt>
      <trkpt lat="46.58717" lon="0.20784">
        <ele>135.2</ele>
        <time>2021-11-07T07:52:48Z</time>
      </trkpt>
      <trkpt lat="46.58725" lon="0.20817">
        <ele>136</ele>
        <time>2021-11-07T07:52:54Z</time>
      </trkpt>
      <trkpt lat="46.58727" lon="0.20824">
        <ele>136</ele>
        <time>2021-11-07T07:52:55Z</time>
      </trkpt>
      <trkpt lat="46.5873" lon="0.20839">
        <ele>136.6</ele>
        <time>2021-11-07T07:52:58Z</time>
      </trkpt>
      <trkpt lat="46.58733" lon="0.20859">
        <ele>136.8</ele>
        <time>2021-11-07T07:53:02Z</time>
      </trkpt>
      <trkpt lat="46.5874" lon="0.20889">
        <ele>137.6</ele>
        <time>2021-11-07T07:53:08Z</time>
      </trkpt>
      <trkpt lat="46.58741" lon="0.20895">
        <ele>137.6</ele>
        <time>2021-11-07T07:53:09Z</time>
      </trkpt>
      <trkpt lat="46.58744" lon="0.20908">
        <ele>137.6</ele>
        <time>2021-11-07T07:53:11Z</time>
      </trkpt>
      <trkpt lat="46.58749" lon="0.20925">
        <ele>138</ele>
        <time>2021-11-07T07:53:14Z</time>
      </trkpt>
      <trkpt lat="46.58759" lon="0.20959">
        <ele>138.2</ele>
        <time>2021-11-07T07:53:20Z</time>
      </trkpt>
      <trkpt lat="46.58775" lon="0.21008">
        <ele>138.6</ele>
        <time>2021-11-07T07:53:29Z</time>
      </trkpt>
      <trkpt lat="46.58784" lon="0.21051">
        <ele>138.8</ele>
        <time>2021-11-07T07:53:36Z</time>
      </trkpt>
      <trkpt lat="46.5879" lon="0.21079">
        <ele>138.8</ele>
        <time>2021-11-07T07:53:41Z</time>
      </trkpt>
      <trkpt lat="46.58796" lon="0.21121">
        <ele>139.2</ele>
        <time>2021-11-07T07:53:47Z</time>
      </trkpt>
      <trkpt lat="46.58799" lon="0.21134">
        <ele>139</ele>
        <time>2021-11-07T07:53:49Z</time>
      </trkpt>
      <trkpt lat="46.588" lon="0.21146">
        <ele>138.8</ele>
        <time>2021-11-07T07:53:51Z</time>
      </trkpt>
      <trkpt lat="46.58798" lon="0.21153">
        <ele>138.8</ele>
        <time>2021-11-07T07:53:53Z</time>
      </trkpt>
      <trkpt lat="46.58795" lon="0.21156">
        <ele>138.6</ele>
        <time>2021-11-07T07:53:54Z</time>
      </trkpt>
      <trkpt lat="46.58792" lon="0.21158">
        <ele>138.6</ele>
        <time>2021-11-07T07:53:55Z</time>
      </trkpt>
      <trkpt lat="46.58776" lon="0.21164">
        <ele>139</ele>
        <time>2021-11-07T07:53:59Z</time>
      </trkpt>
      <trkpt lat="46.58762" lon="0.2117">
        <ele>139.6</ele>
        <time>2021-11-07T07:54:03Z</time>
      </trkpt>
      <trkpt lat="46.58755" lon="0.21172">
        <ele>139.8</ele>
        <time>2021-11-07T07:54:05Z</time>
      </trkpt>
      <trkpt lat="46.58736" lon="0.21183">
        <ele>140</ele>
        <time>2021-11-07T07:54:11Z</time>
      </trkpt>
      <trkpt lat="46.58714" lon="0.21186">
        <ele>140</ele>
        <time>2021-11-07T07:54:17Z</time>
      </trkpt>
      <trkpt lat="46.5869" lon="0.21193">
        <ele>140.6</ele>
        <time>2021-11-07T07:54:23Z</time>
      </trkpt>
      <trkpt lat="46.58686" lon="0.21195">
        <ele>140.6</ele>
        <time>2021-11-07T07:54:24Z</time>
      </trkpt>
      <trkpt lat="46.58653" lon="0.21205">
        <ele>140.6</ele>
        <time>2021-11-07T07:54:32Z</time>
      </trkpt>
      <trkpt lat="46.58645" lon="0.21206">
        <ele>140.6</ele>
        <time>2021-11-07T07:54:34Z</time>
      </trkpt>
      <trkpt lat="46.58632" lon="0.21209">
        <ele>140.6</ele>
        <time>2021-11-07T07:54:37Z</time>
      </trkpt>
      <trkpt lat="46.58618" lon="0.21212">
        <ele>140.6</ele>
        <time>2021-11-07T07:54:40Z</time>
      </trkpt>
      <trkpt lat="46.58604" lon="0.21215">
        <ele>140.6</ele>
        <time>2021-11-07T07:54:43Z</time>
      </trkpt>
      <trkpt lat="46.5858" lon="0.21223">
        <ele>140.4</ele>
        <time>2021-11-07T07:54:49Z</time>
      </trkpt>
      <trkpt lat="46.58576" lon="0.21224">
        <ele>140.6</ele>
        <time>2021-11-07T07:54:50Z</time>
      </trkpt>
      <trkpt lat="46.58556" lon="0.21229">
        <ele>140</ele>
        <time>2021-11-07T07:54:55Z</time>
      </trkpt>
      <trkpt lat="46.58544" lon="0.21231">
        <ele>140.2</ele>
        <time>2021-11-07T07:54:57Z</time>
      </trkpt>
      <trkpt lat="46.58514" lon="0.21236">
        <ele>140.4</ele>
        <time>2021-11-07T07:55:03Z</time>
      </trkpt>
      <trkpt lat="46.58509" lon="0.21237">
        <ele>140.4</ele>
        <time>2021-11-07T07:55:04Z</time>
      </trkpt>
      <trkpt lat="46.58493" lon="0.21241">
        <ele>140.6</ele>
        <time>2021-11-07T07:55:08Z</time>
      </trkpt>
      <trkpt lat="46.5848" lon="0.21242">
        <ele>140.4</ele>
        <time>2021-11-07T07:55:12Z</time>
      </trkpt>
      <trkpt lat="46.58462" lon="0.21246">
        <ele>140.4</ele>
        <time>2021-11-07T07:55:18Z</time>
      </trkpt>
      <trkpt lat="46.58453" lon="0.21252">
        <ele>140.4</ele>
        <time>2021-11-07T07:55:22Z</time>
      </trkpt>
      <trkpt lat="46.58447" lon="0.21253">
        <ele>140.6</ele>
        <time>2021-11-07T07:55:24Z</time>
      </trkpt>
      <trkpt lat="46.58433" lon="0.21254">
        <ele>140.4</ele>
        <time>2021-11-07T07:55:28Z</time>
      </trkpt>
      <trkpt lat="46.58408" lon="0.21257">
        <ele>141.2</ele>
        <time>2021-11-07T07:55:35Z</time>
      </trkpt>
      <trkpt lat="46.58402" lon="0.21259">
        <ele>141.4</ele>
        <time>2021-11-07T07:55:37Z</time>
      </trkpt>
      <trkpt lat="46.58398" lon="0.21261">
        <ele>141.8</ele>
        <time>2021-11-07T07:55:38Z</time>
      </trkpt>
      <trkpt lat="46.5839" lon="0.21263">
        <ele>142</ele>
        <time>2021-11-07T07:55:40Z</time>
      </trkpt>
      <trkpt lat="46.58363" lon="0.21268">
        <ele>141.6</ele>
        <time>2021-11-07T07:55:47Z</time>
      </trkpt>
      <trkpt lat="46.58335" lon="0.21275">
        <ele>142</ele>
        <time>2021-11-07T07:55:54Z</time>
      </trkpt>
      <trkpt lat="46.58316" lon="0.21277">
        <ele>142</ele>
        <time>2021-11-07T07:55:59Z</time>
      </trkpt>
      <trkpt lat="46.58309" lon="0.21278">
        <ele>142</ele>
        <time>2021-11-07T07:56:01Z</time>
      </trkpt>
      <trkpt lat="46.58292" lon="0.21282">
        <ele>142.2</ele>
        <time>2021-11-07T07:56:05Z</time>
      </trkpt>
      <trkpt lat="46.58275" lon="0.21286">
        <ele>142</ele>
        <time>2021-11-07T07:56:09Z</time>
      </trkpt>
      <trkpt lat="46.58266" lon="0.21288">
        <ele>142</ele>
        <time>2021-11-07T07:56:11Z</time>
      </trkpt>
      <trkpt lat="46.58257" lon="0.21289">
        <ele>142.2</ele>
        <time>2021-11-07T07:56:13Z</time>
      </trkpt>
      <trkpt lat="46.58239" lon="0.21295">
        <ele>142.2</ele>
        <time>2021-11-07T07:56:17Z</time>
      </trkpt>
      <trkpt lat="46.5822" lon="0.213">
        <ele>141.8</ele>
        <time>2021-11-07T07:56:22Z</time>
      </trkpt>
      <trkpt lat="46.58194" lon="0.21307">
        <ele>142.2</ele>
        <time>2021-11-07T07:56:29Z</time>
      </trkpt>
      <trkpt lat="46.58169" lon="0.21311">
        <ele>142.4</ele>
        <time>2021-11-07T07:56:35Z</time>
      </trkpt>
      <trkpt lat="46.58166" lon="0.21314">
        <ele>142.4</ele>
        <time>2021-11-07T07:56:36Z</time>
      </trkpt>
      <trkpt lat="46.58162" lon="0.21322">
        <ele>142.6</ele>
        <time>2021-11-07T07:56:38Z</time>
      </trkpt>
      <trkpt lat="46.58162" lon="0.2136">
        <ele>142.2</ele>
        <time>2021-11-07T07:56:44Z</time>
      </trkpt>
      <trkpt lat="46.58163" lon="0.21404">
        <ele>142.2</ele>
        <time>2021-11-07T07:56:51Z</time>
      </trkpt>
      <trkpt lat="46.58163" lon="0.21416">
        <ele>142.2</ele>
        <time>2021-11-07T07:56:53Z</time>
      </trkpt>
      <trkpt lat="46.58165" lon="0.21449">
        <ele>141.6</ele>
        <time>2021-11-07T07:56:58Z</time>
      </trkpt>
      <trkpt lat="46.58166" lon="0.21468">
        <ele>141.8</ele>
        <time>2021-11-07T07:57:01Z</time>
      </trkpt>
      <trkpt lat="46.58168" lon="0.21487">
        <ele>142</ele>
        <time>2021-11-07T07:57:04Z</time>
      </trkpt>
      <trkpt lat="46.58168" lon="0.2152">
        <ele>142</ele>
        <time>2021-11-07T07:57:09Z</time>
      </trkpt>
      <trkpt lat="46.5817" lon="0.21532">
        <ele>142</ele>
        <time>2021-11-07T07:57:11Z</time>
      </trkpt>
      <trkpt lat="46.58172" lon="0.21578">
        <ele>141.2</ele>
        <time>2021-11-07T07:57:19Z</time>
      </trkpt>
      <trkpt lat="46.58171" lon="0.21604">
        <ele>141.4</ele>
        <time>2021-11-07T07:57:23Z</time>
      </trkpt>
      <trkpt lat="46.58172" lon="0.21615">
        <ele>141.4</ele>
        <time>2021-11-07T07:57:25Z</time>
      </trkpt>
      <trkpt lat="46.5817" lon="0.21623">
        <ele>141.2</ele>
        <time>2021-11-07T07:57:27Z</time>
      </trkpt>
      <trkpt lat="46.58167" lon="0.21627">
        <ele>141</ele>
        <time>2021-11-07T07:57:29Z</time>
      </trkpt>
      <trkpt lat="46.58164" lon="0.21629">
        <ele>141</ele>
        <time>2021-11-07T07:57:30Z</time>
      </trkpt>
      <trkpt lat="46.58153" lon="0.21632">
        <ele>141</ele>
        <time>2021-11-07T07:57:33Z</time>
      </trkpt>
      <trkpt lat="46.58124" lon="0.21631">
        <ele>141.6</ele>
        <time>2021-11-07T07:57:39Z</time>
      </trkpt>
      <trkpt lat="46.58088" lon="0.2163">
        <ele>140.8</ele>
        <time>2021-11-07T07:57:46Z</time>
      </trkpt>
      <trkpt lat="46.58055" lon="0.21633">
        <ele>140.6</ele>
        <time>2021-11-07T07:57:52Z</time>
      </trkpt>
      <trkpt lat="46.58043" lon="0.21635">
        <ele>140.6</ele>
        <time>2021-11-07T07:57:54Z</time>
      </trkpt>
      <trkpt lat="46.58025" lon="0.21633">
        <ele>140.6</ele>
        <time>2021-11-07T07:57:57Z</time>
      </trkpt>
      <trkpt lat="46.58" lon="0.21633">
        <ele>139.6</ele>
        <time>2021-11-07T07:58:01Z</time>
      </trkpt>
      <trkpt lat="46.57982" lon="0.21633">
        <ele>139.4</ele>
        <time>2021-11-07T07:58:04Z</time>
      </trkpt>
      <trkpt lat="46.57941" lon="0.21631">
        <ele>138.8</ele>
        <time>2021-11-07T07:58:11Z</time>
      </trkpt>
      <trkpt lat="46.5793" lon="0.2163">
        <ele>138.8</ele>
        <time>2021-11-07T07:58:13Z</time>
      </trkpt>
      <trkpt lat="46.57924" lon="0.21629">
        <ele>138.6</ele>
        <time>2021-11-07T07:58:14Z</time>
      </trkpt>
      <trkpt lat="46.57906" lon="0.21627">
        <ele>138.2</ele>
        <time>2021-11-07T07:58:17Z</time>
      </trkpt>
      <trkpt lat="46.57876" lon="0.21628">
        <ele>137.4</ele>
        <time>2021-11-07T07:58:22Z</time>
      </trkpt>
      <trkpt lat="46.5784" lon="0.21638">
        <ele>137</ele>
        <time>2021-11-07T07:58:28Z</time>
      </trkpt>
      <trkpt lat="46.57802" lon="0.21637">
        <ele>137.4</ele>
        <time>2021-11-07T07:58:35Z</time>
      </trkpt>
      <trkpt lat="46.57768" lon="0.21632">
        <ele>138</ele>
        <time>2021-11-07T07:58:42Z</time>
      </trkpt>
      <trkpt lat="46.57747" lon="0.21623">
        <ele>138.6</ele>
        <time>2021-11-07T07:58:47Z</time>
      </trkpt>
      <trkpt lat="46.57742" lon="0.21622">
        <ele>138.8</ele>
        <time>2021-11-07T07:58:48Z</time>
      </trkpt>
      <trkpt lat="46.57711" lon="0.21619">
        <ele>139.2</ele>
        <time>2021-11-07T07:58:55Z</time>
      </trkpt>
      <trkpt lat="46.57687" lon="0.21619">
        <ele>139.8</ele>
        <time>2021-11-07T07:59:01Z</time>
      </trkpt>
      <trkpt lat="46.57684" lon="0.21619">
        <ele>140</ele>
        <time>2021-11-07T07:59:02Z</time>
      </trkpt>
      <trkpt lat="46.57654" lon="0.21617">
        <ele>141</ele>
        <time>2021-11-07T07:59:10Z</time>
      </trkpt>
      <trkpt lat="46.57623" lon="0.21612">
        <ele>141.2</ele>
        <time>2021-11-07T07:59:17Z</time>
      </trkpt>
      <trkpt lat="46.57594" lon="0.21611">
        <ele>141.4</ele>
        <time>2021-11-07T07:59:24Z</time>
      </trkpt>
      <trkpt lat="46.57568" lon="0.21615">
        <ele>141.2</ele>
        <time>2021-11-07T07:59:30Z</time>
      </trkpt>
      <trkpt lat="46.57565" lon="0.21617">
        <ele>141.2</ele>
        <time>2021-11-07T07:59:31Z</time>
      </trkpt>
      <trkpt lat="46.57562" lon="0.2162">
        <ele>141</ele>
        <time>2021-11-07T07:59:32Z</time>
      </trkpt>
      <trkpt lat="46.5756" lon="0.2163">
        <ele>141</ele>
        <time>2021-11-07T07:59:34Z</time>
      </trkpt>
      <trkpt lat="46.57561" lon="0.21643">
        <ele>141</ele>
        <time>2021-11-07T07:59:36Z</time>
      </trkpt>
      <trkpt lat="46.57565" lon="0.21658">
        <ele>141</ele>
        <time>2021-11-07T07:59:38Z</time>
      </trkpt>
      <trkpt lat="46.57581" lon="0.21714">
        <ele>140.6</ele>
        <time>2021-11-07T07:59:45Z</time>
      </trkpt>
      <trkpt lat="46.57594" lon="0.21765">
        <ele>140.2</ele>
        <time>2021-11-07T07:59:51Z</time>
      </trkpt>
      <trkpt lat="46.57598" lon="0.21783">
        <ele>140</ele>
        <time>2021-11-07T07:59:53Z</time>
      </trkpt>
      <trkpt lat="46.57606" lon="0.21818">
        <ele>139.6</ele>
        <time>2021-11-07T07:59:57Z</time>
      </trkpt>
      <trkpt lat="46.57623" lon="0.21888">
        <ele>139.2</ele>
        <time>2021-11-07T08:00:05Z</time>
      </trkpt>
      <trkpt lat="46.5763" lon="0.21923">
        <ele>139</ele>
        <time>2021-11-07T08:00:09Z</time>
      </trkpt>
      <trkpt lat="46.57635" lon="0.21941">
        <ele>138.8</ele>
        <time>2021-11-07T08:00:11Z</time>
      </trkpt>
      <trkpt lat="46.57649" lon="0.22">
        <ele>138</ele>
        <time>2021-11-07T08:00:18Z</time>
      </trkpt>
      <trkpt lat="46.57653" lon="0.22016">
        <ele>138</ele>
        <time>2021-11-07T08:00:20Z</time>
      </trkpt>
      <trkpt lat="46.57663" lon="0.22055">
        <ele>138</ele>
        <time>2021-11-07T08:00:25Z</time>
      </trkpt>
      <trkpt lat="46.57674" lon="0.22102">
        <ele>138</ele>
        <time>2021-11-07T08:00:31Z</time>
      </trkpt>
      <trkpt lat="46.57683" lon="0.22145">
        <ele>137</ele>
        <time>2021-11-07T08:00:37Z</time>
      </trkpt>
      <trkpt lat="46.57685" lon="0.22152">
        <ele>136.8</ele>
        <time>2021-11-07T08:00:38Z</time>
      </trkpt>
      <trkpt lat="46.57697" lon="0.22206">
        <ele>137</ele>
        <time>2021-11-07T08:00:45Z</time>
      </trkpt>
      <trkpt lat="46.57706" lon="0.22255">
        <ele>136.6</ele>
        <time>2021-11-07T08:00:51Z</time>
      </trkpt>
      <trkpt lat="46.5772" lon="0.22304">
        <ele>136.2</ele>
        <time>2021-11-07T08:00:57Z</time>
      </trkpt>
      <trkpt lat="46.57728" lon="0.22335">
        <ele>135.8</ele>
        <time>2021-11-07T08:01:01Z</time>
      </trkpt>
      <trkpt lat="46.57732" lon="0.22362">
        <ele>135.6</ele>
        <time>2021-11-07T08:01:04Z</time>
      </trkpt>
      <trkpt lat="46.57738" lon="0.22396">
        <ele>134.6</ele>
        <time>2021-11-07T08:01:08Z</time>
      </trkpt>
      <trkpt lat="46.5774" lon="0.22405">
        <ele>134.4</ele>
        <time>2021-11-07T08:01:09Z</time>
      </trkpt>
      <trkpt lat="46.57755" lon="0.22459">
        <ele>134.2</ele>
        <time>2021-11-07T08:01:15Z</time>
      </trkpt>
      <trkpt lat="46.57765" lon="0.22492">
        <ele>133.6</ele>
        <time>2021-11-07T08:01:19Z</time>
      </trkpt>
      <trkpt lat="46.57772" lon="0.22521">
        <ele>132.8</ele>
        <time>2021-11-07T08:01:23Z</time>
      </trkpt>
      <trkpt lat="46.57774" lon="0.22528">
        <ele>132.6</ele>
        <time>2021-11-07T08:01:24Z</time>
      </trkpt>
      <trkpt lat="46.57776" lon="0.22536">
        <ele>132.4</ele>
        <time>2021-11-07T08:01:25Z</time>
      </trkpt>
      <trkpt lat="46.57784" lon="0.2256">
        <ele>132.2</ele>
        <time>2021-11-07T08:01:28Z</time>
      </trkpt>
      <trkpt lat="46.57791" lon="0.22581">
        <ele>132</ele>
        <time>2021-11-07T08:01:31Z</time>
      </trkpt>
      <trkpt lat="46.57795" lon="0.22595">
        <ele>132</ele>
        <time>2021-11-07T08:01:33Z</time>
      </trkpt>
      <trkpt lat="46.57798" lon="0.2261">
        <ele>131.4</ele>
        <time>2021-11-07T08:01:35Z</time>
      </trkpt>
      <trkpt lat="46.578" lon="0.22617">
        <ele>131.2</ele>
        <time>2021-11-07T08:01:36Z</time>
      </trkpt>
      <trkpt lat="46.57808" lon="0.22641">
        <ele>130.8</ele>
        <time>2021-11-07T08:01:39Z</time>
      </trkpt>
      <trkpt lat="46.57815" lon="0.22663">
        <ele>130.2</ele>
        <time>2021-11-07T08:01:42Z</time>
      </trkpt>
      <trkpt lat="46.5782" lon="0.22677">
        <ele>129.8</ele>
        <time>2021-11-07T08:01:44Z</time>
      </trkpt>
      <trkpt lat="46.57823" lon="0.22684">
        <ele>129.6</ele>
        <time>2021-11-07T08:01:45Z</time>
      </trkpt>
      <trkpt lat="46.57826" lon="0.22699">
        <ele>129.2</ele>
        <time>2021-11-07T08:01:47Z</time>
      </trkpt>
      <trkpt lat="46.57829" lon="0.2272">
        <ele>128</ele>
        <time>2021-11-07T08:01:50Z</time>
      </trkpt>
      <trkpt lat="46.57829" lon="0.22728">
        <ele>127.6</ele>
        <time>2021-11-07T08:01:51Z</time>
      </trkpt>
      <trkpt lat="46.57829" lon="0.22737">
        <ele>126.8</ele>
        <time>2021-11-07T08:01:53Z</time>
      </trkpt>
      <trkpt lat="46.57829" lon="0.2274">
        <ele>126.6</ele>
        <time>2021-11-07T08:01:54Z</time>
      </trkpt>
      <trkpt lat="46.57831" lon="0.22745">
        <ele>126.4</ele>
        <time>2021-11-07T08:01:56Z</time>
      </trkpt>
      <trkpt lat="46.57831" lon="0.22756">
        <ele>125.6</ele>
        <time>2021-11-07T08:01:59Z</time>
      </trkpt>
      <trkpt lat="46.57834" lon="0.22773">
        <ele>124.6</ele>
        <time>2021-11-07T08:02:02Z</time>
      </trkpt>
      <trkpt lat="46.57834" lon="0.2278">
        <ele>124.4</ele>
        <time>2021-11-07T08:02:03Z</time>
      </trkpt>
      <trkpt lat="46.5784" lon="0.22799">
        <ele>124.4</ele>
        <time>2021-11-07T08:02:06Z</time>
      </trkpt>
      <trkpt lat="46.5784" lon="0.22808">
        <ele>124.4</ele>
        <time>2021-11-07T08:02:08Z</time>
      </trkpt>
      <trkpt lat="46.57839" lon="0.22811">
        <ele>124.6</ele>
        <time>2021-11-07T08:02:09Z</time>
      </trkpt>
      <trkpt lat="46.57833" lon="0.22822">
        <ele>125</ele>
        <time>2021-11-07T08:02:12Z</time>
      </trkpt>
      <trkpt lat="46.57829" lon="0.22829">
        <ele>125.8</ele>
        <time>2021-11-07T08:02:14Z</time>
      </trkpt>
      <trkpt lat="46.57823" lon="0.22844">
        <ele>127.2</ele>
        <time>2021-11-07T08:02:18Z</time>
      </trkpt>
      <trkpt lat="46.57822" lon="0.22848">
        <ele>127.6</ele>
        <time>2021-11-07T08:02:19Z</time>
      </trkpt>
      <trkpt lat="46.57819" lon="0.2286">
        <ele>128.4</ele>
        <time>2021-11-07T08:02:22Z</time>
      </trkpt>
      <trkpt lat="46.57816" lon="0.2287">
        <ele>129</ele>
        <time>2021-11-07T08:02:25Z</time>
      </trkpt>
      <trkpt lat="46.57814" lon="0.22879">
        <ele>129.6</ele>
        <time>2021-11-07T08:02:27Z</time>
      </trkpt>
      <trkpt lat="46.57809" lon="0.22898">
        <ele>130.6</ele>
        <time>2021-11-07T08:02:31Z</time>
      </trkpt>
      <trkpt lat="46.57808" lon="0.22902">
        <ele>130.8</ele>
        <time>2021-11-07T08:02:32Z</time>
      </trkpt>
      <trkpt lat="46.57801" lon="0.22938">
        <ele>131.8</ele>
        <time>2021-11-07T08:02:39Z</time>
      </trkpt>
      <trkpt lat="46.57794" lon="0.22964">
        <ele>132.8</ele>
        <time>2021-11-07T08:02:44Z</time>
      </trkpt>
      <trkpt lat="46.57793" lon="0.2297">
        <ele>133.2</ele>
        <time>2021-11-07T08:02:45Z</time>
      </trkpt>
      <trkpt lat="46.57783" lon="0.22996">
        <ele>133.8</ele>
        <time>2021-11-07T08:02:51Z</time>
      </trkpt>
      <trkpt lat="46.57772" lon="0.23024">
        <ele>134.4</ele>
        <time>2021-11-07T08:02:57Z</time>
      </trkpt>
      <trkpt lat="46.57765" lon="0.23049">
        <ele>134.8</ele>
        <time>2021-11-07T08:03:03Z</time>
      </trkpt>
      <trkpt lat="46.57757" lon="0.23072">
        <ele>135.6</ele>
        <time>2021-11-07T08:03:08Z</time>
      </trkpt>
      <trkpt lat="46.57752" lon="0.23089">
        <ele>136</ele>
        <time>2021-11-07T08:03:12Z</time>
      </trkpt>
      <trkpt lat="46.57751" lon="0.23093">
        <ele>136.2</ele>
        <time>2021-11-07T08:03:13Z</time>
      </trkpt>
      <trkpt lat="46.57742" lon="0.23135">
        <ele>137</ele>
        <time>2021-11-07T08:03:21Z</time>
      </trkpt>
      <trkpt lat="46.57732" lon="0.23166">
        <ele>137.4</ele>
        <time>2021-11-07T08:03:27Z</time>
      </trkpt>
      <trkpt lat="46.57725" lon="0.23196">
        <ele>138</ele>
        <time>2021-11-07T08:03:33Z</time>
      </trkpt>
      <trkpt lat="46.57712" lon="0.23228">
        <ele>138.4</ele>
        <time>2021-11-07T08:03:39Z</time>
      </trkpt>
      <trkpt lat="46.57695" lon="0.23262">
        <ele>138.6</ele>
        <time>2021-11-07T08:03:45Z</time>
      </trkpt>
      <trkpt lat="46.57682" lon="0.23283">
        <ele>138.2</ele>
        <time>2021-11-07T08:03:49Z</time>
      </trkpt>
      <trkpt lat="46.57676" lon="0.23295">
        <ele>138.2</ele>
        <time>2021-11-07T08:03:51Z</time>
      </trkpt>
      <trkpt lat="46.57666" lon="0.23318">
        <ele>138.4</ele>
        <time>2021-11-07T08:03:55Z</time>
      </trkpt>
      <trkpt lat="46.57663" lon="0.23332">
        <ele>138.4</ele>
        <time>2021-11-07T08:03:57Z</time>
      </trkpt>
      <trkpt lat="46.57664" lon="0.23372">
        <ele>138</ele>
        <time>2021-11-07T08:04:03Z</time>
      </trkpt>
      <trkpt lat="46.57664" lon="0.23393">
        <ele>138</ele>
        <time>2021-11-07T08:04:06Z</time>
      </trkpt>
      <trkpt lat="46.57665" lon="0.23408">
        <ele>138</ele>
        <time>2021-11-07T08:04:08Z</time>
      </trkpt>
      <trkpt lat="46.57666" lon="0.23422">
        <ele>138.2</ele>
        <time>2021-11-07T08:04:10Z</time>
      </trkpt>
      <trkpt lat="46.57667" lon="0.23441">
        <ele>138.2</ele>
        <time>2021-11-07T08:04:13Z</time>
      </trkpt>
      <trkpt lat="46.5767" lon="0.23473">
        <ele>138</ele>
        <time>2021-11-07T08:04:18Z</time>
      </trkpt>
      <trkpt lat="46.5767" lon="0.23479">
        <ele>138</ele>
        <time>2021-11-07T08:04:19Z</time>
      </trkpt>
      <trkpt lat="46.57672" lon="0.23485">
        <ele>137.8</ele>
        <time>2021-11-07T08:04:20Z</time>
      </trkpt>
      <trkpt lat="46.57675" lon="0.23497">
        <ele>137.8</ele>
        <time>2021-11-07T08:04:22Z</time>
      </trkpt>
      <trkpt lat="46.57678" lon="0.23508">
        <ele>137.8</ele>
        <time>2021-11-07T08:04:24Z</time>
      </trkpt>
      <trkpt lat="46.57693" lon="0.23547">
        <ele>138.8</ele>
        <time>2021-11-07T08:04:31Z</time>
      </trkpt>
      <trkpt lat="46.57706" lon="0.23575">
        <ele>138.6</ele>
        <time>2021-11-07T08:04:36Z</time>
      </trkpt>
      <trkpt lat="46.57709" lon="0.23583">
        <ele>138.4</ele>
        <time>2021-11-07T08:04:37Z</time>
      </trkpt>
      <trkpt lat="46.57719" lon="0.23615">
        <ele>138.4</ele>
        <time>2021-11-07T08:04:42Z</time>
      </trkpt>
      <trkpt lat="46.57723" lon="0.23627">
        <ele>138.8</ele>
        <time>2021-11-07T08:04:44Z</time>
      </trkpt>
      <trkpt lat="46.57726" lon="0.23639">
        <ele>139</ele>
        <time>2021-11-07T08:04:46Z</time>
      </trkpt>
      <trkpt lat="46.57727" lon="0.23644">
        <ele>139</ele>
        <time>2021-11-07T08:04:47Z</time>
      </trkpt>
      <trkpt lat="46.57727" lon="0.2365">
        <ele>138.8</ele>
        <time>2021-11-07T08:04:48Z</time>
      </trkpt>
      <trkpt lat="46.57726" lon="0.23662">
        <ele>138.8</ele>
        <time>2021-11-07T08:04:50Z</time>
      </trkpt>
      <trkpt lat="46.57724" lon="0.23675">
        <ele>138.4</ele>
        <time>2021-11-07T08:04:52Z</time>
      </trkpt>
      <trkpt lat="46.57724" lon="0.23702">
        <ele>138.2</ele>
        <time>2021-11-07T08:04:57Z</time>
      </trkpt>
      <trkpt lat="46.57723" lon="0.23713">
        <ele>138.2</ele>
        <time>2021-11-07T08:04:59Z</time>
      </trkpt>
      <trkpt lat="46.57721" lon="0.23731">
        <ele>138.4</ele>
        <time>2021-11-07T08:05:02Z</time>
      </trkpt>
      <trkpt lat="46.5772" lon="0.23743">
        <ele>138.2</ele>
        <time>2021-11-07T08:05:04Z</time>
      </trkpt>
      <trkpt lat="46.57709" lon="0.2379">
        <ele>137.8</ele>
        <time>2021-11-07T08:05:11Z</time>
      </trkpt>
      <trkpt lat="46.57708" lon="0.23796">
        <ele>137.6</ele>
        <time>2021-11-07T08:05:12Z</time>
      </trkpt>
      <trkpt lat="46.57706" lon="0.23816">
        <ele>137.2</ele>
        <time>2021-11-07T08:05:15Z</time>
      </trkpt>
      <trkpt lat="46.57704" lon="0.23823">
        <ele>137.2</ele>
        <time>2021-11-07T08:05:16Z</time>
      </trkpt>
      <trkpt lat="46.57702" lon="0.23831">
        <ele>137</ele>
        <time>2021-11-07T08:05:17Z</time>
      </trkpt>
      <trkpt lat="46.57699" lon="0.2384">
        <ele>137</ele>
        <time>2021-11-07T08:05:18Z</time>
      </trkpt>
      <trkpt lat="46.57695" lon="0.23849">
        <ele>137</ele>
        <time>2021-11-07T08:05:19Z</time>
      </trkpt>
      <trkpt lat="46.57692" lon="0.23854">
        <ele>136.8</ele>
        <time>2021-11-07T08:05:20Z</time>
      </trkpt>
      <trkpt lat="46.57677" lon="0.23888">
        <ele>136.2</ele>
        <time>2021-11-07T08:05:26Z</time>
      </trkpt>
      <trkpt lat="46.57668" lon="0.23905">
        <ele>136.4</ele>
        <time>2021-11-07T08:05:29Z</time>
      </trkpt>
      <trkpt lat="46.57655" lon="0.23926">
        <ele>136</ele>
        <time>2021-11-07T08:05:32Z</time>
      </trkpt>
      <trkpt lat="46.57628" lon="0.23965">
        <ele>135.6</ele>
        <time>2021-11-07T08:05:37Z</time>
      </trkpt>
      <trkpt lat="46.57603" lon="0.23991">
        <ele>135</ele>
        <time>2021-11-07T08:05:42Z</time>
      </trkpt>
      <trkpt lat="46.57594" lon="0.24">
        <ele>134.8</ele>
        <time>2021-11-07T08:05:44Z</time>
      </trkpt>
      <trkpt lat="46.57575" lon="0.24024">
        <ele>134.2</ele>
        <time>2021-11-07T08:05:48Z</time>
      </trkpt>
      <trkpt lat="46.57566" lon="0.24033">
        <ele>133.8</ele>
        <time>2021-11-07T08:05:50Z</time>
      </trkpt>
      <trkpt lat="46.57546" lon="0.2405">
        <ele>133.4</ele>
        <time>2021-11-07T08:05:54Z</time>
      </trkpt>
      <trkpt lat="46.57541" lon="0.24053">
        <ele>133.4</ele>
        <time>2021-11-07T08:05:55Z</time>
      </trkpt>
      <trkpt lat="46.57525" lon="0.24064">
        <ele>133.4</ele>
        <time>2021-11-07T08:05:58Z</time>
      </trkpt>
      <trkpt lat="46.57513" lon="0.24071">
        <ele>133.2</ele>
        <time>2021-11-07T08:06:00Z</time>
      </trkpt>
      <trkpt lat="46.57502" lon="0.24078">
        <ele>132.6</ele>
        <time>2021-11-07T08:06:02Z</time>
      </trkpt>
      <trkpt lat="46.57496" lon="0.24081">
        <ele>132.2</ele>
        <time>2021-11-07T08:06:03Z</time>
      </trkpt>
      <trkpt lat="46.57484" lon="0.24088">
        <ele>131.8</ele>
        <time>2021-11-07T08:06:05Z</time>
      </trkpt>
      <trkpt lat="46.57472" lon="0.24096">
        <ele>131.4</ele>
        <time>2021-11-07T08:06:07Z</time>
      </trkpt>
      <trkpt lat="46.57467" lon="0.24101">
        <ele>131</ele>
        <time>2021-11-07T08:06:08Z</time>
      </trkpt>
      <trkpt lat="46.57458" lon="0.24109">
        <ele>130.4</ele>
        <time>2021-11-07T08:06:10Z</time>
      </trkpt>
      <trkpt lat="46.57454" lon="0.24114">
        <ele>130.4</ele>
        <time>2021-11-07T08:06:11Z</time>
      </trkpt>
      <trkpt lat="46.5745" lon="0.24125">
        <ele>130.2</ele>
        <time>2021-11-07T08:06:13Z</time>
      </trkpt>
      <trkpt lat="46.57448" lon="0.24137">
        <ele>130.2</ele>
        <time>2021-11-07T08:06:15Z</time>
      </trkpt>
      <trkpt lat="46.57445" lon="0.24159">
        <ele>130</ele>
        <time>2021-11-07T08:06:18Z</time>
      </trkpt>
      <trkpt lat="46.5744" lon="0.24202">
        <ele>130.2</ele>
        <time>2021-11-07T08:06:24Z</time>
      </trkpt>
      <trkpt lat="46.57437" lon="0.24217">
        <ele>130.6</ele>
        <time>2021-11-07T08:06:26Z</time>
      </trkpt>
      <trkpt lat="46.5743" lon="0.24246">
        <ele>130.4</ele>
        <time>2021-11-07T08:06:30Z</time>
      </trkpt>
      <trkpt lat="46.57427" lon="0.24258">
        <ele>130.2</ele>
        <time>2021-11-07T08:06:32Z</time>
      </trkpt>
      <trkpt lat="46.57412" lon="0.24268">
        <ele>130</ele>
        <time>2021-11-07T08:06:35Z</time>
      </trkpt>
      <trkpt lat="46.57408" lon="0.24266">
        <ele>129.8</ele>
        <time>2021-11-07T08:06:36Z</time>
      </trkpt>
      <trkpt lat="46.57397" lon="0.24261">
        <ele>129.4</ele>
        <time>2021-11-07T08:06:38Z</time>
      </trkpt>
      <trkpt lat="46.57392" lon="0.24257">
        <ele>129</ele>
        <time>2021-11-07T08:06:39Z</time>
      </trkpt>
      <trkpt lat="46.57381" lon="0.24246">
        <ele>128.2</ele>
        <time>2021-11-07T08:06:41Z</time>
      </trkpt>
      <trkpt lat="46.57369" lon="0.24235">
        <ele>127.2</ele>
        <time>2021-11-07T08:06:43Z</time>
      </trkpt>
      <trkpt lat="46.57363" lon="0.24231">
        <ele>126.8</ele>
        <time>2021-11-07T08:06:44Z</time>
      </trkpt>
      <trkpt lat="46.57357" lon="0.2423">
        <ele>126.4</ele>
        <time>2021-11-07T08:06:45Z</time>
      </trkpt>
      <trkpt lat="46.57351" lon="0.24229">
        <ele>125.6</ele>
        <time>2021-11-07T08:06:46Z</time>
      </trkpt>
      <trkpt lat="46.57337" lon="0.24227">
        <ele>124.6</ele>
        <time>2021-11-07T08:06:48Z</time>
      </trkpt>
      <trkpt lat="46.57328" lon="0.24226">
        <ele>123.4</ele>
        <time>2021-11-07T08:06:49Z</time>
      </trkpt>
      <trkpt lat="46.57303" lon="0.24224">
        <ele>121.6</ele>
        <time>2021-11-07T08:06:52Z</time>
      </trkpt>
      <trkpt lat="46.57295" lon="0.24224">
        <ele>120.4</ele>
        <time>2021-11-07T08:06:53Z</time>
      </trkpt>
      <trkpt lat="46.57288" lon="0.24227">
        <ele>119</ele>
        <time>2021-11-07T08:06:54Z</time>
      </trkpt>
      <trkpt lat="46.57282" lon="0.24231">
        <ele>118</ele>
        <time>2021-11-07T08:06:55Z</time>
      </trkpt>
      <trkpt lat="46.57268" lon="0.2424">
        <ele>116.6</ele>
        <time>2021-11-07T08:06:57Z</time>
      </trkpt>
      <trkpt lat="46.57262" lon="0.24246">
        <ele>115.6</ele>
        <time>2021-11-07T08:06:58Z</time>
      </trkpt>
      <trkpt lat="46.57255" lon="0.24253">
        <ele>114.2</ele>
        <time>2021-11-07T08:06:59Z</time>
      </trkpt>
      <trkpt lat="46.57245" lon="0.24263">
        <ele>111.4</ele>
        <time>2021-11-07T08:07:01Z</time>
      </trkpt>
      <trkpt lat="46.5724" lon="0.24268">
        <ele>110.6</ele>
        <time>2021-11-07T08:07:02Z</time>
      </trkpt>
      <trkpt lat="46.57236" lon="0.24271">
        <ele>109.4</ele>
        <time>2021-11-07T08:07:03Z</time>
      </trkpt>
      <trkpt lat="46.57233" lon="0.24272">
        <ele>108</ele>
        <time>2021-11-07T08:07:04Z</time>
      </trkpt>
      <trkpt lat="46.5723" lon="0.24271">
        <ele>107.2</ele>
        <time>2021-11-07T08:07:05Z</time>
      </trkpt>
      <trkpt lat="46.5723" lon="0.24269">
        <ele>106.2</ele>
        <time>2021-11-07T08:07:06Z</time>
      </trkpt>
      <trkpt lat="46.5723" lon="0.24263">
        <ele>105</ele>
        <time>2021-11-07T08:07:08Z</time>
      </trkpt>
      <trkpt lat="46.57232" lon="0.24254">
        <ele>104.4</ele>
        <time>2021-11-07T08:07:10Z</time>
      </trkpt>
      <trkpt lat="46.57233" lon="0.24241">
        <ele>104</ele>
        <time>2021-11-07T08:07:12Z</time>
      </trkpt>
      <trkpt lat="46.57237" lon="0.24227">
        <ele>103.2</ele>
        <time>2021-11-07T08:07:14Z</time>
      </trkpt>
      <trkpt lat="46.5724" lon="0.2422">
        <ele>103</ele>
        <time>2021-11-07T08:07:15Z</time>
      </trkpt>
      <trkpt lat="46.57244" lon="0.24212">
        <ele>102.6</ele>
        <time>2021-11-07T08:07:16Z</time>
      </trkpt>
      <trkpt lat="46.57248" lon="0.24204">
        <ele>102.2</ele>
        <time>2021-11-07T08:07:17Z</time>
      </trkpt>
      <trkpt lat="46.57252" lon="0.24196">
        <ele>102</ele>
        <time>2021-11-07T08:07:18Z</time>
      </trkpt>
      <trkpt lat="46.57259" lon="0.24177">
        <ele>100.8</ele>
        <time>2021-11-07T08:07:20Z</time>
      </trkpt>
      <trkpt lat="46.57265" lon="0.24156">
        <ele>99.6</ele>
        <time>2021-11-07T08:07:22Z</time>
      </trkpt>
      <trkpt lat="46.57271" lon="0.24137">
        <ele>97.8</ele>
        <time>2021-11-07T08:07:24Z</time>
      </trkpt>
      <trkpt lat="46.57274" lon="0.24129">
        <ele>97.2</ele>
        <time>2021-11-07T08:07:25Z</time>
      </trkpt>
      <trkpt lat="46.57278" lon="0.24122">
        <ele>96</ele>
        <time>2021-11-07T08:07:26Z</time>
      </trkpt>
      <trkpt lat="46.57283" lon="0.24114">
        <ele>95.4</ele>
        <time>2021-11-07T08:07:27Z</time>
      </trkpt>
      <trkpt lat="46.57287" lon="0.24107">
        <ele>94.8</ele>
        <time>2021-11-07T08:07:28Z</time>
      </trkpt>
      <trkpt lat="46.57292" lon="0.24101">
        <ele>93.8</ele>
        <time>2021-11-07T08:07:29Z</time>
      </trkpt>
      <trkpt lat="46.57296" lon="0.24093">
        <ele>92.6</ele>
        <time>2021-11-07T08:07:30Z</time>
      </trkpt>
      <trkpt lat="46.57299" lon="0.24077">
        <ele>90.8</ele>
        <time>2021-11-07T08:07:32Z</time>
      </trkpt>
      <trkpt lat="46.57298" lon="0.24069">
        <ele>89.8</ele>
        <time>2021-11-07T08:07:34Z</time>
      </trkpt>
      <trkpt lat="46.57297" lon="0.24067">
        <ele>89.4</ele>
        <time>2021-11-07T08:07:35Z</time>
      </trkpt>
      <trkpt lat="46.57295" lon="0.24067">
        <ele>89</ele>
        <time>2021-11-07T08:07:37Z</time>
      </trkpt>
      <trkpt lat="46.57293" lon="0.24068">
        <ele>88.8</ele>
        <time>2021-11-07T08:07:39Z</time>
      </trkpt>
      <trkpt lat="46.57293" lon="0.2407">
        <ele>88.8</ele>
        <time>2021-11-07T08:07:41Z</time>
      </trkpt>
      <trkpt lat="46.57296" lon="0.24066">
        <ele>88.8</ele>
        <time>2021-11-07T08:07:44Z</time>
      </trkpt>
      <trkpt lat="46.57293" lon="0.24051">
        <ele>89.2</ele>
        <time>2021-11-07T08:07:48Z</time>
      </trkpt>
      <trkpt lat="46.57285" lon="0.24025">
        <ele>89.4</ele>
        <time>2021-11-07T08:07:54Z</time>
      </trkpt>
      <trkpt lat="46.57283" lon="0.24019">
        <ele>89.2</ele>
        <time>2021-11-07T08:07:55Z</time>
      </trkpt>
      <trkpt lat="46.57275" lon="0.23995">
        <ele>89</ele>
        <time>2021-11-07T08:08:00Z</time>
      </trkpt>
      <trkpt lat="46.57269" lon="0.23978">
        <ele>89.2</ele>
        <time>2021-11-07T08:08:03Z</time>
      </trkpt>
      <trkpt lat="46.57266" lon="0.23967">
        <ele>89.2</ele>
        <time>2021-11-07T08:08:05Z</time>
      </trkpt>
      <trkpt lat="46.57264" lon="0.23962">
        <ele>89.4</ele>
        <time>2021-11-07T08:08:06Z</time>
      </trkpt>
      <trkpt lat="46.57254" lon="0.23952">
        <ele>90</ele>
        <time>2021-11-07T08:08:09Z</time>
      </trkpt>
      <trkpt lat="46.57237" lon="0.23947">
        <ele>90.6</ele>
        <time>2021-11-07T08:08:13Z</time>
      </trkpt>
      <trkpt lat="46.57228" lon="0.23944">
        <ele>91</ele>
        <time>2021-11-07T08:08:16Z</time>
      </trkpt>
      <trkpt lat="46.57221" lon="0.23944">
        <ele>91.8</ele>
        <time>2021-11-07T08:08:19Z</time>
      </trkpt>
      <trkpt lat="46.57213" lon="0.23943">
        <ele>93</ele>
        <time>2021-11-07T08:08:22Z</time>
      </trkpt>
      <trkpt lat="46.57211" lon="0.23943">
        <ele>93.2</ele>
        <time>2021-11-07T08:08:23Z</time>
      </trkpt>
      <trkpt lat="46.57207" lon="0.23942">
        <ele>94</ele>
        <time>2021-11-07T08:08:24Z</time>
      </trkpt>
      <trkpt lat="46.57201" lon="0.23942">
        <ele>95.4</ele>
        <time>2021-11-07T08:08:28Z</time>
      </trkpt>
      <trkpt lat="46.57197" lon="0.23942">
        <ele>96.6</ele>
        <time>2021-11-07T08:08:30Z</time>
      </trkpt>
      <trkpt lat="46.57192" lon="0.23942">
        <ele>97.6</ele>
        <time>2021-11-07T08:08:32Z</time>
      </trkpt>
      <trkpt lat="46.57183" lon="0.23937">
        <ele>98.6</ele>
        <time>2021-11-07T08:08:36Z</time>
      </trkpt>
      <trkpt lat="46.57182" lon="0.23934">
        <ele>99</ele>
        <time>2021-11-07T08:08:37Z</time>
      </trkpt>
      <trkpt lat="46.57171" lon="0.2392">
        <ele>99.8</ele>
        <time>2021-11-07T08:08:44Z</time>
      </trkpt>
      <trkpt lat="46.57169" lon="0.23918">
        <ele>100.4</ele>
        <time>2021-11-07T08:08:45Z</time>
      </trkpt>
      <trkpt lat="46.57164" lon="0.23913">
        <ele>100.8</ele>
        <time>2021-11-07T08:08:48Z</time>
      </trkpt>
      <trkpt lat="46.57161" lon="0.2391">
        <ele>101.2</ele>
        <time>2021-11-07T08:08:50Z</time>
      </trkpt>
      <trkpt lat="46.57152" lon="0.23899">
        <ele>101.8</ele>
        <time>2021-11-07T08:08:55Z</time>
      </trkpt>
      <trkpt lat="46.57151" lon="0.23897">
        <ele>102</ele>
        <time>2021-11-07T08:08:56Z</time>
      </trkpt>
      <trkpt lat="46.57138" lon="0.23883">
        <ele>103</ele>
        <time>2021-11-07T08:09:02Z</time>
      </trkpt>
      <trkpt lat="46.57123" lon="0.23868">
        <ele>103.4</ele>
        <time>2021-11-07T08:09:09Z</time>
      </trkpt>
      <trkpt lat="46.57113" lon="0.23859">
        <ele>104</ele>
        <time>2021-11-07T08:09:13Z</time>
      </trkpt>
      <trkpt lat="46.5711" lon="0.23855">
        <ele>104.2</ele>
        <time>2021-11-07T08:09:15Z</time>
      </trkpt>
      <trkpt lat="46.57096" lon="0.23843">
        <ele>105</ele>
        <time>2021-11-07T08:09:21Z</time>
      </trkpt>
      <trkpt lat="46.57094" lon="0.23841">
        <ele>105</ele>
        <time>2021-11-07T08:09:22Z</time>
      </trkpt>
      <trkpt lat="46.57081" lon="0.2383">
        <ele>105.8</ele>
        <time>2021-11-07T08:09:28Z</time>
      </trkpt>
      <trkpt lat="46.57076" lon="0.23826">
        <ele>106</ele>
        <time>2021-11-07T08:09:30Z</time>
      </trkpt>
      <trkpt lat="46.57062" lon="0.23817">
        <ele>107.2</ele>
        <time>2021-11-07T08:09:35Z</time>
      </trkpt>
      <trkpt lat="46.57049" lon="0.23812">
        <ele>107.6</ele>
        <time>2021-11-07T08:09:40Z</time>
      </trkpt>
      <trkpt lat="46.57044" lon="0.23811">
        <ele>108.2</ele>
        <time>2021-11-07T08:09:42Z</time>
      </trkpt>
      <trkpt lat="46.57034" lon="0.23809">
        <ele>109.2</ele>
        <time>2021-11-07T08:09:46Z</time>
      </trkpt>
      <trkpt lat="46.57031" lon="0.23809">
        <ele>109.2</ele>
        <time>2021-11-07T08:09:47Z</time>
      </trkpt>
      <trkpt lat="46.5702" lon="0.23806">
        <ele>110.2</ele>
        <time>2021-11-07T08:09:52Z</time>
      </trkpt>
      <trkpt lat="46.57014" lon="0.23806">
        <ele>111</ele>
        <time>2021-11-07T08:09:55Z</time>
      </trkpt>
      <trkpt lat="46.57011" lon="0.23806">
        <ele>111.4</ele>
        <time>2021-11-07T08:09:57Z</time>
      </trkpt>
      <trkpt lat="46.57004" lon="0.23806">
        <ele>112.6</ele>
        <time>2021-11-07T08:10:01Z</time>
      </trkpt>
      <trkpt lat="46.56999" lon="0.23807">
        <ele>113.4</ele>
        <time>2021-11-07T08:10:04Z</time>
      </trkpt>
      <trkpt lat="46.56997" lon="0.23808">
        <ele>113.8</ele>
        <time>2021-11-07T08:10:05Z</time>
      </trkpt>
      <trkpt lat="46.56993" lon="0.2381">
        <ele>114.8</ele>
        <time>2021-11-07T08:10:08Z</time>
      </trkpt>
      <trkpt lat="46.56989" lon="0.23812">
        <ele>115.6</ele>
        <time>2021-11-07T08:10:11Z</time>
      </trkpt>
      <trkpt lat="46.56988" lon="0.23813">
        <ele>116</ele>
        <time>2021-11-07T08:10:12Z</time>
      </trkpt>
      <trkpt lat="46.56981" lon="0.2382">
        <ele>117.4</ele>
        <time>2021-11-07T08:10:18Z</time>
      </trkpt>
      <trkpt lat="46.56977" lon="0.23823">
        <ele>117.8</ele>
        <time>2021-11-07T08:10:21Z</time>
      </trkpt>
      <trkpt lat="46.56975" lon="0.23826">
        <ele>118.6</ele>
        <time>2021-11-07T08:10:23Z</time>
      </trkpt>
      <trkpt lat="46.5697" lon="0.23832">
        <ele>119.6</ele>
        <time>2021-11-07T08:10:28Z</time>
      </trkpt>
      <trkpt lat="46.56966" lon="0.23839">
        <ele>120.6</ele>
        <time>2021-11-07T08:10:33Z</time>
      </trkpt>
      <trkpt lat="46.56966" lon="0.2384">
        <ele>120.8</ele>
        <time>2021-11-07T08:10:34Z</time>
      </trkpt>
      <trkpt lat="46.56963" lon="0.23846">
        <ele>122</ele>
        <time>2021-11-07T08:10:38Z</time>
      </trkpt>
      <trkpt lat="46.56958" lon="0.23851">
        <ele>123</ele>
        <time>2021-11-07T08:10:43Z</time>
      </trkpt>
      <trkpt lat="46.56954" lon="0.23854">
        <ele>124</ele>
        <time>2021-11-07T08:10:46Z</time>
      </trkpt>
      <trkpt lat="46.56952" lon="0.23855">
        <ele>124.2</ele>
        <time>2021-11-07T08:10:47Z</time>
      </trkpt>
      <trkpt lat="46.56948" lon="0.23858">
        <ele>125.8</ele>
        <time>2021-11-07T08:10:51Z</time>
      </trkpt>
      <trkpt lat="46.56941" lon="0.23858">
        <ele>126.8</ele>
        <time>2021-11-07T08:10:57Z</time>
      </trkpt>
      <trkpt lat="46.5694" lon="0.23857">
        <ele>126.8</ele>
        <time>2021-11-07T08:10:58Z</time>
      </trkpt>
      <trkpt lat="46.56935" lon="0.23849">
        <ele>127.8</ele>
        <time>2021-11-07T08:11:04Z</time>
      </trkpt>
      <trkpt lat="46.56934" lon="0.23847">
        <ele>128</ele>
        <time>2021-11-07T08:11:05Z</time>
      </trkpt>
      <trkpt lat="46.56933" lon="0.23843">
        <ele>128.2</ele>
        <time>2021-11-07T08:11:08Z</time>
      </trkpt>
      <trkpt lat="46.56928" lon="0.23833">
        <ele>129</ele>
        <time>2021-11-07T08:11:14Z</time>
      </trkpt>
      <trkpt lat="46.56924" lon="0.23822">
        <ele>129.6</ele>
        <time>2021-11-07T08:11:20Z</time>
      </trkpt>
      <trkpt lat="46.5692" lon="0.23814">
        <ele>130.2</ele>
        <time>2021-11-07T08:11:23Z</time>
      </trkpt>
      <trkpt lat="46.56915" lon="0.238">
        <ele>130.4</ele>
        <time>2021-11-07T08:11:28Z</time>
      </trkpt>
      <trkpt lat="46.56913" lon="0.23783">
        <ele>131.2</ele>
        <time>2021-11-07T08:11:33Z</time>
      </trkpt>
      <trkpt lat="46.56913" lon="0.2378">
        <ele>131.2</ele>
        <time>2021-11-07T08:11:34Z</time>
      </trkpt>
      <trkpt lat="46.56905" lon="0.23764">
        <ele>131.4</ele>
        <time>2021-11-07T08:11:40Z</time>
      </trkpt>
      <trkpt lat="46.56898" lon="0.23756">
        <ele>132.2</ele>
        <time>2021-11-07T08:11:44Z</time>
      </trkpt>
      <trkpt lat="46.56891" lon="0.23748">
        <ele>132.8</ele>
        <time>2021-11-07T08:11:48Z</time>
      </trkpt>
      <trkpt lat="46.56885" lon="0.2374">
        <ele>133.4</ele>
        <time>2021-11-07T08:11:52Z</time>
      </trkpt>
      <trkpt lat="46.56878" lon="0.23731">
        <ele>134</ele>
        <time>2021-11-07T08:11:56Z</time>
      </trkpt>
      <trkpt lat="46.5687" lon="0.23721">
        <ele>134.4</ele>
        <time>2021-11-07T08:12:01Z</time>
      </trkpt>
      <trkpt lat="46.56862" lon="0.2371">
        <ele>134.6</ele>
        <time>2021-11-07T08:12:05Z</time>
      </trkpt>
      <trkpt lat="46.5685" lon="0.23695">
        <ele>134.8</ele>
        <time>2021-11-07T08:12:11Z</time>
      </trkpt>
      <trkpt lat="46.56838" lon="0.23684">
        <ele>135</ele>
        <time>2021-11-07T08:12:17Z</time>
      </trkpt>
      <trkpt lat="46.56829" lon="0.23681">
        <ele>135.6</ele>
        <time>2021-11-07T08:12:20Z</time>
      </trkpt>
      <trkpt lat="46.56818" lon="0.23681">
        <ele>136</ele>
        <time>2021-11-07T08:12:24Z</time>
      </trkpt>
      <trkpt lat="46.56802" lon="0.23674">
        <ele>136.4</ele>
        <time>2021-11-07T08:12:30Z</time>
      </trkpt>
      <trkpt lat="46.56796" lon="0.23672">
        <ele>136.6</ele>
        <time>2021-11-07T08:12:32Z</time>
      </trkpt>
      <trkpt lat="46.56781" lon="0.23667">
        <ele>137</ele>
        <time>2021-11-07T08:12:37Z</time>
      </trkpt>
      <trkpt lat="46.56764" lon="0.23665">
        <ele>137.2</ele>
        <time>2021-11-07T08:12:43Z</time>
      </trkpt>
      <trkpt lat="46.56745" lon="0.23665">
        <ele>137</ele>
        <time>2021-11-07T08:12:50Z</time>
      </trkpt>
      <trkpt lat="46.56724" lon="0.23664">
        <ele>136.8</ele>
        <time>2021-11-07T08:12:57Z</time>
      </trkpt>
      <trkpt lat="46.56703" lon="0.23655">
        <ele>136.4</ele>
        <time>2021-11-07T08:13:03Z</time>
      </trkpt>
      <trkpt lat="46.5669" lon="0.23646">
        <ele>136.4</ele>
        <time>2021-11-07T08:13:07Z</time>
      </trkpt>
      <trkpt lat="46.56684" lon="0.23639">
        <ele>136.8</ele>
        <time>2021-11-07T08:13:09Z</time>
      </trkpt>
      <trkpt lat="46.56674" lon="0.23628">
        <ele>136.8</ele>
        <time>2021-11-07T08:13:12Z</time>
      </trkpt>
      <trkpt lat="46.56668" lon="0.23618">
        <ele>137</ele>
        <time>2021-11-07T08:13:14Z</time>
      </trkpt>
      <trkpt lat="46.56662" lon="0.23608">
        <ele>137.2</ele>
        <time>2021-11-07T08:13:16Z</time>
      </trkpt>
      <trkpt lat="46.56658" lon="0.23597">
        <ele>137.2</ele>
        <time>2021-11-07T08:13:18Z</time>
      </trkpt>
      <trkpt lat="46.56655" lon="0.23591">
        <ele>137.2</ele>
        <time>2021-11-07T08:13:19Z</time>
      </trkpt>
      <trkpt lat="46.56651" lon="0.23585">
        <ele>137.2</ele>
        <time>2021-11-07T08:13:20Z</time>
      </trkpt>
      <trkpt lat="46.56639" lon="0.23566">
        <ele>137.4</ele>
        <time>2021-11-07T08:13:24Z</time>
      </trkpt>
      <trkpt lat="46.56625" lon="0.23543">
        <ele>137.6</ele>
        <time>2021-11-07T08:13:29Z</time>
      </trkpt>
      <trkpt lat="46.56621" lon="0.23537">
        <ele>137.8</ele>
        <time>2021-11-07T08:13:30Z</time>
      </trkpt>
      <trkpt lat="46.56608" lon="0.2351">
        <ele>138.2</ele>
        <time>2021-11-07T08:13:35Z</time>
      </trkpt>
      <trkpt lat="46.56606" lon="0.23504">
        <ele>138.2</ele>
        <time>2021-11-07T08:13:36Z</time>
      </trkpt>
      <trkpt lat="46.56599" lon="0.23464">
        <ele>138</ele>
        <time>2021-11-07T08:13:42Z</time>
      </trkpt>
      <trkpt lat="46.56595" lon="0.23444">
        <ele>138.2</ele>
        <time>2021-11-07T08:13:45Z</time>
      </trkpt>
      <trkpt lat="46.56593" lon="0.2343">
        <ele>138.4</ele>
        <time>2021-11-07T08:13:47Z</time>
      </trkpt>
      <trkpt lat="46.5659" lon="0.23396">
        <ele>138.2</ele>
        <time>2021-11-07T08:13:53Z</time>
      </trkpt>
      <trkpt lat="46.56587" lon="0.23359">
        <ele>138.2</ele>
        <time>2021-11-07T08:13:59Z</time>
      </trkpt>
      <trkpt lat="46.56586" lon="0.23346">
        <ele>138</ele>
        <time>2021-11-07T08:14:01Z</time>
      </trkpt>
      <trkpt lat="46.56585" lon="0.23339">
        <ele>138</ele>
        <time>2021-11-07T08:14:02Z</time>
      </trkpt>
      <trkpt lat="46.56579" lon="0.23313">
        <ele>138</ele>
        <time>2021-11-07T08:14:06Z</time>
      </trkpt>
      <trkpt lat="46.56574" lon="0.23302">
        <ele>138</ele>
        <time>2021-11-07T08:14:08Z</time>
      </trkpt>
      <trkpt lat="46.56569" lon="0.23291">
        <ele>138.2</ele>
        <time>2021-11-07T08:14:10Z</time>
      </trkpt>
      <trkpt lat="46.56564" lon="0.23286">
        <ele>138.4</ele>
        <time>2021-11-07T08:14:11Z</time>
      </trkpt>
      <trkpt lat="46.56559" lon="0.2328">
        <ele>138.4</ele>
        <time>2021-11-07T08:14:12Z</time>
      </trkpt>
      <trkpt lat="46.56545" lon="0.23264">
        <ele>138.4</ele>
        <time>2021-11-07T08:14:15Z</time>
      </trkpt>
      <trkpt lat="46.56542" lon="0.23258">
        <ele>138.4</ele>
        <time>2021-11-07T08:14:16Z</time>
      </trkpt>
      <trkpt lat="46.56537" lon="0.23253">
        <ele>138.4</ele>
        <time>2021-11-07T08:14:17Z</time>
      </trkpt>
      <trkpt lat="46.56527" lon="0.23244">
        <ele>138.4</ele>
        <time>2021-11-07T08:14:19Z</time>
      </trkpt>
      <trkpt lat="46.56522" lon="0.23241">
        <ele>138.4</ele>
        <time>2021-11-07T08:14:20Z</time>
      </trkpt>
      <trkpt lat="46.56506" lon="0.23231">
        <ele>138.6</ele>
        <time>2021-11-07T08:14:23Z</time>
      </trkpt>
      <trkpt lat="46.56493" lon="0.23222">
        <ele>138.8</ele>
        <time>2021-11-07T08:14:26Z</time>
      </trkpt>
      <trkpt lat="46.56478" lon="0.23216">
        <ele>138.8</ele>
        <time>2021-11-07T08:14:29Z</time>
      </trkpt>
      <trkpt lat="46.56469" lon="0.23215">
        <ele>138.8</ele>
        <time>2021-11-07T08:14:31Z</time>
      </trkpt>
      <trkpt lat="46.5646" lon="0.23214">
        <ele>139</ele>
        <time>2021-11-07T08:14:33Z</time>
      </trkpt>
      <trkpt lat="46.56441" lon="0.23215">
        <ele>139.2</ele>
        <time>2021-11-07T08:14:37Z</time>
      </trkpt>
      <trkpt lat="46.56404" lon="0.23217">
        <ele>139.6</ele>
        <time>2021-11-07T08:14:45Z</time>
      </trkpt>
      <trkpt lat="46.56371" lon="0.2321">
        <ele>139.6</ele>
        <time>2021-11-07T08:14:51Z</time>
      </trkpt>
      <trkpt lat="46.56366" lon="0.23209">
        <ele>139.6</ele>
        <time>2021-11-07T08:14:52Z</time>
      </trkpt>
      <trkpt lat="46.5634" lon="0.232">
        <ele>139.4</ele>
        <time>2021-11-07T08:14:57Z</time>
      </trkpt>
      <trkpt lat="46.5631" lon="0.23195">
        <ele>139.4</ele>
        <time>2021-11-07T08:15:03Z</time>
      </trkpt>
      <trkpt lat="46.56285" lon="0.23199">
        <ele>139.4</ele>
        <time>2021-11-07T08:15:08Z</time>
      </trkpt>
      <trkpt lat="46.56281" lon="0.232">
        <ele>139.4</ele>
        <time>2021-11-07T08:15:09Z</time>
      </trkpt>
      <trkpt lat="46.56266" lon="0.23209">
        <ele>139</ele>
        <time>2021-11-07T08:15:13Z</time>
      </trkpt>
      <trkpt lat="46.56258" lon="0.23212">
        <ele>139</ele>
        <time>2021-11-07T08:15:15Z</time>
      </trkpt>
      <trkpt lat="46.56231" lon="0.23212">
        <ele>139</ele>
        <time>2021-11-07T08:15:21Z</time>
      </trkpt>
      <trkpt lat="46.56227" lon="0.23212">
        <ele>139</ele>
        <time>2021-11-07T08:15:22Z</time>
      </trkpt>
      <trkpt lat="46.56209" lon="0.23213">
        <ele>139</ele>
        <time>2021-11-07T08:15:26Z</time>
      </trkpt>
      <trkpt lat="46.56172" lon="0.23206">
        <ele>139</ele>
        <time>2021-11-07T08:15:34Z</time>
      </trkpt>
      <trkpt lat="46.5615" lon="0.232">
        <ele>139.4</ele>
        <time>2021-11-07T08:15:39Z</time>
      </trkpt>
      <trkpt lat="46.56137" lon="0.23197">
        <ele>139.4</ele>
        <time>2021-11-07T08:15:42Z</time>
      </trkpt>
      <trkpt lat="46.56123" lon="0.23194">
        <ele>139.8</ele>
        <time>2021-11-07T08:15:45Z</time>
      </trkpt>
      <trkpt lat="46.56102" lon="0.23188">
        <ele>139.8</ele>
        <time>2021-11-07T08:15:50Z</time>
      </trkpt>
      <trkpt lat="46.561" lon="0.23185">
        <ele>139.8</ele>
        <time>2021-11-07T08:15:51Z</time>
      </trkpt>
      <trkpt lat="46.56098" lon="0.23177">
        <ele>140</ele>
        <time>2021-11-07T08:15:53Z</time>
      </trkpt>
      <trkpt lat="46.56104" lon="0.23167">
        <ele>140.4</ele>
        <time>2021-11-07T08:15:56Z</time>
      </trkpt>
      <trkpt lat="46.56117" lon="0.23143">
        <ele>140.8</ele>
        <time>2021-11-07T08:16:01Z</time>
      </trkpt>
      <trkpt lat="46.56136" lon="0.2311">
        <ele>141.2</ele>
        <time>2021-11-07T08:16:08Z</time>
      </trkpt>
      <trkpt lat="46.56138" lon="0.23105">
        <ele>141.2</ele>
        <time>2021-11-07T08:16:09Z</time>
      </trkpt>
      <trkpt lat="46.56154" lon="0.23073">
        <ele>141.4</ele>
        <time>2021-11-07T08:16:15Z</time>
      </trkpt>
      <trkpt lat="46.5616" lon="0.23062">
        <ele>141.6</ele>
        <time>2021-11-07T08:16:17Z</time>
      </trkpt>
      <trkpt lat="46.56181" lon="0.23023">
        <ele>141.6</ele>
        <time>2021-11-07T08:16:24Z</time>
      </trkpt>
      <trkpt lat="46.56197" lon="0.22995">
        <ele>141.6</ele>
        <time>2021-11-07T08:16:29Z</time>
      </trkpt>
      <trkpt lat="46.56203" lon="0.22983">
        <ele>141.6</ele>
        <time>2021-11-07T08:16:31Z</time>
      </trkpt>
      <trkpt lat="46.56206" lon="0.22977">
        <ele>141.8</ele>
        <time>2021-11-07T08:16:32Z</time>
      </trkpt>
      <trkpt lat="46.56226" lon="0.22941">
        <ele>141.4</ele>
        <time>2021-11-07T08:16:38Z</time>
      </trkpt>
      <trkpt lat="46.56229" lon="0.22936">
        <ele>141.4</ele>
        <time>2021-11-07T08:16:39Z</time>
      </trkpt>
      <trkpt lat="46.56249" lon="0.229">
        <ele>141.2</ele>
        <time>2021-11-07T08:16:46Z</time>
      </trkpt>
      <trkpt lat="46.5625" lon="0.22892">
        <ele>141.2</ele>
        <time>2021-11-07T08:16:48Z</time>
      </trkpt>
      <trkpt lat="46.56248" lon="0.22886">
        <ele>141.2</ele>
        <time>2021-11-07T08:16:50Z</time>
      </trkpt>
      <trkpt lat="46.56236" lon="0.22878">
        <ele>141.2</ele>
        <time>2021-11-07T08:16:54Z</time>
      </trkpt>
      <trkpt lat="46.56204" lon="0.22864">
        <ele>141.8</ele>
        <time>2021-11-07T08:17:01Z</time>
      </trkpt>
      <trkpt lat="46.56199" lon="0.22861">
        <ele>141.8</ele>
        <time>2021-11-07T08:17:02Z</time>
      </trkpt>
      <trkpt lat="46.56164" lon="0.22846">
        <ele>141.8</ele>
        <time>2021-11-07T08:17:09Z</time>
      </trkpt>
      <trkpt lat="46.5613" lon="0.2283">
        <ele>141</ele>
        <time>2021-11-07T08:17:15Z</time>
      </trkpt>
      <trkpt lat="46.5608" lon="0.22807">
        <ele>141.6</ele>
        <time>2021-11-07T08:17:24Z</time>
      </trkpt>
      <trkpt lat="46.56041" lon="0.2279">
        <ele>141.6</ele>
        <time>2021-11-07T08:17:31Z</time>
      </trkpt>
      <trkpt lat="46.55997" lon="0.22771">
        <ele>141.8</ele>
        <time>2021-11-07T08:17:39Z</time>
      </trkpt>
      <trkpt lat="46.55949" lon="0.22748">
        <ele>141.6</ele>
        <time>2021-11-07T08:17:48Z</time>
      </trkpt>
      <trkpt lat="46.55917" lon="0.22735">
        <ele>141.4</ele>
        <time>2021-11-07T08:17:54Z</time>
      </trkpt>
      <trkpt lat="46.55882" lon="0.22724">
        <ele>141.6</ele>
        <time>2021-11-07T08:18:01Z</time>
      </trkpt>
      <trkpt lat="46.55851" lon="0.22715">
        <ele>142.4</ele>
        <time>2021-11-07T08:18:08Z</time>
      </trkpt>
      <trkpt lat="46.55846" lon="0.22712">
        <ele>142.4</ele>
        <time>2021-11-07T08:18:09Z</time>
      </trkpt>
      <trkpt lat="46.55837" lon="0.22706">
        <ele>142.6</ele>
        <time>2021-11-07T08:18:11Z</time>
      </trkpt>
      <trkpt lat="46.55833" lon="0.22701">
        <ele>142.6</ele>
        <time>2021-11-07T08:18:12Z</time>
      </trkpt>
      <trkpt lat="46.55826" lon="0.2269">
        <ele>143.2</ele>
        <time>2021-11-07T08:18:14Z</time>
      </trkpt>
      <trkpt lat="46.55822" lon="0.22684">
        <ele>143.4</ele>
        <time>2021-11-07T08:18:15Z</time>
      </trkpt>
      <trkpt lat="46.55814" lon="0.22676">
        <ele>143.4</ele>
        <time>2021-11-07T08:18:17Z</time>
      </trkpt>
      <trkpt lat="46.55786" lon="0.22648">
        <ele>143.6</ele>
        <time>2021-11-07T08:18:24Z</time>
      </trkpt>
      <trkpt lat="46.55745" lon="0.22612">
        <ele>143.6</ele>
        <time>2021-11-07T08:18:34Z</time>
      </trkpt>
      <trkpt lat="46.55726" lon="0.22595">
        <ele>144</ele>
        <time>2021-11-07T08:18:39Z</time>
      </trkpt>
      <trkpt lat="46.55718" lon="0.22587">
        <ele>144.2</ele>
        <time>2021-11-07T08:18:41Z</time>
      </trkpt>
      <trkpt lat="46.55696" lon="0.22567">
        <ele>144.4</ele>
        <time>2021-11-07T08:18:46Z</time>
      </trkpt>
      <trkpt lat="46.55662" lon="0.22539">
        <ele>144.8</ele>
        <time>2021-11-07T08:18:54Z</time>
      </trkpt>
      <trkpt lat="46.55648" lon="0.22526">
        <ele>144.8</ele>
        <time>2021-11-07T08:18:57Z</time>
      </trkpt>
      <trkpt lat="46.55627" lon="0.22503">
        <ele>144</ele>
        <time>2021-11-07T08:19:01Z</time>
      </trkpt>
      <trkpt lat="46.55623" lon="0.22499">
        <ele>144</ele>
        <time>2021-11-07T08:19:02Z</time>
      </trkpt>
      <trkpt lat="46.55607" lon="0.22476">
        <ele>143.6</ele>
        <time>2021-11-07T08:19:07Z</time>
      </trkpt>
      <trkpt lat="46.55584" lon="0.2244">
        <ele>144.2</ele>
        <time>2021-11-07T08:19:13Z</time>
      </trkpt>
      <trkpt lat="46.55569" lon="0.22404">
        <ele>143.4</ele>
        <time>2021-11-07T08:19:18Z</time>
      </trkpt>
      <trkpt lat="46.55561" lon="0.22363">
        <ele>143.4</ele>
        <time>2021-11-07T08:19:23Z</time>
      </trkpt>
      <trkpt lat="46.55558" lon="0.2234">
        <ele>143</ele>
        <time>2021-11-07T08:19:26Z</time>
      </trkpt>
      <trkpt lat="46.55552" lon="0.22311">
        <ele>142.4</ele>
        <time>2021-11-07T08:19:30Z</time>
      </trkpt>
      <trkpt lat="46.55551" lon="0.22305">
        <ele>142</ele>
        <time>2021-11-07T08:19:31Z</time>
      </trkpt>
      <trkpt lat="46.5554" lon="0.22275">
        <ele>142</ele>
        <time>2021-11-07T08:19:36Z</time>
      </trkpt>
      <trkpt lat="46.5552" lon="0.22239">
        <ele>142.2</ele>
        <time>2021-11-07T08:19:42Z</time>
      </trkpt>
      <trkpt lat="46.55504" lon="0.22206">
        <ele>142.6</ele>
        <time>2021-11-07T08:19:48Z</time>
      </trkpt>
      <trkpt lat="46.55492" lon="0.22178">
        <ele>143</ele>
        <time>2021-11-07T08:19:53Z</time>
      </trkpt>
      <trkpt lat="46.5549" lon="0.22173">
        <ele>143.2</ele>
        <time>2021-11-07T08:19:54Z</time>
      </trkpt>
      <trkpt lat="46.55482" lon="0.22139">
        <ele>143.6</ele>
        <time>2021-11-07T08:20:00Z</time>
      </trkpt>
      <trkpt lat="46.55477" lon="0.22122">
        <ele>143.8</ele>
        <time>2021-11-07T08:20:03Z</time>
      </trkpt>
      <trkpt lat="46.5547" lon="0.22104">
        <ele>144.2</ele>
        <time>2021-11-07T08:20:06Z</time>
      </trkpt>
      <trkpt lat="46.55464" lon="0.22095">
        <ele>144.4</ele>
        <time>2021-11-07T08:20:08Z</time>
      </trkpt>
      <trkpt lat="46.55453" lon="0.22076">
        <ele>144.4</ele>
        <time>2021-11-07T08:20:12Z</time>
      </trkpt>
      <trkpt lat="46.55441" lon="0.2205">
        <ele>144.4</ele>
        <time>2021-11-07T08:20:17Z</time>
      </trkpt>
      <trkpt lat="46.5544" lon="0.22045">
        <ele>144.4</ele>
        <time>2021-11-07T08:20:18Z</time>
      </trkpt>
      <trkpt lat="46.55437" lon="0.22039">
        <ele>144.4</ele>
        <time>2021-11-07T08:20:19Z</time>
      </trkpt>
      <trkpt lat="46.55426" lon="0.22021">
        <ele>144.4</ele>
        <time>2021-11-07T08:20:22Z</time>
      </trkpt>
      <trkpt lat="46.55403" lon="0.21982">
        <ele>144.2</ele>
        <time>2021-11-07T08:20:28Z</time>
      </trkpt>
      <trkpt lat="46.55391" lon="0.2196">
        <ele>144</ele>
        <time>2021-11-07T08:20:31Z</time>
      </trkpt>
      <trkpt lat="46.55383" lon="0.21947">
        <ele>144</ele>
        <time>2021-11-07T08:20:33Z</time>
      </trkpt>
      <trkpt lat="46.55356" lon="0.2191">
        <ele>143.2</ele>
        <time>2021-11-07T08:20:39Z</time>
      </trkpt>
      <trkpt lat="46.55351" lon="0.21903">
        <ele>143.2</ele>
        <time>2021-11-07T08:20:40Z</time>
      </trkpt>
      <trkpt lat="46.5533" lon="0.21872">
        <ele>142.6</ele>
        <time>2021-11-07T08:20:45Z</time>
      </trkpt>
      <trkpt lat="46.55328" lon="0.21866">
        <ele>142.4</ele>
        <time>2021-11-07T08:20:46Z</time>
      </trkpt>
      <trkpt lat="46.55327" lon="0.21855">
        <ele>142</ele>
        <time>2021-11-07T08:20:48Z</time>
      </trkpt>
      <trkpt lat="46.55331" lon="0.21847">
        <ele>141.8</ele>
        <time>2021-11-07T08:20:50Z</time>
      </trkpt>
      <trkpt lat="46.55334" lon="0.21844">
        <ele>141.6</ele>
        <time>2021-11-07T08:20:51Z</time>
      </trkpt>
      <trkpt lat="46.55338" lon="0.21842">
        <ele>141.6</ele>
        <time>2021-11-07T08:20:52Z</time>
      </trkpt>
      <trkpt lat="46.55354" lon="0.21836">
        <ele>141.4</ele>
        <time>2021-11-07T08:20:56Z</time>
      </trkpt>
      <trkpt lat="46.55391" lon="0.21829">
        <ele>143</ele>
        <time>2021-11-07T08:21:03Z</time>
      </trkpt>
      <trkpt lat="46.55435" lon="0.2183">
        <ele>143.2</ele>
        <time>2021-11-07T08:21:11Z</time>
      </trkpt>
      <trkpt lat="46.55478" lon="0.21835">
        <ele>143.8</ele>
        <time>2021-11-07T08:21:19Z</time>
      </trkpt>
      <trkpt lat="46.55511" lon="0.21846">
        <ele>144</ele>
        <time>2021-11-07T08:21:26Z</time>
      </trkpt>
      <trkpt lat="46.55515" lon="0.21848">
        <ele>144</ele>
        <time>2021-11-07T08:21:27Z</time>
      </trkpt>
      <trkpt lat="46.55544" lon="0.21856">
        <ele>144.4</ele>
        <time>2021-11-07T08:21:33Z</time>
      </trkpt>
      <trkpt lat="46.55549" lon="0.21855">
        <ele>144.4</ele>
        <time>2021-11-07T08:21:34Z</time>
      </trkpt>
      <trkpt lat="46.55565" lon="0.2185">
        <ele>144.4</ele>
        <time>2021-11-07T08:21:37Z</time>
      </trkpt>
      <trkpt lat="46.55581" lon="0.21843">
        <ele>144.2</ele>
        <time>2021-11-07T08:21:40Z</time>
      </trkpt>
      <trkpt lat="46.55624" lon="0.21822">
        <ele>143.6</ele>
        <time>2021-11-07T08:21:48Z</time>
      </trkpt>
      <trkpt lat="46.55662" lon="0.21811">
        <ele>142.8</ele>
        <time>2021-11-07T08:21:54Z</time>
      </trkpt>
      <trkpt lat="46.55691" lon="0.21803">
        <ele>141.8</ele>
        <time>2021-11-07T08:21:59Z</time>
      </trkpt>
      <trkpt lat="46.55695" lon="0.21801">
        <ele>141.8</ele>
        <time>2021-11-07T08:22:00Z</time>
      </trkpt>
      <trkpt lat="46.55697" lon="0.21796">
        <ele>141.8</ele>
        <time>2021-11-07T08:22:01Z</time>
      </trkpt>
      <trkpt lat="46.55698" lon="0.21786">
        <ele>141.6</ele>
        <time>2021-11-07T08:22:03Z</time>
      </trkpt>
      <trkpt lat="46.55696" lon="0.21768">
        <ele>141</ele>
        <time>2021-11-07T08:22:07Z</time>
      </trkpt>
      <trkpt lat="46.55695" lon="0.21763">
        <ele>141</ele>
        <time>2021-11-07T08:22:08Z</time>
      </trkpt>
      <trkpt lat="46.55693" lon="0.21736">
        <ele>141</ele>
        <time>2021-11-07T08:22:13Z</time>
      </trkpt>
      <trkpt lat="46.55693" lon="0.2173">
        <ele>141</ele>
        <time>2021-11-07T08:22:14Z</time>
      </trkpt>
      <trkpt lat="46.55696" lon="0.21711">
        <ele>141</ele>
        <time>2021-11-07T08:22:17Z</time>
      </trkpt>
      <trkpt lat="46.55696" lon="0.21703">
        <ele>140.8</ele>
        <time>2021-11-07T08:22:18Z</time>
      </trkpt>
      <trkpt lat="46.55696" lon="0.21696">
        <ele>140.6</ele>
        <time>2021-11-07T08:22:19Z</time>
      </trkpt>
      <trkpt lat="46.55695" lon="0.21683">
        <ele>140.6</ele>
        <time>2021-11-07T08:22:21Z</time>
      </trkpt>
      <trkpt lat="46.55696" lon="0.21662">
        <ele>140.6</ele>
        <time>2021-11-07T08:22:24Z</time>
      </trkpt>
      <trkpt lat="46.55697" lon="0.21648">
        <ele>140.4</ele>
        <time>2021-11-07T08:22:26Z</time>
      </trkpt>
      <trkpt lat="46.55698" lon="0.21633">
        <ele>139.4</ele>
        <time>2021-11-07T08:22:28Z</time>
      </trkpt>
      <trkpt lat="46.55698" lon="0.21615">
        <ele>138.8</ele>
        <time>2021-11-07T08:22:29Z</time>
      </trkpt>
      <trkpt lat="46.55696" lon="0.21595">
        <ele>138.2</ele>
        <time>2021-11-07T08:22:32Z</time>
      </trkpt>
      <trkpt lat="46.55697" lon="0.21576">
        <ele>137.4</ele>
        <time>2021-11-07T08:22:34Z</time>
      </trkpt>
      <trkpt lat="46.55698" lon="0.21567">
        <ele>137</ele>
        <time>2021-11-07T08:22:35Z</time>
      </trkpt>
      <trkpt lat="46.55704" lon="0.21541">
        <ele>135.8</ele>
        <time>2021-11-07T08:22:38Z</time>
      </trkpt>
      <trkpt lat="46.55711" lon="0.2151">
        <ele>135</ele>
        <time>2021-11-07T08:22:41Z</time>
      </trkpt>
      <trkpt lat="46.55714" lon="0.21501">
        <ele>134.6</ele>
        <time>2021-11-07T08:22:42Z</time>
      </trkpt>
      <trkpt lat="46.55728" lon="0.21465">
        <ele>133.4</ele>
        <time>2021-11-07T08:22:46Z</time>
      </trkpt>
      <trkpt lat="46.55743" lon="0.21426">
        <ele>132.4</ele>
        <time>2021-11-07T08:22:51Z</time>
      </trkpt>
      <trkpt lat="46.5575" lon="0.21407">
        <ele>131.8</ele>
        <time>2021-11-07T08:22:54Z</time>
      </trkpt>
      <trkpt lat="46.5575" lon="0.21402">
        <ele>131.4</ele>
        <time>2021-11-07T08:22:55Z</time>
      </trkpt>
      <trkpt lat="46.5575" lon="0.21399">
        <ele>131.2</ele>
        <time>2021-11-07T08:22:56Z</time>
      </trkpt>
      <trkpt lat="46.5575" lon="0.21396">
        <ele>131.2</ele>
        <time>2021-11-07T08:22:57Z</time>
      </trkpt>
      <trkpt lat="46.55745" lon="0.2138">
        <ele>131.2</ele>
        <time>2021-11-07T08:23:00Z</time>
      </trkpt>
      <trkpt lat="46.55725" lon="0.21354">
        <ele>132</ele>
        <time>2021-11-07T08:23:07Z</time>
      </trkpt>
      <trkpt lat="46.55718" lon="0.2135">
        <ele>132.4</ele>
        <time>2021-11-07T08:23:09Z</time>
      </trkpt>
      <trkpt lat="46.55708" lon="0.21347">
        <ele>133.6</ele>
        <time>2021-11-07T08:23:13Z</time>
      </trkpt>
      <trkpt lat="46.55694" lon="0.21346">
        <ele>134.6</ele>
        <time>2021-11-07T08:23:18Z</time>
      </trkpt>
      <trkpt lat="46.55691" lon="0.21346">
        <ele>134.6</ele>
        <time>2021-11-07T08:23:19Z</time>
      </trkpt>
      <trkpt lat="46.55674" lon="0.21344">
        <ele>135.6</ele>
        <time>2021-11-07T08:23:25Z</time>
      </trkpt>
      <trkpt lat="46.55671" lon="0.21344">
        <ele>135.8</ele>
        <time>2021-11-07T08:23:26Z</time>
      </trkpt>
      <trkpt lat="46.55655" lon="0.21339">
        <ele>137</ele>
        <time>2021-11-07T08:23:32Z</time>
      </trkpt>
      <trkpt lat="46.55638" lon="0.21331">
        <ele>137.2</ele>
        <time>2021-11-07T08:23:38Z</time>
      </trkpt>
      <trkpt lat="46.55621" lon="0.21322">
        <ele>138</ele>
        <time>2021-11-07T08:23:43Z</time>
      </trkpt>
      <trkpt lat="46.556" lon="0.21314">
        <ele>138.6</ele>
        <time>2021-11-07T08:23:49Z</time>
      </trkpt>
      <trkpt lat="46.55588" lon="0.21305">
        <ele>138.8</ele>
        <time>2021-11-07T08:23:54Z</time>
      </trkpt>
      <trkpt lat="46.5557" lon="0.21284">
        <ele>139</ele>
        <time>2021-11-07T08:24:02Z</time>
      </trkpt>
      <trkpt lat="46.55566" lon="0.21276">
        <ele>139</ele>
        <time>2021-11-07T08:24:04Z</time>
      </trkpt>
      <trkpt lat="46.55561" lon="0.21266">
        <ele>139</ele>
        <time>2021-11-07T08:24:07Z</time>
      </trkpt>
      <trkpt lat="46.55559" lon="0.21264">
        <ele>139</ele>
        <time>2021-11-07T08:24:08Z</time>
      </trkpt>
      <trkpt lat="46.55557" lon="0.2126">
        <ele>139</ele>
        <time>2021-11-07T08:24:09Z</time>
      </trkpt>
      <trkpt lat="46.5555" lon="0.21236">
        <ele>138.6</ele>
        <time>2021-11-07T08:24:15Z</time>
      </trkpt>
      <trkpt lat="46.55547" lon="0.2123">
        <ele>138.6</ele>
        <time>2021-11-07T08:24:16Z</time>
      </trkpt>
      <trkpt lat="46.55542" lon="0.2122">
        <ele>138.8</ele>
        <time>2021-11-07T08:24:18Z</time>
      </trkpt>
      <trkpt lat="46.55536" lon="0.21209">
        <ele>139</ele>
        <time>2021-11-07T08:24:20Z</time>
      </trkpt>
      <trkpt lat="46.55533" lon="0.21204">
        <ele>139</ele>
        <time>2021-11-07T08:24:21Z</time>
      </trkpt>
      <trkpt lat="46.55522" lon="0.21187">
        <ele>139</ele>
        <time>2021-11-07T08:24:24Z</time>
      </trkpt>
      <trkpt lat="46.55516" lon="0.21176">
        <ele>139.2</ele>
        <time>2021-11-07T08:24:26Z</time>
      </trkpt>
      <trkpt lat="46.55507" lon="0.2116">
        <ele>139.4</ele>
        <time>2021-11-07T08:24:29Z</time>
      </trkpt>
      <trkpt lat="46.55502" lon="0.21151">
        <ele>139.6</ele>
        <time>2021-11-07T08:24:31Z</time>
      </trkpt>
      <trkpt lat="46.55479" lon="0.21113">
        <ele>139</ele>
        <time>2021-11-07T08:24:39Z</time>
      </trkpt>
      <trkpt lat="46.55473" lon="0.21106">
        <ele>138.8</ele>
        <time>2021-11-07T08:24:41Z</time>
      </trkpt>
      <trkpt lat="46.55461" lon="0.21098">
        <ele>138.4</ele>
        <time>2021-11-07T08:24:43Z</time>
      </trkpt>
      <trkpt lat="46.55456" lon="0.21096">
        <ele>138</ele>
        <time>2021-11-07T08:24:44Z</time>
      </trkpt>
      <trkpt lat="46.55451" lon="0.21095">
        <ele>137.8</ele>
        <time>2021-11-07T08:24:45Z</time>
      </trkpt>
      <trkpt lat="46.55443" lon="0.21095">
        <ele>137.6</ele>
        <time>2021-11-07T08:24:47Z</time>
      </trkpt>
      <trkpt lat="46.55438" lon="0.21096">
        <ele>137.4</ele>
        <time>2021-11-07T08:24:48Z</time>
      </trkpt>
      <trkpt lat="46.55423" lon="0.21097">
        <ele>137</ele>
        <time>2021-11-07T08:24:51Z</time>
      </trkpt>
      <trkpt lat="46.55414" lon="0.211">
        <ele>136.8</ele>
        <time>2021-11-07T08:24:53Z</time>
      </trkpt>
      <trkpt lat="46.55411" lon="0.21102">
        <ele>136.6</ele>
        <time>2021-11-07T08:24:54Z</time>
      </trkpt>
      <trkpt lat="46.55386" lon="0.21111">
        <ele>136</ele>
        <time>2021-11-07T08:24:59Z</time>
      </trkpt>
      <trkpt lat="46.55381" lon="0.21112">
        <ele>136</ele>
        <time>2021-11-07T08:25:00Z</time>
      </trkpt>
      <trkpt lat="46.55353" lon="0.21125">
        <ele>135.6</ele>
        <time>2021-11-07T08:25:06Z</time>
      </trkpt>
      <trkpt lat="46.55349" lon="0.21126">
        <ele>135.4</ele>
        <time>2021-11-07T08:25:07Z</time>
      </trkpt>
      <trkpt lat="46.55338" lon="0.21125">
        <ele>135</ele>
        <time>2021-11-07T08:25:09Z</time>
      </trkpt>
      <trkpt lat="46.55332" lon="0.21123">
        <ele>134.4</ele>
        <time>2021-11-07T08:25:10Z</time>
      </trkpt>
      <trkpt lat="46.55308" lon="0.21115">
        <ele>132.4</ele>
        <time>2021-11-07T08:25:13Z</time>
      </trkpt>
      <trkpt lat="46.553" lon="0.21112">
        <ele>131.6</ele>
        <time>2021-11-07T08:25:14Z</time>
      </trkpt>
      <trkpt lat="46.55291" lon="0.21109">
        <ele>129.6</ele>
        <time>2021-11-07T08:25:15Z</time>
      </trkpt>
      <trkpt lat="46.55283" lon="0.21106">
        <ele>128.2</ele>
        <time>2021-11-07T08:25:16Z</time>
      </trkpt>
      <trkpt lat="46.55276" lon="0.21104">
        <ele>127.4</ele>
        <time>2021-11-07T08:25:17Z</time>
      </trkpt>
      <trkpt lat="46.55268" lon="0.21103">
        <ele>126.8</ele>
        <time>2021-11-07T08:25:18Z</time>
      </trkpt>
      <trkpt lat="46.55261" lon="0.21103">
        <ele>124.8</ele>
        <time>2021-11-07T08:25:19Z</time>
      </trkpt>
      <trkpt lat="46.55247" lon="0.21108">
        <ele>123.4</ele>
        <time>2021-11-07T08:25:22Z</time>
      </trkpt>
      <trkpt lat="46.55244" lon="0.21109">
        <ele>122.8</ele>
        <time>2021-11-07T08:25:23Z</time>
      </trkpt>
      <trkpt lat="46.55241" lon="0.2111">
        <ele>122</ele>
        <time>2021-11-07T08:25:24Z</time>
      </trkpt>
      <trkpt lat="46.55238" lon="0.21109">
        <ele>120.4</ele>
        <time>2021-11-07T08:25:26Z</time>
      </trkpt>
      <trkpt lat="46.55238" lon="0.21104">
        <ele>119.2</ele>
        <time>2021-11-07T08:25:29Z</time>
      </trkpt>
      <trkpt lat="46.55238" lon="0.21101">
        <ele>118.8</ele>
        <time>2021-11-07T08:25:31Z</time>
      </trkpt>
      <trkpt lat="46.5524" lon="0.21093">
        <ele>118.6</ele>
        <time>2021-11-07T08:25:36Z</time>
      </trkpt>
      <trkpt lat="46.55241" lon="0.21088">
        <ele>117.6</ele>
        <time>2021-11-07T08:25:38Z</time>
      </trkpt>
      <trkpt lat="46.55244" lon="0.21082">
        <ele>116.6</ele>
        <time>2021-11-07T08:25:42Z</time>
      </trkpt>
      <trkpt lat="46.55252" lon="0.21077">
        <ele>116</ele>
        <time>2021-11-07T08:25:47Z</time>
      </trkpt>
      <trkpt lat="46.55267" lon="0.21073">
        <ele>115.6</ele>
        <time>2021-11-07T08:25:54Z</time>
      </trkpt>
      <trkpt lat="46.55273" lon="0.21075">
        <ele>116</ele>
        <time>2021-11-07T08:25:57Z</time>
      </trkpt>
      <trkpt lat="46.55276" lon="0.21072">
        <ele>116.4</ele>
        <time>2021-11-07T08:25:59Z</time>
      </trkpt>
      <trkpt lat="46.55284" lon="0.21064">
        <ele>115.8</ele>
        <time>2021-11-07T08:26:03Z</time>
      </trkpt>
      <trkpt lat="46.55287" lon="0.21063">
        <ele>115.2</ele>
        <time>2021-11-07T08:26:05Z</time>
      </trkpt>
      <trkpt lat="46.5529" lon="0.21062">
        <ele>114.8</ele>
        <time>2021-11-07T08:26:07Z</time>
      </trkpt>
      <trkpt lat="46.55292" lon="0.2106">
        <ele>114.6</ele>
        <time>2021-11-07T08:26:09Z</time>
      </trkpt>
      <trkpt lat="46.55301" lon="0.21055">
        <ele>114.4</ele>
        <time>2021-11-07T08:26:17Z</time>
      </trkpt>
      <trkpt lat="46.55309" lon="0.21048">
        <ele>114.4</ele>
        <time>2021-11-07T08:26:24Z</time>
      </trkpt>
      <trkpt lat="46.55318" lon="0.21046">
        <ele>114</ele>
        <time>2021-11-07T08:26:32Z</time>
      </trkpt>
      <trkpt lat="46.55322" lon="0.21044">
        <ele>113.8</ele>
        <time>2021-11-07T08:26:35Z</time>
      </trkpt>
      <trkpt lat="46.55325" lon="0.21042">
        <ele>113.8</ele>
        <time>2021-11-07T08:26:38Z</time>
      </trkpt>
      <trkpt lat="46.55326" lon="0.21043">
        <ele>113.8</ele>
        <time>2021-11-07T08:26:40Z</time>
      </trkpt>
      <trkpt lat="46.55328" lon="0.21042">
        <ele>114.2</ele>
        <time>2021-11-07T08:26:42Z</time>
      </trkpt>
      <trkpt lat="46.55332" lon="0.2104">
        <ele>114.6</ele>
        <time>2021-11-07T08:26:46Z</time>
      </trkpt>
      <trkpt lat="46.55335" lon="0.21039">
        <ele>114.8</ele>
        <time>2021-11-07T08:26:48Z</time>
      </trkpt>
      <trkpt lat="46.55347" lon="0.21027">
        <ele>114.4</ele>
        <time>2021-11-07T08:26:56Z</time>
      </trkpt>
      <trkpt lat="46.55358" lon="0.21023">
        <ele>114.2</ele>
        <time>2021-11-07T08:27:03Z</time>
      </trkpt>
      <trkpt lat="46.5536" lon="0.21023">
        <ele>114.4</ele>
        <time>2021-11-07T08:27:05Z</time>
      </trkpt>
      <trkpt lat="46.55369" lon="0.21021">
        <ele>114.8</ele>
        <time>2021-11-07T08:27:10Z</time>
      </trkpt>
      <trkpt lat="46.5537" lon="0.2102">
        <ele>114.8</ele>
        <time>2021-11-07T08:27:11Z</time>
      </trkpt>
      <trkpt lat="46.55374" lon="0.21017">
        <ele>115</ele>
        <time>2021-11-07T08:27:15Z</time>
      </trkpt>
      <trkpt lat="46.55378" lon="0.2101">
        <ele>114.4</ele>
        <time>2021-11-07T08:27:21Z</time>
      </trkpt>
      <trkpt lat="46.55387" lon="0.20996">
        <ele>114.4</ele>
        <time>2021-11-07T08:27:28Z</time>
      </trkpt>
      <trkpt lat="46.55388" lon="0.20993">
        <ele>114.4</ele>
        <time>2021-11-07T08:27:29Z</time>
      </trkpt>
      <trkpt lat="46.55385" lon="0.20984">
        <ele>114.2</ele>
        <time>2021-11-07T08:27:31Z</time>
      </trkpt>
      <trkpt lat="46.55383" lon="0.20982">
        <ele>114.2</ele>
        <time>2021-11-07T08:27:32Z</time>
      </trkpt>
      <trkpt lat="46.55378" lon="0.20977">
        <ele>113.8</ele>
        <time>2021-11-07T08:27:35Z</time>
      </trkpt>
      <trkpt lat="46.55369" lon="0.20966">
        <ele>114.2</ele>
        <time>2021-11-07T08:27:40Z</time>
      </trkpt>
      <trkpt lat="46.5537" lon="0.20961">
        <ele>114.2</ele>
        <time>2021-11-07T08:27:42Z</time>
      </trkpt>
      <trkpt lat="46.55371" lon="0.20957">
        <ele>114.2</ele>
        <time>2021-11-07T08:27:44Z</time>
      </trkpt>
      <trkpt lat="46.55371" lon="0.20955">
        <ele>114.2</ele>
        <time>2021-11-07T08:27:45Z</time>
      </trkpt>
      <trkpt lat="46.5537" lon="0.20952">
        <ele>114.2</ele>
        <time>2021-11-07T08:27:47Z</time>
      </trkpt>
      <trkpt lat="46.55367" lon="0.20951">
        <ele>114.2</ele>
        <time>2021-11-07T08:27:49Z</time>
      </trkpt>
      <trkpt lat="46.55365" lon="0.20951">
        <ele>114.2</ele>
        <time>2021-11-07T08:27:50Z</time>
      </trkpt>
      <trkpt lat="46.55361" lon="0.20955">
        <ele>114.8</ele>
        <time>2021-11-07T08:27:53Z</time>
      </trkpt>
      <trkpt lat="46.55359" lon="0.20961">
        <ele>115.2</ele>
        <time>2021-11-07T08:27:56Z</time>
      </trkpt>
      <trkpt lat="46.55355" lon="0.2097">
        <ele>115.6</ele>
        <time>2021-11-07T08:28:00Z</time>
      </trkpt>
      <trkpt lat="46.55353" lon="0.20973">
        <ele>115.8</ele>
        <time>2021-11-07T08:28:02Z</time>
      </trkpt>
      <trkpt lat="46.55347" lon="0.20979">
        <ele>115.8</ele>
        <time>2021-11-07T08:28:05Z</time>
      </trkpt>
      <trkpt lat="46.55341" lon="0.20985">
        <ele>115.8</ele>
        <time>2021-11-07T08:28:08Z</time>
      </trkpt>
      <trkpt lat="46.55336" lon="0.20986">
        <ele>116</ele>
        <time>2021-11-07T08:28:10Z</time>
      </trkpt>
      <trkpt lat="46.55332" lon="0.20985">
        <ele>116</ele>
        <time>2021-11-07T08:28:12Z</time>
      </trkpt>
      <trkpt lat="46.55328" lon="0.20986">
        <ele>116.2</ele>
        <time>2021-11-07T08:28:14Z</time>
      </trkpt>
      <trkpt lat="46.55327" lon="0.20988">
        <ele>116.2</ele>
        <time>2021-11-07T08:28:15Z</time>
      </trkpt>
      <trkpt lat="46.55324" lon="0.20994">
        <ele>116.4</ele>
        <time>2021-11-07T08:28:18Z</time>
      </trkpt>
      <trkpt lat="46.55318" lon="0.20995">
        <ele>116.2</ele>
        <time>2021-11-07T08:28:20Z</time>
      </trkpt>
      <trkpt lat="46.55302" lon="0.20993">
        <ele>117</ele>
        <time>2021-11-07T08:28:25Z</time>
      </trkpt>
      <trkpt lat="46.55298" lon="0.20992">
        <ele>117.2</ele>
        <time>2021-11-07T08:28:27Z</time>
      </trkpt>
      <trkpt lat="46.55295" lon="0.2099">
        <ele>117.8</ele>
        <time>2021-11-07T08:28:29Z</time>
      </trkpt>
      <trkpt lat="46.55294" lon="0.20988">
        <ele>118.2</ele>
        <time>2021-11-07T08:28:32Z</time>
      </trkpt>
      <trkpt lat="46.55295" lon="0.20986">
        <ele>118.2</ele>
        <time>2021-11-07T08:28:33Z</time>
      </trkpt>
      <trkpt lat="46.55295" lon="0.20981">
        <ele>119.4</ele>
        <time>2021-11-07T08:28:37Z</time>
      </trkpt>
      <trkpt lat="46.55295" lon="0.20974">
        <ele>120.2</ele>
        <time>2021-11-07T08:28:41Z</time>
      </trkpt>
      <trkpt lat="46.55294" lon="0.20973">
        <ele>120.6</ele>
        <time>2021-11-07T08:28:42Z</time>
      </trkpt>
      <trkpt lat="46.55294" lon="0.20972">
        <ele>121</ele>
        <time>2021-11-07T08:28:43Z</time>
      </trkpt>
      <trkpt lat="46.55293" lon="0.20968">
        <ele>121.6</ele>
        <time>2021-11-07T08:28:45Z</time>
      </trkpt>
      <trkpt lat="46.55292" lon="0.20962">
        <ele>122.8</ele>
        <time>2021-11-07T08:28:48Z</time>
      </trkpt>
      <trkpt lat="46.55292" lon="0.2096">
        <ele>123</ele>
        <time>2021-11-07T08:28:49Z</time>
      </trkpt>
      <trkpt lat="46.55293" lon="0.20952">
        <ele>123.8</ele>
        <time>2021-11-07T08:28:53Z</time>
      </trkpt>
      <trkpt lat="46.55294" lon="0.20942">
        <ele>124.4</ele>
        <time>2021-11-07T08:28:57Z</time>
      </trkpt>
      <trkpt lat="46.55294" lon="0.20934">
        <ele>125</ele>
        <time>2021-11-07T08:29:00Z</time>
      </trkpt>
      <trkpt lat="46.55295" lon="0.20927">
        <ele>125.4</ele>
        <time>2021-11-07T08:29:03Z</time>
      </trkpt>
      <trkpt lat="46.55297" lon="0.20917">
        <ele>125.4</ele>
        <time>2021-11-07T08:29:07Z</time>
      </trkpt>
      <trkpt lat="46.55295" lon="0.20912">
        <ele>125.8</ele>
        <time>2021-11-07T08:29:09Z</time>
      </trkpt>
      <trkpt lat="46.55295" lon="0.20909">
        <ele>126</ele>
        <time>2021-11-07T08:29:10Z</time>
      </trkpt>
      <trkpt lat="46.55296" lon="0.20897">
        <ele>126.8</ele>
        <time>2021-11-07T08:29:15Z</time>
      </trkpt>
      <trkpt lat="46.55301" lon="0.20881">
        <ele>127</ele>
        <time>2021-11-07T08:29:20Z</time>
      </trkpt>
      <trkpt lat="46.55302" lon="0.20878">
        <ele>127</ele>
        <time>2021-11-07T08:29:21Z</time>
      </trkpt>
      <trkpt lat="46.55307" lon="0.20857">
        <ele>126.2</ele>
        <time>2021-11-07T08:29:26Z</time>
      </trkpt>
      <trkpt lat="46.55312" lon="0.20834">
        <ele>125</ele>
        <time>2021-11-07T08:29:31Z</time>
      </trkpt>
      <trkpt lat="46.55313" lon="0.2083">
        <ele>125</ele>
        <time>2021-11-07T08:29:32Z</time>
      </trkpt>
      <trkpt lat="46.55312" lon="0.20827">
        <ele>124.8</ele>
        <time>2021-11-07T08:29:33Z</time>
      </trkpt>
      <trkpt lat="46.5531" lon="0.2082">
        <ele>124.8</ele>
        <time>2021-11-07T08:29:36Z</time>
      </trkpt>
      <trkpt lat="46.5531" lon="0.20817">
        <ele>124.6</ele>
        <time>2021-11-07T08:29:37Z</time>
      </trkpt>
      <trkpt lat="46.55312" lon="0.20806">
        <ele>124.6</ele>
        <time>2021-11-07T08:29:40Z</time>
      </trkpt>
      <trkpt lat="46.55314" lon="0.20795">
        <ele>124.4</ele>
        <time>2021-11-07T08:29:42Z</time>
      </trkpt>
      <trkpt lat="46.55316" lon="0.20782">
        <ele>123.8</ele>
        <time>2021-11-07T08:29:44Z</time>
      </trkpt>
      <trkpt lat="46.55316" lon="0.20776">
        <ele>123.4</ele>
        <time>2021-11-07T08:29:45Z</time>
      </trkpt>
      <trkpt lat="46.55316" lon="0.2077">
        <ele>123.2</ele>
        <time>2021-11-07T08:29:46Z</time>
      </trkpt>
      <trkpt lat="46.55318" lon="0.20762">
        <ele>123</ele>
        <time>2021-11-07T08:29:48Z</time>
      </trkpt>
      <trkpt lat="46.5532" lon="0.20753">
        <ele>122.8</ele>
        <time>2021-11-07T08:29:50Z</time>
      </trkpt>
      <trkpt lat="46.55325" lon="0.20729">
        <ele>123.4</ele>
        <time>2021-11-07T08:29:56Z</time>
      </trkpt>
      <trkpt lat="46.55325" lon="0.20706">
        <ele>125</ele>
        <time>2021-11-07T08:30:02Z</time>
      </trkpt>
      <trkpt lat="46.55325" lon="0.207">
        <ele>125.4</ele>
        <time>2021-11-07T08:30:04Z</time>
      </trkpt>
      <trkpt lat="46.55328" lon="0.20688">
        <ele>126</ele>
        <time>2021-11-07T08:30:08Z</time>
      </trkpt>
      <trkpt lat="46.55332" lon="0.20673">
        <ele>126</ele>
        <time>2021-11-07T08:30:13Z</time>
      </trkpt>
      <trkpt lat="46.55334" lon="0.20656">
        <ele>126.8</ele>
        <time>2021-11-07T08:30:19Z</time>
      </trkpt>
      <trkpt lat="46.55335" lon="0.20654">
        <ele>127</ele>
        <time>2021-11-07T08:30:20Z</time>
      </trkpt>
      <trkpt lat="46.55336" lon="0.20651">
        <ele>127</ele>
        <time>2021-11-07T08:30:21Z</time>
      </trkpt>
      <trkpt lat="46.55336" lon="0.20643">
        <ele>127.4</ele>
        <time>2021-11-07T08:30:24Z</time>
      </trkpt>
      <trkpt lat="46.55336" lon="0.2064">
        <ele>127.6</ele>
        <time>2021-11-07T08:30:25Z</time>
      </trkpt>
      <trkpt lat="46.55335" lon="0.20637">
        <ele>127.8</ele>
        <time>2021-11-07T08:30:26Z</time>
      </trkpt>
      <trkpt lat="46.55336" lon="0.20627">
        <ele>128</ele>
        <time>2021-11-07T08:30:29Z</time>
      </trkpt>
      <trkpt lat="46.55337" lon="0.2062">
        <ele>128.2</ele>
        <time>2021-11-07T08:30:31Z</time>
      </trkpt>
      <trkpt lat="46.55339" lon="0.20601">
        <ele>128.2</ele>
        <time>2021-11-07T08:30:37Z</time>
      </trkpt>
      <trkpt lat="46.55339" lon="0.20598">
        <ele>128.2</ele>
        <time>2021-11-07T08:30:38Z</time>
      </trkpt>
      <trkpt lat="46.5534" lon="0.20579">
        <ele>128</ele>
        <time>2021-11-07T08:30:42Z</time>
      </trkpt>
      <trkpt lat="46.55337" lon="0.20567">
        <ele>128.2</ele>
        <time>2021-11-07T08:30:46Z</time>
      </trkpt>
      <trkpt lat="46.55337" lon="0.20565">
        <ele>128.2</ele>
        <time>2021-11-07T08:30:47Z</time>
      </trkpt>
      <trkpt lat="46.55337" lon="0.2056">
        <ele>128.2</ele>
        <time>2021-11-07T08:30:49Z</time>
      </trkpt>
      <trkpt lat="46.55335" lon="0.2055">
        <ele>128.4</ele>
        <time>2021-11-07T08:30:51Z</time>
      </trkpt>
      <trkpt lat="46.55329" lon="0.20529">
        <ele>129.2</ele>
        <time>2021-11-07T08:30:56Z</time>
      </trkpt>
      <trkpt lat="46.55328" lon="0.20519">
        <ele>129.2</ele>
        <time>2021-11-07T08:30:59Z</time>
      </trkpt>
      <trkpt lat="46.55326" lon="0.20515">
        <ele>129.2</ele>
        <time>2021-11-07T08:31:01Z</time>
      </trkpt>
      <trkpt lat="46.55324" lon="0.20512">
        <ele>129.2</ele>
        <time>2021-11-07T08:31:03Z</time>
      </trkpt>
      <trkpt lat="46.55322" lon="0.2051">
        <ele>129.6</ele>
        <time>2021-11-07T08:31:05Z</time>
      </trkpt>
      <trkpt lat="46.55317" lon="0.20503">
        <ele>129.8</ele>
        <time>2021-11-07T08:31:10Z</time>
      </trkpt>
      <trkpt lat="46.55314" lon="0.20497">
        <ele>129.8</ele>
        <time>2021-11-07T08:31:15Z</time>
      </trkpt>
      <trkpt lat="46.55313" lon="0.20495">
        <ele>129.8</ele>
        <time>2021-11-07T08:31:16Z</time>
      </trkpt>
      <trkpt lat="46.55311" lon="0.20492">
        <ele>130</ele>
        <time>2021-11-07T08:31:18Z</time>
      </trkpt>
      <trkpt lat="46.55308" lon="0.20488">
        <ele>130.2</ele>
        <time>2021-11-07T08:31:19Z</time>
      </trkpt>
      <trkpt lat="46.55302" lon="0.20477">
        <ele>130</ele>
        <time>2021-11-07T08:31:25Z</time>
      </trkpt>
      <trkpt lat="46.55306" lon="0.20466">
        <ele>129.4</ele>
        <time>2021-11-07T08:31:29Z</time>
      </trkpt>
      <trkpt lat="46.55308" lon="0.20461">
        <ele>129</ele>
        <time>2021-11-07T08:31:30Z</time>
      </trkpt>
      <trkpt lat="46.55314" lon="0.20451">
        <ele>128.4</ele>
        <time>2021-11-07T08:31:32Z</time>
      </trkpt>
      <trkpt lat="46.55318" lon="0.20446">
        <ele>127.2</ele>
        <time>2021-11-07T08:31:33Z</time>
      </trkpt>
      <trkpt lat="46.55322" lon="0.2044">
        <ele>126</ele>
        <time>2021-11-07T08:31:34Z</time>
      </trkpt>
      <trkpt lat="46.55326" lon="0.20434">
        <ele>124.4</ele>
        <time>2021-11-07T08:31:35Z</time>
      </trkpt>
      <trkpt lat="46.5533" lon="0.20428">
        <ele>123</ele>
        <time>2021-11-07T08:31:36Z</time>
      </trkpt>
      <trkpt lat="46.55332" lon="0.20424">
        <ele>121.8</ele>
        <time>2021-11-07T08:31:37Z</time>
      </trkpt>
      <trkpt lat="46.55334" lon="0.2042">
        <ele>120.4</ele>
        <time>2021-11-07T08:31:38Z</time>
      </trkpt>
      <trkpt lat="46.55337" lon="0.20418">
        <ele>118.8</ele>
        <time>2021-11-07T08:31:40Z</time>
      </trkpt>
      <trkpt lat="46.55339" lon="0.20419">
        <ele>118</ele>
        <time>2021-11-07T08:31:42Z</time>
      </trkpt>
      <trkpt lat="46.5534" lon="0.2042">
        <ele>117.6</ele>
        <time>2021-11-07T08:31:43Z</time>
      </trkpt>
      <trkpt lat="46.55343" lon="0.2042">
        <ele>116.6</ele>
        <time>2021-11-07T08:31:46Z</time>
      </trkpt>
      <trkpt lat="46.55344" lon="0.20421">
        <ele>116.4</ele>
        <time>2021-11-07T08:31:47Z</time>
      </trkpt>
      <trkpt lat="46.55347" lon="0.2043">
        <ele>116</ele>
        <time>2021-11-07T08:31:51Z</time>
      </trkpt>
      <trkpt lat="46.55351" lon="0.20433">
        <ele>115.8</ele>
        <time>2021-11-07T08:31:53Z</time>
      </trkpt>
      <trkpt lat="46.55354" lon="0.20431">
        <ele>115.4</ele>
        <time>2021-11-07T08:31:55Z</time>
      </trkpt>
      <trkpt lat="46.55355" lon="0.2043">
        <ele>115.2</ele>
        <time>2021-11-07T08:31:56Z</time>
      </trkpt>
      <trkpt lat="46.55364" lon="0.20426">
        <ele>114.8</ele>
        <time>2021-11-07T08:32:01Z</time>
      </trkpt>
      <trkpt lat="46.55365" lon="0.20428">
        <ele>114.8</ele>
        <time>2021-11-07T08:32:02Z</time>
      </trkpt>
      <trkpt lat="46.55373" lon="0.20439">
        <ele>114.8</ele>
        <time>2021-11-07T08:32:06Z</time>
      </trkpt>
      <trkpt lat="46.55374" lon="0.20443">
        <ele>114.8</ele>
        <time>2021-11-07T08:32:07Z</time>
      </trkpt>
      <trkpt lat="46.5538" lon="0.20456">
        <ele>114.8</ele>
        <time>2021-11-07T08:32:10Z</time>
      </trkpt>
      <trkpt lat="46.55382" lon="0.20464">
        <ele>114.2</ele>
        <time>2021-11-07T08:32:12Z</time>
      </trkpt>
      <trkpt lat="46.55387" lon="0.20481">
        <ele>113.6</ele>
        <time>2021-11-07T08:32:18Z</time>
      </trkpt>
      <trkpt lat="46.55388" lon="0.20482">
        <ele>113.4</ele>
        <time>2021-11-07T08:32:19Z</time>
      </trkpt>
      <trkpt lat="46.55389" lon="0.20485">
        <ele>113.4</ele>
        <time>2021-11-07T08:32:21Z</time>
      </trkpt>
      <trkpt lat="46.55393" lon="0.2049">
        <ele>113.8</ele>
        <time>2021-11-07T08:32:24Z</time>
      </trkpt>
      <trkpt lat="46.55395" lon="0.20492">
        <ele>113.8</ele>
        <time>2021-11-07T08:32:25Z</time>
      </trkpt>
      <trkpt lat="46.55396" lon="0.20494">
        <ele>113.8</ele>
        <time>2021-11-07T08:32:26Z</time>
      </trkpt>
      <trkpt lat="46.55402" lon="0.20506">
        <ele>113.4</ele>
        <time>2021-11-07T08:32:31Z</time>
      </trkpt>
      <trkpt lat="46.55406" lon="0.20514">
        <ele>113.8</ele>
        <time>2021-11-07T08:32:36Z</time>
      </trkpt>
      <trkpt lat="46.55407" lon="0.20515">
        <ele>114</ele>
        <time>2021-11-07T08:32:38Z</time>
      </trkpt>
      <trkpt lat="46.55408" lon="0.20517">
        <ele>114.4</ele>
        <time>2021-11-07T08:32:40Z</time>
      </trkpt>
      <trkpt lat="46.55415" lon="0.20521">
        <ele>115.2</ele>
        <time>2021-11-07T08:32:47Z</time>
      </trkpt>
      <trkpt lat="46.55417" lon="0.20524">
        <ele>115.6</ele>
        <time>2021-11-07T08:32:50Z</time>
      </trkpt>
      <trkpt lat="46.55419" lon="0.20524">
        <ele>116.4</ele>
        <time>2021-11-07T08:32:52Z</time>
      </trkpt>
      <trkpt lat="46.5542" lon="0.20525">
        <ele>116.6</ele>
        <time>2021-11-07T08:32:53Z</time>
      </trkpt>
      <trkpt lat="46.55424" lon="0.20528">
        <ele>117.4</ele>
        <time>2021-11-07T08:32:59Z</time>
      </trkpt>
      <trkpt lat="46.55425" lon="0.20528">
        <ele>117.8</ele>
        <time>2021-11-07T08:33:00Z</time>
      </trkpt>
      <trkpt lat="46.55427" lon="0.20531">
        <ele>118.4</ele>
        <time>2021-11-07T08:33:04Z</time>
      </trkpt>
      <trkpt lat="46.55428" lon="0.20532">
        <ele>118.4</ele>
        <time>2021-11-07T08:33:06Z</time>
      </trkpt>
      <trkpt lat="46.5543" lon="0.20534">
        <ele>118.6</ele>
        <time>2021-11-07T08:33:09Z</time>
      </trkpt>
      <trkpt lat="46.55433" lon="0.20536">
        <ele>118.6</ele>
        <time>2021-11-07T08:33:11Z</time>
      </trkpt>
      <trkpt lat="46.55437" lon="0.20539">
        <ele>118.6</ele>
        <time>2021-11-07T08:33:15Z</time>
      </trkpt>
      <trkpt lat="46.55438" lon="0.2054">
        <ele>118.4</ele>
        <time>2021-11-07T08:33:16Z</time>
      </trkpt>
      <trkpt lat="46.55439" lon="0.2054">
        <ele>118.4</ele>
        <time>2021-11-07T08:33:17Z</time>
      </trkpt>
      <trkpt lat="46.5545" lon="0.20549">
        <ele>118</ele>
        <time>2021-11-07T08:33:25Z</time>
      </trkpt>
      <trkpt lat="46.55451" lon="0.20549">
        <ele>118.2</ele>
        <time>2021-11-07T08:33:26Z</time>
      </trkpt>
      <trkpt lat="46.55455" lon="0.20547">
        <ele>119.8</ele>
        <time>2021-11-07T08:33:30Z</time>
      </trkpt>
      <trkpt lat="46.55454" lon="0.20542">
        <ele>121</ele>
        <time>2021-11-07T08:33:34Z</time>
      </trkpt>
      <trkpt lat="46.55455" lon="0.20537">
        <ele>121.6</ele>
        <time>2021-11-07T08:33:38Z</time>
      </trkpt>
      <trkpt lat="46.55454" lon="0.20535">
        <ele>122</ele>
        <time>2021-11-07T08:33:39Z</time>
      </trkpt>
      <trkpt lat="46.55456" lon="0.20531">
        <ele>123.2</ele>
        <time>2021-11-07T08:33:42Z</time>
      </trkpt>
      <trkpt lat="46.55456" lon="0.20528">
        <ele>123.8</ele>
        <time>2021-11-07T08:33:44Z</time>
      </trkpt>
      <trkpt lat="46.55458" lon="0.20524">
        <ele>124.2</ele>
        <time>2021-11-07T08:33:47Z</time>
      </trkpt>
      <trkpt lat="46.5546" lon="0.20519">
        <ele>125.4</ele>
        <time>2021-11-07T08:33:50Z</time>
      </trkpt>
      <trkpt lat="46.55462" lon="0.20514">
        <ele>126.4</ele>
        <time>2021-11-07T08:33:54Z</time>
      </trkpt>
      <trkpt lat="46.55463" lon="0.20514">
        <ele>126.6</ele>
        <time>2021-11-07T08:33:55Z</time>
      </trkpt>
      <trkpt lat="46.55464" lon="0.20512">
        <ele>126.8</ele>
        <time>2021-11-07T08:33:57Z</time>
      </trkpt>
      <trkpt lat="46.5547" lon="0.20508">
        <ele>127</ele>
        <time>2021-11-07T08:34:02Z</time>
      </trkpt>
      <trkpt lat="46.55473" lon="0.20508">
        <ele>127.4</ele>
        <time>2021-11-07T08:34:04Z</time>
      </trkpt>
      <trkpt lat="46.55479" lon="0.20511">
        <ele>128</ele>
        <time>2021-11-07T08:34:08Z</time>
      </trkpt>
      <trkpt lat="46.55483" lon="0.20511">
        <ele>128.2</ele>
        <time>2021-11-07T08:34:10Z</time>
      </trkpt>
      <trkpt lat="46.55487" lon="0.2051">
        <ele>128.6</ele>
        <time>2021-11-07T08:34:12Z</time>
      </trkpt>
      <trkpt lat="46.5549" lon="0.20511">
        <ele>129</ele>
        <time>2021-11-07T08:34:14Z</time>
      </trkpt>
      <trkpt lat="46.55503" lon="0.20514">
        <ele>129</ele>
        <time>2021-11-07T08:34:20Z</time>
      </trkpt>
      <trkpt lat="46.55505" lon="0.20513">
        <ele>129</ele>
        <time>2021-11-07T08:34:21Z</time>
      </trkpt>
      <trkpt lat="46.55509" lon="0.20509">
        <ele>129.8</ele>
        <time>2021-11-07T08:34:24Z</time>
      </trkpt>
      <trkpt lat="46.55513" lon="0.20503">
        <ele>130.8</ele>
        <time>2021-11-07T08:34:27Z</time>
      </trkpt>
      <trkpt lat="46.55514" lon="0.20501">
        <ele>131</ele>
        <time>2021-11-07T08:34:28Z</time>
      </trkpt>
      <trkpt lat="46.55517" lon="0.20498">
        <ele>132</ele>
        <time>2021-11-07T08:34:31Z</time>
      </trkpt>
      <trkpt lat="46.55519" lon="0.20498">
        <ele>132.2</ele>
        <time>2021-11-07T08:34:32Z</time>
      </trkpt>
      <trkpt lat="46.55534" lon="0.20499">
        <ele>132.6</ele>
        <time>2021-11-07T08:34:39Z</time>
      </trkpt>
      <trkpt lat="46.55545" lon="0.20503">
        <ele>132.8</ele>
        <time>2021-11-07T08:34:44Z</time>
      </trkpt>
      <trkpt lat="46.55553" lon="0.20505">
        <ele>133</ele>
        <time>2021-11-07T08:34:48Z</time>
      </trkpt>
      <trkpt lat="46.55555" lon="0.20504">
        <ele>133</ele>
        <time>2021-11-07T08:34:49Z</time>
      </trkpt>
      <trkpt lat="46.55559" lon="0.20504">
        <ele>133</ele>
        <time>2021-11-07T08:34:51Z</time>
      </trkpt>
      <trkpt lat="46.55561" lon="0.20504">
        <ele>133.2</ele>
        <time>2021-11-07T08:34:52Z</time>
      </trkpt>
      <trkpt lat="46.55564" lon="0.20506">
        <ele>133.4</ele>
        <time>2021-11-07T08:34:53Z</time>
      </trkpt>
      <trkpt lat="46.55578" lon="0.20514">
        <ele>132.8</ele>
        <time>2021-11-07T08:35:00Z</time>
      </trkpt>
      <trkpt lat="46.55593" lon="0.20518">
        <ele>133</ele>
        <time>2021-11-07T08:35:06Z</time>
      </trkpt>
      <trkpt lat="46.55601" lon="0.20518">
        <ele>133.2</ele>
        <time>2021-11-07T08:35:09Z</time>
      </trkpt>
      <trkpt lat="46.55607" lon="0.20514">
        <ele>133.4</ele>
        <time>2021-11-07T08:35:12Z</time>
      </trkpt>
      <trkpt lat="46.5561" lon="0.20513">
        <ele>134</ele>
        <time>2021-11-07T08:35:13Z</time>
      </trkpt>
      <trkpt lat="46.55612" lon="0.20513">
        <ele>134.2</ele>
        <time>2021-11-07T08:35:14Z</time>
      </trkpt>
      <trkpt lat="46.55616" lon="0.20514">
        <ele>134.4</ele>
        <time>2021-11-07T08:35:16Z</time>
      </trkpt>
      <trkpt lat="46.55618" lon="0.20513">
        <ele>134.4</ele>
        <time>2021-11-07T08:35:17Z</time>
      </trkpt>
      <trkpt lat="46.5562" lon="0.20512">
        <ele>134.6</ele>
        <time>2021-11-07T08:35:18Z</time>
      </trkpt>
      <trkpt lat="46.55624" lon="0.20512">
        <ele>134.6</ele>
        <time>2021-11-07T08:35:20Z</time>
      </trkpt>
      <trkpt lat="46.55631" lon="0.20509">
        <ele>134.6</ele>
        <time>2021-11-07T08:35:22Z</time>
      </trkpt>
      <trkpt lat="46.55633" lon="0.20509">
        <ele>134.6</ele>
        <time>2021-11-07T08:35:23Z</time>
      </trkpt>
      <trkpt lat="46.55641" lon="0.20509">
        <ele>135.2</ele>
        <time>2021-11-07T08:35:27Z</time>
      </trkpt>
      <trkpt lat="46.55645" lon="0.20511">
        <ele>135.2</ele>
        <time>2021-11-07T08:35:29Z</time>
      </trkpt>
      <trkpt lat="46.5565" lon="0.20513">
        <ele>135</ele>
        <time>2021-11-07T08:35:31Z</time>
      </trkpt>
      <trkpt lat="46.55654" lon="0.20511">
        <ele>135</ele>
        <time>2021-11-07T08:35:33Z</time>
      </trkpt>
      <trkpt lat="46.55662" lon="0.20508">
        <ele>135.2</ele>
        <time>2021-11-07T08:35:37Z</time>
      </trkpt>
      <trkpt lat="46.55665" lon="0.20509">
        <ele>135.4</ele>
        <time>2021-11-07T08:35:38Z</time>
      </trkpt>
      <trkpt lat="46.55667" lon="0.2051">
        <ele>135.4</ele>
        <time>2021-11-07T08:35:39Z</time>
      </trkpt>
      <trkpt lat="46.55677" lon="0.20513">
        <ele>135.4</ele>
        <time>2021-11-07T08:35:43Z</time>
      </trkpt>
      <trkpt lat="46.5568" lon="0.20512">
        <ele>135.4</ele>
        <time>2021-11-07T08:35:44Z</time>
      </trkpt>
      <trkpt lat="46.55684" lon="0.2051">
        <ele>135.4</ele>
        <time>2021-11-07T08:35:46Z</time>
      </trkpt>
      <trkpt lat="46.55687" lon="0.20511">
        <ele>135.6</ele>
        <time>2021-11-07T08:35:48Z</time>
      </trkpt>
      <trkpt lat="46.55689" lon="0.20511">
        <ele>135.6</ele>
        <time>2021-11-07T08:35:49Z</time>
      </trkpt>
      <trkpt lat="46.55692" lon="0.20508">
        <ele>135.6</ele>
        <time>2021-11-07T08:35:51Z</time>
      </trkpt>
      <trkpt lat="46.55698" lon="0.20508">
        <ele>135.6</ele>
        <time>2021-11-07T08:35:54Z</time>
      </trkpt>
      <trkpt lat="46.55702" lon="0.20509">
        <ele>135.4</ele>
        <time>2021-11-07T08:35:56Z</time>
      </trkpt>
      <trkpt lat="46.55706" lon="0.20511">
        <ele>135.6</ele>
        <time>2021-11-07T08:35:58Z</time>
      </trkpt>
      <trkpt lat="46.55708" lon="0.20511">
        <ele>135.6</ele>
        <time>2021-11-07T08:35:59Z</time>
      </trkpt>
      <trkpt lat="46.55717" lon="0.20507">
        <ele>135.8</ele>
        <time>2021-11-07T08:36:04Z</time>
      </trkpt>
      <trkpt lat="46.55718" lon="0.20506">
        <ele>135.8</ele>
        <time>2021-11-07T08:36:05Z</time>
      </trkpt>
      <trkpt lat="46.55723" lon="0.20504">
        <ele>136</ele>
        <time>2021-11-07T08:36:08Z</time>
      </trkpt>
      <trkpt lat="46.55726" lon="0.20504">
        <ele>136</ele>
        <time>2021-11-07T08:36:10Z</time>
      </trkpt>
      <trkpt lat="46.55728" lon="0.20504">
        <ele>136</ele>
        <time>2021-11-07T08:36:11Z</time>
      </trkpt>
      <trkpt lat="46.55731" lon="0.20505">
        <ele>136</ele>
        <time>2021-11-07T08:36:13Z</time>
      </trkpt>
      <trkpt lat="46.55736" lon="0.2051">
        <ele>135.8</ele>
        <time>2021-11-07T08:36:16Z</time>
      </trkpt>
      <trkpt lat="46.5575" lon="0.20529">
        <ele>135</ele>
        <time>2021-11-07T08:36:23Z</time>
      </trkpt>
      <trkpt lat="46.55754" lon="0.20536">
        <ele>135</ele>
        <time>2021-11-07T08:36:25Z</time>
      </trkpt>
      <trkpt lat="46.55759" lon="0.20539">
        <ele>134.8</ele>
        <time>2021-11-07T08:36:27Z</time>
      </trkpt>
      <trkpt lat="46.55764" lon="0.20542">
        <ele>134.4</ele>
        <time>2021-11-07T08:36:29Z</time>
      </trkpt>
      <trkpt lat="46.55769" lon="0.20545">
        <ele>134.2</ele>
        <time>2021-11-07T08:36:31Z</time>
      </trkpt>
      <trkpt lat="46.55773" lon="0.20549">
        <ele>134</ele>
        <time>2021-11-07T08:36:34Z</time>
      </trkpt>
      <trkpt lat="46.55774" lon="0.20554">
        <ele>133.8</ele>
        <time>2021-11-07T08:36:36Z</time>
      </trkpt>
      <trkpt lat="46.55778" lon="0.20556">
        <ele>133.2</ele>
        <time>2021-11-07T08:36:38Z</time>
      </trkpt>
      <trkpt lat="46.55779" lon="0.20557">
        <ele>133.2</ele>
        <time>2021-11-07T08:36:39Z</time>
      </trkpt>
      <trkpt lat="46.55784" lon="0.20559">
        <ele>133.2</ele>
        <time>2021-11-07T08:36:41Z</time>
      </trkpt>
      <trkpt lat="46.55789" lon="0.20558">
        <ele>133.2</ele>
        <time>2021-11-07T08:36:43Z</time>
      </trkpt>
      <trkpt lat="46.5579" lon="0.20558">
        <ele>133.2</ele>
        <time>2021-11-07T08:36:44Z</time>
      </trkpt>
      <trkpt lat="46.55795" lon="0.20562">
        <ele>133</ele>
        <time>2021-11-07T08:36:46Z</time>
      </trkpt>
      <trkpt lat="46.55797" lon="0.20564">
        <ele>133</ele>
        <time>2021-11-07T08:36:47Z</time>
      </trkpt>
      <trkpt lat="46.55801" lon="0.20575">
        <ele>132.2</ele>
        <time>2021-11-07T08:36:50Z</time>
      </trkpt>
      <trkpt lat="46.55804" lon="0.20579">
        <ele>132</ele>
        <time>2021-11-07T08:36:52Z</time>
      </trkpt>
      <trkpt lat="46.55817" lon="0.20586">
        <ele>132</ele>
        <time>2021-11-07T08:36:58Z</time>
      </trkpt>
      <trkpt lat="46.55825" lon="0.2059">
        <ele>131.4</ele>
        <time>2021-11-07T08:37:00Z</time>
      </trkpt>
      <trkpt lat="46.55827" lon="0.20593">
        <ele>131.2</ele>
        <time>2021-11-07T08:37:01Z</time>
      </trkpt>
      <trkpt lat="46.55831" lon="0.20604">
        <ele>130.8</ele>
        <time>2021-11-07T08:37:04Z</time>
      </trkpt>
      <trkpt lat="46.55836" lon="0.2062">
        <ele>130</ele>
        <time>2021-11-07T08:37:08Z</time>
      </trkpt>
      <trkpt lat="46.55837" lon="0.20627">
        <ele>128.8</ele>
        <time>2021-11-07T08:37:10Z</time>
      </trkpt>
      <trkpt lat="46.55837" lon="0.20631">
        <ele>128.6</ele>
        <time>2021-11-07T08:37:11Z</time>
      </trkpt>
      <trkpt lat="46.55836" lon="0.20641">
        <ele>127.6</ele>
        <time>2021-11-07T08:37:14Z</time>
      </trkpt>
      <trkpt lat="46.55833" lon="0.20645">
        <ele>127</ele>
        <time>2021-11-07T08:37:16Z</time>
      </trkpt>
      <trkpt lat="46.55832" lon="0.20649">
        <ele>126.8</ele>
        <time>2021-11-07T08:37:18Z</time>
      </trkpt>
      <trkpt lat="46.5583" lon="0.20652">
        <ele>126.6</ele>
        <time>2021-11-07T08:37:19Z</time>
      </trkpt>
      <trkpt lat="46.55828" lon="0.20654">
        <ele>126.4</ele>
        <time>2021-11-07T08:37:20Z</time>
      </trkpt>
      <trkpt lat="46.55818" lon="0.20659">
        <ele>126</ele>
        <time>2021-11-07T08:37:25Z</time>
      </trkpt>
      <trkpt lat="46.55807" lon="0.2066">
        <ele>125.4</ele>
        <time>2021-11-07T08:37:29Z</time>
      </trkpt>
      <trkpt lat="46.55805" lon="0.20659">
        <ele>125.4</ele>
        <time>2021-11-07T08:37:30Z</time>
      </trkpt>
      <trkpt lat="46.55801" lon="0.20658">
        <ele>125.4</ele>
        <time>2021-11-07T08:37:32Z</time>
      </trkpt>
      <trkpt lat="46.55798" lon="0.20659">
        <ele>125.6</ele>
        <time>2021-11-07T08:37:34Z</time>
      </trkpt>
      <trkpt lat="46.55789" lon="0.20656">
        <ele>125.8</ele>
        <time>2021-11-07T08:37:39Z</time>
      </trkpt>
      <trkpt lat="46.55785" lon="0.20654">
        <ele>125.8</ele>
        <time>2021-11-07T08:37:41Z</time>
      </trkpt>
      <trkpt lat="46.55778" lon="0.20653">
        <ele>125.8</ele>
        <time>2021-11-07T08:37:44Z</time>
      </trkpt>
      <trkpt lat="46.55762" lon="0.20648">
        <ele>126.2</ele>
        <time>2021-11-07T08:37:50Z</time>
      </trkpt>
      <trkpt lat="46.55756" lon="0.20641">
        <ele>126.8</ele>
        <time>2021-11-07T08:37:53Z</time>
      </trkpt>
      <trkpt lat="46.55754" lon="0.20639">
        <ele>127</ele>
        <time>2021-11-07T08:37:54Z</time>
      </trkpt>
      <trkpt lat="46.5575" lon="0.20638">
        <ele>127</ele>
        <time>2021-11-07T08:37:55Z</time>
      </trkpt>
      <trkpt lat="46.55742" lon="0.20634">
        <ele>127</ele>
        <time>2021-11-07T08:37:58Z</time>
      </trkpt>
      <trkpt lat="46.55728" lon="0.20624">
        <ele>126.4</ele>
        <time>2021-11-07T08:38:03Z</time>
      </trkpt>
      <trkpt lat="46.55721" lon="0.20617">
        <ele>128</ele>
        <time>2021-11-07T08:38:06Z</time>
      </trkpt>
      <trkpt lat="46.55715" lon="0.20611">
        <ele>129.2</ele>
        <time>2021-11-07T08:38:09Z</time>
      </trkpt>
      <trkpt lat="46.55702" lon="0.20601">
        <ele>130.2</ele>
        <time>2021-11-07T08:38:15Z</time>
      </trkpt>
      <trkpt lat="46.55682" lon="0.2059">
        <ele>130.2</ele>
        <time>2021-11-07T08:38:22Z</time>
      </trkpt>
      <trkpt lat="46.55671" lon="0.20587">
        <ele>129</ele>
        <time>2021-11-07T08:38:26Z</time>
      </trkpt>
      <trkpt lat="46.55668" lon="0.20586">
        <ele>129</ele>
        <time>2021-11-07T08:38:27Z</time>
      </trkpt>
      <trkpt lat="46.55664" lon="0.20582">
        <ele>128.8</ele>
        <time>2021-11-07T08:38:29Z</time>
      </trkpt>
      <trkpt lat="46.55656" lon="0.20581">
        <ele>128.8</ele>
        <time>2021-11-07T08:38:32Z</time>
      </trkpt>
      <trkpt lat="46.5565" lon="0.20582">
        <ele>128</ele>
        <time>2021-11-07T08:38:34Z</time>
      </trkpt>
      <trkpt lat="46.55641" lon="0.20585">
        <ele>126.6</ele>
        <time>2021-11-07T08:38:37Z</time>
      </trkpt>
      <trkpt lat="46.55638" lon="0.20586">
        <ele>125.6</ele>
        <time>2021-11-07T08:38:38Z</time>
      </trkpt>
      <trkpt lat="46.55636" lon="0.20587">
        <ele>124.6</ele>
        <time>2021-11-07T08:38:39Z</time>
      </trkpt>
      <trkpt lat="46.5563" lon="0.20588">
        <ele>123.6</ele>
        <time>2021-11-07T08:38:41Z</time>
      </trkpt>
      <trkpt lat="46.55627" lon="0.20587">
        <ele>123</ele>
        <time>2021-11-07T08:38:42Z</time>
      </trkpt>
      <trkpt lat="46.55624" lon="0.20588">
        <ele>122.8</ele>
        <time>2021-11-07T08:38:43Z</time>
      </trkpt>
      <trkpt lat="46.55603" lon="0.20585">
        <ele>122.2</ele>
        <time>2021-11-07T08:38:49Z</time>
      </trkpt>
      <trkpt lat="46.55582" lon="0.20587">
        <ele>121.8</ele>
        <time>2021-11-07T08:38:55Z</time>
      </trkpt>
      <trkpt lat="46.55577" lon="0.20591">
        <ele>120.4</ele>
        <time>2021-11-07T08:38:57Z</time>
      </trkpt>
      <trkpt lat="46.55572" lon="0.20594">
        <ele>119.2</ele>
        <time>2021-11-07T08:38:59Z</time>
      </trkpt>
      <trkpt lat="46.55565" lon="0.20597">
        <ele>117</ele>
        <time>2021-11-07T08:39:01Z</time>
      </trkpt>
      <trkpt lat="46.55559" lon="0.20601">
        <ele>115.4</ele>
        <time>2021-11-07T08:39:03Z</time>
      </trkpt>
      <trkpt lat="46.55554" lon="0.20605">
        <ele>114.2</ele>
        <time>2021-11-07T08:39:05Z</time>
      </trkpt>
      <trkpt lat="46.5555" lon="0.20609">
        <ele>113</ele>
        <time>2021-11-07T08:39:07Z</time>
      </trkpt>
      <trkpt lat="46.55548" lon="0.20612">
        <ele>111.6</ele>
        <time>2021-11-07T08:39:08Z</time>
      </trkpt>
      <trkpt lat="46.55547" lon="0.20614">
        <ele>110.4</ele>
        <time>2021-11-07T08:39:09Z</time>
      </trkpt>
      <trkpt lat="46.55546" lon="0.20617">
        <ele>110.2</ele>
        <time>2021-11-07T08:39:11Z</time>
      </trkpt>
      <trkpt lat="46.55547" lon="0.20618">
        <ele>110</ele>
        <time>2021-11-07T08:39:12Z</time>
      </trkpt>
      <trkpt lat="46.55549" lon="0.20619">
        <ele>109.4</ele>
        <time>2021-11-07T08:39:14Z</time>
      </trkpt>
      <trkpt lat="46.55551" lon="0.2062">
        <ele>109.4</ele>
        <time>2021-11-07T08:39:15Z</time>
      </trkpt>
      <trkpt lat="46.55554" lon="0.20621">
        <ele>109.2</ele>
        <time>2021-11-07T08:39:16Z</time>
      </trkpt>
      <trkpt lat="46.55556" lon="0.20622">
        <ele>109.2</ele>
        <time>2021-11-07T08:39:17Z</time>
      </trkpt>
      <trkpt lat="46.55565" lon="0.20622">
        <ele>109</ele>
        <time>2021-11-07T08:39:20Z</time>
      </trkpt>
      <trkpt lat="46.55569" lon="0.20622">
        <ele>108.8</ele>
        <time>2021-11-07T08:39:21Z</time>
      </trkpt>
      <trkpt lat="46.55588" lon="0.20624">
        <ele>108.2</ele>
        <time>2021-11-07T08:39:26Z</time>
      </trkpt>
      <trkpt lat="46.55593" lon="0.20625">
        <ele>108.2</ele>
        <time>2021-11-07T08:39:27Z</time>
      </trkpt>
      <trkpt lat="46.55597" lon="0.20624">
        <ele>108.2</ele>
        <time>2021-11-07T08:39:28Z</time>
      </trkpt>
      <trkpt lat="46.55608" lon="0.20625">
        <ele>108</ele>
        <time>2021-11-07T08:39:32Z</time>
      </trkpt>
      <trkpt lat="46.5562" lon="0.20634">
        <ele>107.8</ele>
        <time>2021-11-07T08:39:37Z</time>
      </trkpt>
      <trkpt lat="46.55631" lon="0.20643">
        <ele>107.8</ele>
        <time>2021-11-07T08:39:40Z</time>
      </trkpt>
      <trkpt lat="46.5564" lon="0.20648">
        <ele>108</ele>
        <time>2021-11-07T08:39:42Z</time>
      </trkpt>
      <trkpt lat="46.55653" lon="0.20655">
        <ele>107.8</ele>
        <time>2021-11-07T08:39:45Z</time>
      </trkpt>
      <trkpt lat="46.55664" lon="0.20656">
        <ele>107.4</ele>
        <time>2021-11-07T08:39:47Z</time>
      </trkpt>
      <trkpt lat="46.55684" lon="0.20663">
        <ele>107.8</ele>
        <time>2021-11-07T08:39:51Z</time>
      </trkpt>
      <trkpt lat="46.55689" lon="0.20664">
        <ele>108.2</ele>
        <time>2021-11-07T08:39:52Z</time>
      </trkpt>
      <trkpt lat="46.55701" lon="0.2067">
        <ele>108.6</ele>
        <time>2021-11-07T08:39:55Z</time>
      </trkpt>
      <trkpt lat="46.55714" lon="0.20677">
        <ele>108.6</ele>
        <time>2021-11-07T08:39:58Z</time>
      </trkpt>
      <trkpt lat="46.55723" lon="0.20682">
        <ele>108.2</ele>
        <time>2021-11-07T08:40:00Z</time>
      </trkpt>
      <trkpt lat="46.55732" lon="0.20687">
        <ele>108</ele>
        <time>2021-11-07T08:40:02Z</time>
      </trkpt>
      <trkpt lat="46.5576" lon="0.20695">
        <ele>107.8</ele>
        <time>2021-11-07T08:40:07Z</time>
      </trkpt>
      <trkpt lat="46.55786" lon="0.20708">
        <ele>107.4</ele>
        <time>2021-11-07T08:40:12Z</time>
      </trkpt>
      <trkpt lat="46.55792" lon="0.20711">
        <ele>107</ele>
        <time>2021-11-07T08:40:13Z</time>
      </trkpt>
      <trkpt lat="46.55821" lon="0.20725">
        <ele>106</ele>
        <time>2021-11-07T08:40:18Z</time>
      </trkpt>
      <trkpt lat="46.55828" lon="0.20727">
        <ele>105.8</ele>
        <time>2021-11-07T08:40:19Z</time>
      </trkpt>
      <trkpt lat="46.55851" lon="0.20732">
        <ele>105.4</ele>
        <time>2021-11-07T08:40:23Z</time>
      </trkpt>
      <trkpt lat="46.55865" lon="0.20739">
        <ele>105.2</ele>
        <time>2021-11-07T08:40:26Z</time>
      </trkpt>
      <trkpt lat="46.55874" lon="0.20741">
        <ele>105.2</ele>
        <time>2021-11-07T08:40:28Z</time>
      </trkpt>
      <trkpt lat="46.55876" lon="0.20743">
        <ele>105.2</ele>
        <time>2021-11-07T08:40:29Z</time>
      </trkpt>
      <trkpt lat="46.55882" lon="0.20748">
        <ele>105.2</ele>
        <time>2021-11-07T08:40:31Z</time>
      </trkpt>
      <trkpt lat="46.55885" lon="0.20752">
        <ele>105.2</ele>
        <time>2021-11-07T08:40:32Z</time>
      </trkpt>
      <trkpt lat="46.55889" lon="0.20761">
        <ele>105.2</ele>
        <time>2021-11-07T08:40:34Z</time>
      </trkpt>
      <trkpt lat="46.55895" lon="0.20772">
        <ele>105.2</ele>
        <time>2021-11-07T08:40:36Z</time>
      </trkpt>
      <trkpt lat="46.55898" lon="0.20777">
        <ele>105</ele>
        <time>2021-11-07T08:40:37Z</time>
      </trkpt>
      <trkpt lat="46.55907" lon="0.20796">
        <ele>103.8</ele>
        <time>2021-11-07T08:40:40Z</time>
      </trkpt>
      <trkpt lat="46.5591" lon="0.20809">
        <ele>103.4</ele>
        <time>2021-11-07T08:40:42Z</time>
      </trkpt>
      <trkpt lat="46.55912" lon="0.20815">
        <ele>103.4</ele>
        <time>2021-11-07T08:40:43Z</time>
      </trkpt>
      <trkpt lat="46.55913" lon="0.20821">
        <ele>103.4</ele>
        <time>2021-11-07T08:40:44Z</time>
      </trkpt>
      <trkpt lat="46.55919" lon="0.20841">
        <ele>103</ele>
        <time>2021-11-07T08:40:48Z</time>
      </trkpt>
      <trkpt lat="46.55921" lon="0.20846">
        <ele>102.8</ele>
        <time>2021-11-07T08:40:49Z</time>
      </trkpt>
      <trkpt lat="46.55923" lon="0.2085">
        <ele>102.8</ele>
        <time>2021-11-07T08:40:50Z</time>
      </trkpt>
      <trkpt lat="46.55928" lon="0.20863">
        <ele>102.6</ele>
        <time>2021-11-07T08:40:53Z</time>
      </trkpt>
      <trkpt lat="46.55933" lon="0.20877">
        <ele>103.2</ele>
        <time>2021-11-07T08:40:56Z</time>
      </trkpt>
      <trkpt lat="46.55936" lon="0.20881">
        <ele>103.4</ele>
        <time>2021-11-07T08:40:57Z</time>
      </trkpt>
      <trkpt lat="46.55945" lon="0.20896">
        <ele>103.8</ele>
        <time>2021-11-07T08:41:00Z</time>
      </trkpt>
      <trkpt lat="46.55951" lon="0.20907">
        <ele>104</ele>
        <time>2021-11-07T08:41:02Z</time>
      </trkpt>
      <trkpt lat="46.55959" lon="0.20917">
        <ele>104</ele>
        <time>2021-11-07T08:41:04Z</time>
      </trkpt>
      <trkpt lat="46.55967" lon="0.20927">
        <ele>104</ele>
        <time>2021-11-07T08:41:06Z</time>
      </trkpt>
      <trkpt lat="46.5597" lon="0.20931">
        <ele>103.8</ele>
        <time>2021-11-07T08:41:07Z</time>
      </trkpt>
      <trkpt lat="46.55973" lon="0.20935">
        <ele>104</ele>
        <time>2021-11-07T08:41:08Z</time>
      </trkpt>
      <trkpt lat="46.55978" lon="0.20948">
        <ele>104.2</ele>
        <time>2021-11-07T08:41:11Z</time>
      </trkpt>
      <trkpt lat="46.55985" lon="0.2096">
        <ele>105.2</ele>
        <time>2021-11-07T08:41:14Z</time>
      </trkpt>
      <trkpt lat="46.55988" lon="0.20968">
        <ele>106.4</ele>
        <time>2021-11-07T08:41:17Z</time>
      </trkpt>
      <trkpt lat="46.55987" lon="0.20972">
        <ele>107.2</ele>
        <time>2021-11-07T08:41:19Z</time>
      </trkpt>
      <trkpt lat="46.55987" lon="0.20974">
        <ele>107.6</ele>
        <time>2021-11-07T08:41:20Z</time>
      </trkpt>
      <trkpt lat="46.55985" lon="0.20977">
        <ele>108.6</ele>
        <time>2021-11-07T08:41:23Z</time>
      </trkpt>
      <trkpt lat="46.55985" lon="0.20977">
        <ele>109</ele>
        <time>2021-11-07T08:41:24Z</time>
      </trkpt>
      <trkpt lat="46.55985" lon="0.20979">
        <ele>110.2</ele>
        <time>2021-11-07T08:41:27Z</time>
      </trkpt>
      <trkpt lat="46.55982" lon="0.20981">
        <ele>111.4</ele>
        <time>2021-11-07T08:41:31Z</time>
      </trkpt>
      <trkpt lat="46.55981" lon="0.2098">
        <ele>111.8</ele>
        <time>2021-11-07T08:41:32Z</time>
      </trkpt>
      <trkpt lat="46.55979" lon="0.2098">
        <ele>112.2</ele>
        <time>2021-11-07T08:41:34Z</time>
      </trkpt>
      <trkpt lat="46.5598" lon="0.2098">
        <ele>112.6</ele>
        <time>2021-11-07T08:41:36Z</time>
      </trkpt>
      <trkpt lat="46.55981" lon="0.20979">
        <ele>113</ele>
        <time>2021-11-07T08:41:37Z</time>
      </trkpt>
      <trkpt lat="46.55979" lon="0.20979">
        <ele>113.6</ele>
        <time>2021-11-07T08:41:39Z</time>
      </trkpt>
      <trkpt lat="46.55979" lon="0.20979">
        <ele>114</ele>
        <time>2021-11-07T08:41:40Z</time>
      </trkpt>
      <trkpt lat="46.55977" lon="0.20977">
        <ele>114.6</ele>
        <time>2021-11-07T08:41:42Z</time>
      </trkpt>
      <trkpt lat="46.55977" lon="0.20976">
        <ele>115.2</ele>
        <time>2021-11-07T08:41:44Z</time>
      </trkpt>
      <trkpt lat="46.55975" lon="0.20974">
        <ele>116.6</ele>
        <time>2021-11-07T08:41:48Z</time>
      </trkpt>
      <trkpt lat="46.55974" lon="0.20972">
        <ele>116.8</ele>
        <time>2021-11-07T08:41:50Z</time>
      </trkpt>
      <trkpt lat="46.55973" lon="0.20971">
        <ele>117.8</ele>
        <time>2021-11-07T08:41:52Z</time>
      </trkpt>
      <trkpt lat="46.55969" lon="0.20967">
        <ele>118.8</ele>
        <time>2021-11-07T08:41:56Z</time>
      </trkpt>
      <trkpt lat="46.55968" lon="0.20965">
        <ele>119.2</ele>
        <time>2021-11-07T08:41:58Z</time>
      </trkpt>
      <trkpt lat="46.55967" lon="0.20964">
        <ele>119.8</ele>
        <time>2021-11-07T08:42:00Z</time>
      </trkpt>
      <trkpt lat="46.55966" lon="0.20964">
        <ele>120</ele>
        <time>2021-11-07T08:42:01Z</time>
      </trkpt>
      <trkpt lat="46.55964" lon="0.20961">
        <ele>120.6</ele>
        <time>2021-11-07T08:42:04Z</time>
      </trkpt>
      <trkpt lat="46.55962" lon="0.20958">
        <ele>121.2</ele>
        <time>2021-11-07T08:42:07Z</time>
      </trkpt>
      <trkpt lat="46.55961" lon="0.20957">
        <ele>121.4</ele>
        <time>2021-11-07T08:42:08Z</time>
      </trkpt>
      <trkpt lat="46.55958" lon="0.20954">
        <ele>121.8</ele>
        <time>2021-11-07T08:42:11Z</time>
      </trkpt>
      <trkpt lat="46.55956" lon="0.2095">
        <ele>122.2</ele>
        <time>2021-11-07T08:42:14Z</time>
      </trkpt>
      <trkpt lat="46.55954" lon="0.20947">
        <ele>122.6</ele>
        <time>2021-11-07T08:42:17Z</time>
      </trkpt>
      <trkpt lat="46.55954" lon="0.20946">
        <ele>122.8</ele>
        <time>2021-11-07T08:42:19Z</time>
      </trkpt>
      <trkpt lat="46.55952" lon="0.20942">
        <ele>123.2</ele>
        <time>2021-11-07T08:42:23Z</time>
      </trkpt>
      <trkpt lat="46.55951" lon="0.2094">
        <ele>123.2</ele>
        <time>2021-11-07T08:42:24Z</time>
      </trkpt>
      <trkpt lat="46.55945" lon="0.20937">
        <ele>123.6</ele>
        <time>2021-11-07T08:42:27Z</time>
      </trkpt>
      <trkpt lat="46.55943" lon="0.20936">
        <ele>123.6</ele>
        <time>2021-11-07T08:42:28Z</time>
      </trkpt>
      <trkpt lat="46.55941" lon="0.20933">
        <ele>123.8</ele>
        <time>2021-11-07T08:42:30Z</time>
      </trkpt>
      <trkpt lat="46.55939" lon="0.20933">
        <ele>123.8</ele>
        <time>2021-11-07T08:42:31Z</time>
      </trkpt>
      <trkpt lat="46.55935" lon="0.20934">
        <ele>124.4</ele>
        <time>2021-11-07T08:42:33Z</time>
      </trkpt>
      <trkpt lat="46.55932" lon="0.20933">
        <ele>124.6</ele>
        <time>2021-11-07T08:42:35Z</time>
      </trkpt>
      <trkpt lat="46.55929" lon="0.2093">
        <ele>125.4</ele>
        <time>2021-11-07T08:42:37Z</time>
      </trkpt>
      <trkpt lat="46.55927" lon="0.20929">
        <ele>125.6</ele>
        <time>2021-11-07T08:42:38Z</time>
      </trkpt>
      <trkpt lat="46.55919" lon="0.20924">
        <ele>125.8</ele>
        <time>2021-11-07T08:42:43Z</time>
      </trkpt>
      <trkpt lat="46.55911" lon="0.20924">
        <ele>127</ele>
        <time>2021-11-07T08:42:49Z</time>
      </trkpt>
      <trkpt lat="46.55908" lon="0.20924">
        <ele>127.8</ele>
        <time>2021-11-07T08:42:51Z</time>
      </trkpt>
      <trkpt lat="46.55906" lon="0.20924">
        <ele>128</ele>
        <time>2021-11-07T08:42:52Z</time>
      </trkpt>
      <trkpt lat="46.55893" lon="0.2092">
        <ele>129.2</ele>
        <time>2021-11-07T08:42:59Z</time>
      </trkpt>
      <trkpt lat="46.55892" lon="0.20919">
        <ele>129.2</ele>
        <time>2021-11-07T08:43:00Z</time>
      </trkpt>
      <trkpt lat="46.55877" lon="0.20907">
        <ele>128.8</ele>
        <time>2021-11-07T08:43:07Z</time>
      </trkpt>
      <trkpt lat="46.55862" lon="0.20902">
        <ele>129.6</ele>
        <time>2021-11-07T08:43:14Z</time>
      </trkpt>
      <trkpt lat="46.5585" lon="0.2089">
        <ele>129.8</ele>
        <time>2021-11-07T08:43:20Z</time>
      </trkpt>
      <trkpt lat="46.55836" lon="0.20879">
        <ele>129.6</ele>
        <time>2021-11-07T08:43:25Z</time>
      </trkpt>
      <trkpt lat="46.55824" lon="0.20865">
        <ele>129.4</ele>
        <time>2021-11-07T08:43:29Z</time>
      </trkpt>
      <trkpt lat="46.55821" lon="0.20861">
        <ele>129.4</ele>
        <time>2021-11-07T08:43:30Z</time>
      </trkpt>
      <trkpt lat="46.55813" lon="0.20857">
        <ele>129</ele>
        <time>2021-11-07T08:43:32Z</time>
      </trkpt>
      <trkpt lat="46.55811" lon="0.20857">
        <ele>128.8</ele>
        <time>2021-11-07T08:43:33Z</time>
      </trkpt>
      <trkpt lat="46.55801" lon="0.20861">
        <ele>129.4</ele>
        <time>2021-11-07T08:43:38Z</time>
      </trkpt>
      <trkpt lat="46.55799" lon="0.20865">
        <ele>130.6</ele>
        <time>2021-11-07T08:43:41Z</time>
      </trkpt>
      <trkpt lat="46.55799" lon="0.20872">
        <ele>131.4</ele>
        <time>2021-11-07T08:43:44Z</time>
      </trkpt>
      <trkpt lat="46.55799" lon="0.20874">
        <ele>131.6</ele>
        <time>2021-11-07T08:43:45Z</time>
      </trkpt>
      <trkpt lat="46.55799" lon="0.20881">
        <ele>132.4</ele>
        <time>2021-11-07T08:43:48Z</time>
      </trkpt>
      <trkpt lat="46.55798" lon="0.20883">
        <ele>132.8</ele>
        <time>2021-11-07T08:43:49Z</time>
      </trkpt>
      <trkpt lat="46.55795" lon="0.20891">
        <ele>133.6</ele>
        <time>2021-11-07T08:43:53Z</time>
      </trkpt>
      <trkpt lat="46.55795" lon="0.20894">
        <ele>133.8</ele>
        <time>2021-11-07T08:43:54Z</time>
      </trkpt>
      <trkpt lat="46.55795" lon="0.20896">
        <ele>134</ele>
        <time>2021-11-07T08:43:55Z</time>
      </trkpt>
      <trkpt lat="46.55799" lon="0.20906">
        <ele>134.8</ele>
        <time>2021-11-07T08:43:59Z</time>
      </trkpt>
      <trkpt lat="46.55801" lon="0.20911">
        <ele>135.2</ele>
        <time>2021-11-07T08:44:01Z</time>
      </trkpt>
      <trkpt lat="46.55801" lon="0.20925">
        <ele>135.8</ele>
        <time>2021-11-07T08:44:06Z</time>
      </trkpt>
      <trkpt lat="46.55803" lon="0.20926">
        <ele>136</ele>
        <time>2021-11-07T08:44:07Z</time>
      </trkpt>
      <trkpt lat="46.55806" lon="0.20943">
        <ele>136.2</ele>
        <time>2021-11-07T08:44:13Z</time>
      </trkpt>
      <trkpt lat="46.55807" lon="0.20957">
        <ele>136.8</ele>
        <time>2021-11-07T08:44:18Z</time>
      </trkpt>
      <trkpt lat="46.55808" lon="0.2096">
        <ele>137</ele>
        <time>2021-11-07T08:44:19Z</time>
      </trkpt>
      <trkpt lat="46.55814" lon="0.20973">
        <ele>136.8</ele>
        <time>2021-11-07T08:44:24Z</time>
      </trkpt>
      <trkpt lat="46.55817" lon="0.20975">
        <ele>136.8</ele>
        <time>2021-11-07T08:44:25Z</time>
      </trkpt>
      <trkpt lat="46.55824" lon="0.20978">
        <ele>136.6</ele>
        <time>2021-11-07T08:44:28Z</time>
      </trkpt>
      <trkpt lat="46.55829" lon="0.20982">
        <ele>136.4</ele>
        <time>2021-11-07T08:44:30Z</time>
      </trkpt>
      <trkpt lat="46.5584" lon="0.20982">
        <ele>136</ele>
        <time>2021-11-07T08:44:35Z</time>
      </trkpt>
      <trkpt lat="46.55842" lon="0.2098">
        <ele>136</ele>
        <time>2021-11-07T08:44:36Z</time>
      </trkpt>
      <trkpt lat="46.55845" lon="0.20979">
        <ele>136</ele>
        <time>2021-11-07T08:44:37Z</time>
      </trkpt>
      <trkpt lat="46.55849" lon="0.20978">
        <ele>135.4</ele>
        <time>2021-11-07T08:44:39Z</time>
      </trkpt>
      <trkpt lat="46.55854" lon="0.20981">
        <ele>134.8</ele>
        <time>2021-11-07T08:44:41Z</time>
      </trkpt>
      <trkpt lat="46.55856" lon="0.20984">
        <ele>134.6</ele>
        <time>2021-11-07T08:44:43Z</time>
      </trkpt>
      <trkpt lat="46.55858" lon="0.20987">
        <ele>134.4</ele>
        <time>2021-11-07T08:44:45Z</time>
      </trkpt>
      <trkpt lat="46.5586" lon="0.20989">
        <ele>134.4</ele>
        <time>2021-11-07T08:44:46Z</time>
      </trkpt>
      <trkpt lat="46.55867" lon="0.21001">
        <ele>134.8</ele>
        <time>2021-11-07T08:44:51Z</time>
      </trkpt>
      <trkpt lat="46.55869" lon="0.21002">
        <ele>135</ele>
        <time>2021-11-07T08:44:52Z</time>
      </trkpt>
      <trkpt lat="46.55878" lon="0.21011">
        <ele>134.8</ele>
        <time>2021-11-07T08:44:56Z</time>
      </trkpt>
      <trkpt lat="46.55883" lon="0.21015">
        <ele>134.6</ele>
        <time>2021-11-07T08:44:58Z</time>
      </trkpt>
      <trkpt lat="46.55886" lon="0.21018">
        <ele>134.6</ele>
        <time>2021-11-07T08:44:59Z</time>
      </trkpt>
      <trkpt lat="46.55889" lon="0.21028">
        <ele>134.6</ele>
        <time>2021-11-07T08:45:02Z</time>
      </trkpt>
      <trkpt lat="46.55893" lon="0.21043">
        <ele>134.8</ele>
        <time>2021-11-07T08:45:07Z</time>
      </trkpt>
      <trkpt lat="46.55892" lon="0.21053">
        <ele>134.8</ele>
        <time>2021-11-07T08:45:10Z</time>
      </trkpt>
      <trkpt lat="46.55892" lon="0.2106">
        <ele>134.6</ele>
        <time>2021-11-07T08:45:12Z</time>
      </trkpt>
      <trkpt lat="46.55892" lon="0.21066">
        <ele>134.4</ele>
        <time>2021-11-07T08:45:14Z</time>
      </trkpt>
      <trkpt lat="46.55887" lon="0.21075">
        <ele>134.4</ele>
        <time>2021-11-07T08:45:17Z</time>
      </trkpt>
      <trkpt lat="46.55877" lon="0.21085">
        <ele>135.2</ele>
        <time>2021-11-07T08:45:22Z</time>
      </trkpt>
      <trkpt lat="46.55874" lon="0.2109">
        <ele>135.2</ele>
        <time>2021-11-07T08:45:24Z</time>
      </trkpt>
      <trkpt lat="46.55875" lon="0.21099">
        <ele>135</ele>
        <time>2021-11-07T08:45:27Z</time>
      </trkpt>
      <trkpt lat="46.55875" lon="0.21102">
        <ele>135</ele>
        <time>2021-11-07T08:45:28Z</time>
      </trkpt>
      <trkpt lat="46.55869" lon="0.21109">
        <ele>135</ele>
        <time>2021-11-07T08:45:31Z</time>
      </trkpt>
      <trkpt lat="46.55867" lon="0.21111">
        <ele>135</ele>
        <time>2021-11-07T08:45:32Z</time>
      </trkpt>
      <trkpt lat="46.55865" lon="0.21121">
        <ele>135.2</ele>
        <time>2021-11-07T08:45:35Z</time>
      </trkpt>
      <trkpt lat="46.55859" lon="0.21135">
        <ele>134.8</ele>
        <time>2021-11-07T08:45:40Z</time>
      </trkpt>
      <trkpt lat="46.55857" lon="0.21137">
        <ele>134.8</ele>
        <time>2021-11-07T08:45:41Z</time>
      </trkpt>
      <trkpt lat="46.55851" lon="0.21142">
        <ele>134.8</ele>
        <time>2021-11-07T08:45:43Z</time>
      </trkpt>
      <trkpt lat="46.55849" lon="0.21149">
        <ele>134.8</ele>
        <time>2021-11-07T08:45:45Z</time>
      </trkpt>
      <trkpt lat="46.55848" lon="0.21167">
        <ele>134.2</ele>
        <time>2021-11-07T08:45:50Z</time>
      </trkpt>
      <trkpt lat="46.55849" lon="0.21168">
        <ele>133.8</ele>
        <time>2021-11-07T08:45:51Z</time>
      </trkpt>
      <trkpt lat="46.5585" lon="0.21169">
        <ele>133.6</ele>
        <time>2021-11-07T08:45:52Z</time>
      </trkpt>
      <trkpt lat="46.55853" lon="0.21175">
        <ele>133</ele>
        <time>2021-11-07T08:45:54Z</time>
      </trkpt>
      <trkpt lat="46.55855" lon="0.21179">
        <ele>132.4</ele>
        <time>2021-11-07T08:45:55Z</time>
      </trkpt>
      <trkpt lat="46.55856" lon="0.21183">
        <ele>131.6</ele>
        <time>2021-11-07T08:45:56Z</time>
      </trkpt>
      <trkpt lat="46.55857" lon="0.21186">
        <ele>131.2</ele>
        <time>2021-11-07T08:45:57Z</time>
      </trkpt>
      <trkpt lat="46.55857" lon="0.21192">
        <ele>129.6</ele>
        <time>2021-11-07T08:45:59Z</time>
      </trkpt>
      <trkpt lat="46.55859" lon="0.21192">
        <ele>129</ele>
        <time>2021-11-07T08:46:00Z</time>
      </trkpt>
      <trkpt lat="46.5586" lon="0.21194">
        <ele>128.4</ele>
        <time>2021-11-07T08:46:01Z</time>
      </trkpt>
      <trkpt lat="46.5586" lon="0.21195">
        <ele>128.2</ele>
        <time>2021-11-07T08:46:02Z</time>
      </trkpt>
      <trkpt lat="46.55862" lon="0.21196">
        <ele>128</ele>
        <time>2021-11-07T08:46:03Z</time>
      </trkpt>
      <trkpt lat="46.55867" lon="0.21195">
        <ele>127.4</ele>
        <time>2021-11-07T08:46:05Z</time>
      </trkpt>
      <trkpt lat="46.55869" lon="0.21196">
        <ele>127.2</ele>
        <time>2021-11-07T08:46:06Z</time>
      </trkpt>
      <trkpt lat="46.55872" lon="0.21197">
        <ele>126.6</ele>
        <time>2021-11-07T08:46:07Z</time>
      </trkpt>
      <trkpt lat="46.55874" lon="0.21197">
        <ele>126.2</ele>
        <time>2021-11-07T08:46:08Z</time>
      </trkpt>
      <trkpt lat="46.55875" lon="0.21197">
        <ele>126</ele>
        <time>2021-11-07T08:46:09Z</time>
      </trkpt>
      <trkpt lat="46.55881" lon="0.21203">
        <ele>125</ele>
        <time>2021-11-07T08:46:12Z</time>
      </trkpt>
      <trkpt lat="46.55886" lon="0.21212">
        <ele>123</ele>
        <time>2021-11-07T08:46:16Z</time>
      </trkpt>
      <trkpt lat="46.55888" lon="0.21213">
        <ele>122.4</ele>
        <time>2021-11-07T08:46:17Z</time>
      </trkpt>
      <trkpt lat="46.5589" lon="0.21216">
        <ele>121.8</ele>
        <time>2021-11-07T08:46:18Z</time>
      </trkpt>
      <trkpt lat="46.55892" lon="0.21222">
        <ele>121</ele>
        <time>2021-11-07T08:46:20Z</time>
      </trkpt>
      <trkpt lat="46.55892" lon="0.21224">
        <ele>121</ele>
        <time>2021-11-07T08:46:21Z</time>
      </trkpt>
      <trkpt lat="46.55891" lon="0.21238">
        <ele>121.8</ele>
        <time>2021-11-07T08:46:28Z</time>
      </trkpt>
      <trkpt lat="46.55889" lon="0.21241">
        <ele>122.4</ele>
        <time>2021-11-07T08:46:29Z</time>
      </trkpt>
      <trkpt lat="46.55887" lon="0.21247">
        <ele>122.8</ele>
        <time>2021-11-07T08:46:33Z</time>
      </trkpt>
      <trkpt lat="46.55884" lon="0.21252">
        <ele>123</ele>
        <time>2021-11-07T08:46:35Z</time>
      </trkpt>
      <trkpt lat="46.55876" lon="0.21264">
        <ele>124</ele>
        <time>2021-11-07T08:46:40Z</time>
      </trkpt>
      <trkpt lat="46.55871" lon="0.21271">
        <ele>124.2</ele>
        <time>2021-11-07T08:46:43Z</time>
      </trkpt>
      <trkpt lat="46.55863" lon="0.2128">
        <ele>125</ele>
        <time>2021-11-07T08:46:47Z</time>
      </trkpt>
      <trkpt lat="46.55854" lon="0.21288">
        <ele>125.8</ele>
        <time>2021-11-07T08:46:51Z</time>
      </trkpt>
      <trkpt lat="46.55848" lon="0.21294">
        <ele>126.2</ele>
        <time>2021-11-07T08:46:54Z</time>
      </trkpt>
      <trkpt lat="46.55837" lon="0.21304">
        <ele>126.8</ele>
        <time>2021-11-07T08:46:59Z</time>
      </trkpt>
      <trkpt lat="46.55833" lon="0.21309">
        <ele>127.4</ele>
        <time>2021-11-07T08:47:01Z</time>
      </trkpt>
      <trkpt lat="46.55823" lon="0.2132">
        <ele>128.2</ele>
        <time>2021-11-07T08:47:06Z</time>
      </trkpt>
      <trkpt lat="46.55812" lon="0.21328">
        <ele>128.6</ele>
        <time>2021-11-07T08:47:10Z</time>
      </trkpt>
      <trkpt lat="46.55805" lon="0.21332">
        <ele>129.2</ele>
        <time>2021-11-07T08:47:13Z</time>
      </trkpt>
      <trkpt lat="46.55798" lon="0.21338">
        <ele>129.6</ele>
        <time>2021-11-07T08:47:16Z</time>
      </trkpt>
      <trkpt lat="46.55787" lon="0.21347">
        <ele>130.8</ele>
        <time>2021-11-07T08:47:21Z</time>
      </trkpt>
      <trkpt lat="46.55786" lon="0.21349">
        <ele>131</ele>
        <time>2021-11-07T08:47:22Z</time>
      </trkpt>
      <trkpt lat="46.55783" lon="0.21357">
        <ele>131.2</ele>
        <time>2021-11-07T08:47:25Z</time>
      </trkpt>
      <trkpt lat="46.55782" lon="0.21362">
        <ele>131.2</ele>
        <time>2021-11-07T08:47:27Z</time>
      </trkpt>
      <trkpt lat="46.55784" lon="0.21385">
        <ele>131</ele>
        <time>2021-11-07T08:47:35Z</time>
      </trkpt>
      <trkpt lat="46.55791" lon="0.21403">
        <ele>131.8</ele>
        <time>2021-11-07T08:47:41Z</time>
      </trkpt>
      <trkpt lat="46.55797" lon="0.21414">
        <ele>132.8</ele>
        <time>2021-11-07T08:47:46Z</time>
      </trkpt>
      <trkpt lat="46.55802" lon="0.2142">
        <ele>133.8</ele>
        <time>2021-11-07T08:47:49Z</time>
      </trkpt>
      <trkpt lat="46.55803" lon="0.21422">
        <ele>134.2</ele>
        <time>2021-11-07T08:47:50Z</time>
      </trkpt>
      <trkpt lat="46.55814" lon="0.21433">
        <ele>135.2</ele>
        <time>2021-11-07T08:47:56Z</time>
      </trkpt>
      <trkpt lat="46.55815" lon="0.21434">
        <ele>135.4</ele>
        <time>2021-11-07T08:47:57Z</time>
      </trkpt>
      <trkpt lat="46.55824" lon="0.2144">
        <ele>136.4</ele>
        <time>2021-11-07T08:48:01Z</time>
      </trkpt>
      <trkpt lat="46.55827" lon="0.21444">
        <ele>136.8</ele>
        <time>2021-11-07T08:48:03Z</time>
      </trkpt>
      <trkpt lat="46.55839" lon="0.21452">
        <ele>137.2</ele>
        <time>2021-11-07T08:48:09Z</time>
      </trkpt>
      <trkpt lat="46.55843" lon="0.21455">
        <ele>137.4</ele>
        <time>2021-11-07T08:48:11Z</time>
      </trkpt>
      <trkpt lat="46.55851" lon="0.21459">
        <ele>138</ele>
        <time>2021-11-07T08:48:15Z</time>
      </trkpt>
      <trkpt lat="46.55861" lon="0.21462">
        <ele>138.6</ele>
        <time>2021-11-07T08:48:19Z</time>
      </trkpt>
      <trkpt lat="46.55867" lon="0.21465">
        <ele>138.8</ele>
        <time>2021-11-07T08:48:21Z</time>
      </trkpt>
      <trkpt lat="46.55885" lon="0.21473">
        <ele>139.6</ele>
        <time>2021-11-07T08:48:27Z</time>
      </trkpt>
      <trkpt lat="46.55888" lon="0.21474">
        <ele>139.8</ele>
        <time>2021-11-07T08:48:28Z</time>
      </trkpt>
      <trkpt lat="46.55903" lon="0.21479">
        <ele>140.6</ele>
        <time>2021-11-07T08:48:34Z</time>
      </trkpt>
      <trkpt lat="46.55905" lon="0.2148">
        <ele>140.8</ele>
        <time>2021-11-07T08:48:35Z</time>
      </trkpt>
      <trkpt lat="46.55919" lon="0.21484">
        <ele>140.8</ele>
        <time>2021-11-07T08:48:40Z</time>
      </trkpt>
      <trkpt lat="46.55927" lon="0.21492">
        <ele>141</ele>
        <time>2021-11-07T08:48:44Z</time>
      </trkpt>
      <trkpt lat="46.55937" lon="0.21507">
        <ele>141.8</ele>
        <time>2021-11-07T08:48:49Z</time>
      </trkpt>
      <trkpt lat="46.5594" lon="0.2151">
        <ele>141.8</ele>
        <time>2021-11-07T08:48:50Z</time>
      </trkpt>
      <trkpt lat="46.55956" lon="0.21519">
        <ele>141.8</ele>
        <time>2021-11-07T08:48:55Z</time>
      </trkpt>
      <trkpt lat="46.55971" lon="0.21528">
        <ele>141.4</ele>
        <time>2021-11-07T08:49:00Z</time>
      </trkpt>
      <trkpt lat="46.55985" lon="0.21543">
        <ele>141.6</ele>
        <time>2021-11-07T08:49:05Z</time>
      </trkpt>
      <trkpt lat="46.55998" lon="0.21551">
        <ele>141.4</ele>
        <time>2021-11-07T08:49:10Z</time>
      </trkpt>
      <trkpt lat="46.56008" lon="0.21568">
        <ele>141.2</ele>
        <time>2021-11-07T08:49:14Z</time>
      </trkpt>
      <trkpt lat="46.5601" lon="0.21572">
        <ele>141</ele>
        <time>2021-11-07T08:49:15Z</time>
      </trkpt>
      <trkpt lat="46.56014" lon="0.21581">
        <ele>140.6</ele>
        <time>2021-11-07T08:49:17Z</time>
      </trkpt>
      <trkpt lat="46.56019" lon="0.2159">
        <ele>140.4</ele>
        <time>2021-11-07T08:49:19Z</time>
      </trkpt>
      <trkpt lat="46.56023" lon="0.216">
        <ele>139.8</ele>
        <time>2021-11-07T08:49:21Z</time>
      </trkpt>
      <trkpt lat="46.56027" lon="0.2161">
        <ele>139.4</ele>
        <time>2021-11-07T08:49:23Z</time>
      </trkpt>
      <trkpt lat="46.56032" lon="0.21622">
        <ele>139.2</ele>
        <time>2021-11-07T08:49:25Z</time>
      </trkpt>
      <trkpt lat="46.56042" lon="0.21647">
        <ele>139</ele>
        <time>2021-11-07T08:49:29Z</time>
      </trkpt>
      <trkpt lat="46.56044" lon="0.21651">
        <ele>138.8</ele>
        <time>2021-11-07T08:49:30Z</time>
      </trkpt>
      <trkpt lat="46.56046" lon="0.21654">
        <ele>138.2</ele>
        <time>2021-11-07T08:49:31Z</time>
      </trkpt>
      <trkpt lat="46.56049" lon="0.21664">
        <ele>137.2</ele>
        <time>2021-11-07T08:49:34Z</time>
      </trkpt>
      <trkpt lat="46.5605" lon="0.21667">
        <ele>137</ele>
        <time>2021-11-07T08:49:35Z</time>
      </trkpt>
      <trkpt lat="46.56056" lon="0.21678">
        <ele>136</ele>
        <time>2021-11-07T08:49:39Z</time>
      </trkpt>
      <trkpt lat="46.5606" lon="0.21689">
        <ele>135</ele>
        <time>2021-11-07T08:49:42Z</time>
      </trkpt>
      <trkpt lat="46.5606" lon="0.21696">
        <ele>133.8</ele>
        <time>2021-11-07T08:49:44Z</time>
      </trkpt>
      <trkpt lat="46.5606" lon="0.21705">
        <ele>132.8</ele>
        <time>2021-11-07T08:49:47Z</time>
      </trkpt>
      <trkpt lat="46.56061" lon="0.2171">
        <ele>132.6</ele>
        <time>2021-11-07T08:49:48Z</time>
      </trkpt>
      <trkpt lat="46.56063" lon="0.21719">
        <ele>131.8</ele>
        <time>2021-11-07T08:49:50Z</time>
      </trkpt>
      <trkpt lat="46.56061" lon="0.21724">
        <ele>131</ele>
        <time>2021-11-07T08:49:51Z</time>
      </trkpt>
      <trkpt lat="46.56063" lon="0.21734">
        <ele>130.2</ele>
        <time>2021-11-07T08:49:53Z</time>
      </trkpt>
      <trkpt lat="46.56064" lon="0.21741">
        <ele>129.8</ele>
        <time>2021-11-07T08:49:55Z</time>
      </trkpt>
      <trkpt lat="46.56065" lon="0.21748">
        <ele>129.6</ele>
        <time>2021-11-07T08:49:57Z</time>
      </trkpt>
      <trkpt lat="46.56063" lon="0.21755">
        <ele>129.6</ele>
        <time>2021-11-07T08:49:59Z</time>
      </trkpt>
      <trkpt lat="46.56055" lon="0.21773">
        <ele>130</ele>
        <time>2021-11-07T08:50:05Z</time>
      </trkpt>
      <trkpt lat="46.56047" lon="0.21793">
        <ele>130.8</ele>
        <time>2021-11-07T08:50:11Z</time>
      </trkpt>
      <trkpt lat="46.56046" lon="0.21796">
        <ele>131</ele>
        <time>2021-11-07T08:50:12Z</time>
      </trkpt>
      <trkpt lat="46.56038" lon="0.21816">
        <ele>131.8</ele>
        <time>2021-11-07T08:50:17Z</time>
      </trkpt>
      <trkpt lat="46.56034" lon="0.21822">
        <ele>132.2</ele>
        <time>2021-11-07T08:50:19Z</time>
      </trkpt>
      <trkpt lat="46.56028" lon="0.21837">
        <ele>133</ele>
        <time>2021-11-07T08:50:23Z</time>
      </trkpt>
      <trkpt lat="46.56028" lon="0.21844">
        <ele>133.2</ele>
        <time>2021-11-07T08:50:25Z</time>
      </trkpt>
      <trkpt lat="46.56026" lon="0.21862">
        <ele>134.4</ele>
        <time>2021-11-07T08:50:30Z</time>
      </trkpt>
      <trkpt lat="46.56024" lon="0.21873">
        <ele>135.6</ele>
        <time>2021-11-07T08:50:33Z</time>
      </trkpt>
      <trkpt lat="46.56022" lon="0.21884">
        <ele>136.2</ele>
        <time>2021-11-07T08:50:36Z</time>
      </trkpt>
      <trkpt lat="46.56022" lon="0.21887">
        <ele>136.4</ele>
        <time>2021-11-07T08:50:37Z</time>
      </trkpt>
      <trkpt lat="46.56025" lon="0.2189">
        <ele>136.6</ele>
        <time>2021-11-07T08:50:39Z</time>
      </trkpt>
      <trkpt lat="46.56027" lon="0.21891">
        <ele>137</ele>
        <time>2021-11-07T08:50:40Z</time>
      </trkpt>
      <trkpt lat="46.56037" lon="0.21894">
        <ele>137.6</ele>
        <time>2021-11-07T08:50:47Z</time>
      </trkpt>
      <trkpt lat="46.56039" lon="0.21894">
        <ele>137.6</ele>
        <time>2021-11-07T08:50:48Z</time>
      </trkpt>
      <trkpt lat="46.56045" lon="0.21897">
        <ele>138.2</ele>
        <time>2021-11-07T08:50:52Z</time>
      </trkpt>
      <trkpt lat="46.56046" lon="0.21897">
        <ele>138.2</ele>
        <time>2021-11-07T08:50:53Z</time>
      </trkpt>
      <trkpt lat="46.56056" lon="0.21898">
        <ele>138.4</ele>
        <time>2021-11-07T08:51:00Z</time>
      </trkpt>
      <trkpt lat="46.56071" lon="0.21894">
        <ele>138.6</ele>
        <time>2021-11-07T08:51:06Z</time>
      </trkpt>
      <trkpt lat="46.56074" lon="0.21893">
        <ele>138.6</ele>
        <time>2021-11-07T08:51:07Z</time>
      </trkpt>
      <trkpt lat="46.5609" lon="0.21886">
        <ele>139</ele>
        <time>2021-11-07T08:51:12Z</time>
      </trkpt>
      <trkpt lat="46.56105" lon="0.21875">
        <ele>139</ele>
        <time>2021-11-07T08:51:16Z</time>
      </trkpt>
      <trkpt lat="46.56112" lon="0.21868">
        <ele>138.8</ele>
        <time>2021-11-07T08:51:18Z</time>
      </trkpt>
      <trkpt lat="46.56115" lon="0.21864">
        <ele>138.8</ele>
        <time>2021-11-07T08:51:19Z</time>
      </trkpt>
      <trkpt lat="46.56129" lon="0.21849">
        <ele>138.8</ele>
        <time>2021-11-07T08:51:23Z</time>
      </trkpt>
      <trkpt lat="46.56136" lon="0.21841">
        <ele>138.4</ele>
        <time>2021-11-07T08:51:25Z</time>
      </trkpt>
      <trkpt lat="46.56148" lon="0.21829">
        <ele>138.2</ele>
        <time>2021-11-07T08:51:29Z</time>
      </trkpt>
      <trkpt lat="46.56153" lon="0.21822">
        <ele>138.2</ele>
        <time>2021-11-07T08:51:31Z</time>
      </trkpt>
      <trkpt lat="46.5616" lon="0.21814">
        <ele>138</ele>
        <time>2021-11-07T08:51:33Z</time>
      </trkpt>
      <trkpt lat="46.56164" lon="0.2181">
        <ele>138</ele>
        <time>2021-11-07T08:51:34Z</time>
      </trkpt>
      <trkpt lat="46.56176" lon="0.21795">
        <ele>137.6</ele>
        <time>2021-11-07T08:51:37Z</time>
      </trkpt>
      <trkpt lat="46.56179" lon="0.2179">
        <ele>137.4</ele>
        <time>2021-11-07T08:51:38Z</time>
      </trkpt>
      <trkpt lat="46.56187" lon="0.21779">
        <ele>137.2</ele>
        <time>2021-11-07T08:51:40Z</time>
      </trkpt>
      <trkpt lat="46.56227" lon="0.21744">
        <ele>136.6</ele>
        <time>2021-11-07T08:51:47Z</time>
      </trkpt>
      <trkpt lat="46.56232" lon="0.21738">
        <ele>136.4</ele>
        <time>2021-11-07T08:51:48Z</time>
      </trkpt>
      <trkpt lat="46.56271" lon="0.21703">
        <ele>135.4</ele>
        <time>2021-11-07T08:51:55Z</time>
      </trkpt>
      <trkpt lat="46.56277" lon="0.21698">
        <ele>135.2</ele>
        <time>2021-11-07T08:51:56Z</time>
      </trkpt>
      <trkpt lat="46.56309" lon="0.21668">
        <ele>134.6</ele>
        <time>2021-11-07T08:52:02Z</time>
      </trkpt>
      <trkpt lat="46.56323" lon="0.21651">
        <ele>134.2</ele>
        <time>2021-11-07T08:52:05Z</time>
      </trkpt>
      <trkpt lat="46.56339" lon="0.2163">
        <ele>134</ele>
        <time>2021-11-07T08:52:09Z</time>
      </trkpt>
      <trkpt lat="46.5636" lon="0.21604">
        <ele>134.4</ele>
        <time>2021-11-07T08:52:15Z</time>
      </trkpt>
      <trkpt lat="46.5637" lon="0.21592">
        <ele>134.6</ele>
        <time>2021-11-07T08:52:18Z</time>
      </trkpt>
      <trkpt lat="46.56377" lon="0.21584">
        <ele>134.8</ele>
        <time>2021-11-07T08:52:20Z</time>
      </trkpt>
      <trkpt lat="46.56381" lon="0.21579">
        <ele>135</ele>
        <time>2021-11-07T08:52:21Z</time>
      </trkpt>
      <trkpt lat="46.56388" lon="0.2157">
        <ele>135.2</ele>
        <time>2021-11-07T08:52:23Z</time>
      </trkpt>
      <trkpt lat="46.56406" lon="0.21548">
        <ele>135.8</ele>
        <time>2021-11-07T08:52:28Z</time>
      </trkpt>
      <trkpt lat="46.56435" lon="0.21519">
        <ele>136.2</ele>
        <time>2021-11-07T08:52:36Z</time>
      </trkpt>
      <trkpt lat="46.56468" lon="0.21492">
        <ele>136</ele>
        <time>2021-11-07T08:52:44Z</time>
      </trkpt>
      <trkpt lat="46.56494" lon="0.21471">
        <ele>136</ele>
        <time>2021-11-07T08:52:51Z</time>
      </trkpt>
      <trkpt lat="46.56501" lon="0.21464">
        <ele>135.6</ele>
        <time>2021-11-07T08:52:53Z</time>
      </trkpt>
      <trkpt lat="46.56506" lon="0.21453">
        <ele>135.4</ele>
        <time>2021-11-07T08:52:55Z</time>
      </trkpt>
      <trkpt lat="46.56507" lon="0.21441">
        <ele>135.4</ele>
        <time>2021-11-07T08:52:57Z</time>
      </trkpt>
      <trkpt lat="46.56507" lon="0.21427">
        <ele>135.2</ele>
        <time>2021-11-07T08:52:59Z</time>
      </trkpt>
      <trkpt lat="46.56505" lon="0.21387">
        <ele>134.4</ele>
        <time>2021-11-07T08:53:05Z</time>
      </trkpt>
      <trkpt lat="46.56505" lon="0.2138">
        <ele>134.2</ele>
        <time>2021-11-07T08:53:06Z</time>
      </trkpt>
      <trkpt lat="46.56502" lon="0.21347">
        <ele>133.2</ele>
        <time>2021-11-07T08:53:11Z</time>
      </trkpt>
      <trkpt lat="46.56502" lon="0.21341">
        <ele>132.4</ele>
        <time>2021-11-07T08:53:12Z</time>
      </trkpt>
      <trkpt lat="46.56502" lon="0.21335">
        <ele>131.4</ele>
        <time>2021-11-07T08:53:13Z</time>
      </trkpt>
      <trkpt lat="46.56498" lon="0.21325">
        <ele>130</ele>
        <time>2021-11-07T08:53:14Z</time>
      </trkpt>
      <trkpt lat="46.56496" lon="0.21314">
        <ele>129.6</ele>
        <time>2021-11-07T08:53:17Z</time>
      </trkpt>
      <trkpt lat="46.56493" lon="0.21298">
        <ele>129.2</ele>
        <time>2021-11-07T08:53:19Z</time>
      </trkpt>
      <trkpt lat="46.56491" lon="0.2129">
        <ele>128</ele>
        <time>2021-11-07T08:53:20Z</time>
      </trkpt>
      <trkpt lat="46.56489" lon="0.21275">
        <ele>126.6</ele>
        <time>2021-11-07T08:53:22Z</time>
      </trkpt>
      <trkpt lat="46.56486" lon="0.2126">
        <ele>125.4</ele>
        <time>2021-11-07T08:53:24Z</time>
      </trkpt>
      <trkpt lat="46.56484" lon="0.21246">
        <ele>124.2</ele>
        <time>2021-11-07T08:53:26Z</time>
      </trkpt>
      <trkpt lat="46.56483" lon="0.2124">
        <ele>123.4</ele>
        <time>2021-11-07T08:53:27Z</time>
      </trkpt>
      <trkpt lat="46.56484" lon="0.21234">
        <ele>123</ele>
        <time>2021-11-07T08:53:28Z</time>
      </trkpt>
      <trkpt lat="46.56485" lon="0.21222">
        <ele>121.2</ele>
        <time>2021-11-07T08:53:30Z</time>
      </trkpt>
      <trkpt lat="46.56484" lon="0.21211">
        <ele>120</ele>
        <time>2021-11-07T08:53:32Z</time>
      </trkpt>
      <trkpt lat="46.56485" lon="0.21205">
        <ele>119.4</ele>
        <time>2021-11-07T08:53:33Z</time>
      </trkpt>
      <trkpt lat="46.56488" lon="0.21201">
        <ele>118.6</ele>
        <time>2021-11-07T08:53:35Z</time>
      </trkpt>
      <trkpt lat="46.5649" lon="0.21199">
        <ele>118.4</ele>
        <time>2021-11-07T08:53:36Z</time>
      </trkpt>
      <trkpt lat="46.56494" lon="0.21192">
        <ele>117.2</ele>
        <time>2021-11-07T08:53:38Z</time>
      </trkpt>
      <trkpt lat="46.56498" lon="0.21183">
        <ele>115.8</ele>
        <time>2021-11-07T08:53:40Z</time>
      </trkpt>
      <trkpt lat="46.56502" lon="0.21175">
        <ele>113.8</ele>
        <time>2021-11-07T08:53:42Z</time>
      </trkpt>
      <trkpt lat="46.56507" lon="0.21167">
        <ele>112.4</ele>
        <time>2021-11-07T08:53:44Z</time>
      </trkpt>
      <trkpt lat="46.56514" lon="0.21159">
        <ele>111.2</ele>
        <time>2021-11-07T08:53:47Z</time>
      </trkpt>
      <trkpt lat="46.5652" lon="0.21155">
        <ele>109.8</ele>
        <time>2021-11-07T08:53:49Z</time>
      </trkpt>
      <trkpt lat="46.56527" lon="0.2115">
        <ele>108.2</ele>
        <time>2021-11-07T08:53:51Z</time>
      </trkpt>
      <trkpt lat="46.56533" lon="0.21146">
        <ele>106.8</ele>
        <time>2021-11-07T08:53:53Z</time>
      </trkpt>
      <trkpt lat="46.56535" lon="0.21144">
        <ele>106</ele>
        <time>2021-11-07T08:53:54Z</time>
      </trkpt>
      <trkpt lat="46.56537" lon="0.21143">
        <ele>105.4</ele>
        <time>2021-11-07T08:53:55Z</time>
      </trkpt>
      <trkpt lat="46.56546" lon="0.21136">
        <ele>103.4</ele>
        <time>2021-11-07T08:53:58Z</time>
      </trkpt>
      <trkpt lat="46.56549" lon="0.21135">
        <ele>102.8</ele>
        <time>2021-11-07T08:53:59Z</time>
      </trkpt>
      <trkpt lat="46.56553" lon="0.21134">
        <ele>102.2</ele>
        <time>2021-11-07T08:54:00Z</time>
      </trkpt>
      <trkpt lat="46.56566" lon="0.21128">
        <ele>100.8</ele>
        <time>2021-11-07T08:54:04Z</time>
      </trkpt>
      <trkpt lat="46.56569" lon="0.21128">
        <ele>100.4</ele>
        <time>2021-11-07T08:54:05Z</time>
      </trkpt>
      <trkpt lat="46.56573" lon="0.21128">
        <ele>100</ele>
        <time>2021-11-07T08:54:06Z</time>
      </trkpt>
      <trkpt lat="46.56581" lon="0.21122">
        <ele>99.8</ele>
        <time>2021-11-07T08:54:08Z</time>
      </trkpt>
      <trkpt lat="46.56584" lon="0.21118">
        <ele>99.6</ele>
        <time>2021-11-07T08:54:09Z</time>
      </trkpt>
      <trkpt lat="46.56587" lon="0.21114">
        <ele>99</ele>
        <time>2021-11-07T08:54:10Z</time>
      </trkpt>
      <trkpt lat="46.56587" lon="0.21109">
        <ele>98.8</ele>
        <time>2021-11-07T08:54:11Z</time>
      </trkpt>
      <trkpt lat="46.56586" lon="0.21104">
        <ele>98.4</ele>
        <time>2021-11-07T08:54:12Z</time>
      </trkpt>
      <trkpt lat="46.56585" lon="0.21093">
        <ele>97.6</ele>
        <time>2021-11-07T08:54:14Z</time>
      </trkpt>
      <trkpt lat="46.56586" lon="0.21081">
        <ele>97</ele>
        <time>2021-11-07T08:54:16Z</time>
      </trkpt>
      <trkpt lat="46.56587" lon="0.2107">
        <ele>96.8</ele>
        <time>2021-11-07T08:54:17Z</time>
      </trkpt>
      <trkpt lat="46.56587" lon="0.21063">
        <ele>96.6</ele>
        <time>2021-11-07T08:54:18Z</time>
      </trkpt>
      <trkpt lat="46.56588" lon="0.21056">
        <ele>96.4</ele>
        <time>2021-11-07T08:54:19Z</time>
      </trkpt>
      <trkpt lat="46.56588" lon="0.21044">
        <ele>96</ele>
        <time>2021-11-07T08:54:21Z</time>
      </trkpt>
      <trkpt lat="46.56592" lon="0.21029">
        <ele>95.4</ele>
        <time>2021-11-07T08:54:25Z</time>
      </trkpt>
      <trkpt lat="46.56593" lon="0.21026">
        <ele>95.4</ele>
        <time>2021-11-07T08:54:26Z</time>
      </trkpt>
      <trkpt lat="46.56599" lon="0.21009">
        <ele>95.2</ele>
        <time>2021-11-07T08:54:32Z</time>
      </trkpt>
      <trkpt lat="46.56605" lon="0.21">
        <ele>95.4</ele>
        <time>2021-11-07T08:54:38Z</time>
      </trkpt>
      <trkpt lat="46.56609" lon="0.20994">
        <ele>95.4</ele>
        <time>2021-11-07T08:54:42Z</time>
      </trkpt>
      <trkpt lat="46.5661" lon="0.20994">
        <ele>95.2</ele>
        <time>2021-11-07T08:54:44Z</time>
      </trkpt>
      <trkpt lat="46.56611" lon="0.20993">
        <ele>95.2</ele>
        <time>2021-11-07T08:54:45Z</time>
      </trkpt>
      <trkpt lat="46.56617" lon="0.20981">
        <ele>95.2</ele>
        <time>2021-11-07T09:02:31Z</time>
      </trkpt>
      <trkpt lat="46.56615" lon="0.20981">
        <ele>94.8</ele>
        <time>2021-11-07T09:02:36Z</time>
      </trkpt>
      <trkpt lat="46.56613" lon="0.2099">
        <ele>95</ele>
        <time>2021-11-07T09:02:45Z</time>
      </trkpt>
      <trkpt lat="46.56609" lon="0.21004">
        <ele>95.2</ele>
        <time>2021-11-07T09:02:53Z</time>
      </trkpt>
      <trkpt lat="46.56609" lon="0.21006">
        <ele>95.2</ele>
        <time>2021-11-07T09:02:54Z</time>
      </trkpt>
      <trkpt lat="46.56617" lon="0.21023">
        <ele>95.6</ele>
        <time>2021-11-07T09:03:00Z</time>
      </trkpt>
      <trkpt lat="46.56627" lon="0.2104">
        <ele>96</ele>
        <time>2021-11-07T09:03:06Z</time>
      </trkpt>
      <trkpt lat="46.56635" lon="0.21054">
        <ele>96</ele>
        <time>2021-11-07T09:03:12Z</time>
      </trkpt>
      <trkpt lat="46.56637" lon="0.21055">
        <ele>96</ele>
        <time>2021-11-07T09:03:13Z</time>
      </trkpt>
      <trkpt lat="46.56646" lon="0.21064">
        <ele>96</ele>
        <time>2021-11-07T09:03:17Z</time>
      </trkpt>
      <trkpt lat="46.56658" lon="0.21068">
        <ele>96.4</ele>
        <time>2021-11-07T09:03:21Z</time>
      </trkpt>
      <trkpt lat="46.56666" lon="0.21067">
        <ele>96.4</ele>
        <time>2021-11-07T09:03:23Z</time>
      </trkpt>
      <trkpt lat="46.5668" lon="0.21053">
        <ele>96.8</ele>
        <time>2021-11-07T09:03:28Z</time>
      </trkpt>
      <trkpt lat="46.56704" lon="0.21023">
        <ele>97</ele>
        <time>2021-11-07T09:03:36Z</time>
      </trkpt>
      <trkpt lat="46.56706" lon="0.21019">
        <ele>97</ele>
        <time>2021-11-07T09:03:37Z</time>
      </trkpt>
      <trkpt lat="46.56708" lon="0.2101">
        <ele>97</ele>
        <time>2021-11-07T09:03:39Z</time>
      </trkpt>
      <trkpt lat="46.56707" lon="0.21005">
        <ele>97.2</ele>
        <time>2021-11-07T09:03:40Z</time>
      </trkpt>
      <trkpt lat="46.56702" lon="0.20997">
        <ele>97.4</ele>
        <time>2021-11-07T09:03:42Z</time>
      </trkpt>
      <trkpt lat="46.56696" lon="0.20991">
        <ele>97.6</ele>
        <time>2021-11-07T09:03:44Z</time>
      </trkpt>
      <trkpt lat="46.56665" lon="0.20964">
        <ele>97.6</ele>
        <time>2021-11-07T09:03:52Z</time>
      </trkpt>
      <trkpt lat="46.56643" lon="0.20939">
        <ele>97.6</ele>
        <time>2021-11-07T09:03:58Z</time>
      </trkpt>
      <trkpt lat="46.5662" lon="0.20905">
        <ele>98.2</ele>
        <time>2021-11-07T09:04:05Z</time>
      </trkpt>
      <trkpt lat="46.56593" lon="0.20867">
        <ele>98.4</ele>
        <time>2021-11-07T09:04:13Z</time>
      </trkpt>
      <trkpt lat="46.56569" lon="0.20834">
        <ele>98</ele>
        <time>2021-11-07T09:04:19Z</time>
      </trkpt>
      <trkpt lat="46.56566" lon="0.20827">
        <ele>98</ele>
        <time>2021-11-07T09:04:20Z</time>
      </trkpt>
      <trkpt lat="46.56558" lon="0.20814">
        <ele>97.8</ele>
        <time>2021-11-07T09:04:22Z</time>
      </trkpt>
      <trkpt lat="46.56552" lon="0.20799">
        <ele>97.8</ele>
        <time>2021-11-07T09:04:24Z</time>
      </trkpt>
      <trkpt lat="46.56545" lon="0.20751">
        <ele>97.8</ele>
        <time>2021-11-07T09:04:30Z</time>
      </trkpt>
      <trkpt lat="46.56544" lon="0.20708">
        <ele>97.8</ele>
        <time>2021-11-07T09:04:36Z</time>
      </trkpt>
      <trkpt lat="46.56546" lon="0.20663">
        <ele>97.8</ele>
        <time>2021-11-07T09:04:42Z</time>
      </trkpt>
      <trkpt lat="46.56548" lon="0.20657">
        <ele>98</ele>
        <time>2021-11-07T09:04:43Z</time>
      </trkpt>
      <trkpt lat="46.5655" lon="0.20651">
        <ele>98</ele>
        <time>2021-11-07T09:04:44Z</time>
      </trkpt>
      <trkpt lat="46.56555" lon="0.20642">
        <ele>98.4</ele>
        <time>2021-11-07T09:04:46Z</time>
      </trkpt>
      <trkpt lat="46.56557" lon="0.20637">
        <ele>98.6</ele>
        <time>2021-11-07T09:04:47Z</time>
      </trkpt>
      <trkpt lat="46.5656" lon="0.20632">
        <ele>98.8</ele>
        <time>2021-11-07T09:04:48Z</time>
      </trkpt>
      <trkpt lat="46.56569" lon="0.20612">
        <ele>99.8</ele>
        <time>2021-11-07T09:04:52Z</time>
      </trkpt>
      <trkpt lat="46.56576" lon="0.20597">
        <ele>100.2</ele>
        <time>2021-11-07T09:04:55Z</time>
      </trkpt>
      <trkpt lat="46.56596" lon="0.20562">
        <ele>100.4</ele>
        <time>2021-11-07T09:05:02Z</time>
      </trkpt>
      <trkpt lat="46.56614" lon="0.20532">
        <ele>99.6</ele>
        <time>2021-11-07T09:05:07Z</time>
      </trkpt>
      <trkpt lat="46.56641" lon="0.20509">
        <ele>98.6</ele>
        <time>2021-11-07T09:05:12Z</time>
      </trkpt>
      <trkpt lat="46.56649" lon="0.20501">
        <ele>98.4</ele>
        <time>2021-11-07T09:05:14Z</time>
      </trkpt>
      <trkpt lat="46.56653" lon="0.20492">
        <ele>98</ele>
        <time>2021-11-07T09:05:16Z</time>
      </trkpt>
      <trkpt lat="46.56653" lon="0.20473">
        <ele>97.8</ele>
        <time>2021-11-07T09:05:20Z</time>
      </trkpt>
      <trkpt lat="46.56646" lon="0.20434">
        <ele>97.8</ele>
        <time>2021-11-07T09:05:26Z</time>
      </trkpt>
      <trkpt lat="46.5664" lon="0.20408">
        <ele>98.8</ele>
        <time>2021-11-07T09:05:31Z</time>
      </trkpt>
      <trkpt lat="46.56641" lon="0.20387">
        <ele>99.8</ele>
        <time>2021-11-07T09:05:35Z</time>
      </trkpt>
      <trkpt lat="46.56642" lon="0.20382">
        <ele>100.2</ele>
        <time>2021-11-07T09:05:36Z</time>
      </trkpt>
      <trkpt lat="46.56642" lon="0.20372">
        <ele>101</ele>
        <time>2021-11-07T09:05:38Z</time>
      </trkpt>
      <trkpt lat="46.56645" lon="0.20361">
        <ele>102.2</ele>
        <time>2021-11-07T09:05:41Z</time>
      </trkpt>
      <trkpt lat="46.56646" lon="0.20357">
        <ele>102.4</ele>
        <time>2021-11-07T09:05:42Z</time>
      </trkpt>
      <trkpt lat="46.56648" lon="0.20345">
        <ele>103.2</ele>
        <time>2021-11-07T09:05:45Z</time>
      </trkpt>
      <trkpt lat="46.56648" lon="0.20336">
        <ele>104.2</ele>
        <time>2021-11-07T09:05:47Z</time>
      </trkpt>
      <trkpt lat="46.56648" lon="0.20333">
        <ele>104.4</ele>
        <time>2021-11-07T09:05:48Z</time>
      </trkpt>
      <trkpt lat="46.56644" lon="0.20315">
        <ele>105.4</ele>
        <time>2021-11-07T09:05:52Z</time>
      </trkpt>
      <trkpt lat="46.56643" lon="0.20311">
        <ele>105.8</ele>
        <time>2021-11-07T09:05:53Z</time>
      </trkpt>
      <trkpt lat="46.56636" lon="0.20295">
        <ele>106.8</ele>
        <time>2021-11-07T09:05:57Z</time>
      </trkpt>
      <trkpt lat="46.56635" lon="0.20287">
        <ele>107.4</ele>
        <time>2021-11-07T09:05:59Z</time>
      </trkpt>
      <trkpt lat="46.56637" lon="0.20268">
        <ele>108</ele>
        <time>2021-11-07T09:06:03Z</time>
      </trkpt>
      <trkpt lat="46.56638" lon="0.20257">
        <ele>108.2</ele>
        <time>2021-11-07T09:06:05Z</time>
      </trkpt>
      <trkpt lat="46.56637" lon="0.20229">
        <ele>108.4</ele>
        <time>2021-11-07T09:06:10Z</time>
      </trkpt>
      <trkpt lat="46.56634" lon="0.20197">
        <ele>109</ele>
        <time>2021-11-07T09:06:16Z</time>
      </trkpt>
      <trkpt lat="46.56632" lon="0.20189">
        <ele>109.2</ele>
        <time>2021-11-07T09:06:18Z</time>
      </trkpt>
      <trkpt lat="46.56626" lon="0.20163">
        <ele>109.8</ele>
        <time>2021-11-07T09:06:25Z</time>
      </trkpt>
      <trkpt lat="46.56626" lon="0.2016">
        <ele>110.2</ele>
        <time>2021-11-07T09:06:26Z</time>
      </trkpt>
      <trkpt lat="46.56623" lon="0.2014">
        <ele>111.2</ele>
        <time>2021-11-07T09:06:31Z</time>
      </trkpt>
      <trkpt lat="46.56621" lon="0.20133">
        <ele>111.6</ele>
        <time>2021-11-07T09:06:33Z</time>
      </trkpt>
      <trkpt lat="46.56619" lon="0.20122">
        <ele>112.4</ele>
        <time>2021-11-07T09:06:36Z</time>
      </trkpt>
      <trkpt lat="46.56612" lon="0.20106">
        <ele>113.4</ele>
        <time>2021-11-07T09:06:40Z</time>
      </trkpt>
      <trkpt lat="46.56603" lon="0.20079">
        <ele>114.6</ele>
        <time>2021-11-07T09:06:46Z</time>
      </trkpt>
      <trkpt lat="46.566" lon="0.2007">
        <ele>114.8</ele>
        <time>2021-11-07T09:06:48Z</time>
      </trkpt>
      <trkpt lat="46.56591" lon="0.20045">
        <ele>115.8</ele>
        <time>2021-11-07T09:06:54Z</time>
      </trkpt>
      <trkpt lat="46.5658" lon="0.2001">
        <ele>116.2</ele>
        <time>2021-11-07T09:07:03Z</time>
      </trkpt>
      <trkpt lat="46.56577" lon="0.2">
        <ele>116.8</ele>
        <time>2021-11-07T09:07:06Z</time>
      </trkpt>
      <trkpt lat="46.56568" lon="0.19989">
        <ele>117.2</ele>
        <time>2021-11-07T09:07:10Z</time>
      </trkpt>
      <trkpt lat="46.56558" lon="0.19985">
        <ele>117.8</ele>
        <time>2021-11-07T09:07:14Z</time>
      </trkpt>
      <trkpt lat="46.56546" lon="0.19983">
        <ele>119</ele>
        <time>2021-11-07T09:07:20Z</time>
      </trkpt>
      <trkpt lat="46.56544" lon="0.19983">
        <ele>119.4</ele>
        <time>2021-11-07T09:07:21Z</time>
      </trkpt>
      <trkpt lat="46.56537" lon="0.19981">
        <ele>120.2</ele>
        <time>2021-11-07T09:07:25Z</time>
      </trkpt>
      <trkpt lat="46.5653" lon="0.19979">
        <ele>121</ele>
        <time>2021-11-07T09:07:28Z</time>
      </trkpt>
      <trkpt lat="46.56523" lon="0.19977">
        <ele>121.4</ele>
        <time>2021-11-07T09:07:31Z</time>
      </trkpt>
      <trkpt lat="46.56513" lon="0.19973">
        <ele>122.6</ele>
        <time>2021-11-07T09:07:36Z</time>
      </trkpt>
      <trkpt lat="46.56494" lon="0.19968">
        <ele>123.6</ele>
        <time>2021-11-07T09:07:44Z</time>
      </trkpt>
      <trkpt lat="46.56485" lon="0.19965">
        <ele>124.6</ele>
        <time>2021-11-07T09:07:48Z</time>
      </trkpt>
      <trkpt lat="46.56478" lon="0.19962">
        <ele>125.2</ele>
        <time>2021-11-07T09:07:52Z</time>
      </trkpt>
      <trkpt lat="46.56466" lon="0.19958">
        <ele>125.8</ele>
        <time>2021-11-07T09:07:57Z</time>
      </trkpt>
      <trkpt lat="46.5646" lon="0.19955">
        <ele>126.6</ele>
        <time>2021-11-07T09:08:00Z</time>
      </trkpt>
      <trkpt lat="46.56458" lon="0.19954">
        <ele>127</ele>
        <time>2021-11-07T09:08:01Z</time>
      </trkpt>
      <trkpt lat="46.56443" lon="0.1995">
        <ele>128.2</ele>
        <time>2021-11-07T09:08:07Z</time>
      </trkpt>
      <trkpt lat="46.56441" lon="0.19949">
        <ele>128.4</ele>
        <time>2021-11-07T09:08:08Z</time>
      </trkpt>
      <trkpt lat="46.56424" lon="0.19943">
        <ele>129.2</ele>
        <time>2021-11-07T09:08:15Z</time>
      </trkpt>
      <trkpt lat="46.56418" lon="0.19941">
        <ele>129.8</ele>
        <time>2021-11-07T09:08:18Z</time>
      </trkpt>
      <trkpt lat="46.5641" lon="0.19938">
        <ele>130.4</ele>
        <time>2021-11-07T09:08:21Z</time>
      </trkpt>
      <trkpt lat="46.56393" lon="0.19932">
        <ele>131.4</ele>
        <time>2021-11-07T09:08:26Z</time>
      </trkpt>
      <trkpt lat="46.5639" lon="0.19931">
        <ele>131.6</ele>
        <time>2021-11-07T09:08:27Z</time>
      </trkpt>
      <trkpt lat="46.56366" lon="0.19921">
        <ele>132.4</ele>
        <time>2021-11-07T09:08:35Z</time>
      </trkpt>
      <trkpt lat="46.56361" lon="0.19918">
        <ele>132.6</ele>
        <time>2021-11-07T09:08:37Z</time>
      </trkpt>
      <trkpt lat="46.56344" lon="0.19915">
        <ele>133</ele>
        <time>2021-11-07T09:08:42Z</time>
      </trkpt>
      <trkpt lat="46.56325" lon="0.19908">
        <ele>133.8</ele>
        <time>2021-11-07T09:08:48Z</time>
      </trkpt>
      <trkpt lat="46.56319" lon="0.19906">
        <ele>134.2</ele>
        <time>2021-11-07T09:08:50Z</time>
      </trkpt>
      <trkpt lat="46.56303" lon="0.19896">
        <ele>134.4</ele>
        <time>2021-11-07T09:08:56Z</time>
      </trkpt>
      <trkpt lat="46.56286" lon="0.19888">
        <ele>134.8</ele>
        <time>2021-11-07T09:09:01Z</time>
      </trkpt>
      <trkpt lat="46.56279" lon="0.19885">
        <ele>135</ele>
        <time>2021-11-07T09:09:03Z</time>
      </trkpt>
      <trkpt lat="46.56255" lon="0.1987">
        <ele>136</ele>
        <time>2021-11-07T09:09:10Z</time>
      </trkpt>
      <trkpt lat="46.56225" lon="0.19851">
        <ele>136.8</ele>
        <time>2021-11-07T09:09:19Z</time>
      </trkpt>
      <trkpt lat="46.56222" lon="0.19849">
        <ele>137</ele>
        <time>2021-11-07T09:09:20Z</time>
      </trkpt>
      <trkpt lat="46.56203" lon="0.19841">
        <ele>137.8</ele>
        <time>2021-11-07T09:09:26Z</time>
      </trkpt>
      <trkpt lat="46.56186" lon="0.19835">
        <ele>138.2</ele>
        <time>2021-11-07T09:09:31Z</time>
      </trkpt>
      <trkpt lat="46.56176" lon="0.19833">
        <ele>138.4</ele>
        <time>2021-11-07T09:09:34Z</time>
      </trkpt>
      <trkpt lat="46.56153" lon="0.19834">
        <ele>139.2</ele>
        <time>2021-11-07T09:09:41Z</time>
      </trkpt>
      <trkpt lat="46.56125" lon="0.19842">
        <ele>138.8</ele>
        <time>2021-11-07T09:09:48Z</time>
      </trkpt>
      <trkpt lat="46.56117" lon="0.19844">
        <ele>139.2</ele>
        <time>2021-11-07T09:09:50Z</time>
      </trkpt>
      <trkpt lat="46.56112" lon="0.19845">
        <ele>139.2</ele>
        <time>2021-11-07T09:09:51Z</time>
      </trkpt>
      <trkpt lat="46.56095" lon="0.19848">
        <ele>139.2</ele>
        <time>2021-11-07T09:09:55Z</time>
      </trkpt>
      <trkpt lat="46.56063" lon="0.19845">
        <ele>139.6</ele>
        <time>2021-11-07T09:10:02Z</time>
      </trkpt>
      <trkpt lat="46.56026" lon="0.19833">
        <ele>139.6</ele>
        <time>2021-11-07T09:10:10Z</time>
      </trkpt>
      <trkpt lat="46.5601" lon="0.19824">
        <ele>139.8</ele>
        <time>2021-11-07T09:10:14Z</time>
      </trkpt>
      <trkpt lat="46.55999" lon="0.19815">
        <ele>140</ele>
        <time>2021-11-07T09:10:17Z</time>
      </trkpt>
      <trkpt lat="46.55992" lon="0.19808">
        <ele>140.2</ele>
        <time>2021-11-07T09:10:19Z</time>
      </trkpt>
      <trkpt lat="46.55986" lon="0.19801">
        <ele>140.2</ele>
        <time>2021-11-07T09:10:21Z</time>
      </trkpt>
      <trkpt lat="46.55977" lon="0.1979">
        <ele>140.4</ele>
        <time>2021-11-07T09:10:24Z</time>
      </trkpt>
      <trkpt lat="46.55966" lon="0.1977">
        <ele>140.4</ele>
        <time>2021-11-07T09:10:29Z</time>
      </trkpt>
      <trkpt lat="46.55966" lon="0.19753">
        <ele>140.4</ele>
        <time>2021-11-07T09:10:32Z</time>
      </trkpt>
      <trkpt lat="46.55965" lon="0.19737">
        <ele>140.4</ele>
        <time>2021-11-07T09:10:35Z</time>
      </trkpt>
      <trkpt lat="46.55965" lon="0.19731">
        <ele>140.4</ele>
        <time>2021-11-07T09:10:36Z</time>
      </trkpt>
      <trkpt lat="46.55957" lon="0.1969">
        <ele>141</ele>
        <time>2021-11-07T09:10:43Z</time>
      </trkpt>
      <trkpt lat="46.55955" lon="0.19685">
        <ele>141.2</ele>
        <time>2021-11-07T09:10:44Z</time>
      </trkpt>
      <trkpt lat="46.55949" lon="0.19669">
        <ele>141.4</ele>
        <time>2021-11-07T09:10:47Z</time>
      </trkpt>
      <trkpt lat="46.55944" lon="0.19659">
        <ele>141.4</ele>
        <time>2021-11-07T09:10:49Z</time>
      </trkpt>
      <trkpt lat="46.55942" lon="0.19654">
        <ele>141.4</ele>
        <time>2021-11-07T09:10:50Z</time>
      </trkpt>
      <trkpt lat="46.55934" lon="0.19626">
        <ele>141.6</ele>
        <time>2021-11-07T09:10:55Z</time>
      </trkpt>
      <trkpt lat="46.55924" lon="0.19582">
        <ele>141.8</ele>
        <time>2021-11-07T09:11:03Z</time>
      </trkpt>
      <trkpt lat="46.55921" lon="0.1957">
        <ele>141.8</ele>
        <time>2021-11-07T09:11:05Z</time>
      </trkpt>
      <trkpt lat="46.55919" lon="0.19553">
        <ele>142</ele>
        <time>2021-11-07T09:11:08Z</time>
      </trkpt>
      <trkpt lat="46.55917" lon="0.19541">
        <ele>142.2</ele>
        <time>2021-11-07T09:11:09Z</time>
      </trkpt>
      <trkpt lat="46.55915" lon="0.19522">
        <ele>142.4</ele>
        <time>2021-11-07T09:11:13Z</time>
      </trkpt>
      <trkpt lat="46.55915" lon="0.19501">
        <ele>142.4</ele>
        <time>2021-11-07T09:11:16Z</time>
      </trkpt>
      <trkpt lat="46.55915" lon="0.19482">
        <ele>142</ele>
        <time>2021-11-07T09:11:19Z</time>
      </trkpt>
      <trkpt lat="46.55915" lon="0.19457">
        <ele>142.2</ele>
        <time>2021-11-07T09:11:23Z</time>
      </trkpt>
      <trkpt lat="46.55917" lon="0.19436">
        <ele>142</ele>
        <time>2021-11-07T09:11:26Z</time>
      </trkpt>
      <trkpt lat="46.55919" lon="0.19426">
        <ele>141.6</ele>
        <time>2021-11-07T09:11:28Z</time>
      </trkpt>
      <trkpt lat="46.55921" lon="0.1942">
        <ele>141.2</ele>
        <time>2021-11-07T09:11:29Z</time>
      </trkpt>
      <trkpt lat="46.55931" lon="0.19392">
        <ele>140.4</ele>
        <time>2021-11-07T09:11:34Z</time>
      </trkpt>
      <trkpt lat="46.55935" lon="0.19374">
        <ele>140.4</ele>
        <time>2021-11-07T09:11:37Z</time>
      </trkpt>
      <trkpt lat="46.5594" lon="0.19357">
        <ele>140.2</ele>
        <time>2021-11-07T09:11:39Z</time>
      </trkpt>
      <trkpt lat="46.5595" lon="0.19318">
        <ele>139.8</ele>
        <time>2021-11-07T09:11:45Z</time>
      </trkpt>
      <trkpt lat="46.55963" lon="0.19288">
        <ele>139.8</ele>
        <time>2021-11-07T09:11:51Z</time>
      </trkpt>
      <trkpt lat="46.55964" lon="0.19284">
        <ele>139.6</ele>
        <time>2021-11-07T09:11:52Z</time>
      </trkpt>
      <trkpt lat="46.5597" lon="0.19276">
        <ele>139</ele>
        <time>2021-11-07T09:11:55Z</time>
      </trkpt>
      <trkpt lat="46.55973" lon="0.19274">
        <ele>139</ele>
        <time>2021-11-07T09:11:56Z</time>
      </trkpt>
      <trkpt lat="46.55976" lon="0.19277">
        <ele>138.8</ele>
        <time>2021-11-07T09:11:58Z</time>
      </trkpt>
      <trkpt lat="46.55977" lon="0.19279">
        <ele>138.8</ele>
        <time>2021-11-07T09:11:59Z</time>
      </trkpt>
      <trkpt lat="46.55978" lon="0.19281">
        <ele>138.8</ele>
        <time>2021-11-07T09:12:00Z</time>
      </trkpt>
      <trkpt lat="46.55974" lon="0.19285">
        <ele>138.6</ele>
        <time>2021-11-07T09:12:03Z</time>
      </trkpt>
      <trkpt lat="46.5597" lon="0.19297">
        <ele>138.6</ele>
        <time>2021-11-07T09:12:08Z</time>
      </trkpt>
      <trkpt lat="46.5597" lon="0.193">
        <ele>138.6</ele>
        <time>2021-11-07T09:12:09Z</time>
      </trkpt>
      <trkpt lat="46.55969" lon="0.19304">
        <ele>138.6</ele>
        <time>2021-11-07T09:12:10Z</time>
      </trkpt>
      <trkpt lat="46.55967" lon="0.19311">
        <ele>138.8</ele>
        <time>2021-11-07T09:12:12Z</time>
      </trkpt>
      <trkpt lat="46.55967" lon="0.19317">
        <ele>138.6</ele>
        <time>2021-11-07T09:12:14Z</time>
      </trkpt>
      <trkpt lat="46.55966" lon="0.19321">
        <ele>138.8</ele>
        <time>2021-11-07T09:12:15Z</time>
      </trkpt>
      <trkpt lat="46.55965" lon="0.19333">
        <ele>138.4</ele>
        <time>2021-11-07T09:12:18Z</time>
      </trkpt>
      <trkpt lat="46.55962" lon="0.19351">
        <ele>138.8</ele>
        <time>2021-11-07T09:12:22Z</time>
      </trkpt>
      <trkpt lat="46.55959" lon="0.1936">
        <ele>138.8</ele>
        <time>2021-11-07T09:12:24Z</time>
      </trkpt>
      <trkpt lat="46.55957" lon="0.19373">
        <ele>138.8</ele>
        <time>2021-11-07T09:12:27Z</time>
      </trkpt>
      <trkpt lat="46.55964" lon="0.19386">
        <ele>138.6</ele>
        <time>2021-11-07T09:12:32Z</time>
      </trkpt>
      <trkpt lat="46.55967" lon="0.19388">
        <ele>138.6</ele>
        <time>2021-11-07T09:12:33Z</time>
      </trkpt>
      <trkpt lat="46.55977" lon="0.19393">
        <ele>138.2</ele>
        <time>2021-11-07T09:12:36Z</time>
      </trkpt>
      <trkpt lat="46.55989" lon="0.19397">
        <ele>138</ele>
        <time>2021-11-07T09:12:39Z</time>
      </trkpt>
      <trkpt lat="46.55996" lon="0.19399">
        <ele>137.6</ele>
        <time>2021-11-07T09:12:41Z</time>
      </trkpt>
      <trkpt lat="46.56" lon="0.194">
        <ele>137.4</ele>
        <time>2021-11-07T09:12:42Z</time>
      </trkpt>
      <trkpt lat="46.5602" lon="0.19403">
        <ele>137.4</ele>
        <time>2021-11-07T09:12:48Z</time>
      </trkpt>
      <trkpt lat="46.56043" lon="0.1941">
        <ele>137.4</ele>
        <time>2021-11-07T09:12:54Z</time>
      </trkpt>
      <trkpt lat="46.56047" lon="0.1941">
        <ele>137.4</ele>
        <time>2021-11-07T09:12:55Z</time>
      </trkpt>
      <trkpt lat="46.56051" lon="0.1941">
        <ele>137.4</ele>
        <time>2021-11-07T09:12:56Z</time>
      </trkpt>
      <trkpt lat="46.56075" lon="0.19411">
        <ele>137.6</ele>
        <time>2021-11-07T09:13:02Z</time>
      </trkpt>
      <trkpt lat="46.56079" lon="0.19411">
        <ele>137.6</ele>
        <time>2021-11-07T09:13:03Z</time>
      </trkpt>
      <trkpt lat="46.561" lon="0.19414">
        <ele>137</ele>
        <time>2021-11-07T09:13:08Z</time>
      </trkpt>
      <trkpt lat="46.56108" lon="0.19416">
        <ele>136.6</ele>
        <time>2021-11-07T09:13:10Z</time>
      </trkpt>
      <trkpt lat="46.56114" lon="0.19424">
        <ele>136.6</ele>
        <time>2021-11-07T09:13:13Z</time>
      </trkpt>
      <trkpt lat="46.56122" lon="0.19446">
        <ele>137</ele>
        <time>2021-11-07T09:13:19Z</time>
      </trkpt>
      <trkpt lat="46.5613" lon="0.19474">
        <ele>138</ele>
        <time>2021-11-07T09:13:25Z</time>
      </trkpt>
      <trkpt lat="46.56132" lon="0.19477">
        <ele>138.2</ele>
        <time>2021-11-07T09:13:26Z</time>
      </trkpt>
      <trkpt lat="46.56143" lon="0.19485">
        <ele>138.2</ele>
        <time>2021-11-07T09:13:30Z</time>
      </trkpt>
      <trkpt lat="46.56149" lon="0.19489">
        <ele>137.8</ele>
        <time>2021-11-07T09:13:32Z</time>
      </trkpt>
      <trkpt lat="46.56158" lon="0.19496">
        <ele>137</ele>
        <time>2021-11-07T09:13:34Z</time>
      </trkpt>
      <trkpt lat="46.56163" lon="0.195">
        <ele>136.8</ele>
        <time>2021-11-07T09:13:35Z</time>
      </trkpt>
      <trkpt lat="46.56169" lon="0.19504">
        <ele>136.8</ele>
        <time>2021-11-07T09:13:36Z</time>
      </trkpt>
      <trkpt lat="46.56174" lon="0.19509">
        <ele>136.4</ele>
        <time>2021-11-07T09:13:37Z</time>
      </trkpt>
      <trkpt lat="46.56179" lon="0.19514">
        <ele>136</ele>
        <time>2021-11-07T09:13:38Z</time>
      </trkpt>
      <trkpt lat="46.56185" lon="0.1952">
        <ele>135.6</ele>
        <time>2021-11-07T09:13:39Z</time>
      </trkpt>
      <trkpt lat="46.5619" lon="0.19524">
        <ele>135.4</ele>
        <time>2021-11-07T09:13:40Z</time>
      </trkpt>
      <trkpt lat="46.56196" lon="0.19527">
        <ele>135.2</ele>
        <time>2021-11-07T09:13:41Z</time>
      </trkpt>
      <trkpt lat="46.56202" lon="0.19528">
        <ele>134.8</ele>
        <time>2021-11-07T09:13:42Z</time>
      </trkpt>
      <trkpt lat="46.56212" lon="0.19531">
        <ele>133.4</ele>
        <time>2021-11-07T09:13:44Z</time>
      </trkpt>
      <trkpt lat="46.56219" lon="0.19533">
        <ele>132.2</ele>
        <time>2021-11-07T09:13:46Z</time>
      </trkpt>
      <trkpt lat="46.56225" lon="0.19532">
        <ele>130.4</ele>
        <time>2021-11-07T09:13:48Z</time>
      </trkpt>
      <trkpt lat="46.56226" lon="0.19528">
        <ele>129</ele>
        <time>2021-11-07T09:13:49Z</time>
      </trkpt>
      <trkpt lat="46.56224" lon="0.19522">
        <ele>128.6</ele>
        <time>2021-11-07T09:13:52Z</time>
      </trkpt>
      <trkpt lat="46.56223" lon="0.19514">
        <ele>128</ele>
        <time>2021-11-07T09:13:54Z</time>
      </trkpt>
      <trkpt lat="46.56221" lon="0.19503">
        <ele>127.2</ele>
        <time>2021-11-07T09:13:57Z</time>
      </trkpt>
      <trkpt lat="46.5622" lon="0.19498">
        <ele>127</ele>
        <time>2021-11-07T09:13:58Z</time>
      </trkpt>
      <trkpt lat="46.56218" lon="0.19494">
        <ele>126.6</ele>
        <time>2021-11-07T09:13:59Z</time>
      </trkpt>
      <trkpt lat="46.56217" lon="0.19487">
        <ele>125.6</ele>
        <time>2021-11-07T09:14:01Z</time>
      </trkpt>
      <trkpt lat="46.56217" lon="0.19484">
        <ele>124.6</ele>
        <time>2021-11-07T09:14:02Z</time>
      </trkpt>
      <trkpt lat="46.56217" lon="0.19478">
        <ele>123</ele>
        <time>2021-11-07T09:14:05Z</time>
      </trkpt>
      <trkpt lat="46.56215" lon="0.1947">
        <ele>121.6</ele>
        <time>2021-11-07T09:14:08Z</time>
      </trkpt>
      <trkpt lat="46.56213" lon="0.19463">
        <ele>120.2</ele>
        <time>2021-11-07T09:14:11Z</time>
      </trkpt>
      <trkpt lat="46.56213" lon="0.1945">
        <ele>119.4</ele>
        <time>2021-11-07T09:14:14Z</time>
      </trkpt>
      <trkpt lat="46.56212" lon="0.19446">
        <ele>118.8</ele>
        <time>2021-11-07T09:14:15Z</time>
      </trkpt>
      <trkpt lat="46.56208" lon="0.19436">
        <ele>118.2</ele>
        <time>2021-11-07T09:14:18Z</time>
      </trkpt>
      <trkpt lat="46.56207" lon="0.19433">
        <ele>117.4</ele>
        <time>2021-11-07T09:14:19Z</time>
      </trkpt>
      <trkpt lat="46.56204" lon="0.19421">
        <ele>116.6</ele>
        <time>2021-11-07T09:14:23Z</time>
      </trkpt>
      <trkpt lat="46.56204" lon="0.19415">
        <ele>116.4</ele>
        <time>2021-11-07T09:14:25Z</time>
      </trkpt>
      <trkpt lat="46.56203" lon="0.1941">
        <ele>115.8</ele>
        <time>2021-11-07T09:14:28Z</time>
      </trkpt>
      <trkpt lat="46.56202" lon="0.19408">
        <ele>115.6</ele>
        <time>2021-11-07T09:14:29Z</time>
      </trkpt>
      <trkpt lat="46.56192" lon="0.19386">
        <ele>116.2</ele>
        <time>2021-11-07T09:14:36Z</time>
      </trkpt>
      <trkpt lat="46.56183" lon="0.19369">
        <ele>116.6</ele>
        <time>2021-11-07T09:14:41Z</time>
      </trkpt>
      <trkpt lat="46.56173" lon="0.19354">
        <ele>116.6</ele>
        <time>2021-11-07T09:14:46Z</time>
      </trkpt>
      <trkpt lat="46.56164" lon="0.19339">
        <ele>116.6</ele>
        <time>2021-11-07T09:14:51Z</time>
      </trkpt>
      <trkpt lat="46.56153" lon="0.19321">
        <ele>116.6</ele>
        <time>2021-11-07T09:14:56Z</time>
      </trkpt>
      <trkpt lat="46.56147" lon="0.19314">
        <ele>116.2</ele>
        <time>2021-11-07T09:14:59Z</time>
      </trkpt>
      <trkpt lat="46.56144" lon="0.19306">
        <ele>115.2</ele>
        <time>2021-11-07T09:15:02Z</time>
      </trkpt>
      <trkpt lat="46.56144" lon="0.19302">
        <ele>114.6</ele>
        <time>2021-11-07T09:15:03Z</time>
      </trkpt>
      <trkpt lat="46.56143" lon="0.19299">
        <ele>113.6</ele>
        <time>2021-11-07T09:15:04Z</time>
      </trkpt>
      <trkpt lat="46.56143" lon="0.19297">
        <ele>113</ele>
        <time>2021-11-07T09:15:05Z</time>
      </trkpt>
      <trkpt lat="46.56145" lon="0.19292">
        <ele>112.4</ele>
        <time>2021-11-07T09:15:07Z</time>
      </trkpt>
      <trkpt lat="46.56146" lon="0.1929">
        <ele>112</ele>
        <time>2021-11-07T09:15:08Z</time>
      </trkpt>
      <trkpt lat="46.56147" lon="0.19287">
        <ele>110.8</ele>
        <time>2021-11-07T09:15:09Z</time>
      </trkpt>
      <trkpt lat="46.5615" lon="0.19283">
        <ele>108.8</ele>
        <time>2021-11-07T09:15:11Z</time>
      </trkpt>
      <trkpt lat="46.56153" lon="0.1928">
        <ele>107.2</ele>
        <time>2021-11-07T09:15:13Z</time>
      </trkpt>
      <trkpt lat="46.56158" lon="0.19276">
        <ele>106</ele>
        <time>2021-11-07T09:15:15Z</time>
      </trkpt>
      <trkpt lat="46.56161" lon="0.19274">
        <ele>105</ele>
        <time>2021-11-07T09:15:16Z</time>
      </trkpt>
      <trkpt lat="46.56165" lon="0.19271">
        <ele>103.4</ele>
        <time>2021-11-07T09:15:17Z</time>
      </trkpt>
      <trkpt lat="46.56169" lon="0.19269">
        <ele>101.6</ele>
        <time>2021-11-07T09:15:18Z</time>
      </trkpt>
      <trkpt lat="46.56172" lon="0.19267">
        <ele>100.6</ele>
        <time>2021-11-07T09:15:19Z</time>
      </trkpt>
      <trkpt lat="46.56175" lon="0.19265">
        <ele>100</ele>
        <time>2021-11-07T09:15:20Z</time>
      </trkpt>
      <trkpt lat="46.56178" lon="0.19264">
        <ele>99.4</ele>
        <time>2021-11-07T09:15:21Z</time>
      </trkpt>
      <trkpt lat="46.56181" lon="0.19263">
        <ele>98.8</ele>
        <time>2021-11-07T09:15:23Z</time>
      </trkpt>
      <trkpt lat="46.56182" lon="0.19263">
        <ele>98.8</ele>
        <time>2021-11-07T09:15:24Z</time>
      </trkpt>
      <trkpt lat="46.56186" lon="0.19262">
        <ele>98.6</ele>
        <time>2021-11-07T09:15:26Z</time>
      </trkpt>
      <trkpt lat="46.56194" lon="0.19262">
        <ele>98.6</ele>
        <time>2021-11-07T09:15:29Z</time>
      </trkpt>
      <trkpt lat="46.56199" lon="0.19259">
        <ele>98.2</ele>
        <time>2021-11-07T09:15:31Z</time>
      </trkpt>
      <trkpt lat="46.56202" lon="0.19256">
        <ele>98.2</ele>
        <time>2021-11-07T09:15:32Z</time>
      </trkpt>
      <trkpt lat="46.56203" lon="0.19252">
        <ele>98</ele>
        <time>2021-11-07T09:15:33Z</time>
      </trkpt>
      <trkpt lat="46.56207" lon="0.19229">
        <ele>98</ele>
        <time>2021-11-07T09:15:38Z</time>
      </trkpt>
      <trkpt lat="46.56214" lon="0.19194">
        <ele>98.6</ele>
        <time>2021-11-07T09:15:46Z</time>
      </trkpt>
      <trkpt lat="46.56222" lon="0.19163">
        <ele>98.8</ele>
        <time>2021-11-07T09:15:53Z</time>
      </trkpt>
      <trkpt lat="46.56233" lon="0.19136">
        <ele>98.8</ele>
        <time>2021-11-07T09:15:58Z</time>
      </trkpt>
      <trkpt lat="46.5625" lon="0.19116">
        <ele>98</ele>
        <time>2021-11-07T09:16:03Z</time>
      </trkpt>
      <trkpt lat="46.56258" lon="0.1911">
        <ele>98.2</ele>
        <time>2021-11-07T09:16:05Z</time>
      </trkpt>
      <trkpt lat="46.56271" lon="0.19104">
        <ele>98.4</ele>
        <time>2021-11-07T09:16:08Z</time>
      </trkpt>
      <trkpt lat="46.56282" lon="0.19103">
        <ele>98.4</ele>
        <time>2021-11-07T09:16:11Z</time>
      </trkpt>
      <trkpt lat="46.56286" lon="0.19103">
        <ele>98.4</ele>
        <time>2021-11-07T09:16:12Z</time>
      </trkpt>
      <trkpt lat="46.56304" lon="0.19102">
        <ele>98.4</ele>
        <time>2021-11-07T09:16:17Z</time>
      </trkpt>
      <trkpt lat="46.56326" lon="0.19104">
        <ele>98.4</ele>
        <time>2021-11-07T09:16:23Z</time>
      </trkpt>
      <trkpt lat="46.56346" lon="0.19107">
        <ele>98.2</ele>
        <time>2021-11-07T09:16:28Z</time>
      </trkpt>
      <trkpt lat="46.5635" lon="0.19108">
        <ele>98.4</ele>
        <time>2021-11-07T09:16:29Z</time>
      </trkpt>
      <trkpt lat="46.56381" lon="0.19117">
        <ele>98.2</ele>
        <time>2021-11-07T09:16:36Z</time>
      </trkpt>
      <trkpt lat="46.564" lon="0.19115">
        <ele>98.2</ele>
        <time>2021-11-07T09:16:41Z</time>
      </trkpt>
      <trkpt lat="46.56416" lon="0.19104">
        <ele>98.2</ele>
        <time>2021-11-07T09:16:47Z</time>
      </trkpt>
      <trkpt lat="46.56418" lon="0.19098">
        <ele>98.6</ele>
        <time>2021-11-07T09:16:49Z</time>
      </trkpt>
      <trkpt lat="46.56417" lon="0.1909">
        <ele>98.6</ele>
        <time>2021-11-07T09:16:51Z</time>
      </trkpt>
      <trkpt lat="46.56414" lon="0.19076">
        <ele>99.4</ele>
        <time>2021-11-07T09:16:54Z</time>
      </trkpt>
      <trkpt lat="46.56408" lon="0.19052">
        <ele>99.8</ele>
        <time>2021-11-07T09:16:59Z</time>
      </trkpt>
      <trkpt lat="46.56397" lon="0.19019">
        <ele>100.2</ele>
        <time>2021-11-07T09:17:06Z</time>
      </trkpt>
      <trkpt lat="46.56391" lon="0.18995">
        <ele>100.2</ele>
        <time>2021-11-07T09:17:12Z</time>
      </trkpt>
      <trkpt lat="46.56392" lon="0.18991">
        <ele>100.4</ele>
        <time>2021-11-07T09:17:13Z</time>
      </trkpt>
      <trkpt lat="46.56396" lon="0.18975">
        <ele>101.6</ele>
        <time>2021-11-07T09:17:17Z</time>
      </trkpt>
      <trkpt lat="46.56404" lon="0.18951">
        <ele>102.4</ele>
        <time>2021-11-07T09:17:23Z</time>
      </trkpt>
      <trkpt lat="46.56404" lon="0.18939">
        <ele>102.6</ele>
        <time>2021-11-07T09:17:27Z</time>
      </trkpt>
      <trkpt lat="46.56403" lon="0.18937">
        <ele>103</ele>
        <time>2021-11-07T09:17:28Z</time>
      </trkpt>
      <trkpt lat="46.56395" lon="0.18932">
        <ele>104</ele>
        <time>2021-11-07T09:17:33Z</time>
      </trkpt>
      <trkpt lat="46.56394" lon="0.18931">
        <ele>104.2</ele>
        <time>2021-11-07T09:17:34Z</time>
      </trkpt>
      <trkpt lat="46.56388" lon="0.18927">
        <ele>105</ele>
        <time>2021-11-07T09:17:38Z</time>
      </trkpt>
      <trkpt lat="46.56381" lon="0.18922">
        <ele>106</ele>
        <time>2021-11-07T09:17:42Z</time>
      </trkpt>
      <trkpt lat="46.5638" lon="0.1892">
        <ele>106.2</ele>
        <time>2021-11-07T09:17:43Z</time>
      </trkpt>
      <trkpt lat="46.56371" lon="0.1891">
        <ele>107.2</ele>
        <time>2021-11-07T09:17:50Z</time>
      </trkpt>
      <trkpt lat="46.5637" lon="0.18908">
        <ele>107.6</ele>
        <time>2021-11-07T09:17:51Z</time>
      </trkpt>
      <trkpt lat="46.56364" lon="0.18903">
        <ele>108.4</ele>
        <time>2021-11-07T09:17:54Z</time>
      </trkpt>
      <trkpt lat="46.56359" lon="0.18897">
        <ele>109</ele>
        <time>2021-11-07T09:17:58Z</time>
      </trkpt>
      <trkpt lat="46.56354" lon="0.18892">
        <ele>109.4</ele>
        <time>2021-11-07T09:18:01Z</time>
      </trkpt>
      <trkpt lat="46.56349" lon="0.18886">
        <ele>110.6</ele>
        <time>2021-11-07T09:18:04Z</time>
      </trkpt>
      <trkpt lat="46.56343" lon="0.18878">
        <ele>111.6</ele>
        <time>2021-11-07T09:18:09Z</time>
      </trkpt>
      <trkpt lat="46.56341" lon="0.18873">
        <ele>111.8</ele>
        <time>2021-11-07T09:18:11Z</time>
      </trkpt>
      <trkpt lat="46.56334" lon="0.18863">
        <ele>112.6</ele>
        <time>2021-11-07T09:18:16Z</time>
      </trkpt>
      <trkpt lat="46.56325" lon="0.18855">
        <ele>113.6</ele>
        <time>2021-11-07T09:18:20Z</time>
      </trkpt>
      <trkpt lat="46.56319" lon="0.18849">
        <ele>114.2</ele>
        <time>2021-11-07T09:18:23Z</time>
      </trkpt>
      <trkpt lat="46.56309" lon="0.18842">
        <ele>114.8</ele>
        <time>2021-11-07T09:18:27Z</time>
      </trkpt>
      <trkpt lat="46.56298" lon="0.18837">
        <ele>115.2</ele>
        <time>2021-11-07T09:18:31Z</time>
      </trkpt>
      <trkpt lat="46.56283" lon="0.18835">
        <ele>115.6</ele>
        <time>2021-11-07T09:18:38Z</time>
      </trkpt>
      <trkpt lat="46.5628" lon="0.18837">
        <ele>115.8</ele>
        <time>2021-11-07T09:18:40Z</time>
      </trkpt>
      <trkpt lat="46.56271" lon="0.18843">
        <ele>117</ele>
        <time>2021-11-07T09:18:46Z</time>
      </trkpt>
      <trkpt lat="46.56264" lon="0.1885">
        <ele>118.2</ele>
        <time>2021-11-07T09:18:50Z</time>
      </trkpt>
      <trkpt lat="46.56257" lon="0.18854">
        <ele>118.6</ele>
        <time>2021-11-07T09:18:53Z</time>
      </trkpt>
      <trkpt lat="46.56251" lon="0.18858">
        <ele>119.2</ele>
        <time>2021-11-07T09:18:56Z</time>
      </trkpt>
      <trkpt lat="46.56245" lon="0.18862">
        <ele>119.6</ele>
        <time>2021-11-07T09:19:00Z</time>
      </trkpt>
      <trkpt lat="46.56236" lon="0.18868">
        <ele>120.4</ele>
        <time>2021-11-07T09:19:05Z</time>
      </trkpt>
      <trkpt lat="46.56231" lon="0.18873">
        <ele>120.8</ele>
        <time>2021-11-07T09:19:08Z</time>
      </trkpt>
      <trkpt lat="46.56225" lon="0.18881">
        <ele>121.4</ele>
        <time>2021-11-07T09:19:13Z</time>
      </trkpt>
      <trkpt lat="46.56222" lon="0.18884">
        <ele>121.8</ele>
        <time>2021-11-07T09:19:15Z</time>
      </trkpt>
      <trkpt lat="46.56214" lon="0.18893">
        <ele>122.6</ele>
        <time>2021-11-07T09:19:21Z</time>
      </trkpt>
      <trkpt lat="46.56211" lon="0.18895">
        <ele>122.4</ele>
        <time>2021-11-07T09:19:22Z</time>
      </trkpt>
      <trkpt lat="46.56198" lon="0.18908">
        <ele>123.2</ele>
        <time>2021-11-07T09:19:29Z</time>
      </trkpt>
      <trkpt lat="46.56194" lon="0.18911">
        <ele>123.8</ele>
        <time>2021-11-07T09:19:31Z</time>
      </trkpt>
      <trkpt lat="46.5618" lon="0.18921">
        <ele>124.6</ele>
        <time>2021-11-07T09:19:37Z</time>
      </trkpt>
      <trkpt lat="46.56178" lon="0.18922">
        <ele>124.8</ele>
        <time>2021-11-07T09:19:38Z</time>
      </trkpt>
      <trkpt lat="46.5617" lon="0.18927">
        <ele>125.2</ele>
        <time>2021-11-07T09:19:43Z</time>
      </trkpt>
      <trkpt lat="46.56168" lon="0.18927">
        <ele>125.4</ele>
        <time>2021-11-07T09:19:44Z</time>
      </trkpt>
      <trkpt lat="46.56166" lon="0.18927">
        <ele>126</ele>
        <time>2021-11-07T09:19:45Z</time>
      </trkpt>
      <trkpt lat="46.56161" lon="0.1892">
        <ele>126.6</ele>
        <time>2021-11-07T09:19:50Z</time>
      </trkpt>
      <trkpt lat="46.5616" lon="0.18918">
        <ele>127</ele>
        <time>2021-11-07T09:19:51Z</time>
      </trkpt>
      <trkpt lat="46.56154" lon="0.18908">
        <ele>127.4</ele>
        <time>2021-11-07T09:19:56Z</time>
      </trkpt>
      <trkpt lat="46.56154" lon="0.18906">
        <ele>127.4</ele>
        <time>2021-11-07T09:19:57Z</time>
      </trkpt>
      <trkpt lat="46.56155" lon="0.18902">
        <ele>127.4</ele>
        <time>2021-11-07T09:19:59Z</time>
      </trkpt>
      <trkpt lat="46.56153" lon="0.18897">
        <ele>127.2</ele>
        <time>2021-11-07T09:20:01Z</time>
      </trkpt>
      <trkpt lat="46.56153" lon="0.18895">
        <ele>127</ele>
        <time>2021-11-07T09:20:02Z</time>
      </trkpt>
      <trkpt lat="46.5615" lon="0.18881">
        <ele>126</ele>
        <time>2021-11-07T09:20:07Z</time>
      </trkpt>
      <trkpt lat="46.56151" lon="0.18878">
        <ele>125.6</ele>
        <time>2021-11-07T09:20:08Z</time>
      </trkpt>
      <trkpt lat="46.5615" lon="0.18876">
        <ele>125.4</ele>
        <time>2021-11-07T09:20:09Z</time>
      </trkpt>
      <trkpt lat="46.56148" lon="0.18871">
        <ele>124.4</ele>
        <time>2021-11-07T09:20:11Z</time>
      </trkpt>
      <trkpt lat="46.56147" lon="0.18868">
        <ele>123.6</ele>
        <time>2021-11-07T09:20:12Z</time>
      </trkpt>
      <trkpt lat="46.56146" lon="0.18865">
        <ele>123.2</ele>
        <time>2021-11-07T09:20:13Z</time>
      </trkpt>
      <trkpt lat="46.5614" lon="0.18855">
        <ele>122</ele>
        <time>2021-11-07T09:20:17Z</time>
      </trkpt>
      <trkpt lat="46.56138" lon="0.1885">
        <ele>120.2</ele>
        <time>2021-11-07T09:20:19Z</time>
      </trkpt>
      <trkpt lat="46.56136" lon="0.18846">
        <ele>119</ele>
        <time>2021-11-07T09:20:22Z</time>
      </trkpt>
      <trkpt lat="46.56134" lon="0.18843">
        <ele>118.2</ele>
        <time>2021-11-07T09:20:24Z</time>
      </trkpt>
      <trkpt lat="46.56134" lon="0.18841">
        <ele>118</ele>
        <time>2021-11-07T09:20:25Z</time>
      </trkpt>
      <trkpt lat="46.56133" lon="0.1884">
        <ele>117.6</ele>
        <time>2021-11-07T09:20:26Z</time>
      </trkpt>
      <trkpt lat="46.56131" lon="0.18836">
        <ele>116.8</ele>
        <time>2021-11-07T09:20:29Z</time>
      </trkpt>
      <trkpt lat="46.56127" lon="0.18829">
        <ele>115.8</ele>
        <time>2021-11-07T09:20:33Z</time>
      </trkpt>
      <trkpt lat="46.56125" lon="0.18825">
        <ele>114.4</ele>
        <time>2021-11-07T09:20:36Z</time>
      </trkpt>
      <trkpt lat="46.56123" lon="0.18823">
        <ele>113.8</ele>
        <time>2021-11-07T09:20:38Z</time>
      </trkpt>
      <trkpt lat="46.56109" lon="0.18807">
        <ele>113.8</ele>
        <time>2021-11-07T09:20:47Z</time>
      </trkpt>
      <trkpt lat="46.56095" lon="0.18799">
        <ele>114.8</ele>
        <time>2021-11-07T09:20:55Z</time>
      </trkpt>
      <trkpt lat="46.5608" lon="0.18798">
        <ele>115.2</ele>
        <time>2021-11-07T09:21:01Z</time>
      </trkpt>
      <trkpt lat="46.56073" lon="0.18799">
        <ele>115.4</ele>
        <time>2021-11-07T09:21:03Z</time>
      </trkpt>
      <trkpt lat="46.5606" lon="0.18797">
        <ele>115.8</ele>
        <time>2021-11-07T09:21:07Z</time>
      </trkpt>
      <trkpt lat="46.56038" lon="0.188">
        <ele>116.2</ele>
        <time>2021-11-07T09:21:14Z</time>
      </trkpt>
      <trkpt lat="46.56022" lon="0.18801">
        <ele>116.4</ele>
        <time>2021-11-07T09:21:20Z</time>
      </trkpt>
      <trkpt lat="46.5601" lon="0.18804">
        <ele>116.4</ele>
        <time>2021-11-07T09:21:23Z</time>
      </trkpt>
      <trkpt lat="46.56003" lon="0.18803">
        <ele>116.8</ele>
        <time>2021-11-07T09:21:25Z</time>
      </trkpt>
      <trkpt lat="46.55978" lon="0.18805">
        <ele>117.6</ele>
        <time>2021-11-07T09:21:32Z</time>
      </trkpt>
      <trkpt lat="46.55959" lon="0.18803">
        <ele>118.6</ele>
        <time>2021-11-07T09:21:38Z</time>
      </trkpt>
      <trkpt lat="46.55957" lon="0.18802">
        <ele>118.6</ele>
        <time>2021-11-07T09:21:39Z</time>
      </trkpt>
      <trkpt lat="46.55944" lon="0.18801">
        <ele>118.8</ele>
        <time>2021-11-07T09:21:43Z</time>
      </trkpt>
      <trkpt lat="46.5593" lon="0.18796">
        <ele>119.4</ele>
        <time>2021-11-07T09:21:48Z</time>
      </trkpt>
      <trkpt lat="46.55928" lon="0.18794">
        <ele>119.6</ele>
        <time>2021-11-07T09:21:49Z</time>
      </trkpt>
      <trkpt lat="46.5592" lon="0.18785">
        <ele>121</ele>
        <time>2021-11-07T09:21:53Z</time>
      </trkpt>
      <trkpt lat="46.55918" lon="0.18784">
        <ele>121.6</ele>
        <time>2021-11-07T09:21:54Z</time>
      </trkpt>
      <trkpt lat="46.55916" lon="0.18783">
        <ele>122</ele>
        <time>2021-11-07T09:21:55Z</time>
      </trkpt>
      <trkpt lat="46.55906" lon="0.18787">
        <ele>122.6</ele>
        <time>2021-11-07T09:21:58Z</time>
      </trkpt>
      <trkpt lat="46.55887" lon="0.18796">
        <ele>123</ele>
        <time>2021-11-07T09:22:05Z</time>
      </trkpt>
      <trkpt lat="46.55873" lon="0.18804">
        <ele>124.2</ele>
        <time>2021-11-07T09:22:10Z</time>
      </trkpt>
      <trkpt lat="46.5587" lon="0.18806">
        <ele>124.4</ele>
        <time>2021-11-07T09:22:11Z</time>
      </trkpt>
      <trkpt lat="46.5586" lon="0.18812">
        <ele>125.4</ele>
        <time>2021-11-07T09:22:14Z</time>
      </trkpt>
      <trkpt lat="46.55847" lon="0.18822">
        <ele>126.4</ele>
        <time>2021-11-07T09:22:19Z</time>
      </trkpt>
      <trkpt lat="46.55845" lon="0.18823">
        <ele>126.6</ele>
        <time>2021-11-07T09:22:20Z</time>
      </trkpt>
      <trkpt lat="46.55829" lon="0.18835">
        <ele>127.2</ele>
        <time>2021-11-07T09:22:26Z</time>
      </trkpt>
      <trkpt lat="46.55815" lon="0.18847">
        <ele>127.6</ele>
        <time>2021-11-07T09:22:31Z</time>
      </trkpt>
      <trkpt lat="46.55806" lon="0.18854">
        <ele>128</ele>
        <time>2021-11-07T09:22:34Z</time>
      </trkpt>
      <trkpt lat="46.55788" lon="0.18859">
        <ele>128.6</ele>
        <time>2021-11-07T09:22:40Z</time>
      </trkpt>
      <trkpt lat="46.55785" lon="0.18858">
        <ele>128.8</ele>
        <time>2021-11-07T09:22:41Z</time>
      </trkpt>
      <trkpt lat="46.5578" lon="0.1885">
        <ele>129.4</ele>
        <time>2021-11-07T09:22:44Z</time>
      </trkpt>
      <trkpt lat="46.55777" lon="0.18843">
        <ele>130</ele>
        <time>2021-11-07T09:22:46Z</time>
      </trkpt>
      <trkpt lat="46.55769" lon="0.18825">
        <ele>131</ele>
        <time>2021-11-07T09:22:51Z</time>
      </trkpt>
      <trkpt lat="46.55767" lon="0.18822">
        <ele>131</ele>
        <time>2021-11-07T09:22:52Z</time>
      </trkpt>
      <trkpt lat="46.55756" lon="0.18798">
        <ele>132.2</ele>
        <time>2021-11-07T09:22:59Z</time>
      </trkpt>
      <trkpt lat="46.55748" lon="0.1878">
        <ele>133</ele>
        <time>2021-11-07T09:23:05Z</time>
      </trkpt>
      <trkpt lat="46.55743" lon="0.18772">
        <ele>133.4</ele>
        <time>2021-11-07T09:23:08Z</time>
      </trkpt>
      <trkpt lat="46.55738" lon="0.18762">
        <ele>134.2</ele>
        <time>2021-11-07T09:23:12Z</time>
      </trkpt>
      <trkpt lat="46.55733" lon="0.18754">
        <ele>134.6</ele>
        <time>2021-11-07T09:23:15Z</time>
      </trkpt>
      <trkpt lat="46.5573" lon="0.18744">
        <ele>135</ele>
        <time>2021-11-07T09:23:18Z</time>
      </trkpt>
      <trkpt lat="46.55726" lon="0.18732">
        <ele>135.6</ele>
        <time>2021-11-07T09:23:22Z</time>
      </trkpt>
      <trkpt lat="46.55723" lon="0.18724">
        <ele>136.4</ele>
        <time>2021-11-07T09:23:25Z</time>
      </trkpt>
      <trkpt lat="46.5572" lon="0.18717">
        <ele>136.8</ele>
        <time>2021-11-07T09:23:27Z</time>
      </trkpt>
      <trkpt lat="46.55715" lon="0.187">
        <ele>137.4</ele>
        <time>2021-11-07T09:23:31Z</time>
      </trkpt>
      <trkpt lat="46.55709" lon="0.18685">
        <ele>137.8</ele>
        <time>2021-11-07T09:23:35Z</time>
      </trkpt>
      <trkpt lat="46.55706" lon="0.18673">
        <ele>138.2</ele>
        <time>2021-11-07T09:23:38Z</time>
      </trkpt>
      <trkpt lat="46.55697" lon="0.1865">
        <ele>139</ele>
        <time>2021-11-07T09:23:44Z</time>
      </trkpt>
      <trkpt lat="46.55696" lon="0.18646">
        <ele>139.2</ele>
        <time>2021-11-07T09:23:45Z</time>
      </trkpt>
      <trkpt lat="46.55687" lon="0.18622">
        <ele>139.8</ele>
        <time>2021-11-07T09:23:51Z</time>
      </trkpt>
      <trkpt lat="46.55683" lon="0.18609">
        <ele>140</ele>
        <time>2021-11-07T09:23:54Z</time>
      </trkpt>
      <trkpt lat="46.55678" lon="0.1859">
        <ele>140.8</ele>
        <time>2021-11-07T09:23:58Z</time>
      </trkpt>
      <trkpt lat="46.55671" lon="0.18576">
        <ele>141.2</ele>
        <time>2021-11-07T09:24:01Z</time>
      </trkpt>
      <trkpt lat="46.55665" lon="0.18562">
        <ele>141.4</ele>
        <time>2021-11-07T09:24:04Z</time>
      </trkpt>
      <trkpt lat="46.55656" lon="0.18549">
        <ele>141.6</ele>
        <time>2021-11-07T09:24:08Z</time>
      </trkpt>
      <trkpt lat="46.55654" lon="0.18524">
        <ele>142</ele>
        <time>2021-11-07T09:24:13Z</time>
      </trkpt>
      <trkpt lat="46.55652" lon="0.18507">
        <ele>142.2</ele>
        <time>2021-11-07T09:24:16Z</time>
      </trkpt>
      <trkpt lat="46.5565" lon="0.18481">
        <ele>142.4</ele>
        <time>2021-11-07T09:24:21Z</time>
      </trkpt>
      <trkpt lat="46.55648" lon="0.18444">
        <ele>143.2</ele>
        <time>2021-11-07T09:24:28Z</time>
      </trkpt>
      <trkpt lat="46.55647" lon="0.18434">
        <ele>143.2</ele>
        <time>2021-11-07T09:24:30Z</time>
      </trkpt>
      <trkpt lat="46.55646" lon="0.18396">
        <ele>144</ele>
        <time>2021-11-07T09:24:38Z</time>
      </trkpt>
      <trkpt lat="46.55646" lon="0.18376">
        <ele>144.2</ele>
        <time>2021-11-07T09:24:42Z</time>
      </trkpt>
      <trkpt lat="46.55646" lon="0.18361">
        <ele>144.2</ele>
        <time>2021-11-07T09:24:45Z</time>
      </trkpt>
      <trkpt lat="46.5565" lon="0.18328">
        <ele>144.6</ele>
        <time>2021-11-07T09:24:52Z</time>
      </trkpt>
      <trkpt lat="46.55658" lon="0.18292">
        <ele>145.2</ele>
        <time>2021-11-07T09:24:59Z</time>
      </trkpt>
      <trkpt lat="46.55667" lon="0.18255">
        <ele>144.8</ele>
        <time>2021-11-07T09:25:06Z</time>
      </trkpt>
      <trkpt lat="46.55682" lon="0.18196">
        <ele>145.2</ele>
        <time>2021-11-07T09:25:16Z</time>
      </trkpt>
      <trkpt lat="46.55686" lon="0.1818">
        <ele>145.4</ele>
        <time>2021-11-07T09:25:19Z</time>
      </trkpt>
      <trkpt lat="46.55691" lon="0.18158">
        <ele>145.6</ele>
        <time>2021-11-07T09:25:23Z</time>
      </trkpt>
      <trkpt lat="46.55701" lon="0.18119">
        <ele>146</ele>
        <time>2021-11-07T09:25:30Z</time>
      </trkpt>
      <trkpt lat="46.55711" lon="0.18065">
        <ele>146.4</ele>
        <time>2021-11-07T09:25:40Z</time>
      </trkpt>
      <trkpt lat="46.55718" lon="0.18032">
        <ele>146.6</ele>
        <time>2021-11-07T09:25:46Z</time>
      </trkpt>
      <trkpt lat="46.5572" lon="0.18013">
        <ele>146.6</ele>
        <time>2021-11-07T09:25:50Z</time>
      </trkpt>
      <trkpt lat="46.55718" lon="0.18009">
        <ele>146.6</ele>
        <time>2021-11-07T09:25:51Z</time>
      </trkpt>
      <trkpt lat="46.55701" lon="0.17996">
        <ele>147</ele>
        <time>2021-11-07T09:25:56Z</time>
      </trkpt>
      <trkpt lat="46.55685" lon="0.17987">
        <ele>147.4</ele>
        <time>2021-11-07T09:26:00Z</time>
      </trkpt>
      <trkpt lat="46.55668" lon="0.17979">
        <ele>148</ele>
        <time>2021-11-07T09:26:04Z</time>
      </trkpt>
      <trkpt lat="46.55653" lon="0.17972">
        <ele>148.6</ele>
        <time>2021-11-07T09:26:08Z</time>
      </trkpt>
      <trkpt lat="46.55641" lon="0.17965">
        <ele>148.8</ele>
        <time>2021-11-07T09:26:11Z</time>
      </trkpt>
      <trkpt lat="46.55601" lon="0.17946">
        <ele>149.4</ele>
        <time>2021-11-07T09:26:20Z</time>
      </trkpt>
      <trkpt lat="46.55561" lon="0.1793">
        <ele>149.4</ele>
        <time>2021-11-07T09:26:29Z</time>
      </trkpt>
      <trkpt lat="46.55528" lon="0.17917">
        <ele>149.4</ele>
        <time>2021-11-07T09:26:36Z</time>
      </trkpt>
      <trkpt lat="46.55513" lon="0.17912">
        <ele>149.6</ele>
        <time>2021-11-07T09:26:39Z</time>
      </trkpt>
      <trkpt lat="46.55503" lon="0.17909">
        <ele>149.6</ele>
        <time>2021-11-07T09:26:41Z</time>
      </trkpt>
      <trkpt lat="46.5549" lon="0.17906">
        <ele>149.6</ele>
        <time>2021-11-07T09:26:44Z</time>
      </trkpt>
      <trkpt lat="46.55481" lon="0.17896">
        <ele>149.4</ele>
        <time>2021-11-07T09:26:48Z</time>
      </trkpt>
      <trkpt lat="46.5548" lon="0.17894">
        <ele>149.4</ele>
        <time>2021-11-07T09:26:49Z</time>
      </trkpt>
      <trkpt lat="46.55478" lon="0.17884">
        <ele>149.6</ele>
        <time>2021-11-07T09:26:52Z</time>
      </trkpt>
      <trkpt lat="46.5548" lon="0.17872">
        <ele>149</ele>
        <time>2021-11-07T09:26:55Z</time>
      </trkpt>
      <trkpt lat="46.55482" lon="0.17869">
        <ele>148.8</ele>
        <time>2021-11-07T09:26:56Z</time>
      </trkpt>
      <trkpt lat="46.55492" lon="0.17858">
        <ele>148.4</ele>
        <time>2021-11-07T09:26:59Z</time>
      </trkpt>
      <trkpt lat="46.55499" lon="0.17849">
        <ele>148.2</ele>
        <time>2021-11-07T09:27:01Z</time>
      </trkpt>
      <trkpt lat="46.5551" lon="0.17832">
        <ele>148</ele>
        <time>2021-11-07T09:27:04Z</time>
      </trkpt>
      <trkpt lat="46.55515" lon="0.1782">
        <ele>147.8</ele>
        <time>2021-11-07T09:27:06Z</time>
      </trkpt>
      <trkpt lat="46.5552" lon="0.17802">
        <ele>147.4</ele>
        <time>2021-11-07T09:27:09Z</time>
      </trkpt>
      <trkpt lat="46.55521" lon="0.17796">
        <ele>147.2</ele>
        <time>2021-11-07T09:27:10Z</time>
      </trkpt>
      <trkpt lat="46.55524" lon="0.17782">
        <ele>147</ele>
        <time>2021-11-07T09:27:12Z</time>
      </trkpt>
      <trkpt lat="46.55528" lon="0.17761">
        <ele>146.2</ele>
        <time>2021-11-07T09:27:15Z</time>
      </trkpt>
      <trkpt lat="46.5553" lon="0.17741">
        <ele>145.2</ele>
        <time>2021-11-07T09:27:18Z</time>
      </trkpt>
      <trkpt lat="46.55535" lon="0.17723">
        <ele>145</ele>
        <time>2021-11-07T09:27:21Z</time>
      </trkpt>
      <trkpt lat="46.55538" lon="0.17711">
        <ele>145</ele>
        <time>2021-11-07T09:27:23Z</time>
      </trkpt>
      <trkpt lat="46.55539" lon="0.17706">
        <ele>145.4</ele>
        <time>2021-11-07T09:27:24Z</time>
      </trkpt>
      <trkpt lat="46.55545" lon="0.17682">
        <ele>145.6</ele>
        <time>2021-11-07T09:27:28Z</time>
      </trkpt>
      <trkpt lat="46.55548" lon="0.17668">
        <ele>145.8</ele>
        <time>2021-11-07T09:27:30Z</time>
      </trkpt>
      <trkpt lat="46.5555" lon="0.17656">
        <ele>145.8</ele>
        <time>2021-11-07T09:27:32Z</time>
      </trkpt>
      <trkpt lat="46.5555" lon="0.1765">
        <ele>145.8</ele>
        <time>2021-11-07T09:27:33Z</time>
      </trkpt>
      <trkpt lat="46.55549" lon="0.17644">
        <ele>145.8</ele>
        <time>2021-11-07T09:27:34Z</time>
      </trkpt>
      <trkpt lat="46.55545" lon="0.17631">
        <ele>145.8</ele>
        <time>2021-11-07T09:27:36Z</time>
      </trkpt>
      <trkpt lat="46.55542" lon="0.17626">
        <ele>145.6</ele>
        <time>2021-11-07T09:27:37Z</time>
      </trkpt>
      <trkpt lat="46.5554" lon="0.1762">
        <ele>145.6</ele>
        <time>2021-11-07T09:27:38Z</time>
      </trkpt>
      <trkpt lat="46.55539" lon="0.17606">
        <ele>145.4</ele>
        <time>2021-11-07T09:27:40Z</time>
      </trkpt>
      <trkpt lat="46.55543" lon="0.17587">
        <ele>145.2</ele>
        <time>2021-11-07T09:27:43Z</time>
      </trkpt>
      <trkpt lat="46.55543" lon="0.17582">
        <ele>144.8</ele>
        <time>2021-11-07T09:27:44Z</time>
      </trkpt>
      <trkpt lat="46.55542" lon="0.17576">
        <ele>144.6</ele>
        <time>2021-11-07T09:27:45Z</time>
      </trkpt>
      <trkpt lat="46.55538" lon="0.17565">
        <ele>144.4</ele>
        <time>2021-11-07T09:27:47Z</time>
      </trkpt>
      <trkpt lat="46.55536" lon="0.1756">
        <ele>144.4</ele>
        <time>2021-11-07T09:27:48Z</time>
      </trkpt>
      <trkpt lat="46.55535" lon="0.17554">
        <ele>144.4</ele>
        <time>2021-11-07T09:27:49Z</time>
      </trkpt>
      <trkpt lat="46.55536" lon="0.17543">
        <ele>143.8</ele>
        <time>2021-11-07T09:27:51Z</time>
      </trkpt>
      <trkpt lat="46.55537" lon="0.17538">
        <ele>143.6</ele>
        <time>2021-11-07T09:27:52Z</time>
      </trkpt>
      <trkpt lat="46.55545" lon="0.17517">
        <ele>142.8</ele>
        <time>2021-11-07T09:27:56Z</time>
      </trkpt>
      <trkpt lat="46.55547" lon="0.17509">
        <ele>142.4</ele>
        <time>2021-11-07T09:27:58Z</time>
      </trkpt>
      <trkpt lat="46.55547" lon="0.17492">
        <ele>142</ele>
        <time>2021-11-07T09:28:02Z</time>
      </trkpt>
      <trkpt lat="46.55543" lon="0.17472">
        <ele>141.8</ele>
        <time>2021-11-07T09:28:05Z</time>
      </trkpt>
      <trkpt lat="46.55542" lon="0.17465">
        <ele>141.8</ele>
        <time>2021-11-07T09:28:06Z</time>
      </trkpt>
      <trkpt lat="46.55541" lon="0.17459">
        <ele>141.4</ele>
        <time>2021-11-07T09:28:07Z</time>
      </trkpt>
      <trkpt lat="46.55537" lon="0.1745">
        <ele>140.8</ele>
        <time>2021-11-07T09:28:08Z</time>
      </trkpt>
      <trkpt lat="46.55532" lon="0.17443">
        <ele>140.4</ele>
        <time>2021-11-07T09:28:11Z</time>
      </trkpt>
      <trkpt lat="46.55529" lon="0.17439">
        <ele>140</ele>
        <time>2021-11-07T09:28:12Z</time>
      </trkpt>
      <trkpt lat="46.55527" lon="0.17431">
        <ele>139.6</ele>
        <time>2021-11-07T09:28:14Z</time>
      </trkpt>
      <trkpt lat="46.55527" lon="0.17427">
        <ele>139.4</ele>
        <time>2021-11-07T09:28:15Z</time>
      </trkpt>
      <trkpt lat="46.55527" lon="0.17422">
        <ele>139</ele>
        <time>2021-11-07T09:28:16Z</time>
      </trkpt>
      <trkpt lat="46.55528" lon="0.17417">
        <ele>138.2</ele>
        <time>2021-11-07T09:28:17Z</time>
      </trkpt>
      <trkpt lat="46.55529" lon="0.17414">
        <ele>137.8</ele>
        <time>2021-11-07T09:28:18Z</time>
      </trkpt>
      <trkpt lat="46.55531" lon="0.17406">
        <ele>137</ele>
        <time>2021-11-07T09:28:20Z</time>
      </trkpt>
      <trkpt lat="46.55534" lon="0.17394">
        <ele>135.4</ele>
        <time>2021-11-07T09:28:23Z</time>
      </trkpt>
      <trkpt lat="46.55537" lon="0.17387">
        <ele>134.2</ele>
        <time>2021-11-07T09:28:25Z</time>
      </trkpt>
      <trkpt lat="46.55545" lon="0.1737">
        <ele>133.2</ele>
        <time>2021-11-07T09:28:30Z</time>
      </trkpt>
      <trkpt lat="46.55559" lon="0.17364">
        <ele>132.8</ele>
        <time>2021-11-07T09:28:34Z</time>
      </trkpt>
      <trkpt lat="46.55563" lon="0.17362">
        <ele>132.8</ele>
        <time>2021-11-07T09:28:35Z</time>
      </trkpt>
      <trkpt lat="46.55567" lon="0.17359">
        <ele>132.8</ele>
        <time>2021-11-07T09:28:36Z</time>
      </trkpt>
      <trkpt lat="46.55577" lon="0.17346">
        <ele>132.6</ele>
        <time>2021-11-07T09:28:39Z</time>
      </trkpt>
      <trkpt lat="46.55581" lon="0.1734">
        <ele>132.4</ele>
        <time>2021-11-07T09:28:40Z</time>
      </trkpt>
      <trkpt lat="46.55583" lon="0.17335">
        <ele>132.4</ele>
        <time>2021-11-07T09:28:41Z</time>
      </trkpt>
      <trkpt lat="46.55587" lon="0.17323">
        <ele>132.2</ele>
        <time>2021-11-07T09:28:43Z</time>
      </trkpt>
      <trkpt lat="46.55589" lon="0.17318">
        <ele>132.8</ele>
        <time>2021-11-07T09:28:44Z</time>
      </trkpt>
      <trkpt lat="46.55591" lon="0.17312">
        <ele>133</ele>
        <time>2021-11-07T09:28:45Z</time>
      </trkpt>
      <trkpt lat="46.55593" lon="0.173">
        <ele>133.2</ele>
        <time>2021-11-07T09:28:47Z</time>
      </trkpt>
      <trkpt lat="46.55595" lon="0.17288">
        <ele>133.6</ele>
        <time>2021-11-07T09:28:49Z</time>
      </trkpt>
      <trkpt lat="46.55601" lon="0.17282">
        <ele>133.6</ele>
        <time>2021-11-07T09:28:51Z</time>
      </trkpt>
      <trkpt lat="46.55604" lon="0.17281">
        <ele>133.8</ele>
        <time>2021-11-07T09:28:52Z</time>
      </trkpt>
      <trkpt lat="46.55618" lon="0.17281">
        <ele>132.8</ele>
        <time>2021-11-07T09:28:57Z</time>
      </trkpt>
      <trkpt lat="46.55624" lon="0.17278">
        <ele>132.4</ele>
        <time>2021-11-07T09:29:00Z</time>
      </trkpt>
      <trkpt lat="46.55624" lon="0.1728">
        <ele>132.2</ele>
        <time>2021-11-07T09:29:02Z</time>
      </trkpt>
      <trkpt lat="46.55623" lon="0.17293">
        <ele>130.8</ele>
        <time>2021-11-07T09:29:08Z</time>
      </trkpt>
      <trkpt lat="46.55634" lon="0.17302">
        <ele>130.2</ele>
        <time>2021-11-07T09:29:13Z</time>
      </trkpt>
      <trkpt lat="46.55651" lon="0.17304">
        <ele>129.8</ele>
        <time>2021-11-07T09:29:18Z</time>
      </trkpt>
      <trkpt lat="46.55654" lon="0.17303">
        <ele>129.6</ele>
        <time>2021-11-07T09:29:19Z</time>
      </trkpt>
      <trkpt lat="46.55676" lon="0.17302">
        <ele>129.2</ele>
        <time>2021-11-07T09:29:26Z</time>
      </trkpt>
      <trkpt lat="46.55691" lon="0.17303">
        <ele>129</ele>
        <time>2021-11-07T09:29:32Z</time>
      </trkpt>
      <trkpt lat="46.55698" lon="0.17305">
        <ele>129</ele>
        <time>2021-11-07T09:29:36Z</time>
      </trkpt>
      <trkpt lat="46.55698" lon="0.17305">
        <ele>129</ele>
        <time>2021-11-07T09:29:37Z</time>
      </trkpt>
      <trkpt lat="46.55703" lon="0.17307">
        <ele>129.4</ele>
        <time>2021-11-07T09:29:47Z</time>
      </trkpt>
      <trkpt lat="46.55712" lon="0.17318">
        <ele>129.4</ele>
        <time>2021-11-07T09:29:52Z</time>
      </trkpt>
      <trkpt lat="46.55721" lon="0.17322">
        <ele>129.6</ele>
        <time>2021-11-07T09:29:55Z</time>
      </trkpt>
      <trkpt lat="46.55724" lon="0.1732">
        <ele>129.6</ele>
        <time>2021-11-07T09:29:56Z</time>
      </trkpt>
      <trkpt lat="46.55726" lon="0.17316">
        <ele>130</ele>
        <time>2021-11-07T09:29:57Z</time>
      </trkpt>
      <trkpt lat="46.55729" lon="0.17303">
        <ele>130.4</ele>
        <time>2021-11-07T09:30:00Z</time>
      </trkpt>
      <trkpt lat="46.55735" lon="0.17276">
        <ele>130</ele>
        <time>2021-11-07T09:30:05Z</time>
      </trkpt>
      <trkpt lat="46.55738" lon="0.17266">
        <ele>129.2</ele>
        <time>2021-11-07T09:30:07Z</time>
      </trkpt>
      <trkpt lat="46.55744" lon="0.1725">
        <ele>128.6</ele>
        <time>2021-11-07T09:30:10Z</time>
      </trkpt>
      <trkpt lat="46.55747" lon="0.17244">
        <ele>128.4</ele>
        <time>2021-11-07T09:30:11Z</time>
      </trkpt>
      <trkpt lat="46.55756" lon="0.17225">
        <ele>127.6</ele>
        <time>2021-11-07T09:30:15Z</time>
      </trkpt>
      <trkpt lat="46.55758" lon="0.17221">
        <ele>127.2</ele>
        <time>2021-11-07T09:30:16Z</time>
      </trkpt>
      <trkpt lat="46.55767" lon="0.17203">
        <ele>126.4</ele>
        <time>2021-11-07T09:30:20Z</time>
      </trkpt>
      <trkpt lat="46.55778" lon="0.17189">
        <ele>126.2</ele>
        <time>2021-11-07T09:30:23Z</time>
      </trkpt>
      <trkpt lat="46.55789" lon="0.17175">
        <ele>125.8</ele>
        <time>2021-11-07T09:30:26Z</time>
      </trkpt>
      <trkpt lat="46.55796" lon="0.1716">
        <ele>125.6</ele>
        <time>2021-11-07T09:30:28Z</time>
      </trkpt>
      <trkpt lat="46.558" lon="0.17149">
        <ele>124.8</ele>
        <time>2021-11-07T09:30:29Z</time>
      </trkpt>
      <trkpt lat="46.5581" lon="0.17129">
        <ele>123.8</ele>
        <time>2021-11-07T09:30:31Z</time>
      </trkpt>
      <trkpt lat="46.55815" lon="0.17122">
        <ele>123.2</ele>
        <time>2021-11-07T09:30:32Z</time>
      </trkpt>
      <trkpt lat="46.55827" lon="0.17109">
        <ele>122.2</ele>
        <time>2021-11-07T09:30:34Z</time>
      </trkpt>
      <trkpt lat="46.55839" lon="0.17098">
        <ele>121</ele>
        <time>2021-11-07T09:30:36Z</time>
      </trkpt>
      <trkpt lat="46.55851" lon="0.17087">
        <ele>120.4</ele>
        <time>2021-11-07T09:30:38Z</time>
      </trkpt>
      <trkpt lat="46.55869" lon="0.17075">
        <ele>119.8</ele>
        <time>2021-11-07T09:30:41Z</time>
      </trkpt>
      <trkpt lat="46.55887" lon="0.17062">
        <ele>118.6</ele>
        <time>2021-11-07T09:30:44Z</time>
      </trkpt>
      <trkpt lat="46.55893" lon="0.17057">
        <ele>118.4</ele>
        <time>2021-11-07T09:30:45Z</time>
      </trkpt>
      <trkpt lat="46.55908" lon="0.17043">
        <ele>117.4</ele>
        <time>2021-11-07T09:30:48Z</time>
      </trkpt>
      <trkpt lat="46.55919" lon="0.17037">
        <ele>117</ele>
        <time>2021-11-07T09:30:50Z</time>
      </trkpt>
      <trkpt lat="46.55943" lon="0.17025">
        <ele>116</ele>
        <time>2021-11-07T09:30:54Z</time>
      </trkpt>
      <trkpt lat="46.55964" lon="0.17015">
        <ele>115.6</ele>
        <time>2021-11-07T09:30:58Z</time>
      </trkpt>
      <trkpt lat="46.55969" lon="0.17014">
        <ele>115.6</ele>
        <time>2021-11-07T09:30:59Z</time>
      </trkpt>
      <trkpt lat="46.55982" lon="0.17015">
        <ele>115.4</ele>
        <time>2021-11-07T09:31:02Z</time>
      </trkpt>
      <trkpt lat="46.55986" lon="0.17017">
        <ele>115</ele>
        <time>2021-11-07T09:31:03Z</time>
      </trkpt>
      <trkpt lat="46.5599" lon="0.17019">
        <ele>114.6</ele>
        <time>2021-11-07T09:31:04Z</time>
      </trkpt>
      <trkpt lat="46.55998" lon="0.17035">
        <ele>113.6</ele>
        <time>2021-11-07T09:31:07Z</time>
      </trkpt>
      <trkpt lat="46.55999" lon="0.17041">
        <ele>113.2</ele>
        <time>2021-11-07T09:31:08Z</time>
      </trkpt>
      <trkpt lat="46.56002" lon="0.17065">
        <ele>112.2</ele>
        <time>2021-11-07T09:31:11Z</time>
      </trkpt>
      <trkpt lat="46.56007" lon="0.17098">
        <ele>112.4</ele>
        <time>2021-11-07T09:31:16Z</time>
      </trkpt>
      <trkpt lat="46.56008" lon="0.17109">
        <ele>112.8</ele>
        <time>2021-11-07T09:31:18Z</time>
      </trkpt>
      <trkpt lat="46.5601" lon="0.17123">
        <ele>113.8</ele>
        <time>2021-11-07T09:31:21Z</time>
      </trkpt>
      <trkpt lat="46.56013" lon="0.17136">
        <ele>114.8</ele>
        <time>2021-11-07T09:31:24Z</time>
      </trkpt>
      <trkpt lat="46.56015" lon="0.17141">
        <ele>115</ele>
        <time>2021-11-07T09:31:25Z</time>
      </trkpt>
      <trkpt lat="46.56019" lon="0.17167">
        <ele>116.4</ele>
        <time>2021-11-07T09:31:30Z</time>
      </trkpt>
      <trkpt lat="46.56019" lon="0.17172">
        <ele>116.6</ele>
        <time>2021-11-07T09:31:31Z</time>
      </trkpt>
      <trkpt lat="46.56017" lon="0.17191">
        <ele>117.6</ele>
        <time>2021-11-07T09:31:36Z</time>
      </trkpt>
      <trkpt lat="46.56016" lon="0.17195">
        <ele>117.8</ele>
        <time>2021-11-07T09:31:37Z</time>
      </trkpt>
      <trkpt lat="46.56016" lon="0.17208">
        <ele>118.8</ele>
        <time>2021-11-07T09:31:41Z</time>
      </trkpt>
      <trkpt lat="46.56015" lon="0.17218">
        <ele>119.6</ele>
        <time>2021-11-07T09:31:44Z</time>
      </trkpt>
      <trkpt lat="46.56015" lon="0.1722">
        <ele>120</ele>
        <time>2021-11-07T09:31:45Z</time>
      </trkpt>
      <trkpt lat="46.56013" lon="0.17238">
        <ele>121.2</ele>
        <time>2021-11-07T09:31:51Z</time>
      </trkpt>
      <trkpt lat="46.56011" lon="0.17254">
        <ele>122.4</ele>
        <time>2021-11-07T09:31:56Z</time>
      </trkpt>
      <trkpt lat="46.56009" lon="0.17261">
        <ele>122.6</ele>
        <time>2021-11-07T09:31:58Z</time>
      </trkpt>
      <trkpt lat="46.56007" lon="0.17278">
        <ele>123.4</ele>
        <time>2021-11-07T09:32:03Z</time>
      </trkpt>
      <trkpt lat="46.56006" lon="0.17289">
        <ele>123.8</ele>
        <time>2021-11-07T09:32:06Z</time>
      </trkpt>
      <trkpt lat="46.56002" lon="0.17315">
        <ele>124.2</ele>
        <time>2021-11-07T09:32:12Z</time>
      </trkpt>
      <trkpt lat="46.56" lon="0.17334">
        <ele>124.6</ele>
        <time>2021-11-07T09:32:16Z</time>
      </trkpt>
      <trkpt lat="46.55998" lon="0.17346">
        <ele>124.8</ele>
        <time>2021-11-07T09:32:19Z</time>
      </trkpt>
      <trkpt lat="46.55996" lon="0.17371">
        <ele>125.6</ele>
        <time>2021-11-07T09:32:25Z</time>
      </trkpt>
      <trkpt lat="46.55996" lon="0.17379">
        <ele>125.8</ele>
        <time>2021-11-07T09:32:27Z</time>
      </trkpt>
      <trkpt lat="46.55993" lon="0.17411">
        <ele>126</ele>
        <time>2021-11-07T09:32:33Z</time>
      </trkpt>
      <trkpt lat="46.55988" lon="0.17445">
        <ele>126.6</ele>
        <time>2021-11-07T09:32:40Z</time>
      </trkpt>
      <trkpt lat="46.55988" lon="0.17449">
        <ele>126.8</ele>
        <time>2021-11-07T09:32:41Z</time>
      </trkpt>
      <trkpt lat="46.55987" lon="0.17462">
        <ele>127.8</ele>
        <time>2021-11-07T09:32:45Z</time>
      </trkpt>
      <trkpt lat="46.55988" lon="0.17465">
        <ele>128</ele>
        <time>2021-11-07T09:32:46Z</time>
      </trkpt>
      <trkpt lat="46.55995" lon="0.17481">
        <ele>128.2</ele>
        <time>2021-11-07T09:32:50Z</time>
      </trkpt>
      <trkpt lat="46.55998" lon="0.17493">
        <ele>128.2</ele>
        <time>2021-11-07T09:32:52Z</time>
      </trkpt>
      <trkpt lat="46.56" lon="0.17505">
        <ele>128.2</ele>
        <time>2021-11-07T09:32:54Z</time>
      </trkpt>
      <trkpt lat="46.56001" lon="0.17512">
        <ele>128.2</ele>
        <time>2021-11-07T09:32:55Z</time>
      </trkpt>
      <trkpt lat="46.56002" lon="0.17518">
        <ele>128.2</ele>
        <time>2021-11-07T09:32:56Z</time>
      </trkpt>
      <trkpt lat="46.56007" lon="0.17548">
        <ele>128.2</ele>
        <time>2021-11-07T09:33:01Z</time>
      </trkpt>
      <trkpt lat="46.56011" lon="0.17567">
        <ele>128.2</ele>
        <time>2021-11-07T09:33:05Z</time>
      </trkpt>
      <trkpt lat="46.56014" lon="0.17571">
        <ele>128.2</ele>
        <time>2021-11-07T09:33:06Z</time>
      </trkpt>
      <trkpt lat="46.56024" lon="0.17589">
        <ele>128.6</ele>
        <time>2021-11-07T09:33:10Z</time>
      </trkpt>
      <trkpt lat="46.56028" lon="0.17602">
        <ele>128.6</ele>
        <time>2021-11-07T09:33:12Z</time>
      </trkpt>
      <trkpt lat="46.56033" lon="0.1762">
        <ele>128.6</ele>
        <time>2021-11-07T09:33:15Z</time>
      </trkpt>
      <trkpt lat="46.56038" lon="0.17639">
        <ele>128.6</ele>
        <time>2021-11-07T09:33:19Z</time>
      </trkpt>
      <trkpt lat="46.56039" lon="0.17644">
        <ele>128.6</ele>
        <time>2021-11-07T09:33:20Z</time>
      </trkpt>
      <trkpt lat="46.56042" lon="0.17653">
        <ele>129</ele>
        <time>2021-11-07T09:33:23Z</time>
      </trkpt>
      <trkpt lat="46.56043" lon="0.17661">
        <ele>129.6</ele>
        <time>2021-11-07T09:33:26Z</time>
      </trkpt>
      <trkpt lat="46.56045" lon="0.17666">
        <ele>130</ele>
        <time>2021-11-07T09:33:28Z</time>
      </trkpt>
      <trkpt lat="46.56045" lon="0.17666">
        <ele>131.2</ele>
        <time>2021-11-07T09:33:31Z</time>
      </trkpt>
      <trkpt lat="46.5605" lon="0.17684">
        <ele>131.8</ele>
        <time>2021-11-07T09:33:34Z</time>
      </trkpt>
      <trkpt lat="46.5605" lon="0.17687">
        <ele>132.2</ele>
        <time>2021-11-07T09:33:35Z</time>
      </trkpt>
      <trkpt lat="46.56054" lon="0.17703">
        <ele>133.4</ele>
        <time>2021-11-07T09:33:39Z</time>
      </trkpt>
      <trkpt lat="46.56055" lon="0.17707">
        <ele>133.8</ele>
        <time>2021-11-07T09:33:40Z</time>
      </trkpt>
      <trkpt lat="46.56056" lon="0.17717">
        <ele>134.6</ele>
        <time>2021-11-07T09:33:43Z</time>
      </trkpt>
      <trkpt lat="46.5606" lon="0.17735">
        <ele>135.8</ele>
        <time>2021-11-07T09:33:47Z</time>
      </trkpt>
      <trkpt lat="46.56073" lon="0.17762">
        <ele>135.8</ele>
        <time>2021-11-07T09:33:53Z</time>
      </trkpt>
      <trkpt lat="46.56087" lon="0.17786">
        <ele>136</ele>
        <time>2021-11-07T09:33:59Z</time>
      </trkpt>
      <trkpt lat="46.56108" lon="0.17829">
        <ele>135.8</ele>
        <time>2021-11-07T09:34:08Z</time>
      </trkpt>
      <trkpt lat="46.56117" lon="0.17842">
        <ele>136.2</ele>
        <time>2021-11-07T09:34:11Z</time>
      </trkpt>
      <trkpt lat="46.56126" lon="0.17853">
        <ele>136.2</ele>
        <time>2021-11-07T09:34:14Z</time>
      </trkpt>
      <trkpt lat="46.56138" lon="0.17868">
        <ele>136.4</ele>
        <time>2021-11-07T09:34:18Z</time>
      </trkpt>
      <trkpt lat="46.56148" lon="0.17881">
        <ele>136.8</ele>
        <time>2021-11-07T09:34:21Z</time>
      </trkpt>
      <trkpt lat="46.56151" lon="0.17885">
        <ele>136.8</ele>
        <time>2021-11-07T09:34:22Z</time>
      </trkpt>
      <trkpt lat="46.56167" lon="0.17906">
        <ele>137.8</ele>
        <time>2021-11-07T09:34:28Z</time>
      </trkpt>
      <trkpt lat="46.56182" lon="0.17921">
        <ele>139</ele>
        <time>2021-11-07T09:34:34Z</time>
      </trkpt>
      <trkpt lat="46.562" lon="0.17935">
        <ele>139.2</ele>
        <time>2021-11-07T09:34:40Z</time>
      </trkpt>
      <trkpt lat="46.56227" lon="0.1795">
        <ele>139.2</ele>
        <time>2021-11-07T09:34:47Z</time>
      </trkpt>
      <trkpt lat="46.56247" lon="0.17964">
        <ele>138.2</ele>
        <time>2021-11-07T09:34:52Z</time>
      </trkpt>
      <trkpt lat="46.56252" lon="0.17966">
        <ele>138.2</ele>
        <time>2021-11-07T09:34:53Z</time>
      </trkpt>
      <trkpt lat="46.56264" lon="0.1797">
        <ele>137.8</ele>
        <time>2021-11-07T09:34:55Z</time>
      </trkpt>
      <trkpt lat="46.56292" lon="0.1798">
        <ele>137.2</ele>
        <time>2021-11-07T09:35:00Z</time>
      </trkpt>
      <trkpt lat="46.56321" lon="0.17988">
        <ele>136.8</ele>
        <time>2021-11-07T09:35:05Z</time>
      </trkpt>
      <trkpt lat="46.56332" lon="0.1799">
        <ele>136.2</ele>
        <time>2021-11-07T09:35:07Z</time>
      </trkpt>
      <trkpt lat="46.56339" lon="0.1799">
        <ele>136</ele>
        <time>2021-11-07T09:35:08Z</time>
      </trkpt>
      <trkpt lat="46.56345" lon="0.17991">
        <ele>135.6</ele>
        <time>2021-11-07T09:35:09Z</time>
      </trkpt>
      <trkpt lat="46.56358" lon="0.17992">
        <ele>134.6</ele>
        <time>2021-11-07T09:35:11Z</time>
      </trkpt>
      <trkpt lat="46.56382" lon="0.17992">
        <ele>133.2</ele>
        <time>2021-11-07T09:35:15Z</time>
      </trkpt>
      <trkpt lat="46.56389" lon="0.17992">
        <ele>133.2</ele>
        <time>2021-11-07T09:35:16Z</time>
      </trkpt>
      <trkpt lat="46.56401" lon="0.1799">
        <ele>132.8</ele>
        <time>2021-11-07T09:35:18Z</time>
      </trkpt>
      <trkpt lat="46.56411" lon="0.17991">
        <ele>133.2</ele>
        <time>2021-11-07T09:35:20Z</time>
      </trkpt>
      <trkpt lat="46.56434" lon="0.17993">
        <ele>133.4</ele>
        <time>2021-11-07T09:35:25Z</time>
      </trkpt>
      <trkpt lat="46.56442" lon="0.17995">
        <ele>133.4</ele>
        <time>2021-11-07T09:35:27Z</time>
      </trkpt>
      <trkpt lat="46.56456" lon="0.18">
        <ele>133.2</ele>
        <time>2021-11-07T09:35:30Z</time>
      </trkpt>
      <trkpt lat="46.56467" lon="0.18001">
        <ele>133</ele>
        <time>2021-11-07T09:35:32Z</time>
      </trkpt>
      <trkpt lat="46.56483" lon="0.17999">
        <ele>132.4</ele>
        <time>2021-11-07T09:35:35Z</time>
      </trkpt>
      <trkpt lat="46.56489" lon="0.17998">
        <ele>132.2</ele>
        <time>2021-11-07T09:35:36Z</time>
      </trkpt>
      <trkpt lat="46.56506" lon="0.17994">
        <ele>131</ele>
        <time>2021-11-07T09:35:39Z</time>
      </trkpt>
      <trkpt lat="46.56518" lon="0.1799">
        <ele>130.6</ele>
        <time>2021-11-07T09:35:41Z</time>
      </trkpt>
      <trkpt lat="46.56529" lon="0.17984">
        <ele>129.6</ele>
        <time>2021-11-07T09:35:43Z</time>
      </trkpt>
      <trkpt lat="46.56539" lon="0.17984">
        <ele>128.6</ele>
        <time>2021-11-07T09:35:45Z</time>
      </trkpt>
      <trkpt lat="46.56544" lon="0.17986">
        <ele>128.4</ele>
        <time>2021-11-07T09:35:46Z</time>
      </trkpt>
      <trkpt lat="46.56549" lon="0.17989">
        <ele>128.2</ele>
        <time>2021-11-07T09:35:47Z</time>
      </trkpt>
      <trkpt lat="46.56562" lon="0.17993">
        <ele>128</ele>
        <time>2021-11-07T09:35:49Z</time>
      </trkpt>
      <trkpt lat="46.56574" lon="0.17996">
        <ele>127.6</ele>
        <time>2021-11-07T09:35:51Z</time>
      </trkpt>
      <trkpt lat="46.56589" lon="0.17996">
        <ele>127.2</ele>
        <time>2021-11-07T09:35:53Z</time>
      </trkpt>
      <trkpt lat="46.56612" lon="0.17996">
        <ele>125.6</ele>
        <time>2021-11-07T09:35:56Z</time>
      </trkpt>
      <trkpt lat="46.56619" lon="0.17995">
        <ele>125.2</ele>
        <time>2021-11-07T09:35:57Z</time>
      </trkpt>
      <trkpt lat="46.56632" lon="0.17993">
        <ele>124.6</ele>
        <time>2021-11-07T09:35:59Z</time>
      </trkpt>
      <trkpt lat="46.56637" lon="0.17992">
        <ele>124.2</ele>
        <time>2021-11-07T09:36:00Z</time>
      </trkpt>
      <trkpt lat="46.56648" lon="0.17997">
        <ele>123.2</ele>
        <time>2021-11-07T09:36:02Z</time>
      </trkpt>
      <trkpt lat="46.56653" lon="0.18001">
        <ele>123</ele>
        <time>2021-11-07T09:36:03Z</time>
      </trkpt>
      <trkpt lat="46.56664" lon="0.18016">
        <ele>122</ele>
        <time>2021-11-07T09:36:06Z</time>
      </trkpt>
      <trkpt lat="46.56667" lon="0.18021">
        <ele>121.8</ele>
        <time>2021-11-07T09:36:07Z</time>
      </trkpt>
      <trkpt lat="46.5667" lon="0.18024">
        <ele>121.6</ele>
        <time>2021-11-07T09:36:08Z</time>
      </trkpt>
      <trkpt lat="46.5668" lon="0.18025">
        <ele>121.2</ele>
        <time>2021-11-07T09:36:10Z</time>
      </trkpt>
      <trkpt lat="46.5669" lon="0.18022">
        <ele>120.8</ele>
        <time>2021-11-07T09:36:12Z</time>
      </trkpt>
      <trkpt lat="46.56703" lon="0.18012">
        <ele>120.6</ele>
        <time>2021-11-07T09:36:15Z</time>
      </trkpt>
      <trkpt lat="46.56728" lon="0.1799">
        <ele>119.8</ele>
        <time>2021-11-07T09:36:20Z</time>
      </trkpt>
      <trkpt lat="46.56734" lon="0.17985">
        <ele>119.6</ele>
        <time>2021-11-07T09:36:21Z</time>
      </trkpt>
      <trkpt lat="46.56739" lon="0.17978">
        <ele>119</ele>
        <time>2021-11-07T09:36:22Z</time>
      </trkpt>
      <trkpt lat="46.56744" lon="0.17971">
        <ele>118.6</ele>
        <time>2021-11-07T09:36:23Z</time>
      </trkpt>
      <trkpt lat="46.56754" lon="0.17954">
        <ele>117.6</ele>
        <time>2021-11-07T09:36:25Z</time>
      </trkpt>
      <trkpt lat="46.56773" lon="0.17916">
        <ele>116.4</ele>
        <time>2021-11-07T09:36:29Z</time>
      </trkpt>
      <trkpt lat="46.56787" lon="0.17887">
        <ele>115.4</ele>
        <time>2021-11-07T09:36:32Z</time>
      </trkpt>
      <trkpt lat="46.56791" lon="0.17877">
        <ele>114.6</ele>
        <time>2021-11-07T09:36:33Z</time>
      </trkpt>
      <trkpt lat="46.56799" lon="0.17856">
        <ele>113</ele>
        <time>2021-11-07T09:36:35Z</time>
      </trkpt>
      <trkpt lat="46.56812" lon="0.17824">
        <ele>111.6</ele>
        <time>2021-11-07T09:36:38Z</time>
      </trkpt>
      <trkpt lat="46.56819" lon="0.17802">
        <ele>110.4</ele>
        <time>2021-11-07T09:36:40Z</time>
      </trkpt>
      <trkpt lat="46.56826" lon="0.17767">
        <ele>109.2</ele>
        <time>2021-11-07T09:36:43Z</time>
      </trkpt>
      <trkpt lat="46.56826" lon="0.17754">
        <ele>108.6</ele>
        <time>2021-11-07T09:36:44Z</time>
      </trkpt>
      <trkpt lat="46.56825" lon="0.17742">
        <ele>108.2</ele>
        <time>2021-11-07T09:36:45Z</time>
      </trkpt>
      <trkpt lat="46.56822" lon="0.1773">
        <ele>108</ele>
        <time>2021-11-07T09:36:46Z</time>
      </trkpt>
      <trkpt lat="46.56819" lon="0.17719">
        <ele>107.8</ele>
        <time>2021-11-07T09:36:47Z</time>
      </trkpt>
      <trkpt lat="46.56811" lon="0.17699">
        <ele>106.8</ele>
        <time>2021-11-07T09:36:49Z</time>
      </trkpt>
      <trkpt lat="46.56801" lon="0.17672">
        <ele>106.2</ele>
        <time>2021-11-07T09:36:52Z</time>
      </trkpt>
      <trkpt lat="46.56793" lon="0.17656">
        <ele>106</ele>
        <time>2021-11-07T09:36:54Z</time>
      </trkpt>
      <trkpt lat="46.56783" lon="0.17644">
        <ele>106</ele>
        <time>2021-11-07T09:36:56Z</time>
      </trkpt>
      <trkpt lat="46.56778" lon="0.17639">
        <ele>106</ele>
        <time>2021-11-07T09:36:57Z</time>
      </trkpt>
      <trkpt lat="46.56767" lon="0.17633">
        <ele>106.2</ele>
        <time>2021-11-07T09:36:59Z</time>
      </trkpt>
      <trkpt lat="46.56762" lon="0.17631">
        <ele>106.4</ele>
        <time>2021-11-07T09:37:00Z</time>
      </trkpt>
      <trkpt lat="46.56742" lon="0.17627">
        <ele>106.6</ele>
        <time>2021-11-07T09:37:04Z</time>
      </trkpt>
      <trkpt lat="46.56732" lon="0.17625">
        <ele>106.8</ele>
        <time>2021-11-07T09:37:06Z</time>
      </trkpt>
      <trkpt lat="46.56703" lon="0.17615">
        <ele>107.8</ele>
        <time>2021-11-07T09:37:12Z</time>
      </trkpt>
      <trkpt lat="46.56699" lon="0.17612">
        <ele>108.2</ele>
        <time>2021-11-07T09:37:13Z</time>
      </trkpt>
      <trkpt lat="46.56692" lon="0.17604">
        <ele>108.4</ele>
        <time>2021-11-07T09:37:15Z</time>
      </trkpt>
      <trkpt lat="46.56688" lon="0.17593">
        <ele>108.8</ele>
        <time>2021-11-07T09:37:17Z</time>
      </trkpt>
      <trkpt lat="46.56687" lon="0.17587">
        <ele>109</ele>
        <time>2021-11-07T09:37:18Z</time>
      </trkpt>
      <trkpt lat="46.56686" lon="0.17581">
        <ele>109</ele>
        <time>2021-11-07T09:37:19Z</time>
      </trkpt>
      <trkpt lat="46.56685" lon="0.17571">
        <ele>109.2</ele>
        <time>2021-11-07T09:37:21Z</time>
      </trkpt>
      <trkpt lat="46.56689" lon="0.17556">
        <ele>109.6</ele>
        <time>2021-11-07T09:37:26Z</time>
      </trkpt>
      <trkpt lat="46.56691" lon="0.17552">
        <ele>110</ele>
        <time>2021-11-07T09:37:28Z</time>
      </trkpt>
      <trkpt lat="46.56694" lon="0.17546">
        <ele>111.2</ele>
        <time>2021-11-07T09:37:32Z</time>
      </trkpt>
      <trkpt lat="46.56699" lon="0.17537">
        <ele>112</ele>
        <time>2021-11-07T09:37:39Z</time>
      </trkpt>
      <trkpt lat="46.567" lon="0.17535">
        <ele>112.2</ele>
        <time>2021-11-07T09:37:40Z</time>
      </trkpt>
      <trkpt lat="46.56704" lon="0.17531">
        <ele>113.4</ele>
        <time>2021-11-07T09:37:43Z</time>
      </trkpt>
      <trkpt lat="46.56705" lon="0.17527">
        <ele>113.8</ele>
        <time>2021-11-07T09:37:45Z</time>
      </trkpt>
      <trkpt lat="46.56707" lon="0.17523">
        <ele>114.4</ele>
        <time>2021-11-07T09:37:47Z</time>
      </trkpt>
      <trkpt lat="46.5671" lon="0.17517">
        <ele>115.6</ele>
        <time>2021-11-07T09:37:51Z</time>
      </trkpt>
      <trkpt lat="46.5671" lon="0.17516">
        <ele>115.8</ele>
        <time>2021-11-07T09:37:52Z</time>
      </trkpt>
      <trkpt lat="46.56713" lon="0.17513">
        <ele>116.6</ele>
        <time>2021-11-07T09:37:55Z</time>
      </trkpt>
      <trkpt lat="46.56719" lon="0.17507">
        <ele>117.4</ele>
        <time>2021-11-07T09:37:59Z</time>
      </trkpt>
      <trkpt lat="46.5672" lon="0.17506">
        <ele>117.8</ele>
        <time>2021-11-07T09:38:00Z</time>
      </trkpt>
      <trkpt lat="46.56722" lon="0.17501">
        <ele>118.2</ele>
        <time>2021-11-07T09:38:03Z</time>
      </trkpt>
      <trkpt lat="46.56724" lon="0.17497">
        <ele>118.6</ele>
        <time>2021-11-07T09:38:06Z</time>
      </trkpt>
      <trkpt lat="46.56725" lon="0.17494">
        <ele>118.8</ele>
        <time>2021-11-07T09:38:08Z</time>
      </trkpt>
      <trkpt lat="46.56727" lon="0.17489">
        <ele>119.4</ele>
        <time>2021-11-07T09:38:11Z</time>
      </trkpt>
      <trkpt lat="46.5673" lon="0.17486">
        <ele>120</ele>
        <time>2021-11-07T09:38:13Z</time>
      </trkpt>
      <trkpt lat="46.56734" lon="0.17478">
        <ele>121.2</ele>
        <time>2021-11-07T09:38:18Z</time>
      </trkpt>
      <trkpt lat="46.5674" lon="0.17468">
        <ele>122.2</ele>
        <time>2021-11-07T09:38:25Z</time>
      </trkpt>
      <trkpt lat="46.56745" lon="0.1746">
        <ele>123.2</ele>
        <time>2021-11-07T09:38:30Z</time>
      </trkpt>
      <trkpt lat="46.56746" lon="0.17459">
        <ele>123.4</ele>
        <time>2021-11-07T09:38:31Z</time>
      </trkpt>
      <trkpt lat="46.56753" lon="0.17445">
        <ele>124.6</ele>
        <time>2021-11-07T09:38:40Z</time>
      </trkpt>
      <trkpt lat="46.56754" lon="0.17443">
        <ele>125</ele>
        <time>2021-11-07T09:38:42Z</time>
      </trkpt>
      <trkpt lat="46.56759" lon="0.17435">
        <ele>125.8</ele>
        <time>2021-11-07T09:38:47Z</time>
      </trkpt>
      <trkpt lat="46.56762" lon="0.17429">
        <ele>127</ele>
        <time>2021-11-07T09:38:52Z</time>
      </trkpt>
      <trkpt lat="46.56766" lon="0.17423">
        <ele>127.6</ele>
        <time>2021-11-07T09:38:56Z</time>
      </trkpt>
      <trkpt lat="46.56769" lon="0.17418">
        <ele>128.2</ele>
        <time>2021-11-07T09:38:59Z</time>
      </trkpt>
      <trkpt lat="46.56774" lon="0.17411">
        <ele>129.2</ele>
        <time>2021-11-07T09:39:04Z</time>
      </trkpt>
      <trkpt lat="46.5678" lon="0.17402">
        <ele>130.4</ele>
        <time>2021-11-07T09:39:10Z</time>
      </trkpt>
      <trkpt lat="46.56781" lon="0.174">
        <ele>130.6</ele>
        <time>2021-11-07T09:39:11Z</time>
      </trkpt>
      <trkpt lat="46.56785" lon="0.17394">
        <ele>131.4</ele>
        <time>2021-11-07T09:39:16Z</time>
      </trkpt>
      <trkpt lat="46.56789" lon="0.17387">
        <ele>132.6</ele>
        <time>2021-11-07T09:39:21Z</time>
      </trkpt>
      <trkpt lat="46.56791" lon="0.17385">
        <ele>132.8</ele>
        <time>2021-11-07T09:39:23Z</time>
      </trkpt>
      <trkpt lat="46.56797" lon="0.17382">
        <ele>133.8</ele>
        <time>2021-11-07T09:39:27Z</time>
      </trkpt>
      <trkpt lat="46.56802" lon="0.1738">
        <ele>134.8</ele>
        <time>2021-11-07T09:39:31Z</time>
      </trkpt>
      <trkpt lat="46.56805" lon="0.17382">
        <ele>135.2</ele>
        <time>2021-11-07T09:39:34Z</time>
      </trkpt>
      <trkpt lat="46.56807" lon="0.17382">
        <ele>135.8</ele>
        <time>2021-11-07T09:39:36Z</time>
      </trkpt>
      <trkpt lat="46.56816" lon="0.17386">
        <ele>136.8</ele>
        <time>2021-11-07T09:39:43Z</time>
      </trkpt>
      <trkpt lat="46.56824" lon="0.17389">
        <ele>137.8</ele>
        <time>2021-11-07T09:39:48Z</time>
      </trkpt>
      <trkpt lat="46.56828" lon="0.17391">
        <ele>138</ele>
        <time>2021-11-07T09:39:50Z</time>
      </trkpt>
      <trkpt lat="46.56837" lon="0.17393">
        <ele>138.8</ele>
        <time>2021-11-07T09:39:55Z</time>
      </trkpt>
      <trkpt lat="46.5684" lon="0.17393">
        <ele>139</ele>
        <time>2021-11-07T09:39:57Z</time>
      </trkpt>
      <trkpt lat="46.56852" lon="0.17393">
        <ele>139.6</ele>
        <time>2021-11-07T09:40:04Z</time>
      </trkpt>
      <trkpt lat="46.56858" lon="0.17394">
        <ele>140.2</ele>
        <time>2021-11-07T09:40:07Z</time>
      </trkpt>
      <trkpt lat="46.56868" lon="0.17393">
        <ele>140.8</ele>
        <time>2021-11-07T09:40:12Z</time>
      </trkpt>
      <trkpt lat="46.56881" lon="0.17396">
        <ele>141.2</ele>
        <time>2021-11-07T09:40:18Z</time>
      </trkpt>
      <trkpt lat="46.56886" lon="0.17397">
        <ele>141.2</ele>
        <time>2021-11-07T09:40:20Z</time>
      </trkpt>
      <trkpt lat="46.56899" lon="0.17398">
        <ele>141.6</ele>
        <time>2021-11-07T09:40:25Z</time>
      </trkpt>
      <trkpt lat="46.56912" lon="0.17398">
        <ele>142</ele>
        <time>2021-11-07T09:40:31Z</time>
      </trkpt>
      <trkpt lat="46.56922" lon="0.17402">
        <ele>142.2</ele>
        <time>2021-11-07T09:40:36Z</time>
      </trkpt>
      <trkpt lat="46.56925" lon="0.17399">
        <ele>142.4</ele>
        <time>2021-11-07T09:40:38Z</time>
      </trkpt>
      <trkpt lat="46.56929" lon="0.17392">
        <ele>142.6</ele>
        <time>2021-11-07T09:40:40Z</time>
      </trkpt>
      <trkpt lat="46.56932" lon="0.1736">
        <ele>143</ele>
        <time>2021-11-07T09:40:46Z</time>
      </trkpt>
      <trkpt lat="46.56933" lon="0.17326">
        <ele>142.8</ele>
        <time>2021-11-07T09:40:53Z</time>
      </trkpt>
      <trkpt lat="46.56934" lon="0.17305">
        <ele>143.2</ele>
        <time>2021-11-07T09:40:57Z</time>
      </trkpt>
      <trkpt lat="46.56934" lon="0.17293">
        <ele>143.4</ele>
        <time>2021-11-07T09:40:59Z</time>
      </trkpt>
      <trkpt lat="46.56936" lon="0.1726">
        <ele>143.2</ele>
        <time>2021-11-07T09:41:04Z</time>
      </trkpt>
      <trkpt lat="46.56936" lon="0.17201">
        <ele>143</ele>
        <time>2021-11-07T09:41:12Z</time>
      </trkpt>
      <trkpt lat="46.56936" lon="0.17193">
        <ele>143</ele>
        <time>2021-11-07T09:41:13Z</time>
      </trkpt>
      <trkpt lat="46.56941" lon="0.17181">
        <ele>142.8</ele>
        <time>2021-11-07T09:41:15Z</time>
      </trkpt>
      <trkpt lat="46.56958" lon="0.17166">
        <ele>142.6</ele>
        <time>2021-11-07T09:41:20Z</time>
      </trkpt>
      <trkpt lat="46.56983" lon="0.17148">
        <ele>142.8</ele>
        <time>2021-11-07T09:41:27Z</time>
      </trkpt>
      <trkpt lat="46.57003" lon="0.17126">
        <ele>144</ele>
        <time>2021-11-07T09:41:34Z</time>
      </trkpt>
      <trkpt lat="46.57006" lon="0.17122">
        <ele>144.2</ele>
        <time>2021-11-07T09:41:35Z</time>
      </trkpt>
      <trkpt lat="46.57009" lon="0.17119">
        <ele>144.4</ele>
        <time>2021-11-07T09:41:36Z</time>
      </trkpt>
      <trkpt lat="46.57023" lon="0.17104">
        <ele>144.8</ele>
        <time>2021-11-07T09:41:40Z</time>
      </trkpt>
      <trkpt lat="46.57042" lon="0.17083">
        <ele>144.8</ele>
        <time>2021-11-07T09:41:46Z</time>
      </trkpt>
      <trkpt lat="46.57067" lon="0.17062">
        <ele>145.4</ele>
        <time>2021-11-07T09:41:53Z</time>
      </trkpt>
      <trkpt lat="46.57081" lon="0.1705">
        <ele>145.4</ele>
        <time>2021-11-07T09:41:57Z</time>
      </trkpt>
      <trkpt lat="46.57089" lon="0.17045">
        <ele>145.6</ele>
        <time>2021-11-07T09:41:59Z</time>
      </trkpt>
      <trkpt lat="46.5711" lon="0.17028">
        <ele>145.2</ele>
        <time>2021-11-07T09:42:06Z</time>
      </trkpt>
      <trkpt lat="46.57123" lon="0.17011">
        <ele>145.6</ele>
        <time>2021-11-07T09:42:11Z</time>
      </trkpt>
      <trkpt lat="46.57149" lon="0.1698">
        <ele>145.8</ele>
        <time>2021-11-07T09:42:18Z</time>
      </trkpt>
      <trkpt lat="46.57173" lon="0.16955">
        <ele>145.4</ele>
        <time>2021-11-07T09:42:23Z</time>
      </trkpt>
      <trkpt lat="46.57197" lon="0.16929">
        <ele>144.8</ele>
        <time>2021-11-07T09:42:28Z</time>
      </trkpt>
      <trkpt lat="46.57206" lon="0.16918">
        <ele>144.4</ele>
        <time>2021-11-07T09:42:30Z</time>
      </trkpt>
      <trkpt lat="46.57235" lon="0.16888">
        <ele>144.4</ele>
        <time>2021-11-07T09:42:36Z</time>
      </trkpt>
      <trkpt lat="46.57254" lon="0.16867">
        <ele>144.6</ele>
        <time>2021-11-07T09:42:41Z</time>
      </trkpt>
      <trkpt lat="46.57272" lon="0.16846">
        <ele>144.6</ele>
        <time>2021-11-07T09:42:47Z</time>
      </trkpt>
      <trkpt lat="46.57295" lon="0.16812">
        <ele>145.2</ele>
        <time>2021-11-07T09:42:53Z</time>
      </trkpt>
      <trkpt lat="46.57308" lon="0.16795">
        <ele>145.6</ele>
        <time>2021-11-07T09:42:56Z</time>
      </trkpt>
      <trkpt lat="46.57326" lon="0.16774">
        <ele>145.6</ele>
        <time>2021-11-07T09:43:00Z</time>
      </trkpt>
      <trkpt lat="46.57343" lon="0.16752">
        <ele>145.6</ele>
        <time>2021-11-07T09:43:05Z</time>
      </trkpt>
      <trkpt lat="46.57365" lon="0.16728">
        <ele>145.8</ele>
        <time>2021-11-07T09:43:11Z</time>
      </trkpt>
      <trkpt lat="46.57393" lon="0.16692">
        <ele>146.4</ele>
        <time>2021-11-07T09:43:19Z</time>
      </trkpt>
      <trkpt lat="46.57398" lon="0.16683">
        <ele>146.4</ele>
        <time>2021-11-07T09:43:21Z</time>
      </trkpt>
      <trkpt lat="46.57418" lon="0.16654">
        <ele>145.6</ele>
        <time>2021-11-07T09:43:27Z</time>
      </trkpt>
      <trkpt lat="46.57446" lon="0.16621">
        <ele>144.8</ele>
        <time>2021-11-07T09:43:33Z</time>
      </trkpt>
      <trkpt lat="46.57455" lon="0.16611">
        <ele>144.4</ele>
        <time>2021-11-07T09:43:35Z</time>
      </trkpt>
      <trkpt lat="46.57476" lon="0.16591">
        <ele>143.6</ele>
        <time>2021-11-07T09:43:39Z</time>
      </trkpt>
      <trkpt lat="46.57481" lon="0.16584">
        <ele>142.8</ele>
        <time>2021-11-07T09:43:40Z</time>
      </trkpt>
      <trkpt lat="46.57486" lon="0.16578">
        <ele>142.4</ele>
        <time>2021-11-07T09:43:41Z</time>
      </trkpt>
      <trkpt lat="46.57504" lon="0.16559">
        <ele>141.8</ele>
        <time>2021-11-07T09:43:44Z</time>
      </trkpt>
      <trkpt lat="46.57526" lon="0.16538">
        <ele>140.6</ele>
        <time>2021-11-07T09:43:48Z</time>
      </trkpt>
      <trkpt lat="46.57535" lon="0.1653">
        <ele>140.4</ele>
        <time>2021-11-07T09:43:50Z</time>
      </trkpt>
      <trkpt lat="46.57546" lon="0.1652">
        <ele>139.4</ele>
        <time>2021-11-07T09:43:53Z</time>
      </trkpt>
      <trkpt lat="46.5755" lon="0.16517">
        <ele>139.4</ele>
        <time>2021-11-07T09:43:54Z</time>
      </trkpt>
      <trkpt lat="46.57554" lon="0.16515">
        <ele>139.4</ele>
        <time>2021-11-07T09:43:55Z</time>
      </trkpt>
      <trkpt lat="46.57564" lon="0.16506">
        <ele>139.4</ele>
        <time>2021-11-07T09:43:58Z</time>
      </trkpt>
      <trkpt lat="46.57576" lon="0.16488">
        <ele>140.2</ele>
        <time>2021-11-07T09:44:02Z</time>
      </trkpt>
      <trkpt lat="46.57582" lon="0.16477">
        <ele>141</ele>
        <time>2021-11-07T09:44:04Z</time>
      </trkpt>
      <trkpt lat="46.57597" lon="0.16451">
        <ele>141.4</ele>
        <time>2021-11-07T09:44:09Z</time>
      </trkpt>
      <trkpt lat="46.57605" lon="0.16434">
        <ele>141.4</ele>
        <time>2021-11-07T09:44:12Z</time>
      </trkpt>
      <trkpt lat="46.57609" lon="0.1642">
        <ele>142</ele>
        <time>2021-11-07T09:44:14Z</time>
      </trkpt>
      <trkpt lat="46.57611" lon="0.16413">
        <ele>142</ele>
        <time>2021-11-07T09:44:15Z</time>
      </trkpt>
      <trkpt lat="46.57619" lon="0.16394">
        <ele>142.2</ele>
        <time>2021-11-07T09:44:18Z</time>
      </trkpt>
      <trkpt lat="46.57622" lon="0.16387">
        <ele>142</ele>
        <time>2021-11-07T09:44:19Z</time>
      </trkpt>
      <trkpt lat="46.57628" lon="0.16364">
        <ele>141.4</ele>
        <time>2021-11-07T09:44:23Z</time>
      </trkpt>
      <trkpt lat="46.57631" lon="0.16357">
        <ele>141.2</ele>
        <time>2021-11-07T09:44:24Z</time>
      </trkpt>
      <trkpt lat="46.57633" lon="0.1635">
        <ele>141</ele>
        <time>2021-11-07T09:44:25Z</time>
      </trkpt>
      <trkpt lat="46.57644" lon="0.16322">
        <ele>139.8</ele>
        <time>2021-11-07T09:44:29Z</time>
      </trkpt>
      <trkpt lat="46.57645" lon="0.16317">
        <ele>139.4</ele>
        <time>2021-11-07T09:44:30Z</time>
      </trkpt>
      <trkpt lat="46.57645" lon="0.16308">
        <ele>139.2</ele>
        <time>2021-11-07T09:44:32Z</time>
      </trkpt>
      <trkpt lat="46.57644" lon="0.16306">
        <ele>138.8</ele>
        <time>2021-11-07T09:44:33Z</time>
      </trkpt>
      <trkpt lat="46.57633" lon="0.1628">
        <ele>139.4</ele>
        <time>2021-11-07T09:44:39Z</time>
      </trkpt>
      <trkpt lat="46.5762" lon="0.16252">
        <ele>140</ele>
        <time>2021-11-07T09:44:45Z</time>
      </trkpt>
      <trkpt lat="46.57619" lon="0.16251">
        <ele>140</ele>
        <time>2021-11-07T09:44:46Z</time>
      </trkpt>
      <trkpt lat="46.57616" lon="0.16238">
        <ele>140.2</ele>
        <time>2021-11-07T09:44:50Z</time>
      </trkpt>
      <trkpt lat="46.57611" lon="0.16221">
        <ele>140.8</ele>
        <time>2021-11-07T09:44:54Z</time>
      </trkpt>
      <trkpt lat="46.57608" lon="0.16217">
        <ele>140.8</ele>
        <time>2021-11-07T09:44:55Z</time>
      </trkpt>
      <trkpt lat="46.57596" lon="0.16197">
        <ele>141.2</ele>
        <time>2021-11-07T09:45:00Z</time>
      </trkpt>
      <trkpt lat="46.57588" lon="0.16185">
        <ele>141.8</ele>
        <time>2021-11-07T09:45:03Z</time>
      </trkpt>
      <trkpt lat="46.57578" lon="0.16173">
        <ele>142.4</ele>
        <time>2021-11-07T09:45:07Z</time>
      </trkpt>
      <trkpt lat="46.57562" lon="0.16149">
        <ele>142.8</ele>
        <time>2021-11-07T09:45:14Z</time>
      </trkpt>
      <trkpt lat="46.57551" lon="0.16127">
        <ele>142.8</ele>
        <time>2021-11-07T09:45:20Z</time>
      </trkpt>
      <trkpt lat="46.57552" lon="0.16121">
        <ele>143.2</ele>
        <time>2021-11-07T09:45:23Z</time>
      </trkpt>
      <trkpt lat="46.5755" lon="0.16117">
        <ele>143.4</ele>
        <time>2021-11-07T09:45:25Z</time>
      </trkpt>
      <trkpt lat="46.57542" lon="0.16104">
        <ele>143.6</ele>
        <time>2021-11-07T09:45:30Z</time>
      </trkpt>
      <trkpt lat="46.57538" lon="0.1609">
        <ele>143.8</ele>
        <time>2021-11-07T09:45:34Z</time>
      </trkpt>
      <trkpt lat="46.57537" lon="0.16086">
        <ele>144</ele>
        <time>2021-11-07T09:45:35Z</time>
      </trkpt>
      <trkpt lat="46.57528" lon="0.16067">
        <ele>144.4</ele>
        <time>2021-11-07T09:45:41Z</time>
      </trkpt>
      <trkpt lat="46.57521" lon="0.16053">
        <ele>144.6</ele>
        <time>2021-11-07T09:45:47Z</time>
      </trkpt>
      <trkpt lat="46.57514" lon="0.16034">
        <ele>144.8</ele>
        <time>2021-11-07T09:45:53Z</time>
      </trkpt>
      <trkpt lat="46.5751" lon="0.16023">
        <ele>145</ele>
        <time>2021-11-07T09:45:57Z</time>
      </trkpt>
      <trkpt lat="46.57508" lon="0.16018">
        <ele>145.2</ele>
        <time>2021-11-07T09:46:00Z</time>
      </trkpt>
      <trkpt lat="46.57503" lon="0.16007">
        <ele>145.2</ele>
        <time>2021-11-07T09:46:12Z</time>
      </trkpt>
      <trkpt lat="46.57502" lon="0.16005">
        <ele>145.2</ele>
        <time>2021-11-07T09:46:13Z</time>
      </trkpt>
      <trkpt lat="46.57495" lon="0.1599">
        <ele>145.4</ele>
        <time>2021-11-07T09:46:19Z</time>
      </trkpt>
      <trkpt lat="46.57491" lon="0.15973">
        <ele>146</ele>
        <time>2021-11-07T09:46:25Z</time>
      </trkpt>
      <trkpt lat="46.57494" lon="0.15968">
        <ele>145.8</ele>
        <time>2021-11-07T09:46:27Z</time>
      </trkpt>
      <trkpt lat="46.57498" lon="0.15966">
        <ele>146</ele>
        <time>2021-11-07T09:46:29Z</time>
      </trkpt>
      <trkpt lat="46.575" lon="0.15964">
        <ele>146</ele>
        <time>2021-11-07T09:46:30Z</time>
      </trkpt>
      <trkpt lat="46.57502" lon="0.15961">
        <ele>146</ele>
        <time>2021-11-07T09:46:33Z</time>
      </trkpt>
      <trkpt lat="46.57503" lon="0.1596">
        <ele>146</ele>
        <time>2021-11-07T09:46:34Z</time>
      </trkpt>
      <trkpt lat="46.57506" lon="0.15956">
        <ele>146</ele>
        <time>2021-11-07T09:46:43Z</time>
      </trkpt>
      <trkpt lat="46.57516" lon="0.15949">
        <ele>146.6</ele>
        <time>2021-11-07T09:46:49Z</time>
      </trkpt>
      <trkpt lat="46.57528" lon="0.15942">
        <ele>147</ele>
        <time>2021-11-07T09:46:53Z</time>
      </trkpt>
      <trkpt lat="46.57538" lon="0.15937">
        <ele>147.4</ele>
        <time>2021-11-07T09:46:56Z</time>
      </trkpt>
      <trkpt lat="46.57549" lon="0.15929">
        <ele>148.2</ele>
        <time>2021-11-07T09:47:00Z</time>
      </trkpt>
      <trkpt lat="46.57552" lon="0.15927">
        <ele>148.2</ele>
        <time>2021-11-07T09:47:01Z</time>
      </trkpt>
      <trkpt lat="46.5757" lon="0.15909">
        <ele>148.6</ele>
        <time>2021-11-07T09:47:08Z</time>
      </trkpt>
      <trkpt lat="46.57586" lon="0.15893">
        <ele>148.6</ele>
        <time>2021-11-07T09:47:15Z</time>
      </trkpt>
      <trkpt lat="46.57602" lon="0.15885">
        <ele>148.8</ele>
        <time>2021-11-07T09:47:21Z</time>
      </trkpt>
      <trkpt lat="46.57627" lon="0.1589">
        <ele>148.6</ele>
        <time>2021-11-07T09:47:27Z</time>
      </trkpt>
      <trkpt lat="46.57644" lon="0.15894">
        <ele>148.2</ele>
        <time>2021-11-07T09:47:31Z</time>
      </trkpt>
      <trkpt lat="46.57657" lon="0.15895">
        <ele>148.2</ele>
        <time>2021-11-07T09:47:34Z</time>
      </trkpt>
      <trkpt lat="46.57665" lon="0.15896">
        <ele>148.4</ele>
        <time>2021-11-07T09:47:36Z</time>
      </trkpt>
      <trkpt lat="46.57677" lon="0.159">
        <ele>148</ele>
        <time>2021-11-07T09:47:39Z</time>
      </trkpt>
      <trkpt lat="46.57681" lon="0.15901">
        <ele>148</ele>
        <time>2021-11-07T09:47:40Z</time>
      </trkpt>
      <trkpt lat="46.57698" lon="0.15904">
        <ele>148.6</ele>
        <time>2021-11-07T09:47:45Z</time>
      </trkpt>
      <trkpt lat="46.57705" lon="0.15908">
        <ele>148.2</ele>
        <time>2021-11-07T09:47:47Z</time>
      </trkpt>
      <trkpt lat="46.57717" lon="0.15913">
        <ele>147.2</ele>
        <time>2021-11-07T09:47:50Z</time>
      </trkpt>
      <trkpt lat="46.57721" lon="0.15914">
        <ele>147.2</ele>
        <time>2021-11-07T09:47:51Z</time>
      </trkpt>
      <trkpt lat="46.57726" lon="0.15916">
        <ele>147</ele>
        <time>2021-11-07T09:47:52Z</time>
      </trkpt>
      <trkpt lat="46.57759" lon="0.15932">
        <ele>147</ele>
        <time>2021-11-07T09:48:00Z</time>
      </trkpt>
      <trkpt lat="46.57783" lon="0.1594">
        <ele>146.4</ele>
        <time>2021-11-07T09:48:06Z</time>
      </trkpt>
      <trkpt lat="46.57788" lon="0.15946">
        <ele>146</ele>
        <time>2021-11-07T09:48:08Z</time>
      </trkpt>
      <trkpt lat="46.5779" lon="0.15951">
        <ele>146</ele>
        <time>2021-11-07T09:48:09Z</time>
      </trkpt>
      <trkpt lat="46.57795" lon="0.1598">
        <ele>146</ele>
        <time>2021-11-07T09:48:14Z</time>
      </trkpt>
      <trkpt lat="46.57798" lon="0.15999">
        <ele>146.2</ele>
        <time>2021-11-07T09:48:17Z</time>
      </trkpt>
      <trkpt lat="46.57798" lon="0.16012">
        <ele>146.2</ele>
        <time>2021-11-07T09:48:19Z</time>
      </trkpt>
      <trkpt lat="46.57798" lon="0.16018">
        <ele>146.2</ele>
        <time>2021-11-07T09:48:20Z</time>
      </trkpt>
      <trkpt lat="46.57798" lon="0.16036">
        <ele>146.2</ele>
        <time>2021-11-07T09:48:23Z</time>
      </trkpt>
      <trkpt lat="46.57797" lon="0.16045">
        <ele>146</ele>
        <time>2021-11-07T09:48:25Z</time>
      </trkpt>
      <trkpt lat="46.578" lon="0.16061">
        <ele>145.8</ele>
        <time>2021-11-07T09:48:29Z</time>
      </trkpt>
      <trkpt lat="46.5781" lon="0.16071">
        <ele>145.6</ele>
        <time>2021-11-07T09:48:32Z</time>
      </trkpt>
      <trkpt lat="46.57814" lon="0.16074">
        <ele>145.6</ele>
        <time>2021-11-07T09:48:33Z</time>
      </trkpt>
      <trkpt lat="46.57818" lon="0.16075">
        <ele>145.6</ele>
        <time>2021-11-07T09:48:34Z</time>
      </trkpt>
      <trkpt lat="46.57838" lon="0.16085">
        <ele>145.4</ele>
        <time>2021-11-07T09:48:39Z</time>
      </trkpt>
      <trkpt lat="46.57869" lon="0.16096">
        <ele>145</ele>
        <time>2021-11-07T09:48:46Z</time>
      </trkpt>
      <trkpt lat="46.57902" lon="0.16109">
        <ele>143.8</ele>
        <time>2021-11-07T09:48:53Z</time>
      </trkpt>
      <trkpt lat="46.57906" lon="0.16111">
        <ele>143.6</ele>
        <time>2021-11-07T09:48:54Z</time>
      </trkpt>
      <trkpt lat="46.57927" lon="0.16118">
        <ele>142.8</ele>
        <time>2021-11-07T09:48:58Z</time>
      </trkpt>
      <trkpt lat="46.5793" lon="0.16119">
        <ele>142.4</ele>
        <time>2021-11-07T09:48:59Z</time>
      </trkpt>
      <trkpt lat="46.57934" lon="0.16118">
        <ele>141.8</ele>
        <time>2021-11-07T09:49:01Z</time>
      </trkpt>
      <trkpt lat="46.57934" lon="0.16118">
        <ele>141.6</ele>
        <time>2021-11-07T09:49:02Z</time>
      </trkpt>
      <trkpt lat="46.57935" lon="0.16112">
        <ele>141.6</ele>
        <time>2021-11-07T09:49:04Z</time>
      </trkpt>
      <trkpt lat="46.57934" lon="0.1611">
        <ele>141.6</ele>
        <time>2021-11-07T09:49:05Z</time>
      </trkpt>
      <trkpt lat="46.57932" lon="0.16096">
        <ele>141.6</ele>
        <time>2021-11-07T09:49:09Z</time>
      </trkpt>
      <trkpt lat="46.57933" lon="0.16092">
        <ele>142</ele>
        <time>2021-11-07T09:49:10Z</time>
      </trkpt>
      <trkpt lat="46.57932" lon="0.16085">
        <ele>142.2</ele>
        <time>2021-11-07T09:49:12Z</time>
      </trkpt>
      <trkpt lat="46.57929" lon="0.16077">
        <ele>142.2</ele>
        <time>2021-11-07T09:49:14Z</time>
      </trkpt>
      <trkpt lat="46.5792" lon="0.16064">
        <ele>142.2</ele>
        <time>2021-11-07T09:49:19Z</time>
      </trkpt>
      <trkpt lat="46.57916" lon="0.16048">
        <ele>142.8</ele>
        <time>2021-11-07T09:49:23Z</time>
      </trkpt>
      <trkpt lat="46.57915" lon="0.16041">
        <ele>143</ele>
        <time>2021-11-07T09:49:25Z</time>
      </trkpt>
      <trkpt lat="46.57907" lon="0.16017">
        <ele>143.8</ele>
        <time>2021-11-07T09:49:30Z</time>
      </trkpt>
      <trkpt lat="46.57893" lon="0.1599">
        <ele>143.6</ele>
        <time>2021-11-07T09:49:37Z</time>
      </trkpt>
      <trkpt lat="46.57892" lon="0.15986">
        <ele>143.8</ele>
        <time>2021-11-07T09:49:38Z</time>
      </trkpt>
      <trkpt lat="46.57895" lon="0.15974">
        <ele>143.8</ele>
        <time>2021-11-07T09:49:41Z</time>
      </trkpt>
      <trkpt lat="46.57901" lon="0.15957">
        <ele>142.8</ele>
        <time>2021-11-07T09:49:46Z</time>
      </trkpt>
      <trkpt lat="46.57904" lon="0.15947">
        <ele>142.8</ele>
        <time>2021-11-07T09:49:48Z</time>
      </trkpt>
      <trkpt lat="46.57915" lon="0.15928">
        <ele>142.6</ele>
        <time>2021-11-07T09:49:53Z</time>
      </trkpt>
      <trkpt lat="46.57927" lon="0.15911">
        <ele>142</ele>
        <time>2021-11-07T09:49:59Z</time>
      </trkpt>
      <trkpt lat="46.57933" lon="0.15905">
        <ele>141.6</ele>
        <time>2021-11-07T09:50:01Z</time>
      </trkpt>
      <trkpt lat="46.57938" lon="0.15896">
        <ele>141.2</ele>
        <time>2021-11-07T09:50:04Z</time>
      </trkpt>
      <trkpt lat="46.57946" lon="0.15873">
        <ele>141</ele>
        <time>2021-11-07T09:50:10Z</time>
      </trkpt>
      <trkpt lat="46.57957" lon="0.15848">
        <ele>140.6</ele>
        <time>2021-11-07T09:50:16Z</time>
      </trkpt>
      <trkpt lat="46.57958" lon="0.15844">
        <ele>140.6</ele>
        <time>2021-11-07T09:50:17Z</time>
      </trkpt>
      <trkpt lat="46.5796" lon="0.15825">
        <ele>140.2</ele>
        <time>2021-11-07T09:50:21Z</time>
      </trkpt>
      <trkpt lat="46.57966" lon="0.158">
        <ele>140.6</ele>
        <time>2021-11-07T09:50:27Z</time>
      </trkpt>
      <trkpt lat="46.57974" lon="0.15772">
        <ele>140.4</ele>
        <time>2021-11-07T09:50:33Z</time>
      </trkpt>
      <trkpt lat="46.57979" lon="0.15752">
        <ele>140</ele>
        <time>2021-11-07T09:50:38Z</time>
      </trkpt>
      <trkpt lat="46.57989" lon="0.15746">
        <ele>140</ele>
        <time>2021-11-07T09:50:43Z</time>
      </trkpt>
      <trkpt lat="46.57995" lon="0.15746">
        <ele>139.4</ele>
        <time>2021-11-07T09:50:46Z</time>
      </trkpt>
      <trkpt lat="46.58" lon="0.15747">
        <ele>138.8</ele>
        <time>2021-11-07T09:50:48Z</time>
      </trkpt>
      <trkpt lat="46.58003" lon="0.15748">
        <ele>138.6</ele>
        <time>2021-11-07T09:50:49Z</time>
      </trkpt>
      <trkpt lat="46.58006" lon="0.15749">
        <ele>138.6</ele>
        <time>2021-11-07T09:50:50Z</time>
      </trkpt>
      <trkpt lat="46.58014" lon="0.15751">
        <ele>137.8</ele>
        <time>2021-11-07T09:50:52Z</time>
      </trkpt>
      <trkpt lat="46.58023" lon="0.15753">
        <ele>136.8</ele>
        <time>2021-11-07T09:50:54Z</time>
      </trkpt>
      <trkpt lat="46.58029" lon="0.15754">
        <ele>136.6</ele>
        <time>2021-11-07T09:50:55Z</time>
      </trkpt>
      <trkpt lat="46.58034" lon="0.15755">
        <ele>136.4</ele>
        <time>2021-11-07T09:50:56Z</time>
      </trkpt>
      <trkpt lat="46.58048" lon="0.15758">
        <ele>136</ele>
        <time>2021-11-07T09:50:59Z</time>
      </trkpt>
      <trkpt lat="46.58059" lon="0.1576">
        <ele>137.4</ele>
        <time>2021-11-07T09:51:03Z</time>
      </trkpt>
      <trkpt lat="46.58062" lon="0.1576">
        <ele>137.6</ele>
        <time>2021-11-07T09:51:04Z</time>
      </trkpt>
      <trkpt lat="46.58069" lon="0.15761">
        <ele>138.6</ele>
        <time>2021-11-07T09:51:07Z</time>
      </trkpt>
      <trkpt lat="46.58073" lon="0.15763">
        <ele>139.2</ele>
        <time>2021-11-07T09:51:09Z</time>
      </trkpt>
      <trkpt lat="46.58077" lon="0.15765">
        <ele>139.8</ele>
        <time>2021-11-07T09:51:11Z</time>
      </trkpt>
      <trkpt lat="46.58091" lon="0.15769">
        <ele>140.8</ele>
        <time>2021-11-07T09:51:17Z</time>
      </trkpt>
      <trkpt lat="46.58094" lon="0.1577">
        <ele>141</ele>
        <time>2021-11-07T09:51:19Z</time>
      </trkpt>
      <trkpt lat="46.58105" lon="0.15762">
        <ele>142</ele>
        <time>2021-11-07T09:51:24Z</time>
      </trkpt>
      <trkpt lat="46.58119" lon="0.15746">
        <ele>143.2</ele>
        <time>2021-11-07T09:51:31Z</time>
      </trkpt>
      <trkpt lat="46.58129" lon="0.15733">
        <ele>143.8</ele>
        <time>2021-11-07T09:51:38Z</time>
      </trkpt>
      <trkpt lat="46.58135" lon="0.15727">
        <ele>144.2</ele>
        <time>2021-11-07T09:51:43Z</time>
      </trkpt>
      <trkpt lat="46.58138" lon="0.15725">
        <ele>144.2</ele>
        <time>2021-11-07T09:51:45Z</time>
      </trkpt>
      <trkpt lat="46.58145" lon="0.15715">
        <ele>144.8</ele>
        <time>2021-11-07T09:51:51Z</time>
      </trkpt>
      <trkpt lat="46.58154" lon="0.15706">
        <ele>145.2</ele>
        <time>2021-11-07T09:51:55Z</time>
      </trkpt>
      <trkpt lat="46.58159" lon="0.15703">
        <ele>145.4</ele>
        <time>2021-11-07T09:51:57Z</time>
      </trkpt>
      <trkpt lat="46.58177" lon="0.15694">
        <ele>146</ele>
        <time>2021-11-07T09:52:03Z</time>
      </trkpt>
      <trkpt lat="46.58183" lon="0.15693">
        <ele>146.4</ele>
        <time>2021-11-07T09:52:05Z</time>
      </trkpt>
      <trkpt lat="46.58197" lon="0.15691">
        <ele>146.8</ele>
        <time>2021-11-07T09:52:09Z</time>
      </trkpt>
      <trkpt lat="46.58212" lon="0.15689">
        <ele>147.4</ele>
        <time>2021-11-07T09:52:13Z</time>
      </trkpt>
      <trkpt lat="46.58221" lon="0.15689">
        <ele>147.6</ele>
        <time>2021-11-07T09:52:16Z</time>
      </trkpt>
      <trkpt lat="46.58241" lon="0.15692">
        <ele>147.8</ele>
        <time>2021-11-07T09:52:22Z</time>
      </trkpt>
      <trkpt lat="46.58266" lon="0.15701">
        <ele>148</ele>
        <time>2021-11-07T09:52:29Z</time>
      </trkpt>
      <trkpt lat="46.58295" lon="0.15713">
        <ele>147.8</ele>
        <time>2021-11-07T09:52:36Z</time>
      </trkpt>
      <trkpt lat="46.58317" lon="0.15724">
        <ele>147.6</ele>
        <time>2021-11-07T09:52:42Z</time>
      </trkpt>
      <trkpt lat="46.58325" lon="0.15728">
        <ele>147.6</ele>
        <time>2021-11-07T09:52:44Z</time>
      </trkpt>
      <trkpt lat="46.58345" lon="0.15736">
        <ele>148</ele>
        <time>2021-11-07T09:52:48Z</time>
      </trkpt>
      <trkpt lat="46.58388" lon="0.15751">
        <ele>147.6</ele>
        <time>2021-11-07T09:52:56Z</time>
      </trkpt>
      <trkpt lat="46.58403" lon="0.15756">
        <ele>147</ele>
        <time>2021-11-07T09:52:59Z</time>
      </trkpt>
      <trkpt lat="46.58425" lon="0.15765">
        <ele>146.2</ele>
        <time>2021-11-07T09:53:03Z</time>
      </trkpt>
      <trkpt lat="46.58453" lon="0.15779">
        <ele>146</ele>
        <time>2021-11-07T09:53:09Z</time>
      </trkpt>
      <trkpt lat="46.58483" lon="0.15794">
        <ele>145.6</ele>
        <time>2021-11-07T09:53:15Z</time>
      </trkpt>
      <trkpt lat="46.585" lon="0.15801">
        <ele>145.2</ele>
        <time>2021-11-07T09:53:19Z</time>
      </trkpt>
      <trkpt lat="46.58503" lon="0.15803">
        <ele>145.2</ele>
        <time>2021-11-07T09:53:20Z</time>
      </trkpt>
      <trkpt lat="46.5853" lon="0.15812">
        <ele>145.2</ele>
        <time>2021-11-07T09:53:25Z</time>
      </trkpt>
      <trkpt lat="46.58562" lon="0.15823">
        <ele>145.6</ele>
        <time>2021-11-07T09:53:31Z</time>
      </trkpt>
      <trkpt lat="46.58575" lon="0.15826">
        <ele>145.4</ele>
        <time>2021-11-07T09:53:35Z</time>
      </trkpt>
      <trkpt lat="46.58576" lon="0.15829">
        <ele>145.6</ele>
        <time>2021-11-07T09:53:37Z</time>
      </trkpt>
      <trkpt lat="46.58574" lon="0.15828">
        <ele>145.6</ele>
        <time>2021-11-07T09:53:38Z</time>
      </trkpt>
      <trkpt lat="46.58571" lon="0.15827">
        <ele>145.6</ele>
        <time>2021-11-07T09:53:41Z</time>
      </trkpt>
      <trkpt lat="46.58571" lon="0.1583">
        <ele>145.6</ele>
        <time>2021-11-07T09:53:42Z</time>
      </trkpt>
      <trkpt lat="46.58571" lon="0.15852">
        <ele>145.6</ele>
        <time>2021-11-07T09:53:47Z</time>
      </trkpt>
      <trkpt lat="46.58566" lon="0.15877">
        <ele>144.6</ele>
        <time>2021-11-07T09:53:52Z</time>
      </trkpt>
      <trkpt lat="46.58563" lon="0.15907">
        <ele>144.6</ele>
        <time>2021-11-07T09:53:57Z</time>
      </trkpt>
      <trkpt lat="46.58561" lon="0.1593">
        <ele>144.4</ele>
        <time>2021-11-07T09:54:01Z</time>
      </trkpt>
      <trkpt lat="46.5856" lon="0.15941">
        <ele>144</ele>
        <time>2021-11-07T09:54:03Z</time>
      </trkpt>
      <trkpt lat="46.58559" lon="0.15961">
        <ele>143.6</ele>
        <time>2021-11-07T09:54:06Z</time>
      </trkpt>
      <trkpt lat="46.58557" lon="0.15968">
        <ele>143.6</ele>
        <time>2021-11-07T09:54:07Z</time>
      </trkpt>
      <trkpt lat="46.58554" lon="0.15995">
        <ele>144</ele>
        <time>2021-11-07T09:54:11Z</time>
      </trkpt>
      <trkpt lat="46.58547" lon="0.16036">
        <ele>144.8</ele>
        <time>2021-11-07T09:54:18Z</time>
      </trkpt>
      <trkpt lat="46.58545" lon="0.16052">
        <ele>145</ele>
        <time>2021-11-07T09:54:21Z</time>
      </trkpt>
      <trkpt lat="46.58541" lon="0.16071">
        <ele>145.2</ele>
        <time>2021-11-07T09:54:24Z</time>
      </trkpt>
      <trkpt lat="46.58538" lon="0.16094">
        <ele>146</ele>
        <time>2021-11-07T09:54:28Z</time>
      </trkpt>
      <trkpt lat="46.58534" lon="0.16106">
        <ele>146</ele>
        <time>2021-11-07T09:54:30Z</time>
      </trkpt>
      <trkpt lat="46.58527" lon="0.16131">
        <ele>146</ele>
        <time>2021-11-07T09:54:34Z</time>
      </trkpt>
      <trkpt lat="46.58524" lon="0.1615">
        <ele>145.8</ele>
        <time>2021-11-07T09:54:37Z</time>
      </trkpt>
      <trkpt lat="46.58524" lon="0.16156">
        <ele>146</ele>
        <time>2021-11-07T09:54:38Z</time>
      </trkpt>
      <trkpt lat="46.58518" lon="0.16187">
        <ele>145.8</ele>
        <time>2021-11-07T09:54:43Z</time>
      </trkpt>
      <trkpt lat="46.5851" lon="0.16229">
        <ele>146</ele>
        <time>2021-11-07T09:54:50Z</time>
      </trkpt>
      <trkpt lat="46.58501" lon="0.16268">
        <ele>146</ele>
        <time>2021-11-07T09:54:56Z</time>
      </trkpt>
      <trkpt lat="46.58499" lon="0.16282">
        <ele>145.6</ele>
        <time>2021-11-07T09:54:58Z</time>
      </trkpt>
      <trkpt lat="46.58491" lon="0.16319">
        <ele>145.6</ele>
        <time>2021-11-07T09:55:03Z</time>
      </trkpt>
      <trkpt lat="46.58488" lon="0.16339">
        <ele>145.8</ele>
        <time>2021-11-07T09:55:06Z</time>
      </trkpt>
      <trkpt lat="46.58482" lon="0.16368">
        <ele>145</ele>
        <time>2021-11-07T09:55:10Z</time>
      </trkpt>
      <trkpt lat="46.58481" lon="0.16374">
        <ele>145</ele>
        <time>2021-11-07T09:55:11Z</time>
      </trkpt>
      <trkpt lat="46.58477" lon="0.16395">
        <ele>145</ele>
        <time>2021-11-07T09:55:14Z</time>
      </trkpt>
      <trkpt lat="46.58475" lon="0.16402">
        <ele>145</ele>
        <time>2021-11-07T09:55:15Z</time>
      </trkpt>
      <trkpt lat="46.58473" lon="0.16416">
        <ele>145</ele>
        <time>2021-11-07T09:55:17Z</time>
      </trkpt>
      <trkpt lat="46.58469" lon="0.16438">
        <ele>144.6</ele>
        <time>2021-11-07T09:55:20Z</time>
      </trkpt>
      <trkpt lat="46.5846" lon="0.16484">
        <ele>144.8</ele>
        <time>2021-11-07T09:55:26Z</time>
      </trkpt>
      <trkpt lat="46.58452" lon="0.16537">
        <ele>144.4</ele>
        <time>2021-11-07T09:55:33Z</time>
      </trkpt>
      <trkpt lat="46.58444" lon="0.16574">
        <ele>144</ele>
        <time>2021-11-07T09:55:38Z</time>
      </trkpt>
      <trkpt lat="46.58442" lon="0.16582">
        <ele>143.8</ele>
        <time>2021-11-07T09:55:39Z</time>
      </trkpt>
      <trkpt lat="46.58432" lon="0.16629">
        <ele>143.6</ele>
        <time>2021-11-07T09:55:45Z</time>
      </trkpt>
      <trkpt lat="46.58421" lon="0.16669">
        <ele>142.8</ele>
        <time>2021-11-07T09:55:50Z</time>
      </trkpt>
      <trkpt lat="46.58418" lon="0.16679">
        <ele>142.6</ele>
        <time>2021-11-07T09:55:51Z</time>
      </trkpt>
      <trkpt lat="46.58402" lon="0.16738">
        <ele>141.8</ele>
        <time>2021-11-07T09:55:58Z</time>
      </trkpt>
      <trkpt lat="46.58394" lon="0.16773">
        <ele>140.6</ele>
        <time>2021-11-07T09:56:02Z</time>
      </trkpt>
      <trkpt lat="46.58385" lon="0.16802">
        <ele>140.2</ele>
        <time>2021-11-07T09:56:05Z</time>
      </trkpt>
      <trkpt lat="46.58383" lon="0.16812">
        <ele>139.8</ele>
        <time>2021-11-07T09:56:06Z</time>
      </trkpt>
      <trkpt lat="46.58382" lon="0.16821">
        <ele>139.6</ele>
        <time>2021-11-07T09:56:07Z</time>
      </trkpt>
      <trkpt lat="46.58379" lon="0.16851">
        <ele>139</ele>
        <time>2021-11-07T09:56:10Z</time>
      </trkpt>
      <trkpt lat="46.58376" lon="0.16861">
        <ele>138.4</ele>
        <time>2021-11-07T09:56:11Z</time>
      </trkpt>
      <trkpt lat="46.58375" lon="0.16869">
        <ele>137.6</ele>
        <time>2021-11-07T09:56:12Z</time>
      </trkpt>
      <trkpt lat="46.58374" lon="0.16876">
        <ele>137.2</ele>
        <time>2021-11-07T09:56:13Z</time>
      </trkpt>
      <trkpt lat="46.58371" lon="0.16885">
        <ele>136.8</ele>
        <time>2021-11-07T09:56:14Z</time>
      </trkpt>
      <trkpt lat="46.58355" lon="0.1694">
        <ele>136.6</ele>
        <time>2021-11-07T09:56:20Z</time>
      </trkpt>
      <trkpt lat="46.5835" lon="0.16962">
        <ele>136.8</ele>
        <time>2021-11-07T09:56:23Z</time>
      </trkpt>
      <trkpt lat="46.58344" lon="0.16974">
        <ele>137</ele>
        <time>2021-11-07T09:56:25Z</time>
      </trkpt>
      <trkpt lat="46.58338" lon="0.16983">
        <ele>137.4</ele>
        <time>2021-11-07T09:56:28Z</time>
      </trkpt>
      <trkpt lat="46.58335" lon="0.16984">
        <ele>137.4</ele>
        <time>2021-11-07T09:56:29Z</time>
      </trkpt>
      <trkpt lat="46.58324" lon="0.16983">
        <ele>138.6</ele>
        <time>2021-11-07T09:56:34Z</time>
      </trkpt>
      <trkpt lat="46.58323" lon="0.16982">
        <ele>138.8</ele>
        <time>2021-11-07T09:56:35Z</time>
      </trkpt>
      <trkpt lat="46.58315" lon="0.16985">
        <ele>139.4</ele>
        <time>2021-11-07T09:56:37Z</time>
      </trkpt>
      <trkpt lat="46.58311" lon="0.16986">
        <ele>139.6</ele>
        <time>2021-11-07T09:56:39Z</time>
      </trkpt>
      <trkpt lat="46.58308" lon="0.16987">
        <ele>140</ele>
        <time>2021-11-07T09:56:40Z</time>
      </trkpt>
      <trkpt lat="46.58285" lon="0.16993">
        <ele>140.6</ele>
        <time>2021-11-07T09:56:47Z</time>
      </trkpt>
      <trkpt lat="46.58282" lon="0.16993">
        <ele>141</ele>
        <time>2021-11-07T09:56:48Z</time>
      </trkpt>
      <trkpt lat="46.58267" lon="0.16999">
        <ele>142</ele>
        <time>2021-11-07T09:56:53Z</time>
      </trkpt>
      <trkpt lat="46.58261" lon="0.16999">
        <ele>142</ele>
        <time>2021-11-07T09:56:55Z</time>
      </trkpt>
      <trkpt lat="46.58257" lon="0.16996">
        <ele>142</ele>
        <time>2021-11-07T09:56:57Z</time>
      </trkpt>
      <trkpt lat="46.58261" lon="0.16986">
        <ele>142</ele>
        <time>2021-11-07T09:57:01Z</time>
      </trkpt>
      <trkpt lat="46.58273" lon="0.16967">
        <ele>141.4</ele>
        <time>2021-11-07T09:57:06Z</time>
      </trkpt>
      <trkpt lat="46.5829" lon="0.16948">
        <ele>140.8</ele>
        <time>2021-11-07T09:57:11Z</time>
      </trkpt>
      <trkpt lat="46.58293" lon="0.16944">
        <ele>140.6</ele>
        <time>2021-11-07T09:57:12Z</time>
      </trkpt>
      <trkpt lat="46.58305" lon="0.16921">
        <ele>139.8</ele>
        <time>2021-11-07T09:57:16Z</time>
      </trkpt>
      <trkpt lat="46.58307" lon="0.16915">
        <ele>139.6</ele>
        <time>2021-11-07T09:57:17Z</time>
      </trkpt>
      <trkpt lat="46.58316" lon="0.1689">
        <ele>138.4</ele>
        <time>2021-11-07T09:57:21Z</time>
      </trkpt>
      <trkpt lat="46.58317" lon="0.16884">
        <ele>138.2</ele>
        <time>2021-11-07T09:57:22Z</time>
      </trkpt>
      <trkpt lat="46.58317" lon="0.16877">
        <ele>138</ele>
        <time>2021-11-07T09:57:23Z</time>
      </trkpt>
      <trkpt lat="46.58317" lon="0.16871">
        <ele>138</ele>
        <time>2021-11-07T09:57:24Z</time>
      </trkpt>
      <trkpt lat="46.58317" lon="0.16847">
        <ele>137.8</ele>
        <time>2021-11-07T09:57:28Z</time>
      </trkpt>
      <trkpt lat="46.58315" lon="0.1682">
        <ele>137.4</ele>
        <time>2021-11-07T09:57:32Z</time>
      </trkpt>
      <trkpt lat="46.58315" lon="0.16805">
        <ele>137.2</ele>
        <time>2021-11-07T09:57:34Z</time>
      </trkpt>
      <trkpt lat="46.58316" lon="0.16757">
        <ele>137</ele>
        <time>2021-11-07T09:57:41Z</time>
      </trkpt>
      <trkpt lat="46.58317" lon="0.16746">
        <ele>137</ele>
        <time>2021-11-07T09:57:43Z</time>
      </trkpt>
      <trkpt lat="46.5832" lon="0.16723">
        <ele>137.6</ele>
        <time>2021-11-07T09:57:47Z</time>
      </trkpt>
      <trkpt lat="46.58319" lon="0.16706">
        <ele>137.8</ele>
        <time>2021-11-07T09:57:49Z</time>
      </trkpt>
      <trkpt lat="46.58319" lon="0.16682">
        <ele>137.4</ele>
        <time>2021-11-07T09:57:53Z</time>
      </trkpt>
      <trkpt lat="46.58318" lon="0.16666">
        <ele>137.4</ele>
        <time>2021-11-07T09:57:56Z</time>
      </trkpt>
      <trkpt lat="46.58314" lon="0.16658">
        <ele>137.2</ele>
        <time>2021-11-07T09:57:58Z</time>
      </trkpt>
      <trkpt lat="46.58301" lon="0.16642">
        <ele>138</ele>
        <time>2021-11-07T09:58:03Z</time>
      </trkpt>
      <trkpt lat="46.58289" lon="0.16628">
        <ele>138.6</ele>
        <time>2021-11-07T09:58:08Z</time>
      </trkpt>
      <trkpt lat="46.58287" lon="0.16622">
        <ele>139</ele>
        <time>2021-11-07T09:58:10Z</time>
      </trkpt>
      <trkpt lat="46.58281" lon="0.16613">
        <ele>139.4</ele>
        <time>2021-11-07T09:58:15Z</time>
      </trkpt>
      <trkpt lat="46.58276" lon="0.1661">
        <ele>139.8</ele>
        <time>2021-11-07T09:58:17Z</time>
      </trkpt>
      <trkpt lat="46.58269" lon="0.16608">
        <ele>140.8</ele>
        <time>2021-11-07T09:58:21Z</time>
      </trkpt>
      <trkpt lat="46.58268" lon="0.16608">
        <ele>140.8</ele>
        <time>2021-11-07T09:58:22Z</time>
      </trkpt>
      <trkpt lat="46.58265" lon="0.16607">
        <ele>141</ele>
        <time>2021-11-07T09:58:24Z</time>
      </trkpt>
      <trkpt lat="46.58259" lon="0.16603">
        <ele>141.2</ele>
        <time>2021-11-07T09:58:27Z</time>
      </trkpt>
      <trkpt lat="46.58243" lon="0.16594">
        <ele>141.4</ele>
        <time>2021-11-07T09:58:35Z</time>
      </trkpt>
      <trkpt lat="46.58225" lon="0.16586">
        <ele>141.8</ele>
        <time>2021-11-07T09:58:42Z</time>
      </trkpt>
      <trkpt lat="46.58223" lon="0.16585">
        <ele>141.8</ele>
        <time>2021-11-07T09:58:43Z</time>
      </trkpt>
      <trkpt lat="46.58208" lon="0.16574">
        <ele>142.6</ele>
        <time>2021-11-07T09:58:48Z</time>
      </trkpt>
      <trkpt lat="46.58202" lon="0.16572">
        <ele>143</ele>
        <time>2021-11-07T09:58:50Z</time>
      </trkpt>
      <trkpt lat="46.5819" lon="0.16567">
        <ele>143.2</ele>
        <time>2021-11-07T09:58:54Z</time>
      </trkpt>
      <trkpt lat="46.58165" lon="0.16559">
        <ele>143.4</ele>
        <time>2021-11-07T09:59:01Z</time>
      </trkpt>
      <trkpt lat="46.5814" lon="0.16549">
        <ele>143.6</ele>
        <time>2021-11-07T09:59:08Z</time>
      </trkpt>
      <trkpt lat="46.58128" lon="0.1655">
        <ele>143.8</ele>
        <time>2021-11-07T09:59:12Z</time>
      </trkpt>
      <trkpt lat="46.58125" lon="0.16553">
        <ele>143.8</ele>
        <time>2021-11-07T09:59:13Z</time>
      </trkpt>
      <trkpt lat="46.58117" lon="0.1657">
        <ele>143.8</ele>
        <time>2021-11-07T09:59:18Z</time>
      </trkpt>
      <trkpt lat="46.58115" lon="0.16573">
        <ele>143.8</ele>
        <time>2021-11-07T09:59:19Z</time>
      </trkpt>
      <trkpt lat="46.58111" lon="0.16575">
        <ele>144</ele>
        <time>2021-11-07T09:59:21Z</time>
      </trkpt>
      <trkpt lat="46.58102" lon="0.16575">
        <ele>144</ele>
        <time>2021-11-07T09:59:23Z</time>
      </trkpt>
      <trkpt lat="46.58077" lon="0.16567">
        <ele>144</ele>
        <time>2021-11-07T09:59:29Z</time>
      </trkpt>
      <trkpt lat="46.58049" lon="0.16556">
        <ele>144</ele>
        <time>2021-11-07T09:59:35Z</time>
      </trkpt>
      <trkpt lat="46.58045" lon="0.16554">
        <ele>144</ele>
        <time>2021-11-07T09:59:36Z</time>
      </trkpt>
      <trkpt lat="46.58017" lon="0.16544">
        <ele>143.4</ele>
        <time>2021-11-07T09:59:42Z</time>
      </trkpt>
      <trkpt lat="46.58002" lon="0.16539">
        <ele>142.8</ele>
        <time>2021-11-07T09:59:45Z</time>
      </trkpt>
      <trkpt lat="46.57986" lon="0.16532">
        <ele>142.2</ele>
        <time>2021-11-07T09:59:48Z</time>
      </trkpt>
      <trkpt lat="46.57965" lon="0.16525">
        <ele>141.6</ele>
        <time>2021-11-07T09:59:52Z</time>
      </trkpt>
      <trkpt lat="46.57953" lon="0.1652">
        <ele>141</ele>
        <time>2021-11-07T09:59:54Z</time>
      </trkpt>
      <trkpt lat="46.57941" lon="0.16514">
        <ele>140.6</ele>
        <time>2021-11-07T09:59:56Z</time>
      </trkpt>
      <trkpt lat="46.57931" lon="0.16509">
        <ele>138</ele>
        <time>2021-11-07T09:59:58Z</time>
      </trkpt>
      <trkpt lat="46.57927" lon="0.16508">
        <ele>137</ele>
        <time>2021-11-07T09:59:59Z</time>
      </trkpt>
      <trkpt lat="46.57923" lon="0.16507">
        <ele>135.8</ele>
        <time>2021-11-07T10:00:00Z</time>
      </trkpt>
      <trkpt lat="46.5792" lon="0.16505">
        <ele>134.8</ele>
        <time>2021-11-07T10:00:01Z</time>
      </trkpt>
      <trkpt lat="46.57917" lon="0.16502">
        <ele>133.6</ele>
        <time>2021-11-07T10:00:02Z</time>
      </trkpt>
      <trkpt lat="46.57915" lon="0.16501">
        <ele>132.8</ele>
        <time>2021-11-07T10:00:03Z</time>
      </trkpt>
      <trkpt lat="46.57913" lon="0.165">
        <ele>132.4</ele>
        <time>2021-11-07T10:00:04Z</time>
      </trkpt>
      <trkpt lat="46.57911" lon="0.165">
        <ele>132</ele>
        <time>2021-11-07T10:00:05Z</time>
      </trkpt>
      <trkpt lat="46.57908" lon="0.16502">
        <ele>131.6</ele>
        <time>2021-11-07T10:00:07Z</time>
      </trkpt>
      <trkpt lat="46.57902" lon="0.16506">
        <ele>131.4</ele>
        <time>2021-11-07T10:00:09Z</time>
      </trkpt>
      <trkpt lat="46.57893" lon="0.16513">
        <ele>131.4</ele>
        <time>2021-11-07T10:00:12Z</time>
      </trkpt>
      <trkpt lat="46.57879" lon="0.16522">
        <ele>131.2</ele>
        <time>2021-11-07T10:00:16Z</time>
      </trkpt>
      <trkpt lat="46.57871" lon="0.16529">
        <ele>131</ele>
        <time>2021-11-07T10:00:18Z</time>
      </trkpt>
      <trkpt lat="46.57845" lon="0.16553">
        <ele>131</ele>
        <time>2021-11-07T10:00:25Z</time>
      </trkpt>
      <trkpt lat="46.57818" lon="0.1658">
        <ele>131.2</ele>
        <time>2021-11-07T10:00:31Z</time>
      </trkpt>
      <trkpt lat="46.57799" lon="0.16611">
        <ele>131</ele>
        <time>2021-11-07T10:00:36Z</time>
      </trkpt>
      <trkpt lat="46.57783" lon="0.16648">
        <ele>130.8</ele>
        <time>2021-11-07T10:00:42Z</time>
      </trkpt>
      <trkpt lat="46.57771" lon="0.16688">
        <ele>130.4</ele>
        <time>2021-11-07T10:00:48Z</time>
      </trkpt>
      <trkpt lat="46.57769" lon="0.16694">
        <ele>130.2</ele>
        <time>2021-11-07T10:00:49Z</time>
      </trkpt>
      <trkpt lat="46.57768" lon="0.167">
        <ele>130.2</ele>
        <time>2021-11-07T10:00:50Z</time>
      </trkpt>
      <trkpt lat="46.57763" lon="0.16717">
        <ele>130.2</ele>
        <time>2021-11-07T10:00:53Z</time>
      </trkpt>
      <trkpt lat="46.57758" lon="0.16747">
        <ele>130</ele>
        <time>2021-11-07T10:00:59Z</time>
      </trkpt>
      <trkpt lat="46.57758" lon="0.16749">
        <ele>130</ele>
        <time>2021-11-07T10:01:00Z</time>
      </trkpt>
      <trkpt lat="46.57758" lon="0.16752">
        <ele>130.4</ele>
        <time>2021-11-07T10:01:02Z</time>
      </trkpt>
      <trkpt lat="46.57758" lon="0.16755">
        <ele>131.6</ele>
        <time>2021-11-07T10:01:04Z</time>
      </trkpt>
      <trkpt lat="46.5776" lon="0.16759">
        <ele>132.8</ele>
        <time>2021-11-07T10:01:07Z</time>
      </trkpt>
      <trkpt lat="46.57764" lon="0.16763">
        <ele>134.2</ele>
        <time>2021-11-07T10:01:10Z</time>
      </trkpt>
      <trkpt lat="46.57766" lon="0.16765">
        <ele>135</ele>
        <time>2021-11-07T10:01:12Z</time>
      </trkpt>
      <trkpt lat="46.57766" lon="0.16766">
        <ele>135.4</ele>
        <time>2021-11-07T10:01:13Z</time>
      </trkpt>
      <trkpt lat="46.5777" lon="0.16771">
        <ele>136.4</ele>
        <time>2021-11-07T10:01:17Z</time>
      </trkpt>
      <trkpt lat="46.57773" lon="0.16774">
        <ele>137.2</ele>
        <time>2021-11-07T10:01:20Z</time>
      </trkpt>
      <trkpt lat="46.57776" lon="0.16776">
        <ele>137.6</ele>
        <time>2021-11-07T10:01:22Z</time>
      </trkpt>
      <trkpt lat="46.57781" lon="0.16781">
        <ele>138.6</ele>
        <time>2021-11-07T10:01:26Z</time>
      </trkpt>
      <trkpt lat="46.57782" lon="0.16782">
        <ele>139</ele>
        <time>2021-11-07T10:01:27Z</time>
      </trkpt>
      <trkpt lat="46.57794" lon="0.1679">
        <ele>139.8</ele>
        <time>2021-11-07T10:01:34Z</time>
      </trkpt>
      <trkpt lat="46.57797" lon="0.16792">
        <ele>140</ele>
        <time>2021-11-07T10:01:36Z</time>
      </trkpt>
      <trkpt lat="46.57805" lon="0.16796">
        <ele>140.6</ele>
        <time>2021-11-07T10:01:41Z</time>
      </trkpt>
      <trkpt lat="46.5782" lon="0.16803">
        <ele>141.2</ele>
        <time>2021-11-07T10:01:48Z</time>
      </trkpt>
      <trkpt lat="46.57837" lon="0.1681">
        <ele>141.8</ele>
        <time>2021-11-07T10:01:55Z</time>
      </trkpt>
      <trkpt lat="46.57859" lon="0.16819">
        <ele>142.2</ele>
        <time>2021-11-07T10:02:02Z</time>
      </trkpt>
      <trkpt lat="46.57863" lon="0.1682">
        <ele>142.2</ele>
        <time>2021-11-07T10:02:03Z</time>
      </trkpt>
      <trkpt lat="46.57883" lon="0.16828">
        <ele>142.8</ele>
        <time>2021-11-07T10:02:09Z</time>
      </trkpt>
      <trkpt lat="46.57912" lon="0.16842">
        <ele>143</ele>
        <time>2021-11-07T10:02:17Z</time>
      </trkpt>
      <trkpt lat="46.57945" lon="0.16855">
        <ele>143</ele>
        <time>2021-11-07T10:02:25Z</time>
      </trkpt>
      <trkpt lat="46.57972" lon="0.16866">
        <ele>143.2</ele>
        <time>2021-11-07T10:02:32Z</time>
      </trkpt>
      <trkpt lat="46.58005" lon="0.16878">
        <ele>143</ele>
        <time>2021-11-07T10:02:39Z</time>
      </trkpt>
      <trkpt lat="46.58018" lon="0.16879">
        <ele>143</ele>
        <time>2021-11-07T10:02:41Z</time>
      </trkpt>
      <trkpt lat="46.58026" lon="0.16888">
        <ele>143</ele>
        <time>2021-11-07T10:02:43Z</time>
      </trkpt>
      <trkpt lat="46.58027" lon="0.16893">
        <ele>143</ele>
        <time>2021-11-07T10:02:44Z</time>
      </trkpt>
      <trkpt lat="46.58028" lon="0.16899">
        <ele>143.4</ele>
        <time>2021-11-07T10:02:45Z</time>
      </trkpt>
      <trkpt lat="46.58029" lon="0.16915">
        <ele>143.6</ele>
        <time>2021-11-07T10:02:48Z</time>
      </trkpt>
      <trkpt lat="46.58031" lon="0.16919">
        <ele>143.6</ele>
        <time>2021-11-07T10:02:49Z</time>
      </trkpt>
      <trkpt lat="46.58033" lon="0.16924">
        <ele>143.4</ele>
        <time>2021-11-07T10:02:50Z</time>
      </trkpt>
      <trkpt lat="46.58038" lon="0.16928">
        <ele>143.4</ele>
        <time>2021-11-07T10:02:52Z</time>
      </trkpt>
      <trkpt lat="46.58042" lon="0.16928">
        <ele>143.2</ele>
        <time>2021-11-07T10:02:53Z</time>
      </trkpt>
      <trkpt lat="46.58046" lon="0.1693">
        <ele>143.2</ele>
        <time>2021-11-07T10:02:54Z</time>
      </trkpt>
      <trkpt lat="46.5806" lon="0.16937">
        <ele>143.4</ele>
        <time>2021-11-07T10:02:58Z</time>
      </trkpt>
      <trkpt lat="46.58081" lon="0.16948">
        <ele>143.6</ele>
        <time>2021-11-07T10:03:03Z</time>
      </trkpt>
      <trkpt lat="46.58089" lon="0.16953">
        <ele>143.8</ele>
        <time>2021-11-07T10:03:05Z</time>
      </trkpt>
      <trkpt lat="46.58096" lon="0.16958">
        <ele>143.6</ele>
        <time>2021-11-07T10:03:07Z</time>
      </trkpt>
      <trkpt lat="46.58106" lon="0.16963">
        <ele>143.4</ele>
        <time>2021-11-07T10:03:09Z</time>
      </trkpt>
      <trkpt lat="46.5811" lon="0.16965">
        <ele>143.4</ele>
        <time>2021-11-07T10:03:10Z</time>
      </trkpt>
      <trkpt lat="46.58139" lon="0.16977">
        <ele>144.2</ele>
        <time>2021-11-07T10:03:16Z</time>
      </trkpt>
      <trkpt lat="46.58164" lon="0.16987">
        <ele>143.2</ele>
        <time>2021-11-07T10:03:22Z</time>
      </trkpt>
      <trkpt lat="46.58189" lon="0.16999">
        <ele>143</ele>
        <time>2021-11-07T10:03:27Z</time>
      </trkpt>
      <trkpt lat="46.58203" lon="0.17013">
        <ele>142.8</ele>
        <time>2021-11-07T10:03:30Z</time>
      </trkpt>
      <trkpt lat="46.58207" lon="0.17016">
        <ele>142.8</ele>
        <time>2021-11-07T10:03:31Z</time>
      </trkpt>
      <trkpt lat="46.58211" lon="0.1702">
        <ele>142.6</ele>
        <time>2021-11-07T10:03:32Z</time>
      </trkpt>
      <trkpt lat="46.58216" lon="0.17026">
        <ele>142.4</ele>
        <time>2021-11-07T10:03:34Z</time>
      </trkpt>
      <trkpt lat="46.58217" lon="0.17028">
        <ele>142.2</ele>
        <time>2021-11-07T10:03:35Z</time>
      </trkpt>
      <trkpt lat="46.5822" lon="0.17032">
        <ele>141.8</ele>
        <time>2021-11-07T10:03:38Z</time>
      </trkpt>
      <trkpt lat="46.5822" lon="0.17032">
        <ele>141.8</ele>
        <time>2021-11-07T10:03:39Z</time>
      </trkpt>
      <trkpt lat="46.58222" lon="0.1702">
        <ele>141.8</ele>
        <time>2021-11-07T10:03:44Z</time>
      </trkpt>
      <trkpt lat="46.58231" lon="0.17003">
        <ele>141.4</ele>
        <time>2021-11-07T10:03:49Z</time>
      </trkpt>
      <trkpt lat="46.58236" lon="0.16996">
        <ele>141.2</ele>
        <time>2021-11-07T10:03:51Z</time>
      </trkpt>
      <trkpt lat="46.58249" lon="0.1698">
        <ele>141</ele>
        <time>2021-11-07T10:03:55Z</time>
      </trkpt>
      <trkpt lat="46.58262" lon="0.16962">
        <ele>140.8</ele>
        <time>2021-11-07T10:03:59Z</time>
      </trkpt>
      <trkpt lat="46.58274" lon="0.16949">
        <ele>140.6</ele>
        <time>2021-11-07T10:04:02Z</time>
      </trkpt>
      <trkpt lat="46.58278" lon="0.16945">
        <ele>140</ele>
        <time>2021-11-07T10:04:03Z</time>
      </trkpt>
      <trkpt lat="46.58288" lon="0.16931">
        <ele>138.8</ele>
        <time>2021-11-07T10:04:06Z</time>
      </trkpt>
      <trkpt lat="46.58299" lon="0.16914">
        <ele>138</ele>
        <time>2021-11-07T10:04:09Z</time>
      </trkpt>
      <trkpt lat="46.58302" lon="0.16909">
        <ele>137.8</ele>
        <time>2021-11-07T10:04:10Z</time>
      </trkpt>
      <trkpt lat="46.58306" lon="0.16898">
        <ele>137.6</ele>
        <time>2021-11-07T10:04:12Z</time>
      </trkpt>
      <trkpt lat="46.5831" lon="0.16881">
        <ele>137.6</ele>
        <time>2021-11-07T10:04:15Z</time>
      </trkpt>
      <trkpt lat="46.58312" lon="0.16861">
        <ele>137.4</ele>
        <time>2021-11-07T10:04:18Z</time>
      </trkpt>
      <trkpt lat="46.58314" lon="0.16848">
        <ele>137.4</ele>
        <time>2021-11-07T10:04:20Z</time>
      </trkpt>
      <trkpt lat="46.58315" lon="0.16798">
        <ele>137</ele>
        <time>2021-11-07T10:04:27Z</time>
      </trkpt>
      <trkpt lat="46.58319" lon="0.16749">
        <ele>137.2</ele>
        <time>2021-11-07T10:04:34Z</time>
      </trkpt>
      <trkpt lat="46.58322" lon="0.1671">
        <ele>137.4</ele>
        <time>2021-11-07T10:04:40Z</time>
      </trkpt>
      <trkpt lat="46.58319" lon="0.16681">
        <ele>137.4</ele>
        <time>2021-11-07T10:04:45Z</time>
      </trkpt>
      <trkpt lat="46.58317" lon="0.16676">
        <ele>137.4</ele>
        <time>2021-11-07T10:04:46Z</time>
      </trkpt>
      <trkpt lat="46.58306" lon="0.16659">
        <ele>137</ele>
        <time>2021-11-07T10:04:50Z</time>
      </trkpt>
      <trkpt lat="46.58289" lon="0.16635">
        <ele>138.6</ele>
        <time>2021-11-07T10:04:56Z</time>
      </trkpt>
      <trkpt lat="46.58287" lon="0.16632">
        <ele>138.8</ele>
        <time>2021-11-07T10:04:57Z</time>
      </trkpt>
      <trkpt lat="46.58286" lon="0.16625">
        <ele>138.8</ele>
        <time>2021-11-07T10:04:59Z</time>
      </trkpt>
      <trkpt lat="46.58285" lon="0.16623">
        <ele>139</ele>
        <time>2021-11-07T10:05:00Z</time>
      </trkpt>
      <trkpt lat="46.58283" lon="0.16619">
        <ele>139.2</ele>
        <time>2021-11-07T10:05:02Z</time>
      </trkpt>
      <trkpt lat="46.58277" lon="0.16615">
        <ele>139.4</ele>
        <time>2021-11-07T10:05:06Z</time>
      </trkpt>
      <trkpt lat="46.58266" lon="0.1661">
        <ele>140.4</ele>
        <time>2021-11-07T10:05:11Z</time>
      </trkpt>
      <trkpt lat="46.58265" lon="0.1661">
        <ele>140.8</ele>
        <time>2021-11-07T10:05:12Z</time>
      </trkpt>
      <trkpt lat="46.58253" lon="0.16599">
        <ele>141.2</ele>
        <time>2021-11-07T10:05:18Z</time>
      </trkpt>
      <trkpt lat="46.58244" lon="0.16593">
        <ele>141.4</ele>
        <time>2021-11-07T10:05:22Z</time>
      </trkpt>
      <trkpt lat="46.58238" lon="0.16591">
        <ele>141.6</ele>
        <time>2021-11-07T10:05:24Z</time>
      </trkpt>
      <trkpt lat="46.58216" lon="0.16576">
        <ele>142.4</ele>
        <time>2021-11-07T10:05:31Z</time>
      </trkpt>
      <trkpt lat="46.58212" lon="0.16573">
        <ele>142.6</ele>
        <time>2021-11-07T10:05:32Z</time>
      </trkpt>
      <trkpt lat="46.58198" lon="0.16564">
        <ele>143</ele>
        <time>2021-11-07T10:05:37Z</time>
      </trkpt>
      <trkpt lat="46.58176" lon="0.16551">
        <ele>143.6</ele>
        <time>2021-11-07T10:05:44Z</time>
      </trkpt>
      <trkpt lat="46.58173" lon="0.1655">
        <ele>143.6</ele>
        <time>2021-11-07T10:05:45Z</time>
      </trkpt>
      <trkpt lat="46.58152" lon="0.1654">
        <ele>143.8</ele>
        <time>2021-11-07T10:05:50Z</time>
      </trkpt>
      <trkpt lat="46.58135" lon="0.16537">
        <ele>143.6</ele>
        <time>2021-11-07T10:05:55Z</time>
      </trkpt>
      <trkpt lat="46.58132" lon="0.16541">
        <ele>143.6</ele>
        <time>2021-11-07T10:05:56Z</time>
      </trkpt>
      <trkpt lat="46.58122" lon="0.16564">
        <ele>144</ele>
        <time>2021-11-07T10:06:01Z</time>
      </trkpt>
      <trkpt lat="46.58118" lon="0.1657">
        <ele>144</ele>
        <time>2021-11-07T10:06:03Z</time>
      </trkpt>
      <trkpt lat="46.58114" lon="0.1657">
        <ele>144</ele>
        <time>2021-11-07T10:06:04Z</time>
      </trkpt>
      <trkpt lat="46.5809" lon="0.16561">
        <ele>143.8</ele>
        <time>2021-11-07T10:06:09Z</time>
      </trkpt>
      <trkpt lat="46.58047" lon="0.1655">
        <ele>144</ele>
        <time>2021-11-07T10:06:17Z</time>
      </trkpt>
      <trkpt lat="46.58012" lon="0.16542">
        <ele>143.6</ele>
        <time>2021-11-07T10:06:24Z</time>
      </trkpt>
      <trkpt lat="46.57982" lon="0.16532">
        <ele>142.6</ele>
        <time>2021-11-07T10:06:30Z</time>
      </trkpt>
      <trkpt lat="46.57977" lon="0.1653">
        <ele>142.4</ele>
        <time>2021-11-07T10:06:31Z</time>
      </trkpt>
      <trkpt lat="46.57955" lon="0.16524">
        <ele>141</ele>
        <time>2021-11-07T10:06:35Z</time>
      </trkpt>
      <trkpt lat="46.5795" lon="0.16521">
        <ele>140.4</ele>
        <time>2021-11-07T10:06:36Z</time>
      </trkpt>
      <trkpt lat="46.57944" lon="0.16518">
        <ele>140</ele>
        <time>2021-11-07T10:06:37Z</time>
      </trkpt>
      <trkpt lat="46.57938" lon="0.16516">
        <ele>138.6</ele>
        <time>2021-11-07T10:06:38Z</time>
      </trkpt>
      <trkpt lat="46.57929" lon="0.16513">
        <ele>137.4</ele>
        <time>2021-11-07T10:06:40Z</time>
      </trkpt>
      <trkpt lat="46.57926" lon="0.16512">
        <ele>137</ele>
        <time>2021-11-07T10:06:41Z</time>
      </trkpt>
      <trkpt lat="46.57922" lon="0.16511">
        <ele>136.2</ele>
        <time>2021-11-07T10:06:42Z</time>
      </trkpt>
      <trkpt lat="46.5792" lon="0.1651">
        <ele>135</ele>
        <time>2021-11-07T10:06:43Z</time>
      </trkpt>
      <trkpt lat="46.57915" lon="0.16508">
        <ele>133.4</ele>
        <time>2021-11-07T10:06:45Z</time>
      </trkpt>
      <trkpt lat="46.57913" lon="0.16507">
        <ele>132.2</ele>
        <time>2021-11-07T10:06:46Z</time>
      </trkpt>
      <trkpt lat="46.57905" lon="0.16511">
        <ele>131.2</ele>
        <time>2021-11-07T10:06:50Z</time>
      </trkpt>
      <trkpt lat="46.57901" lon="0.16515">
        <ele>131.2</ele>
        <time>2021-11-07T10:06:52Z</time>
      </trkpt>
      <trkpt lat="46.57891" lon="0.16521">
        <ele>131.4</ele>
        <time>2021-11-07T10:06:56Z</time>
      </trkpt>
      <trkpt lat="46.57882" lon="0.16525">
        <ele>131.4</ele>
        <time>2021-11-07T10:06:59Z</time>
      </trkpt>
      <trkpt lat="46.57862" lon="0.16541">
        <ele>131.2</ele>
        <time>2021-11-07T10:07:05Z</time>
      </trkpt>
      <trkpt lat="46.57852" lon="0.1655">
        <ele>131</ele>
        <time>2021-11-07T10:07:08Z</time>
      </trkpt>
      <trkpt lat="46.5784" lon="0.16563">
        <ele>131</ele>
        <time>2021-11-07T10:07:12Z</time>
      </trkpt>
      <trkpt lat="46.57832" lon="0.16569">
        <ele>131</ele>
        <time>2021-11-07T10:07:14Z</time>
      </trkpt>
      <trkpt lat="46.57817" lon="0.16591">
        <ele>131</ele>
        <time>2021-11-07T10:07:18Z</time>
      </trkpt>
      <trkpt lat="46.57813" lon="0.16598">
        <ele>131.2</ele>
        <time>2021-11-07T10:07:19Z</time>
      </trkpt>
      <trkpt lat="46.57794" lon="0.16634">
        <ele>131.4</ele>
        <time>2021-11-07T10:07:24Z</time>
      </trkpt>
      <trkpt lat="46.57778" lon="0.16676">
        <ele>131.2</ele>
        <time>2021-11-07T10:07:30Z</time>
      </trkpt>
      <trkpt lat="46.57763" lon="0.16724">
        <ele>131.2</ele>
        <time>2021-11-07T10:07:37Z</time>
      </trkpt>
      <trkpt lat="46.57762" lon="0.1673">
        <ele>131</ele>
        <time>2021-11-07T10:07:38Z</time>
      </trkpt>
      <trkpt lat="46.57757" lon="0.16748">
        <ele>130.4</ele>
        <time>2021-11-07T10:07:42Z</time>
      </trkpt>
      <trkpt lat="46.57751" lon="0.16781">
        <ele>130.4</ele>
        <time>2021-11-07T10:07:48Z</time>
      </trkpt>
      <trkpt lat="46.57748" lon="0.16786">
        <ele>130</ele>
        <time>2021-11-07T10:07:50Z</time>
      </trkpt>
      <trkpt lat="46.57744" lon="0.16788">
        <ele>129.8</ele>
        <time>2021-11-07T10:07:51Z</time>
      </trkpt>
      <trkpt lat="46.57742" lon="0.16788">
        <ele>129.4</ele>
        <time>2021-11-07T10:07:53Z</time>
      </trkpt>
      <trkpt lat="46.57739" lon="0.16784">
        <ele>128.6</ele>
        <time>2021-11-07T10:07:56Z</time>
      </trkpt>
      <trkpt lat="46.57739" lon="0.16783">
        <ele>128.2</ele>
        <time>2021-11-07T10:07:57Z</time>
      </trkpt>
      <trkpt lat="46.57735" lon="0.16782">
        <ele>127.6</ele>
        <time>2021-11-07T10:08:00Z</time>
      </trkpt>
      <trkpt lat="46.57732" lon="0.1678">
        <ele>127.4</ele>
        <time>2021-11-07T10:08:03Z</time>
      </trkpt>
      <trkpt lat="46.57731" lon="0.1678">
        <ele>127.4</ele>
        <time>2021-11-07T10:08:04Z</time>
      </trkpt>
      <trkpt lat="46.57729" lon="0.16776">
        <ele>127.4</ele>
        <time>2021-11-07T10:08:05Z</time>
      </trkpt>
      <trkpt lat="46.57723" lon="0.16773">
        <ele>127.6</ele>
        <time>2021-11-07T10:08:08Z</time>
      </trkpt>
      <trkpt lat="46.57718" lon="0.16769">
        <ele>128</ele>
        <time>2021-11-07T10:08:10Z</time>
      </trkpt>
      <trkpt lat="46.57712" lon="0.16764">
        <ele>128.6</ele>
        <time>2021-11-07T10:08:13Z</time>
      </trkpt>
      <trkpt lat="46.57707" lon="0.16762">
        <ele>129.6</ele>
        <time>2021-11-07T10:08:16Z</time>
      </trkpt>
      <trkpt lat="46.57705" lon="0.16761">
        <ele>129.8</ele>
        <time>2021-11-07T10:08:17Z</time>
      </trkpt>
      <trkpt lat="46.57695" lon="0.16757">
        <ele>131.4</ele>
        <time>2021-11-07T10:08:22Z</time>
      </trkpt>
      <trkpt lat="46.57687" lon="0.16753">
        <ele>132.6</ele>
        <time>2021-11-07T10:08:25Z</time>
      </trkpt>
      <trkpt lat="46.57679" lon="0.16747">
        <ele>133.8</ele>
        <time>2021-11-07T10:08:29Z</time>
      </trkpt>
      <trkpt lat="46.57674" lon="0.16742">
        <ele>134.4</ele>
        <time>2021-11-07T10:08:32Z</time>
      </trkpt>
      <trkpt lat="46.57657" lon="0.16726">
        <ele>134.8</ele>
        <time>2021-11-07T10:08:39Z</time>
      </trkpt>
      <trkpt lat="46.57655" lon="0.16725">
        <ele>135</ele>
        <time>2021-11-07T10:08:40Z</time>
      </trkpt>
      <trkpt lat="46.57641" lon="0.16713">
        <ele>135.6</ele>
        <time>2021-11-07T10:08:46Z</time>
      </trkpt>
      <trkpt lat="46.5763" lon="0.16706">
        <ele>135.8</ele>
        <time>2021-11-07T10:08:50Z</time>
      </trkpt>
      <trkpt lat="46.57625" lon="0.16703">
        <ele>136.6</ele>
        <time>2021-11-07T10:08:52Z</time>
      </trkpt>
      <trkpt lat="46.57619" lon="0.16698">
        <ele>137</ele>
        <time>2021-11-07T10:08:55Z</time>
      </trkpt>
      <trkpt lat="46.57614" lon="0.16696">
        <ele>137.4</ele>
        <time>2021-11-07T10:08:57Z</time>
      </trkpt>
      <trkpt lat="46.5761" lon="0.167">
        <ele>137.4</ele>
        <time>2021-11-07T10:08:59Z</time>
      </trkpt>
      <trkpt lat="46.57604" lon="0.16718">
        <ele>137.6</ele>
        <time>2021-11-07T10:09:05Z</time>
      </trkpt>
      <trkpt lat="46.57602" lon="0.16728">
        <ele>138.2</ele>
        <time>2021-11-07T10:09:08Z</time>
      </trkpt>
      <trkpt lat="46.57598" lon="0.16752">
        <ele>138.8</ele>
        <time>2021-11-07T10:09:14Z</time>
      </trkpt>
      <trkpt lat="46.57588" lon="0.16768">
        <ele>139</ele>
        <time>2021-11-07T10:09:20Z</time>
      </trkpt>
      <trkpt lat="46.57584" lon="0.16777">
        <ele>139.4</ele>
        <time>2021-11-07T10:09:23Z</time>
      </trkpt>
      <trkpt lat="46.57578" lon="0.16794">
        <ele>140.2</ele>
        <time>2021-11-07T10:09:28Z</time>
      </trkpt>
      <trkpt lat="46.5757" lon="0.1683">
        <ele>140.4</ele>
        <time>2021-11-07T10:09:37Z</time>
      </trkpt>
      <trkpt lat="46.57564" lon="0.16863">
        <ele>140.8</ele>
        <time>2021-11-07T10:09:45Z</time>
      </trkpt>
      <trkpt lat="46.57555" lon="0.16881">
        <ele>140.8</ele>
        <time>2021-11-07T10:09:51Z</time>
      </trkpt>
      <trkpt lat="46.57548" lon="0.16904">
        <ele>140.8</ele>
        <time>2021-11-07T10:09:57Z</time>
      </trkpt>
      <trkpt lat="46.57536" lon="0.16935">
        <ele>140</ele>
        <time>2021-11-07T10:10:04Z</time>
      </trkpt>
      <trkpt lat="46.57527" lon="0.16966">
        <ele>139.8</ele>
        <time>2021-11-07T10:10:10Z</time>
      </trkpt>
      <trkpt lat="46.57524" lon="0.16985">
        <ele>139.2</ele>
        <time>2021-11-07T10:10:13Z</time>
      </trkpt>
      <trkpt lat="46.57519" lon="0.17012">
        <ele>138.2</ele>
        <time>2021-11-07T10:10:17Z</time>
      </trkpt>
      <trkpt lat="46.57518" lon="0.17026">
        <ele>137.8</ele>
        <time>2021-11-07T10:10:19Z</time>
      </trkpt>
      <trkpt lat="46.57514" lon="0.17068">
        <ele>137.2</ele>
        <time>2021-11-07T10:10:26Z</time>
      </trkpt>
      <trkpt lat="46.57514" lon="0.17121">
        <ele>139</ele>
        <time>2021-11-07T10:10:36Z</time>
      </trkpt>
      <trkpt lat="46.57514" lon="0.17127">
        <ele>139.2</ele>
        <time>2021-11-07T10:10:37Z</time>
      </trkpt>
      <trkpt lat="46.57514" lon="0.17144">
        <ele>140.4</ele>
        <time>2021-11-07T10:10:40Z</time>
      </trkpt>
      <trkpt lat="46.57513" lon="0.17162">
        <ele>140.8</ele>
        <time>2021-11-07T10:10:43Z</time>
      </trkpt>
      <trkpt lat="46.57509" lon="0.17199">
        <ele>140.6</ele>
        <time>2021-11-07T10:10:50Z</time>
      </trkpt>
      <trkpt lat="46.57506" lon="0.17228">
        <ele>140.8</ele>
        <time>2021-11-07T10:10:56Z</time>
      </trkpt>
      <trkpt lat="46.57505" lon="0.17268">
        <ele>141</ele>
        <time>2021-11-07T10:11:04Z</time>
      </trkpt>
      <trkpt lat="46.57506" lon="0.17307">
        <ele>141.2</ele>
        <time>2021-11-07T10:11:12Z</time>
      </trkpt>
      <trkpt lat="46.57507" lon="0.17344">
        <ele>141.4</ele>
        <time>2021-11-07T10:11:19Z</time>
      </trkpt>
      <trkpt lat="46.57507" lon="0.1735">
        <ele>141.4</ele>
        <time>2021-11-07T10:11:20Z</time>
      </trkpt>
      <trkpt lat="46.57508" lon="0.17393">
        <ele>141</ele>
        <time>2021-11-07T10:11:28Z</time>
      </trkpt>
      <trkpt lat="46.57504" lon="0.17437">
        <ele>141.4</ele>
        <time>2021-11-07T10:11:36Z</time>
      </trkpt>
      <trkpt lat="46.57496" lon="0.17467">
        <ele>141.6</ele>
        <time>2021-11-07T10:11:43Z</time>
      </trkpt>
      <trkpt lat="46.57486" lon="0.17503">
        <ele>142.6</ele>
        <time>2021-11-07T10:11:50Z</time>
      </trkpt>
      <trkpt lat="46.57473" lon="0.17548">
        <ele>142.8</ele>
        <time>2021-11-07T10:11:58Z</time>
      </trkpt>
      <trkpt lat="46.57455" lon="0.17596">
        <ele>142.4</ele>
        <time>2021-11-07T10:12:06Z</time>
      </trkpt>
      <trkpt lat="46.57448" lon="0.17618">
        <ele>141.6</ele>
        <time>2021-11-07T10:12:11Z</time>
      </trkpt>
      <trkpt lat="46.5744" lon="0.1766">
        <ele>142.2</ele>
        <time>2021-11-07T10:12:19Z</time>
      </trkpt>
      <trkpt lat="46.57437" lon="0.17679">
        <ele>142.2</ele>
        <time>2021-11-07T10:12:23Z</time>
      </trkpt>
      <trkpt lat="46.57434" lon="0.17698">
        <ele>142</ele>
        <time>2021-11-07T10:12:27Z</time>
      </trkpt>
      <trkpt lat="46.57432" lon="0.17707">
        <ele>142.2</ele>
        <time>2021-11-07T10:12:29Z</time>
      </trkpt>
      <trkpt lat="46.57427" lon="0.17725">
        <ele>141.6</ele>
        <time>2021-11-07T10:12:34Z</time>
      </trkpt>
      <trkpt lat="46.57425" lon="0.17734">
        <ele>141.2</ele>
        <time>2021-11-07T10:12:36Z</time>
      </trkpt>
      <trkpt lat="46.57423" lon="0.17745">
        <ele>140.8</ele>
        <time>2021-11-07T10:12:39Z</time>
      </trkpt>
      <trkpt lat="46.5742" lon="0.17752">
        <ele>140.6</ele>
        <time>2021-11-07T10:12:41Z</time>
      </trkpt>
      <trkpt lat="46.57413" lon="0.17775">
        <ele>140.6</ele>
        <time>2021-11-07T10:12:45Z</time>
      </trkpt>
      <trkpt lat="46.57405" lon="0.17799">
        <ele>140.6</ele>
        <time>2021-11-07T10:12:49Z</time>
      </trkpt>
      <trkpt lat="46.57401" lon="0.17808">
        <ele>140.6</ele>
        <time>2021-11-07T10:12:51Z</time>
      </trkpt>
      <trkpt lat="46.57385" lon="0.17844">
        <ele>139.2</ele>
        <time>2021-11-07T10:12:56Z</time>
      </trkpt>
      <trkpt lat="46.57384" lon="0.17853">
        <ele>139.2</ele>
        <time>2021-11-07T10:12:57Z</time>
      </trkpt>
      <trkpt lat="46.57381" lon="0.17899">
        <ele>138.8</ele>
        <time>2021-11-07T10:13:03Z</time>
      </trkpt>
      <trkpt lat="46.57379" lon="0.17911">
        <ele>138.4</ele>
        <time>2021-11-07T10:13:05Z</time>
      </trkpt>
      <trkpt lat="46.57377" lon="0.17917">
        <ele>137.8</ele>
        <time>2021-11-07T10:13:06Z</time>
      </trkpt>
      <trkpt lat="46.57366" lon="0.17937">
        <ele>137</ele>
        <time>2021-11-07T10:13:09Z</time>
      </trkpt>
      <trkpt lat="46.57355" lon="0.17957">
        <ele>137</ele>
        <time>2021-11-07T10:13:14Z</time>
      </trkpt>
      <trkpt lat="46.57335" lon="0.17984">
        <ele>137.4</ele>
        <time>2021-11-07T10:13:20Z</time>
      </trkpt>
      <trkpt lat="46.57326" lon="0.17994">
        <ele>137.8</ele>
        <time>2021-11-07T10:13:25Z</time>
      </trkpt>
      <trkpt lat="46.57325" lon="0.17995">
        <ele>138.2</ele>
        <time>2021-11-07T10:13:26Z</time>
      </trkpt>
      <trkpt lat="46.57323" lon="0.17997">
        <ele>138.4</ele>
        <time>2021-11-07T10:13:27Z</time>
      </trkpt>
      <trkpt lat="46.57311" lon="0.18011">
        <ele>138.6</ele>
        <time>2021-11-07T10:13:31Z</time>
      </trkpt>
      <trkpt lat="46.57292" lon="0.18036">
        <ele>138.6</ele>
        <time>2021-11-07T10:13:37Z</time>
      </trkpt>
      <trkpt lat="46.57289" lon="0.1804">
        <ele>138.8</ele>
        <time>2021-11-07T10:13:38Z</time>
      </trkpt>
      <trkpt lat="46.57267" lon="0.18063">
        <ele>139.2</ele>
        <time>2021-11-07T10:13:44Z</time>
      </trkpt>
      <trkpt lat="46.57241" lon="0.18094">
        <ele>139.4</ele>
        <time>2021-11-07T10:13:52Z</time>
      </trkpt>
      <trkpt lat="46.57215" lon="0.18129">
        <ele>139.6</ele>
        <time>2021-11-07T10:14:01Z</time>
      </trkpt>
      <trkpt lat="46.57192" lon="0.18143">
        <ele>139.8</ele>
        <time>2021-11-07T10:14:08Z</time>
      </trkpt>
      <trkpt lat="46.57183" lon="0.18145">
        <ele>139.8</ele>
        <time>2021-11-07T10:14:11Z</time>
      </trkpt>
      <trkpt lat="46.57172" lon="0.18145">
        <ele>139.6</ele>
        <time>2021-11-07T10:14:14Z</time>
      </trkpt>
      <trkpt lat="46.57143" lon="0.18144">
        <ele>140</ele>
        <time>2021-11-07T10:14:21Z</time>
      </trkpt>
      <trkpt lat="46.57113" lon="0.18142">
        <ele>140</ele>
        <time>2021-11-07T10:14:29Z</time>
      </trkpt>
      <trkpt lat="46.57086" lon="0.18141">
        <ele>139.6</ele>
        <time>2021-11-07T10:14:36Z</time>
      </trkpt>
      <trkpt lat="46.57063" lon="0.18146">
        <ele>139.6</ele>
        <time>2021-11-07T10:14:43Z</time>
      </trkpt>
      <trkpt lat="46.5706" lon="0.1816">
        <ele>139.8</ele>
        <time>2021-11-07T10:14:46Z</time>
      </trkpt>
      <trkpt lat="46.5706" lon="0.18211">
        <ele>140.2</ele>
        <time>2021-11-07T10:14:54Z</time>
      </trkpt>
      <trkpt lat="46.57058" lon="0.18261">
        <ele>140.2</ele>
        <time>2021-11-07T10:15:01Z</time>
      </trkpt>
      <trkpt lat="46.57057" lon="0.183">
        <ele>139.8</ele>
        <time>2021-11-07T10:15:07Z</time>
      </trkpt>
      <trkpt lat="46.57055" lon="0.18348">
        <ele>139.8</ele>
        <time>2021-11-07T10:15:14Z</time>
      </trkpt>
      <trkpt lat="46.57054" lon="0.18408">
        <ele>139.4</ele>
        <time>2021-11-07T10:15:22Z</time>
      </trkpt>
      <trkpt lat="46.57049" lon="0.18468">
        <ele>139.8</ele>
        <time>2021-11-07T10:15:30Z</time>
      </trkpt>
      <trkpt lat="46.5704" lon="0.18537">
        <ele>139.8</ele>
        <time>2021-11-07T10:15:39Z</time>
      </trkpt>
      <trkpt lat="46.57032" lon="0.1859">
        <ele>139.8</ele>
        <time>2021-11-07T10:15:46Z</time>
      </trkpt>
      <trkpt lat="46.57025" lon="0.18646">
        <ele>140.2</ele>
        <time>2021-11-07T10:15:54Z</time>
      </trkpt>
      <trkpt lat="46.57018" lon="0.18705">
        <ele>140.2</ele>
        <time>2021-11-07T10:16:02Z</time>
      </trkpt>
      <trkpt lat="46.57012" lon="0.1877">
        <ele>139.8</ele>
        <time>2021-11-07T10:16:11Z</time>
      </trkpt>
      <trkpt lat="46.57007" lon="0.18812">
        <ele>139.8</ele>
        <time>2021-11-07T10:16:17Z</time>
      </trkpt>
      <trkpt lat="46.57" lon="0.18878">
        <ele>140</ele>
        <time>2021-11-07T10:16:26Z</time>
      </trkpt>
      <trkpt lat="46.56992" lon="0.18951">
        <ele>140.2</ele>
        <time>2021-11-07T10:16:36Z</time>
      </trkpt>
      <trkpt lat="46.56987" lon="0.19008">
        <ele>140</ele>
        <time>2021-11-07T10:16:44Z</time>
      </trkpt>
      <trkpt lat="46.56983" lon="0.19053">
        <ele>139.8</ele>
        <time>2021-11-07T10:16:51Z</time>
      </trkpt>
      <trkpt lat="46.56977" lon="0.19112">
        <ele>140.2</ele>
        <time>2021-11-07T10:16:59Z</time>
      </trkpt>
      <trkpt lat="46.56971" lon="0.19164">
        <ele>140.4</ele>
        <time>2021-11-07T10:17:06Z</time>
      </trkpt>
      <trkpt lat="46.56967" lon="0.19211">
        <ele>140.4</ele>
        <time>2021-11-07T10:17:13Z</time>
      </trkpt>
      <trkpt lat="46.56963" lon="0.19274">
        <ele>140.4</ele>
        <time>2021-11-07T10:17:22Z</time>
      </trkpt>
      <trkpt lat="46.56961" lon="0.1931">
        <ele>140.2</ele>
        <time>2021-11-07T10:17:27Z</time>
      </trkpt>
      <trkpt lat="46.56961" lon="0.19324">
        <ele>140</ele>
        <time>2021-11-07T10:17:29Z</time>
      </trkpt>
      <trkpt lat="46.56959" lon="0.19342">
        <ele>140</ele>
        <time>2021-11-07T10:17:32Z</time>
      </trkpt>
      <trkpt lat="46.56956" lon="0.19355">
        <ele>140</ele>
        <time>2021-11-07T10:17:34Z</time>
      </trkpt>
      <trkpt lat="46.56952" lon="0.19368">
        <ele>139.8</ele>
        <time>2021-11-07T10:17:36Z</time>
      </trkpt>
      <trkpt lat="46.56946" lon="0.19396">
        <ele>139.4</ele>
        <time>2021-11-07T10:17:40Z</time>
      </trkpt>
      <trkpt lat="46.56941" lon="0.19427">
        <ele>138.8</ele>
        <time>2021-11-07T10:17:45Z</time>
      </trkpt>
      <trkpt lat="46.5694" lon="0.19431">
        <ele>138.4</ele>
        <time>2021-11-07T10:17:46Z</time>
      </trkpt>
      <trkpt lat="46.56941" lon="0.19436">
        <ele>138.2</ele>
        <time>2021-11-07T10:17:48Z</time>
      </trkpt>
      <trkpt lat="46.56944" lon="0.19437">
        <ele>138.2</ele>
        <time>2021-11-07T10:17:50Z</time>
      </trkpt>
      <trkpt lat="46.56946" lon="0.19442">
        <ele>138</ele>
        <time>2021-11-07T10:17:54Z</time>
      </trkpt>
      <trkpt lat="46.56946" lon="0.19444">
        <ele>137.6</ele>
        <time>2021-11-07T10:18:01Z</time>
      </trkpt>
      <trkpt lat="46.56946" lon="0.19444">
        <ele>137.6</ele>
        <time>2021-11-07T10:18:04Z</time>
      </trkpt>
      <trkpt lat="46.56946" lon="0.19444">
        <ele>137.6</ele>
        <time>2021-11-07T10:18:17Z</time>
      </trkpt>
      <trkpt lat="46.56946" lon="0.19445">
        <ele>137.6</ele>
        <time>2021-11-07T10:18:36Z</time>
      </trkpt>
      <trkpt lat="46.56946" lon="0.19444">
        <ele>137.6</ele>
        <time>2021-11-07T10:18:46Z</time>
      </trkpt>
      <trkpt lat="46.56946" lon="0.19444">
        <ele>137.6</ele>
        <time>2021-11-07T10:18:53Z</time>
      </trkpt>
      <trkpt lat="46.56946" lon="0.19444">
        <ele>137.6</ele>
        <time>2021-11-07T10:19:22Z</time>
      </trkpt>
      <trkpt lat="46.56946" lon="0.19444">
        <ele>137.6</ele>
        <time>2021-11-07T10:19:43Z</time>
      </trkpt>
      <trkpt lat="46.56946" lon="0.19451">
        <ele>137.6</ele>
        <time>2021-11-07T10:32:22Z</time>
      </trkpt>
      <trkpt lat="46.56942" lon="0.19459">
        <ele>137</ele>
        <time>2021-11-07T10:32:36Z</time>
      </trkpt>
      <trkpt lat="46.56938" lon="0.1947">
        <ele>137.2</ele>
        <time>2021-11-07T10:32:40Z</time>
      </trkpt>
      <trkpt lat="46.56929" lon="0.19486">
        <ele>137.2</ele>
        <time>2021-11-07T10:32:45Z</time>
      </trkpt>
      <trkpt lat="46.56919" lon="0.19511">
        <ele>137.4</ele>
        <time>2021-11-07T10:32:51Z</time>
      </trkpt>
      <trkpt lat="46.56912" lon="0.19537">
        <ele>137.4</ele>
        <time>2021-11-07T10:32:57Z</time>
      </trkpt>
      <trkpt lat="46.56912" lon="0.19578">
        <ele>138</ele>
        <time>2021-11-07T10:33:04Z</time>
      </trkpt>
      <trkpt lat="46.56911" lon="0.19603">
        <ele>138.2</ele>
        <time>2021-11-07T10:33:09Z</time>
      </trkpt>
      <trkpt lat="46.56909" lon="0.19619">
        <ele>138.6</ele>
        <time>2021-11-07T10:33:13Z</time>
      </trkpt>
      <trkpt lat="46.5691" lon="0.19629">
        <ele>138.8</ele>
        <time>2021-11-07T10:33:15Z</time>
      </trkpt>
      <trkpt lat="46.56915" lon="0.19654">
        <ele>139</ele>
        <time>2021-11-07T10:33:20Z</time>
      </trkpt>
      <trkpt lat="46.5692" lon="0.19691">
        <ele>139.4</ele>
        <time>2021-11-07T10:33:27Z</time>
      </trkpt>
      <trkpt lat="46.5692" lon="0.19712">
        <ele>139.6</ele>
        <time>2021-11-07T10:33:31Z</time>
      </trkpt>
      <trkpt lat="46.56921" lon="0.19716">
        <ele>139.8</ele>
        <time>2021-11-07T10:33:32Z</time>
      </trkpt>
      <trkpt lat="46.56922" lon="0.1972">
        <ele>140</ele>
        <time>2021-11-07T10:33:33Z</time>
      </trkpt>
      <trkpt lat="46.56924" lon="0.19742">
        <ele>140</ele>
        <time>2021-11-07T10:33:39Z</time>
      </trkpt>
      <trkpt lat="46.56924" lon="0.19744">
        <ele>140</ele>
        <time>2021-11-07T10:33:40Z</time>
      </trkpt>
      <trkpt lat="46.56921" lon="0.19747">
        <ele>140.2</ele>
        <time>2021-11-07T10:33:43Z</time>
      </trkpt>
      <trkpt lat="46.56921" lon="0.19747">
        <ele>140.2</ele>
        <time>2021-11-07T10:33:44Z</time>
      </trkpt>
    </trkseg>
  </trk>
</gpx>